<?xml version='1.0' encoding='UTF-8'?><gpx version="1.1" creator="JPX - https://github.com/jenetics/jpx" xmlns="http://www.topografix.com/GPX/1/1"><trk><trkseg><trkpt lat="45.051992519279544" lon="9.597454408654425"><ele>59.00000000000001</ele><time>2026-04-02T12:51:00.191Z</time></trkpt><trkpt lat="45.0519787305395" lon="9.597340168363907"><ele>59.0</ele><time>2026-04-02T12:51:03.997Z</time></trkpt><trkpt lat="45.05197555060803" lon="9.597247558317518"><ele>59.0</ele><time>2026-04-02T12:51:05.984Z</time></trkpt><trkpt lat="45.051970800015354" lon="9.597145157090898"><ele>59.0</ele><time>2026-04-02T12:51:07.986Z</time></trkpt><trkpt lat="45.05201828606293" lon="9.597068317219067"><ele>59.00000000000001</ele><time>2026-04-02T12:51:09.988Z</time></trkpt><trkpt lat="45.05216732928289" lon="9.597058326464413"><ele>59.0</ele><time>2026-04-02T12:51:13.991Z</time></trkpt><trkpt lat="45.052239197144274" lon="9.59706303622955"><ele>59.00000000000001</ele><time>2026-04-02T12:51:15.992Z</time></trkpt><trkpt lat="45.05230703018693" lon="9.597056924123413"><ele>59.0</ele><time>2026-04-02T12:51:19.994Z</time></trkpt><trkpt lat="45.05235918492453" lon="9.596970071640092"><ele>59.0</ele><time>2026-04-02T12:51:21.995Z</time></trkpt><trkpt lat="45.05233535791503" lon="9.596875580663495"><ele>59.0</ele><time>2026-04-02T12:51:23.996Z</time></trkpt><trkpt lat="45.05231251067285" lon="9.596777537309933"><ele>59.00000000000001</ele><time>2026-04-02T12:51:25.996Z</time></trkpt><trkpt lat="45.0522901407578" lon="9.596681387555433"><ele>59.0</ele><time>2026-04-02T12:51:27.997Z</time></trkpt><trkpt lat="45.05226397099166" lon="9.596557920318235"><ele>59.14285714285714</ele><time>2026-04-02T12:51:30.998Z</time></trkpt><trkpt lat="45.05224543723975" lon="9.596451499880773"><ele>59.28571428571429</ele><time>2026-04-02T12:51:33.998Z</time></trkpt><trkpt lat="45.052213765805654" lon="9.596331228828262"><ele>59.42857142857143</ele><time>2026-04-02T12:51:36.999Z</time></trkpt><trkpt lat="45.05219904405322" lon="9.596242357996239"><ele>59.57142857142857</ele><time>2026-04-02T12:51:38.999Z</time></trkpt><trkpt lat="45.05218107445211" lon="9.59614239257774"><ele>59.71428571428571</ele><time>2026-04-02T12:51:40.999Z</time></trkpt><trkpt lat="45.05216554482569" lon="9.596055572407138"><ele>59.85714285714286</ele><time>2026-04-02T12:51:43Z</time></trkpt><trkpt lat="45.0521600891898" lon="9.595960089119027"><ele>60.0</ele><time>2026-04-02T12:51:45Z</time></trkpt><trkpt lat="45.05216534607496" lon="9.595870490001664"><ele>60.0</ele><time>2026-04-02T12:51:47Z</time></trkpt><trkpt lat="45.05215641654823" lon="9.595773008444228"><ele>60.0</ele><time>2026-04-02T12:51:49Z</time></trkpt><trkpt lat="45.05215356688469" lon="9.595678464937546"><ele>60.0</ele><time>2026-04-02T12:51:51Z</time></trkpt><trkpt lat="45.052152615298276" lon="9.595585708409466"><ele>60.0</ele><time>2026-04-02T12:51:53Z</time></trkpt><trkpt lat="45.05215528472438" lon="9.595457365131745"><ele>60.0</ele><time>2026-04-02T12:51:56Z</time></trkpt><trkpt lat="45.05215655094029" lon="9.595339836442937"><ele>60.0</ele><time>2026-04-02T12:51:59.001Z</time></trkpt><trkpt lat="45.05215300220305" lon="9.595231204080882"><ele>60.0</ele><time>2026-04-02T12:52:02.001Z</time></trkpt><trkpt lat="45.05215356496307" lon="9.59513699364986"><ele>60.0</ele><time>2026-04-02T12:52:04.001Z</time></trkpt><trkpt lat="45.05214812020716" lon="9.595031660067203"><ele>60.0</ele><time>2026-04-02T12:52:06.001Z</time></trkpt><trkpt lat="45.0521425040246" lon="9.594929299641775"><ele>60.0</ele><time>2026-04-02T12:52:08.001Z</time></trkpt><trkpt lat="45.0521415933963" lon="9.594824346517086"><ele>60.0</ele><time>2026-04-02T12:52:10.001Z</time></trkpt><trkpt lat="45.05214944396465" lon="9.594714788294148"><ele>60.0</ele><time>2026-04-02T12:52:12.001Z</time></trkpt><trkpt lat="45.052150993677095" lon="9.594601571728845"><ele>60.0</ele><time>2026-04-02T12:52:14.001Z</time></trkpt><trkpt lat="45.0521601001506" lon="9.594483779807815"><ele>59.833333333333336</ele><time>2026-04-02T12:52:16.001Z</time></trkpt><trkpt lat="45.05216470714598" lon="9.594364639673232"><ele>59.66666666666667</ele><time>2026-04-02T12:52:18.001Z</time></trkpt><trkpt lat="45.052166076438574" lon="9.594244428001165"><ele>59.5</ele><time>2026-04-02T12:52:20.001Z</time></trkpt><trkpt lat="45.05216331687931" lon="9.594129210499167"><ele>59.333333333333336</ele><time>2026-04-02T12:52:22.001Z</time></trkpt><trkpt lat="45.05216987041641" lon="9.59400789640488"><ele>59.16666666666667</ele><time>2026-04-02T12:52:24.001Z</time></trkpt><trkpt lat="45.052169971094436" lon="9.593892792441077"><ele>59.0</ele><time>2026-04-02T12:52:26.001Z</time></trkpt><trkpt lat="45.052172442437175" lon="9.593769293922943"><ele>59.00000000000001</ele><time>2026-04-02T12:52:28.001Z</time></trkpt><trkpt lat="45.05217273726273" lon="9.593646871475112"><ele>59.0</ele><time>2026-04-02T12:52:30.001Z</time></trkpt><trkpt lat="45.05217410932067" lon="9.593527092190334"><ele>59.0</ele><time>2026-04-02T12:52:32.001Z</time></trkpt><trkpt lat="45.052175918140335" lon="9.593404436605232"><ele>59.0</ele><time>2026-04-02T12:52:34.001Z</time></trkpt><trkpt lat="45.05217355554043" lon="9.593282737347456"><ele>59.00000000000001</ele><time>2026-04-02T12:52:36.001Z</time></trkpt><trkpt lat="45.052175123986075" lon="9.59315686539223"><ele>59.0</ele><time>2026-04-02T12:52:38.001Z</time></trkpt><trkpt lat="45.052176248053925" lon="9.593040198748309"><ele>59.00000000000001</ele><time>2026-04-02T12:52:40.001Z</time></trkpt><trkpt lat="45.05216926147891" lon="9.592918348133832"><ele>59.0</ele><time>2026-04-02T12:52:42.001Z</time></trkpt><trkpt lat="45.052173574947965" lon="9.592792282850644"><ele>59.0</ele><time>2026-04-02T12:52:44.001Z</time></trkpt><trkpt lat="45.05216910542725" lon="9.59266797670051"><ele>59.0</ele><time>2026-04-02T12:52:46.001Z</time></trkpt><trkpt lat="45.052163915614095" lon="9.592541731295395"><ele>59.00000000000001</ele><time>2026-04-02T12:52:48.001Z</time></trkpt><trkpt lat="45.05215985070049" lon="9.592415249994968"><ele>59.0</ele><time>2026-04-02T12:52:50.001Z</time></trkpt><trkpt lat="45.05214795316898" lon="9.592292188608116"><ele>59.16666666666667</ele><time>2026-04-02T12:52:52.001Z</time></trkpt><trkpt lat="45.052140940707545" lon="9.592170018968112"><ele>59.333333333333336</ele><time>2026-04-02T12:52:54.001Z</time></trkpt><trkpt lat="45.05212789178752" lon="9.592048504449222"><ele>59.5</ele><time>2026-04-02T12:52:56.001Z</time></trkpt><trkpt lat="45.05211618273453" lon="9.591926428861091"><ele>59.66666666666667</ele><time>2026-04-02T12:52:58.001Z</time></trkpt><trkpt lat="45.052101773147186" lon="9.591807326554145"><ele>59.833333333333336</ele><time>2026-04-02T12:53:00.001Z</time></trkpt><trkpt lat="45.05208975460921" lon="9.591683615485076"><ele>60.0</ele><time>2026-04-02T12:53:02.001Z</time></trkpt><trkpt lat="45.05207447891357" lon="9.59156105104106"><ele>60.333333333333336</ele><time>2026-04-02T12:53:04.001Z</time></trkpt><trkpt lat="45.052064891923145" lon="9.591441396855368"><ele>60.66666666666667</ele><time>2026-04-02T12:53:06.001Z</time></trkpt><trkpt lat="45.052050541331795" lon="9.591314026419894"><ele>61.0</ele><time>2026-04-02T12:53:08.001Z</time></trkpt><trkpt lat="45.05203978668643" lon="9.591196063819911"><ele>61.333333333333336</ele><time>2026-04-02T12:53:10.001Z</time></trkpt><trkpt lat="45.05202268402551" lon="9.591077287553924"><ele>61.66666666666667</ele><time>2026-04-02T12:53:12.001Z</time></trkpt><trkpt lat="45.05201145074735" lon="9.59095283066737"><ele>62.0</ele><time>2026-04-02T12:53:14.001Z</time></trkpt><trkpt lat="45.051995559731054" lon="9.590832936674376"><ele>62.00000000000001</ele><time>2026-04-02T12:53:16.001Z</time></trkpt><trkpt lat="45.05198189093692" lon="9.59071768765997"><ele>62.0</ele><time>2026-04-02T12:53:18.001Z</time></trkpt><trkpt lat="45.051965561443566" lon="9.59059892619406"><ele>62.0</ele><time>2026-04-02T12:53:20.001Z</time></trkpt><trkpt lat="45.05195764943814" lon="9.590470401250874"><ele>62.0</ele><time>2026-04-02T12:53:22.001Z</time></trkpt><trkpt lat="45.051944627712636" lon="9.59034817973191"><ele>62.00000000000001</ele><time>2026-04-02T12:53:24.001Z</time></trkpt><trkpt lat="45.05193231021595" lon="9.590226582443563"><ele>62.0</ele><time>2026-04-02T12:53:26.001Z</time></trkpt><trkpt lat="45.05192763649602" lon="9.590105199950631"><ele>61.833333333333336</ele><time>2026-04-02T12:53:28.001Z</time></trkpt><trkpt lat="45.05191400000953" lon="9.58999048001393"><ele>61.66666666666667</ele><time>2026-04-02T12:53:30.001Z</time></trkpt><trkpt lat="45.05189901951615" lon="9.589873142309745"><ele>61.5</ele><time>2026-04-02T12:53:32.001Z</time></trkpt><trkpt lat="45.05188367877789" lon="9.589753592686858"><ele>61.33333333333333</ele><time>2026-04-02T12:53:34.001Z</time></trkpt><trkpt lat="45.05187312393147" lon="9.589635175563346"><ele>61.166666666666664</ele><time>2026-04-02T12:53:36.001Z</time></trkpt><trkpt lat="45.05186097961703" lon="9.589516641170091"><ele>61.0</ele><time>2026-04-02T12:53:38.001Z</time></trkpt><trkpt lat="45.05184767454503" lon="9.589406651289293"><ele>60.99999999999999</ele><time>2026-04-02T12:53:40.001Z</time></trkpt><trkpt lat="45.05182810136526" lon="9.589288350714382"><ele>61.0</ele><time>2026-04-02T12:53:42.001Z</time></trkpt><trkpt lat="45.0517957096586" lon="9.589183058859458"><ele>61.0</ele><time>2026-04-02T12:53:44.001Z</time></trkpt><trkpt lat="45.051763857244" lon="9.589063119739802"><ele>61.0</ele><time>2026-04-02T12:53:46.001Z</time></trkpt><trkpt lat="45.05172789137768" lon="9.58895718350464"><ele>60.99999999999999</ele><time>2026-04-02T12:53:48.001Z</time></trkpt><trkpt lat="45.05169304126468" lon="9.588850781545956"><ele>61.0</ele><time>2026-04-02T12:53:50.001Z</time></trkpt><trkpt lat="45.051659749112936" lon="9.588752984812874"><ele>61.33333333333333</ele><time>2026-04-02T12:53:52.001Z</time></trkpt><trkpt lat="45.05161493366016" lon="9.588656697799335"><ele>61.666666666666664</ele><time>2026-04-02T12:53:54.001Z</time></trkpt><trkpt lat="45.05155553907132" lon="9.588562771275082"><ele>62.0</ele><time>2026-04-02T12:53:56.001Z</time></trkpt><trkpt lat="45.05150395324054" lon="9.58846868805494"><ele>62.33333333333333</ele><time>2026-04-02T12:53:58.001Z</time></trkpt><trkpt lat="45.051435280084846" lon="9.588381023359668"><ele>62.666666666666664</ele><time>2026-04-02T12:54:00.001Z</time></trkpt><trkpt lat="45.05138110570791" lon="9.588294831204642"><ele>63.0</ele><time>2026-04-02T12:54:02.001Z</time></trkpt><trkpt lat="45.05131981005112" lon="9.588221308840772"><ele>63.0</ele><time>2026-04-02T12:54:04.001Z</time></trkpt><trkpt lat="45.05126504935328" lon="9.58813384589777"><ele>63.0</ele><time>2026-04-02T12:54:06.001Z</time></trkpt><trkpt lat="45.05120406788576" lon="9.588058283392252"><ele>63.0</ele><time>2026-04-02T12:54:08.001Z</time></trkpt><trkpt lat="45.05114654748319" lon="9.587980397280647"><ele>63.0</ele><time>2026-04-02T12:54:10.001Z</time></trkpt><trkpt lat="45.05108558278945" lon="9.58790058821233"><ele>63.0</ele><time>2026-04-02T12:54:12.001Z</time></trkpt><trkpt lat="45.05102913200207" lon="9.587817754424218"><ele>63.0</ele><time>2026-04-02T12:54:14.001Z</time></trkpt><trkpt lat="45.0509685409283" lon="9.587731551675194"><ele>62.833333333333336</ele><time>2026-04-02T12:54:16.001Z</time></trkpt><trkpt lat="45.05090908845785" lon="9.587645944294344"><ele>62.66666666666667</ele><time>2026-04-02T12:54:18.001Z</time></trkpt><trkpt lat="45.05084721291483" lon="9.587562018721762"><ele>62.5</ele><time>2026-04-02T12:54:20.001Z</time></trkpt><trkpt lat="45.050785256382575" lon="9.587483465409049"><ele>62.333333333333336</ele><time>2026-04-02T12:54:22.001Z</time></trkpt><trkpt lat="45.05072335445717" lon="9.587413851443959"><ele>62.16666666666667</ele><time>2026-04-02T12:54:24.001Z</time></trkpt><trkpt lat="45.05067480524981" lon="9.58733601452763"><ele>62.0</ele><time>2026-04-02T12:54:26.001Z</time></trkpt><trkpt lat="45.05062172147939" lon="9.587271269543008"><ele>62.00000000000001</ele><time>2026-04-02T12:54:28.001Z</time></trkpt><trkpt lat="45.050569831453025" lon="9.587204725372557"><ele>62.0</ele><time>2026-04-02T12:54:30.001Z</time></trkpt><trkpt lat="45.05052745630962" lon="9.587135689887377"><ele>62.0</ele><time>2026-04-02T12:54:32.001Z</time></trkpt><trkpt lat="45.05046376315337" lon="9.587050862434777"><ele>62.0</ele><time>2026-04-02T12:54:35.001Z</time></trkpt><trkpt lat="45.05039380312597" lon="9.586951813020137"><ele>62.00000000000001</ele><time>2026-04-02T12:54:38.001Z</time></trkpt><trkpt lat="45.05033170913341" lon="9.586875630799938"><ele>62.0</ele><time>2026-04-02T12:54:40.001Z</time></trkpt><trkpt lat="45.05028046634386" lon="9.586791558853731"><ele>61.833333333333336</ele><time>2026-04-02T12:54:42.001Z</time></trkpt><trkpt lat="45.05022175409218" lon="9.586709685226365"><ele>61.66666666666667</ele><time>2026-04-02T12:54:44.001Z</time></trkpt><trkpt lat="45.05015506464583" lon="9.586632684126785"><ele>61.5</ele><time>2026-04-02T12:54:46.001Z</time></trkpt><trkpt lat="45.0500933148409" lon="9.586547162455513"><ele>61.33333333333333</ele><time>2026-04-02T12:54:48.001Z</time></trkpt><trkpt lat="45.05002880292187" lon="9.586460160075509"><ele>61.166666666666664</ele><time>2026-04-02T12:54:50.001Z</time></trkpt><trkpt lat="45.04996776993495" lon="9.586374760611722"><ele>61.0</ele><time>2026-04-02T12:54:52.001Z</time></trkpt><trkpt lat="45.04990843205429" lon="9.586299236110426"><ele>60.99999999999999</ele><time>2026-04-02T12:54:54.001Z</time></trkpt><trkpt lat="45.04984115575368" lon="9.586222110758394"><ele>61.0</ele><time>2026-04-02T12:54:56.001Z</time></trkpt><trkpt lat="45.04978745208403" lon="9.586148464280521"><ele>61.0</ele><time>2026-04-02T12:54:58.001Z</time></trkpt><trkpt lat="45.04972382398893" lon="9.58607144977274"><ele>61.0</ele><time>2026-04-02T12:55:00.001Z</time></trkpt><trkpt lat="45.049673115690894" lon="9.58597335406713"><ele>60.99999999999999</ele><time>2026-04-02T12:55:02.001Z</time></trkpt><trkpt lat="45.04961749285378" lon="9.585881096940648"><ele>61.0</ele><time>2026-04-02T12:55:04.001Z</time></trkpt><trkpt lat="45.04956971957786" lon="9.585771270003173"><ele>61.166666666666664</ele><time>2026-04-02T12:55:06.001Z</time></trkpt><trkpt lat="45.04952894387131" lon="9.585659680974512"><ele>61.33333333333333</ele><time>2026-04-02T12:55:08.001Z</time></trkpt><trkpt lat="45.04948219494962" lon="9.585550277862215"><ele>61.5</ele><time>2026-04-02T12:55:10.001Z</time></trkpt><trkpt lat="45.04943292004816" lon="9.585449494436846"><ele>61.66666666666667</ele><time>2026-04-02T12:55:12.001Z</time></trkpt><trkpt lat="45.049380887470264" lon="9.585345214589658"><ele>61.833333333333336</ele><time>2026-04-02T12:55:14.001Z</time></trkpt><trkpt lat="45.0493368764779" lon="9.585238674561316"><ele>62.0</ele><time>2026-04-02T12:55:16.001Z</time></trkpt><trkpt lat="45.049296006845466" lon="9.585137677006928"><ele>62.16666666666667</ele><time>2026-04-02T12:55:18.001Z</time></trkpt><trkpt lat="45.04924832045142" lon="9.585029691571613"><ele>62.333333333333336</ele><time>2026-04-02T12:55:20.001Z</time></trkpt><trkpt lat="45.04920504638795" lon="9.584926797261842"><ele>62.5</ele><time>2026-04-02T12:55:22.001Z</time></trkpt><trkpt lat="45.049159442712956" lon="9.58481813818967"><ele>62.66666666666667</ele><time>2026-04-02T12:55:24.001Z</time></trkpt><trkpt lat="45.049117936345944" lon="9.5847158242936"><ele>62.833333333333336</ele><time>2026-04-02T12:55:26.001Z</time></trkpt><trkpt lat="45.04907373840442" lon="9.584605043623204"><ele>63.0</ele><time>2026-04-02T12:55:28.001Z</time></trkpt><trkpt lat="45.04902219735481" lon="9.58452090209133"><ele>62.833333333333336</ele><time>2026-04-02T12:55:30.001Z</time></trkpt><trkpt lat="45.04898260738491" lon="9.584409459028556"><ele>62.66666666666667</ele><time>2026-04-02T12:55:32.001Z</time></trkpt><trkpt lat="45.04893851126564" lon="9.584301445635434"><ele>62.5</ele><time>2026-04-02T12:55:34.001Z</time></trkpt><trkpt lat="45.048889388430766" lon="9.584196527552502"><ele>62.333333333333336</ele><time>2026-04-02T12:55:36.001Z</time></trkpt><trkpt lat="45.04884971525854" lon="9.58409470366089"><ele>62.16666666666667</ele><time>2026-04-02T12:55:38.001Z</time></trkpt><trkpt lat="45.04880308147264" lon="9.583986343372757"><ele>62.0</ele><time>2026-04-02T12:55:40.001Z</time></trkpt><trkpt lat="45.048756474863914" lon="9.583883773108845"><ele>62.00000000000001</ele><time>2026-04-02T12:55:42.001Z</time></trkpt><trkpt lat="45.04871496465456" lon="9.583773995554926"><ele>62.0</ele><time>2026-04-02T12:55:44.001Z</time></trkpt><trkpt lat="45.04866834821081" lon="9.583666886928517"><ele>62.0</ele><time>2026-04-02T12:55:46.001Z</time></trkpt><trkpt lat="45.048624046488065" lon="9.58356113060891"><ele>62.0</ele><time>2026-04-02T12:55:48.001Z</time></trkpt><trkpt lat="45.04857998240528" lon="9.58344942924855"><ele>62.00000000000001</ele><time>2026-04-02T12:55:50.001Z</time></trkpt><trkpt lat="45.04853493040637" lon="9.583341339193545"><ele>62.0</ele><time>2026-04-02T12:55:52.001Z</time></trkpt><trkpt lat="45.0484882599289" lon="9.583232457232782"><ele>62.0</ele><time>2026-04-02T12:55:54.001Z</time></trkpt><trkpt lat="45.04844205370445" lon="9.583124655249236"><ele>62.0</ele><time>2026-04-02T12:55:56.001Z</time></trkpt><trkpt lat="45.048401091647165" lon="9.583013112671997"><ele>62.0</ele><time>2026-04-02T12:55:58.001Z</time></trkpt><trkpt lat="45.04835539030669" lon="9.5829010510427"><ele>62.0</ele><time>2026-04-02T12:56:00.001Z</time></trkpt><trkpt lat="45.04830848419933" lon="9.582791982708404"><ele>62.0</ele><time>2026-04-02T12:56:02.001Z</time></trkpt><trkpt lat="45.04826210482549" lon="9.582680557845148"><ele>62.16666666666667</ele><time>2026-04-02T12:56:04.001Z</time></trkpt><trkpt lat="45.048216107472015" lon="9.582565490216567"><ele>62.333333333333336</ele><time>2026-04-02T12:56:06.001Z</time></trkpt><trkpt lat="45.048171491533665" lon="9.582462863503661"><ele>62.5</ele><time>2026-04-02T12:56:08.001Z</time></trkpt><trkpt lat="45.04812771798377" lon="9.582359028523092"><ele>62.66666666666667</ele><time>2026-04-02T12:56:10.001Z</time></trkpt><trkpt lat="45.048083016562835" lon="9.58225600439392"><ele>62.833333333333336</ele><time>2026-04-02T12:56:12.001Z</time></trkpt><trkpt lat="45.04802920236169" lon="9.582161490505001"><ele>63.0</ele><time>2026-04-02T12:56:14.001Z</time></trkpt><trkpt lat="45.04798717978808" lon="9.582057516076521"><ele>63.0</ele><time>2026-04-02T12:56:16.001Z</time></trkpt><trkpt lat="45.047938207316136" lon="9.581942796406008"><ele>63.0</ele><time>2026-04-02T12:56:18.001Z</time></trkpt><trkpt lat="45.047888948184635" lon="9.581837209456872"><ele>63.0</ele><time>2026-04-02T12:56:20.001Z</time></trkpt><trkpt lat="45.04783915053814" lon="9.58173106543101"><ele>63.0</ele><time>2026-04-02T12:56:22.001Z</time></trkpt><trkpt lat="45.04779481776503" lon="9.581619885215524"><ele>63.0</ele><time>2026-04-02T12:56:24.001Z</time></trkpt><trkpt lat="45.04774703054181" lon="9.581511506189377"><ele>63.0</ele><time>2026-04-02T12:56:26.001Z</time></trkpt><trkpt lat="45.04770157149399" lon="9.581406009983565"><ele>63.0</ele><time>2026-04-02T12:56:28.001Z</time></trkpt><trkpt lat="45.04765826839464" lon="9.58129799054588"><ele>63.0</ele><time>2026-04-02T12:56:30.001Z</time></trkpt><trkpt lat="45.047612463570225" lon="9.58118818561681"><ele>63.0</ele><time>2026-04-02T12:56:32.001Z</time></trkpt><trkpt lat="45.04757446774845" lon="9.581079037339167"><ele>63.0</ele><time>2026-04-02T12:56:34.001Z</time></trkpt><trkpt lat="45.04752671785567" lon="9.58097524842215"><ele>63.0</ele><time>2026-04-02T12:56:36.001Z</time></trkpt><trkpt lat="45.04748565925287" lon="9.580862377520516"><ele>63.0</ele><time>2026-04-02T12:56:38.001Z</time></trkpt><trkpt lat="45.04743845455204" lon="9.58074601690699"><ele>63.0</ele><time>2026-04-02T12:56:40.001Z</time></trkpt><trkpt lat="45.04739943305391" lon="9.580642157837914"><ele>63.0</ele><time>2026-04-02T12:56:42.001Z</time></trkpt><trkpt lat="45.0473542482684" lon="9.580526637150895"><ele>63.0</ele><time>2026-04-02T12:56:44.001Z</time></trkpt><trkpt lat="45.047309644409545" lon="9.58041176139425"><ele>63.0</ele><time>2026-04-02T12:56:46.001Z</time></trkpt><trkpt lat="45.047264376390785" lon="9.580301020328578"><ele>62.8</ele><time>2026-04-02T12:56:48.001Z</time></trkpt><trkpt lat="45.04721624747259" lon="9.580185109599832"><ele>62.599999999999994</ele><time>2026-04-02T12:56:50.001Z</time></trkpt><trkpt lat="45.047175293526415" lon="9.580073293583645"><ele>62.400000000000006</ele><time>2026-04-02T12:56:52.001Z</time></trkpt><trkpt lat="45.0471263473319" lon="9.579968752286225"><ele>62.2</ele><time>2026-04-02T12:56:54.001Z</time></trkpt><trkpt lat="45.0470796884612" lon="9.579856139181917"><ele>62.0</ele><time>2026-04-02T12:56:56.001Z</time></trkpt><trkpt lat="45.047034570835116" lon="9.579748485876591"><ele>62.0</ele><time>2026-04-02T12:56:58.001Z</time></trkpt><trkpt lat="45.04698679984885" lon="9.57964229330684"><ele>62.0</ele><time>2026-04-02T12:57:00.001Z</time></trkpt><trkpt lat="45.04694038718479" lon="9.579527687122678"><ele>62.0</ele><time>2026-04-02T12:57:02.001Z</time></trkpt><trkpt lat="45.046894777002834" lon="9.579417173072253"><ele>62.0</ele><time>2026-04-02T12:57:04.001Z</time></trkpt><trkpt lat="45.046848510141714" lon="9.5793078539218"><ele>62.0</ele><time>2026-04-02T12:57:06.001Z</time></trkpt><trkpt lat="45.04680543265686" lon="9.579199502506214"><ele>62.0</ele><time>2026-04-02T12:57:08.001Z</time></trkpt><trkpt lat="45.046773972829044" lon="9.57909486349159"><ele>62.00000000000001</ele><time>2026-04-02T12:57:10.001Z</time></trkpt><trkpt lat="45.04673842600391" lon="9.578996266045598"><ele>62.0</ele><time>2026-04-02T12:57:12.001Z</time></trkpt><trkpt lat="45.04670703425136" lon="9.578905427024441"><ele>62.0</ele><time>2026-04-02T12:57:14.001Z</time></trkpt><trkpt lat="45.04667788920959" lon="9.578816389400297"><ele>62.00000000000001</ele><time>2026-04-02T12:57:16.001Z</time></trkpt><trkpt lat="45.04665347390898" lon="9.578729148758583"><ele>62.0</ele><time>2026-04-02T12:57:18.001Z</time></trkpt><trkpt lat="45.04662561761321" lon="9.578647559122883"><ele>62.0</ele><time>2026-04-02T12:57:20.001Z</time></trkpt><trkpt lat="45.046586883584936" lon="9.578531403628732"><ele>62.0</ele><time>2026-04-02T12:57:23.001Z</time></trkpt><trkpt lat="45.04655723598086" lon="9.578419301382072"><ele>62.00000000000001</ele><time>2026-04-02T12:57:26.001Z</time></trkpt><trkpt lat="45.04651948833373" lon="9.578321016134055"><ele>62.0</ele><time>2026-04-02T12:57:29.001Z</time></trkpt><trkpt lat="45.04649666959091" lon="9.578221654999467"><ele>62.0</ele><time>2026-04-02T12:57:31.001Z</time></trkpt><trkpt lat="45.046463399496126" lon="9.578142205563514"><ele>62.00000000000001</ele><time>2026-04-02T12:57:33.001Z</time></trkpt><trkpt lat="45.04642944016349" lon="9.578052824939387"><ele>62.0</ele><time>2026-04-02T12:57:35.001Z</time></trkpt><trkpt lat="45.04639486336082" lon="9.577967439117442"><ele>62.0</ele><time>2026-04-02T12:57:37Z</time></trkpt><trkpt lat="45.04636837436477" lon="9.577879932355406"><ele>61.85714285714286</ele><time>2026-04-02T12:57:39Z</time></trkpt><trkpt lat="45.046336328158105" lon="9.577792987610284"><ele>61.71428571428572</ele><time>2026-04-02T12:57:41Z</time></trkpt><trkpt lat="45.046304832565596" lon="9.577712204351991"><ele>61.57142857142857</ele><time>2026-04-02T12:57:43Z</time></trkpt><trkpt lat="45.04627124048368" lon="9.577625987452524"><ele>61.42857142857143</ele><time>2026-04-02T12:57:45Z</time></trkpt><trkpt lat="45.046248431828865" lon="9.577534870746895"><ele>61.285714285714285</ele><time>2026-04-02T12:57:47Z</time></trkpt><trkpt lat="45.04621185952375" lon="9.577442155130376"><ele>61.14285714285714</ele><time>2026-04-02T12:57:49Z</time></trkpt><trkpt lat="45.0461789494719" lon="9.577352942083277"><ele>60.99999999999999</ele><time>2026-04-02T12:57:51Z</time></trkpt><trkpt lat="45.04614926153913" lon="9.577255408450545"><ele>60.99999999999999</ele><time>2026-04-02T12:57:53Z</time></trkpt><trkpt lat="45.04611251800702" lon="9.577164021878861"><ele>61.0</ele><time>2026-04-02T12:57:55Z</time></trkpt><trkpt lat="45.04607970591828" lon="9.577060761426797"><ele>60.99999999999999</ele><time>2026-04-02T12:57:57Z</time></trkpt><trkpt lat="45.04605025202756" lon="9.57697152482256"><ele>60.99999999999999</ele><time>2026-04-02T12:57:59Z</time></trkpt><trkpt lat="45.046015925967346" lon="9.576871844785643"><ele>61.0</ele><time>2026-04-02T12:58:01Z</time></trkpt><trkpt lat="45.04598650952423" lon="9.576781176475937"><ele>60.99999999999999</ele><time>2026-04-02T12:58:03Z</time></trkpt><trkpt lat="45.04595173007987" lon="9.576687673824404"><ele>60.99999999999999</ele><time>2026-04-02T12:58:05Z</time></trkpt><trkpt lat="45.04591938386266" lon="9.576599649900489"><ele>61.14285714285714</ele><time>2026-04-02T12:58:07Z</time></trkpt><trkpt lat="45.04588609242685" lon="9.576505905940646"><ele>61.285714285714285</ele><time>2026-04-02T12:58:09Z</time></trkpt><trkpt lat="45.045859952526214" lon="9.576414820049907"><ele>61.42857142857143</ele><time>2026-04-02T12:58:11Z</time></trkpt><trkpt lat="45.04582523128954" lon="9.576325262277996"><ele>61.57142857142857</ele><time>2026-04-02T12:58:13Z</time></trkpt><trkpt lat="45.04579585175702" lon="9.57622573267338"><ele>61.71428571428572</ele><time>2026-04-02T12:58:15Z</time></trkpt><trkpt lat="45.04576644302323" lon="9.57613194341191"><ele>61.85714285714286</ele><time>2026-04-02T12:58:17Z</time></trkpt><trkpt lat="45.04573084913687" lon="9.576039860303316"><ele>62.0</ele><time>2026-04-02T12:58:19Z</time></trkpt><trkpt lat="45.04569885191993" lon="9.575939554051269"><ele>62.142857142857146</ele><time>2026-04-02T12:58:21Z</time></trkpt><trkpt lat="45.0456727489952" lon="9.575844744307297"><ele>62.28571428571429</ele><time>2026-04-02T12:58:23Z</time></trkpt><trkpt lat="45.04563789305031" lon="9.575752527407491"><ele>62.42857142857143</ele><time>2026-04-02T12:58:25Z</time></trkpt><trkpt lat="45.045609090281786" lon="9.575657996660167"><ele>62.57142857142857</ele><time>2026-04-02T12:58:27Z</time></trkpt><trkpt lat="45.045574637150956" lon="9.575565416740861"><ele>62.714285714285715</ele><time>2026-04-02T12:58:29Z</time></trkpt><trkpt lat="45.04554360546992" lon="9.575463320105024"><ele>62.85714285714286</ele><time>2026-04-02T12:58:31Z</time></trkpt><trkpt lat="45.045513356633116" lon="9.575375438447132"><ele>63.0</ele><time>2026-04-02T12:58:33Z</time></trkpt><trkpt lat="45.04548033430872" lon="9.575276793120858"><ele>63.166666666666664</ele><time>2026-04-02T12:58:35Z</time></trkpt><trkpt lat="45.04545357969353" lon="9.575178462510154"><ele>63.33333333333333</ele><time>2026-04-02T12:58:37Z</time></trkpt><trkpt lat="45.04542337714325" lon="9.57508068283157"><ele>63.5</ele><time>2026-04-02T12:58:39Z</time></trkpt><trkpt lat="45.04539220476986" lon="9.574985258038918"><ele>63.666666666666664</ele><time>2026-04-02T12:58:41Z</time></trkpt><trkpt lat="45.04536300493757" lon="9.574884393093429"><ele>63.83333333333333</ele><time>2026-04-02T12:58:43Z</time></trkpt><trkpt lat="45.045332679881746" lon="9.574787488600146"><ele>64.0</ele><time>2026-04-02T12:58:45Z</time></trkpt><trkpt lat="45.045310909543794" lon="9.574684759738242"><ele>63.99999999999999</ele><time>2026-04-02T12:58:47Z</time></trkpt><trkpt lat="45.04526832312719" lon="9.574587600422523"><ele>64.0</ele><time>2026-04-02T12:58:49Z</time></trkpt><trkpt lat="45.04524039285543" lon="9.574487053210124"><ele>64.0</ele><time>2026-04-02T12:58:51Z</time></trkpt><trkpt lat="45.04521350865882" lon="9.574390622231883"><ele>64.0</ele><time>2026-04-02T12:58:53Z</time></trkpt><trkpt lat="45.04518378755958" lon="9.574289673762419"><ele>63.99999999999999</ele><time>2026-04-02T12:58:55Z</time></trkpt><trkpt lat="45.04515361981865" lon="9.574197507686668"><ele>64.0</ele><time>2026-04-02T12:58:57Z</time></trkpt><trkpt lat="45.04512586493178" lon="9.574098428720756"><ele>63.83333333333333</ele><time>2026-04-02T12:58:59Z</time></trkpt><trkpt lat="45.0450988131035" lon="9.57400861311745"><ele>63.666666666666664</ele><time>2026-04-02T12:59:01Z</time></trkpt><trkpt lat="45.045059108202075" lon="9.573909641150351"><ele>63.5</ele><time>2026-04-02T12:59:03Z</time></trkpt><trkpt lat="45.045026148254856" lon="9.573811842998586"><ele>63.33333333333333</ele><time>2026-04-02T12:59:05Z</time></trkpt><trkpt lat="45.04499496335502" lon="9.57371121054027"><ele>63.166666666666664</ele><time>2026-04-02T12:59:07Z</time></trkpt><trkpt lat="45.044957570145435" lon="9.573611446036862"><ele>63.0</ele><time>2026-04-02T12:59:09Z</time></trkpt><trkpt lat="45.044923496064335" lon="9.57351230922592"><ele>63.0</ele><time>2026-04-02T12:59:11Z</time></trkpt><trkpt lat="45.04489131031816" lon="9.573410519211453"><ele>63.0</ele><time>2026-04-02T12:59:13Z</time></trkpt><trkpt lat="45.04485575144128" lon="9.573301671218072"><ele>63.0</ele><time>2026-04-02T12:59:15Z</time></trkpt><trkpt lat="45.04482087041754" lon="9.573202974810092"><ele>63.0</ele><time>2026-04-02T12:59:17Z</time></trkpt><trkpt lat="45.044789777083054" lon="9.573098626344954"><ele>63.0</ele><time>2026-04-02T12:59:19Z</time></trkpt><trkpt lat="45.04475833338045" lon="9.573002522669091"><ele>63.0</ele><time>2026-04-02T12:59:21Z</time></trkpt><trkpt lat="45.044725131258126" lon="9.572895976459467"><ele>63.0</ele><time>2026-04-02T12:59:23Z</time></trkpt><trkpt lat="45.04470364400783" lon="9.57278259591974"><ele>63.0</ele><time>2026-04-02T12:59:25Z</time></trkpt><trkpt lat="45.0446923241644" lon="9.572671302952713"><ele>63.0</ele><time>2026-04-02T12:59:27Z</time></trkpt><trkpt lat="45.044694100617" lon="9.572559970078167"><ele>63.0</ele><time>2026-04-02T12:59:29Z</time></trkpt><trkpt lat="45.04471091274911" lon="9.572452797890287"><ele>63.0</ele><time>2026-04-02T12:59:31Z</time></trkpt><trkpt lat="45.04471528477051" lon="9.572348779805182"><ele>63.0</ele><time>2026-04-02T12:59:33Z</time></trkpt><trkpt lat="45.04473282181891" lon="9.572236300147352"><ele>63.0</ele><time>2026-04-02T12:59:35Z</time></trkpt><trkpt lat="45.04474432894554" lon="9.572124801218777"><ele>63.0</ele><time>2026-04-02T12:59:37Z</time></trkpt><trkpt lat="45.04475278411986" lon="9.572011510272809"><ele>63.0</ele><time>2026-04-02T12:59:39Z</time></trkpt><trkpt lat="45.04476342883244" lon="9.571904298360808"><ele>63.0</ele><time>2026-04-02T12:59:41Z</time></trkpt><trkpt lat="45.04477607907864" lon="9.571794464586214"><ele>63.0</ele><time>2026-04-02T12:59:43Z</time></trkpt><trkpt lat="45.04478304961465" lon="9.571686973815776"><ele>63.0</ele><time>2026-04-02T12:59:45Z</time></trkpt><trkpt lat="45.044794808205346" lon="9.57158105504126"><ele>63.0</ele><time>2026-04-02T12:59:47Z</time></trkpt><trkpt lat="45.044799132035585" lon="9.571477606501638"><ele>63.0</ele><time>2026-04-02T12:59:49Z</time></trkpt><trkpt lat="45.044798870060816" lon="9.571373033157782"><ele>63.0</ele><time>2026-04-02T12:59:51Z</time></trkpt><trkpt lat="45.04478835531117" lon="9.571273763689767"><ele>63.0</ele><time>2026-04-02T12:59:53Z</time></trkpt><trkpt lat="45.04475616243578" lon="9.571174353094522"><ele>63.0</ele><time>2026-04-02T12:59:55Z</time></trkpt><trkpt lat="45.04471081928724" lon="9.571082341340015"><ele>63.0</ele><time>2026-04-02T12:59:57Z</time></trkpt><trkpt lat="45.044657047670334" lon="9.570996525944002"><ele>63.166666666666664</ele><time>2026-04-02T12:59:59Z</time></trkpt><trkpt lat="45.04460818651303" lon="9.570901756154388"><ele>63.33333333333333</ele><time>2026-04-02T13:00:01Z</time></trkpt><trkpt lat="45.04455600085558" lon="9.570811125507221"><ele>63.5</ele><time>2026-04-02T13:00:03Z</time></trkpt><trkpt lat="45.04451156377129" lon="9.570712794117949"><ele>63.666666666666664</ele><time>2026-04-02T13:00:05Z</time></trkpt><trkpt lat="45.04446357879646" lon="9.570620031829089"><ele>63.83333333333333</ele><time>2026-04-02T13:00:07Z</time></trkpt><trkpt lat="45.044416016642096" lon="9.57053039895226"><ele>64.0</ele><time>2026-04-02T13:00:09Z</time></trkpt><trkpt lat="45.044367727846506" lon="9.570435887384434"><ele>63.99999999999999</ele><time>2026-04-02T13:00:11Z</time></trkpt><trkpt lat="45.04432060583032" lon="9.570339120022398"><ele>64.0</ele><time>2026-04-02T13:00:13Z</time></trkpt><trkpt lat="45.04427070348041" lon="9.570241614374549"><ele>64.0</ele><time>2026-04-02T13:00:15Z</time></trkpt><trkpt lat="45.04421855625871" lon="9.57014801354582"><ele>64.0</ele><time>2026-04-02T13:00:17Z</time></trkpt><trkpt lat="45.04417170001235" lon="9.57005444841201"><ele>63.99999999999999</ele><time>2026-04-02T13:00:19Z</time></trkpt><trkpt lat="45.04412226530946" lon="9.569964084636448"><ele>64.0</ele><time>2026-04-02T13:00:21Z</time></trkpt><trkpt lat="45.04408060622275" lon="9.569874476724863"><ele>63.83333333333333</ele><time>2026-04-02T13:00:23Z</time></trkpt><trkpt lat="45.044034948358" lon="9.56979355625029"><ele>63.666666666666664</ele><time>2026-04-02T13:00:25Z</time></trkpt><trkpt lat="45.043994927836145" lon="9.569696167805109"><ele>63.5</ele><time>2026-04-02T13:00:27Z</time></trkpt><trkpt lat="45.043948824501605" lon="9.569614174709994"><ele>63.33333333333333</ele><time>2026-04-02T13:00:29Z</time></trkpt><trkpt lat="45.04390897678535" lon="9.569515116823496"><ele>63.166666666666664</ele><time>2026-04-02T13:00:31Z</time></trkpt><trkpt lat="45.04386469828271" lon="9.569429957746424"><ele>63.0</ele><time>2026-04-02T13:00:33Z</time></trkpt><trkpt lat="45.043820457866076" lon="9.569331130153566"><ele>63.0</ele><time>2026-04-02T13:00:35Z</time></trkpt><trkpt lat="45.04377831525505" lon="9.569242552132208"><ele>63.0</ele><time>2026-04-02T13:00:37Z</time></trkpt><trkpt lat="45.04373868084079" lon="9.569143912158342"><ele>63.0</ele><time>2026-04-02T13:00:39Z</time></trkpt><trkpt lat="45.04369268383654" lon="9.569062339208202"><ele>63.0</ele><time>2026-04-02T13:00:41Z</time></trkpt><trkpt lat="45.04365083536977" lon="9.568976982575968"><ele>63.0</ele><time>2026-04-02T13:00:43Z</time></trkpt><trkpt lat="45.043611697860044" lon="9.568883133598495"><ele>63.0</ele><time>2026-04-02T13:00:45Z</time></trkpt><trkpt lat="45.043561630277644" lon="9.568796314086429"><ele>63.0</ele><time>2026-04-02T13:00:47Z</time></trkpt><trkpt lat="45.04352208959411" lon="9.568706421496165"><ele>63.0</ele><time>2026-04-02T13:00:49Z</time></trkpt><trkpt lat="45.04348045312695" lon="9.568614719922007"><ele>63.0</ele><time>2026-04-02T13:00:51Z</time></trkpt><trkpt lat="45.043433605723045" lon="9.568523937425143"><ele>63.0</ele><time>2026-04-02T13:00:53Z</time></trkpt><trkpt lat="45.04339724573685" lon="9.568442431305225"><ele>63.0</ele><time>2026-04-02T13:00:55Z</time></trkpt><trkpt lat="45.04335967737625" lon="9.568368069061481"><ele>63.0</ele><time>2026-04-02T13:00:57Z</time></trkpt><trkpt lat="45.04332453866047" lon="9.568290950055184"><ele>63.0</ele><time>2026-04-02T13:00:59Z</time></trkpt><trkpt lat="45.043268994776376" lon="9.56818750583739"><ele>63.14285714285714</ele><time>2026-04-02T13:01:02Z</time></trkpt><trkpt lat="45.04322365633245" lon="9.568107497873966"><ele>63.285714285714285</ele><time>2026-04-02T13:01:04Z</time></trkpt><trkpt lat="45.04315516144975" lon="9.568087680423162"><ele>63.42857142857143</ele><time>2026-04-02T13:01:06Z</time></trkpt><trkpt lat="45.043100939248795" lon="9.568145349600874"><ele>63.57142857142857</ele><time>2026-04-02T13:01:08Z</time></trkpt><trkpt lat="45.04304625948683" lon="9.568201115224626"><ele>63.71428571428571</ele><time>2026-04-02T13:01:10Z</time></trkpt><trkpt lat="45.04299162570278" lon="9.568257879647573"><ele>63.857142857142854</ele><time>2026-04-02T13:01:12Z</time></trkpt><trkpt lat="45.042938178544816" lon="9.568307227032054"><ele>64.0</ele><time>2026-04-02T13:01:14Z</time></trkpt><trkpt lat="45.04286532207292" lon="9.568385271217615"><ele>63.99999999999999</ele><time>2026-04-02T13:01:17Z</time></trkpt><trkpt lat="45.04280640344463" lon="9.5684427274269"><ele>64.0</ele><time>2026-04-02T13:01:20Z</time></trkpt><trkpt lat="45.042699766630896" lon="9.568533872905128"><ele>64.0</ele><time>2026-04-02T13:03:33.999Z</time></trkpt><trkpt lat="45.04265265021543" lon="9.56859566581248"><ele>64.0</ele><time>2026-04-02T13:03:35.999Z</time></trkpt><trkpt lat="45.04259594797693" lon="9.568653481337176"><ele>63.99999999999999</ele><time>2026-04-02T13:03:37.999Z</time></trkpt><trkpt lat="45.04251852566046" lon="9.568728342156092"><ele>64.0</ele><time>2026-04-02T13:03:40.999Z</time></trkpt><trkpt lat="45.04246642178827" lon="9.568789649888403"><ele>63.99999999999999</ele><time>2026-04-02T13:03:42.999Z</time></trkpt><trkpt lat="45.04240446374058" lon="9.568851149872451"><ele>64.0</ele><time>2026-04-02T13:03:44.999Z</time></trkpt><trkpt lat="45.04233618189313" lon="9.568925222225506"><ele>64.0</ele><time>2026-04-02T13:03:46.999Z</time></trkpt><trkpt lat="45.04226588007435" lon="9.568997767846474"><ele>64.0</ele><time>2026-04-02T13:03:48.999Z</time></trkpt><trkpt lat="45.04219348410926" lon="9.569065242736494"><ele>63.99999999999999</ele><time>2026-04-02T13:03:50.999Z</time></trkpt><trkpt lat="45.042124282350436" lon="9.569141710593469"><ele>64.0</ele><time>2026-04-02T13:03:52.999Z</time></trkpt><trkpt lat="45.04205399587103" lon="9.569215247883365"><ele>63.99999999999999</ele><time>2026-04-02T13:03:54.999Z</time></trkpt><trkpt lat="45.04198573755462" lon="9.569291876769999"><ele>64.0</ele><time>2026-04-02T13:03:56.999Z</time></trkpt><trkpt lat="45.041913881212075" lon="9.569358483655119"><ele>64.0</ele><time>2026-04-02T13:03:59Z</time></trkpt><trkpt lat="45.041842143341675" lon="9.569429214383085"><ele>64.0</ele><time>2026-04-02T13:04:01Z</time></trkpt><trkpt lat="45.04176953707606" lon="9.569514221481704"><ele>63.99999999999999</ele><time>2026-04-02T13:04:03Z</time></trkpt><trkpt lat="45.04170243628177" lon="9.569586910109173"><ele>64.0</ele><time>2026-04-02T13:04:05Z</time></trkpt><trkpt lat="45.041633353078204" lon="9.569662040545454"><ele>64.33333333333333</ele><time>2026-04-02T13:04:07Z</time></trkpt><trkpt lat="45.0415607886507" lon="9.56974034862936"><ele>64.66666666666666</ele><time>2026-04-02T13:04:09Z</time></trkpt><trkpt lat="45.041491319880606" lon="9.569815759909963"><ele>65.0</ele><time>2026-04-02T13:04:11Z</time></trkpt><trkpt lat="45.0414217252513" lon="9.569890521518882"><ele>65.33333333333333</ele><time>2026-04-02T13:04:13Z</time></trkpt><trkpt lat="45.041353794677306" lon="9.56996742969333"><ele>65.66666666666667</ele><time>2026-04-02T13:04:15Z</time></trkpt><trkpt lat="45.04128172499181" lon="9.570042725063436"><ele>66.0</ele><time>2026-04-02T13:04:17Z</time></trkpt><trkpt lat="45.041210685547384" lon="9.570117992536165"><ele>66.0</ele><time>2026-04-02T13:04:19Z</time></trkpt><trkpt lat="45.04113873539452" lon="9.570208497898545"><ele>66.0</ele><time>2026-04-02T13:04:21Z</time></trkpt><trkpt lat="45.0410626284332" lon="9.570273249715333"><ele>66.0</ele><time>2026-04-02T13:04:23Z</time></trkpt><trkpt lat="45.04099833453033" lon="9.57035424029323"><ele>66.0</ele><time>2026-04-02T13:04:25Z</time></trkpt><trkpt lat="45.04092739644884" lon="9.570431742168276"><ele>66.0</ele><time>2026-04-02T13:04:27Z</time></trkpt><trkpt lat="45.040859550055096" lon="9.570508186536324"><ele>66.0</ele><time>2026-04-02T13:04:29Z</time></trkpt><trkpt lat="45.04078955298947" lon="9.57058442196686"><ele>65.83333333333333</ele><time>2026-04-02T13:04:31Z</time></trkpt><trkpt lat="45.040727640581764" lon="9.570662676081916"><ele>65.66666666666667</ele><time>2026-04-02T13:04:33Z</time></trkpt><trkpt lat="45.04066607627572" lon="9.570739460874325"><ele>65.5</ele><time>2026-04-02T13:04:35Z</time></trkpt><trkpt lat="45.04059953710715" lon="9.570808832878823"><ele>65.33333333333334</ele><time>2026-04-02T13:04:37Z</time></trkpt><trkpt lat="45.040538205596896" lon="9.570871084495504"><ele>65.16666666666667</ele><time>2026-04-02T13:04:39Z</time></trkpt><trkpt lat="45.040479522934376" lon="9.570937685086633"><ele>65.0</ele><time>2026-04-02T13:04:41Z</time></trkpt><trkpt lat="45.04041609903078" lon="9.571013043297068"><ele>65.0</ele><time>2026-04-02T13:04:43Z</time></trkpt><trkpt lat="45.04035519717411" lon="9.571079585717008"><ele>65.0</ele><time>2026-04-02T13:04:45Z</time></trkpt><trkpt lat="45.040289728255765" lon="9.571149238309516"><ele>65.0</ele><time>2026-04-02T13:04:47Z</time></trkpt><trkpt lat="45.040228085071746" lon="9.57121898085833"><ele>65.0</ele><time>2026-04-02T13:04:49Z</time></trkpt><trkpt lat="45.04016517157732" lon="9.571286571258229"><ele>65.0</ele><time>2026-04-02T13:04:51Z</time></trkpt><trkpt lat="45.04010165319819" lon="9.571360303926989"><ele>65.0</ele><time>2026-04-02T13:04:53Z</time></trkpt><trkpt lat="45.040039587366415" lon="9.571430466417311"><ele>64.66666666666667</ele><time>2026-04-02T13:04:55Z</time></trkpt><trkpt lat="45.03997890969252" lon="9.57149735139349"><ele>64.33333333333334</ele><time>2026-04-02T13:04:57Z</time></trkpt><trkpt lat="45.03992528283458" lon="9.571563069704608"><ele>64.0</ele><time>2026-04-02T13:04:59Z</time></trkpt><trkpt lat="45.03986033405939" lon="9.571634032235174"><ele>63.66666666666667</ele><time>2026-04-02T13:05:01Z</time></trkpt><trkpt lat="45.03980113607815" lon="9.571704844663287"><ele>63.333333333333336</ele><time>2026-04-02T13:05:02.999Z</time></trkpt><trkpt lat="45.03973852768174" lon="9.57177404397921"><ele>63.0</ele><time>2026-04-02T13:05:04.999Z</time></trkpt><trkpt lat="45.0396753089201" lon="9.571844756342795"><ele>62.833333333333336</ele><time>2026-04-02T13:05:06.999Z</time></trkpt><trkpt lat="45.03961364989561" lon="9.571913791779295"><ele>62.66666666666667</ele><time>2026-04-02T13:05:08.999Z</time></trkpt><trkpt lat="45.039552500223465" lon="9.571981829335023"><ele>62.5</ele><time>2026-04-02T13:05:10.999Z</time></trkpt><trkpt lat="45.03948937187872" lon="9.572051956985854"><ele>62.333333333333336</ele><time>2026-04-02T13:05:12.999Z</time></trkpt><trkpt lat="45.039428657241075" lon="9.57212128474289"><ele>62.16666666666667</ele><time>2026-04-02T13:05:14.999Z</time></trkpt><trkpt lat="45.03936760698702" lon="9.572189537689242"><ele>62.0</ele><time>2026-04-02T13:05:16.999Z</time></trkpt><trkpt lat="45.039306677236205" lon="9.572257715946968"><ele>62.333333333333336</ele><time>2026-04-02T13:05:18.999Z</time></trkpt><trkpt lat="45.039243914578115" lon="9.572328418142336"><ele>62.66666666666667</ele><time>2026-04-02T13:05:20.999Z</time></trkpt><trkpt lat="45.03918125287214" lon="9.57239750028096"><ele>63.0</ele><time>2026-04-02T13:05:22.999Z</time></trkpt><trkpt lat="45.03912104578893" lon="9.572466193165159"><ele>63.33333333333333</ele><time>2026-04-02T13:05:24.999Z</time></trkpt><trkpt lat="45.039062785445104" lon="9.572535318407267"><ele>63.666666666666664</ele><time>2026-04-02T13:05:26.999Z</time></trkpt><trkpt lat="45.03900257877837" lon="9.57260304954123"><ele>64.0</ele><time>2026-04-02T13:05:28.999Z</time></trkpt><trkpt lat="45.0389424891029" lon="9.572672430194627"><ele>64.16666666666666</ele><time>2026-04-02T13:05:30.999Z</time></trkpt><trkpt lat="45.03887749376664" lon="9.572740588476071"><ele>64.33333333333333</ele><time>2026-04-02T13:05:32.999Z</time></trkpt><trkpt lat="45.03881767301651" lon="9.572812229055456"><ele>64.5</ele><time>2026-04-02T13:05:34.999Z</time></trkpt><trkpt lat="45.03875333862444" lon="9.572881023916251"><ele>64.66666666666667</ele><time>2026-04-02T13:05:36.999Z</time></trkpt><trkpt lat="45.03869311850374" lon="9.572953551242838"><ele>64.83333333333334</ele><time>2026-04-02T13:05:38.999Z</time></trkpt><trkpt lat="45.038627896802694" lon="9.573022400965986"><ele>65.0</ele><time>2026-04-02T13:05:40.999Z</time></trkpt><trkpt lat="45.03856508268478" lon="9.573091210313697"><ele>65.0</ele><time>2026-04-02T13:05:42.999Z</time></trkpt><trkpt lat="45.03850743453433" lon="9.573163070320456"><ele>65.0</ele><time>2026-04-02T13:05:44.999Z</time></trkpt><trkpt lat="45.03844757716563" lon="9.573227761542386"><ele>65.0</ele><time>2026-04-02T13:05:46.999Z</time></trkpt><trkpt lat="45.038385623456605" lon="9.573296086306481"><ele>65.0</ele><time>2026-04-02T13:05:48.999Z</time></trkpt><trkpt lat="45.03832335215634" lon="9.573366478804282"><ele>65.0</ele><time>2026-04-02T13:05:50.999Z</time></trkpt><trkpt lat="45.038260155311924" lon="9.573437186931448"><ele>65.0</ele><time>2026-04-02T13:05:52.999Z</time></trkpt><trkpt lat="45.03819844710515" lon="9.573509167080758"><ele>65.33333333333334</ele><time>2026-04-02T13:05:54.999Z</time></trkpt><trkpt lat="45.03813693858598" lon="9.573577080632413"><ele>65.66666666666667</ele><time>2026-04-02T13:05:56.999Z</time></trkpt><trkpt lat="45.03807670085657" lon="9.573650260960454"><ele>66.0</ele><time>2026-04-02T13:05:58.999Z</time></trkpt><trkpt lat="45.03801538950023" lon="9.573717668765141"><ele>66.33333333333333</ele><time>2026-04-02T13:06:00.999Z</time></trkpt><trkpt lat="45.03795571109777" lon="9.573785323163643"><ele>66.66666666666666</ele><time>2026-04-02T13:06:02.999Z</time></trkpt><trkpt lat="45.03789780914146" lon="9.573855735018501"><ele>67.0</ele><time>2026-04-02T13:06:04.999Z</time></trkpt><trkpt lat="45.037837571543825" lon="9.573926144462046"><ele>67.16666666666666</ele><time>2026-04-02T13:06:06.999Z</time></trkpt><trkpt lat="45.037778044230215" lon="9.57399841792234"><ele>67.33333333333333</ele><time>2026-04-02T13:06:08.999Z</time></trkpt><trkpt lat="45.037712478251905" lon="9.5740630338667"><ele>67.5</ele><time>2026-04-02T13:06:10.999Z</time></trkpt><trkpt lat="45.03764632646424" lon="9.574130454047744"><ele>67.66666666666667</ele><time>2026-04-02T13:06:12.999Z</time></trkpt><trkpt lat="45.037589707686415" lon="9.574202615032837"><ele>67.83333333333334</ele><time>2026-04-02T13:06:14.999Z</time></trkpt><trkpt lat="45.037529844632225" lon="9.57426868396511"><ele>68.0</ele><time>2026-04-02T13:06:16.999Z</time></trkpt><trkpt lat="45.037470547780465" lon="9.574334193643734"><ele>68.16666666666667</ele><time>2026-04-02T13:06:18.999Z</time></trkpt><trkpt lat="45.037412673751874" lon="9.574398526800824"><ele>68.33333333333334</ele><time>2026-04-02T13:06:20.999Z</time></trkpt><trkpt lat="45.03734903077995" lon="9.574463783353085"><ele>68.5</ele><time>2026-04-02T13:06:22.999Z</time></trkpt><trkpt lat="45.03728662862164" lon="9.57453356340047"><ele>68.66666666666667</ele><time>2026-04-02T13:06:24.999Z</time></trkpt><trkpt lat="45.03722655704447" lon="9.574601469283303"><ele>68.83333333333333</ele><time>2026-04-02T13:06:26.999Z</time></trkpt><trkpt lat="45.03716633597775" lon="9.574667802877599"><ele>69.0</ele><time>2026-04-02T13:06:28.999Z</time></trkpt><trkpt lat="45.03710240084045" lon="9.574730400119762"><ele>69.0</ele><time>2026-04-02T13:06:30.999Z</time></trkpt><trkpt lat="45.037042222879585" lon="9.574798943776774"><ele>69.0</ele><time>2026-04-02T13:06:32.999Z</time></trkpt><trkpt lat="45.03697847394641" lon="9.574865960178387"><ele>69.0</ele><time>2026-04-02T13:06:34.999Z</time></trkpt><trkpt lat="45.03692141605776" lon="9.574939770172277"><ele>69.0</ele><time>2026-04-02T13:06:36.999Z</time></trkpt><trkpt lat="45.03685796905238" lon="9.575005659866113"><ele>69.0</ele><time>2026-04-02T13:06:38.999Z</time></trkpt><trkpt lat="45.0367967723135" lon="9.575077778182441"><ele>69.0</ele><time>2026-04-02T13:06:40.999Z</time></trkpt><trkpt lat="45.036736591941505" lon="9.575142873821306"><ele>69.0</ele><time>2026-04-02T13:06:42.999Z</time></trkpt><trkpt lat="45.03668089081371" lon="9.575202547743915"><ele>69.0</ele><time>2026-04-02T13:06:44.999Z</time></trkpt><trkpt lat="45.036623264366455" lon="9.575264569634228"><ele>69.0</ele><time>2026-04-02T13:06:46.999Z</time></trkpt><trkpt lat="45.03655232901965" lon="9.575328196101294"><ele>69.0</ele><time>2026-04-02T13:06:48.999Z</time></trkpt><trkpt lat="45.0364914434911" lon="9.575389786788593"><ele>69.0</ele><time>2026-04-02T13:06:50.999Z</time></trkpt><trkpt lat="45.03642475618815" lon="9.575441511986623"><ele>69.0</ele><time>2026-04-02T13:06:52.999Z</time></trkpt><trkpt lat="45.03635908435133" lon="9.575503209319976"><ele>69.66666666666667</ele><time>2026-04-02T13:06:54.999Z</time></trkpt><trkpt lat="45.03630102019229" lon="9.575565452385051"><ele>70.33333333333333</ele><time>2026-04-02T13:06:56.999Z</time></trkpt><trkpt lat="45.03622676388192" lon="9.575636983822266"><ele>71.0</ele><time>2026-04-02T13:06:58.999Z</time></trkpt><trkpt lat="45.0361614426239" lon="9.575659992900544"><ele>71.66666666666666</ele><time>2026-04-02T13:07:00.999Z</time></trkpt><trkpt lat="45.036092383298474" lon="9.575678843114051"><ele>72.33333333333333</ele><time>2026-04-02T13:07:02.999Z</time></trkpt><trkpt lat="45.036027558926534" lon="9.575710801596951"><ele>73.0</ele><time>2026-04-02T13:07:04.999Z</time></trkpt><trkpt lat="45.03594582816612" lon="9.57578655046501"><ele>73.0</ele><time>2026-04-02T13:07:06.999Z</time></trkpt><trkpt lat="45.03588398743084" lon="9.575841834264809"><ele>73.0</ele><time>2026-04-02T13:07:08.999Z</time></trkpt><trkpt lat="45.035817231000735" lon="9.575891939663272"><ele>73.0</ele><time>2026-04-02T13:07:10.999Z</time></trkpt><trkpt lat="45.035760838340465" lon="9.5759762347881"><ele>73.0</ele><time>2026-04-02T13:07:12.999Z</time></trkpt><trkpt lat="45.03568675465466" lon="9.576017810444027"><ele>73.0</ele><time>2026-04-02T13:07:14.999Z</time></trkpt><trkpt lat="45.03562100211157" lon="9.576081318799003"><ele>73.0</ele><time>2026-04-02T13:07:16.999Z</time></trkpt><trkpt lat="45.03555418774305" lon="9.576119563636475"><ele>72.5</ele><time>2026-04-02T13:07:18.999Z</time></trkpt><trkpt lat="45.03547613058179" lon="9.576159802677806"><ele>72.0</ele><time>2026-04-02T13:07:20.999Z</time></trkpt><trkpt lat="45.03541158293516" lon="9.576179502956865"><ele>71.5</ele><time>2026-04-02T13:07:22.999Z</time></trkpt><trkpt lat="45.035332043264624" lon="9.576223192736142"><ele>71.0</ele><time>2026-04-02T13:07:24.999Z</time></trkpt><trkpt lat="45.03526538329129" lon="9.576253713713735"><ele>70.5</ele><time>2026-04-02T13:07:26.999Z</time></trkpt><trkpt lat="45.03519045171322" lon="9.576271558006766"><ele>70.0</ele><time>2026-04-02T13:07:28.999Z</time></trkpt><trkpt lat="45.035113036838574" lon="9.576308340183084"><ele>70.0</ele><time>2026-04-02T13:07:30.999Z</time></trkpt><trkpt lat="45.03503036346479" lon="9.57634709377716"><ele>70.0</ele><time>2026-04-02T13:07:32.999Z</time></trkpt><trkpt lat="45.034959264327945" lon="9.576390109732303"><ele>70.0</ele><time>2026-04-02T13:07:34.999Z</time></trkpt><trkpt lat="45.034881235814055" lon="9.57642539604222"><ele>70.0</ele><time>2026-04-02T13:07:36.999Z</time></trkpt><trkpt lat="45.0347971916913" lon="9.576461187293157"><ele>70.0</ele><time>2026-04-02T13:07:38.999Z</time></trkpt><trkpt lat="45.034724520230235" lon="9.57649493267762"><ele>70.0</ele><time>2026-04-02T13:07:40.999Z</time></trkpt><trkpt lat="45.0346474718026" lon="9.576532632232091"><ele>70.33333333333333</ele><time>2026-04-02T13:07:42.999Z</time></trkpt><trkpt lat="45.03456935297026" lon="9.576568281136389"><ele>70.66666666666666</ele><time>2026-04-02T13:07:44.999Z</time></trkpt><trkpt lat="45.0344949046888" lon="9.576596980957548"><ele>71.0</ele><time>2026-04-02T13:07:46.999Z</time></trkpt><trkpt lat="45.03441820059762" lon="9.576632855838405"><ele>71.33333333333333</ele><time>2026-04-02T13:07:48.999Z</time></trkpt><trkpt lat="45.03434009889226" lon="9.576667448923551"><ele>71.66666666666667</ele><time>2026-04-02T13:07:50.999Z</time></trkpt><trkpt lat="45.034261817467474" lon="9.576699957255277"><ele>72.0</ele><time>2026-04-02T13:07:52.999Z</time></trkpt><trkpt lat="45.03419578262701" lon="9.576726938035135"><ele>71.66666666666667</ele><time>2026-04-02T13:07:54.999Z</time></trkpt><trkpt lat="45.03412008980552" lon="9.576752690990858"><ele>71.33333333333333</ele><time>2026-04-02T13:07:56.999Z</time></trkpt><trkpt lat="45.03405051118073" lon="9.576792528079517"><ele>71.0</ele><time>2026-04-02T13:07:58.999Z</time></trkpt><trkpt lat="45.03397661673487" lon="9.576823972294493"><ele>70.66666666666666</ele><time>2026-04-02T13:08:00.999Z</time></trkpt><trkpt lat="45.03390352887822" lon="9.576850615257833"><ele>70.33333333333333</ele><time>2026-04-02T13:08:02.999Z</time></trkpt><trkpt lat="45.03382865962982" lon="9.576873869982919"><ele>70.0</ele><time>2026-04-02T13:08:04.999Z</time></trkpt><trkpt lat="45.03375620160605" lon="9.576907367619205"><ele>70.0</ele><time>2026-04-02T13:08:06.999Z</time></trkpt><trkpt lat="45.033683365955866" lon="9.576944241437811"><ele>70.0</ele><time>2026-04-02T13:08:08.999Z</time></trkpt><trkpt lat="45.03360917846895" lon="9.576971739609816"><ele>70.0</ele><time>2026-04-02T13:08:10.999Z</time></trkpt><trkpt lat="45.033536347120695" lon="9.576991901196019"><ele>70.0</ele><time>2026-04-02T13:08:12.999Z</time></trkpt><trkpt lat="45.03346333215888" lon="9.577026757921972"><ele>70.0</ele><time>2026-04-02T13:08:14.999Z</time></trkpt><trkpt lat="45.03339296201489" lon="9.577057283139165"><ele>70.0</ele><time>2026-04-02T13:08:16.999Z</time></trkpt><trkpt lat="45.03332631712448" lon="9.577083944270836"><ele>70.0</ele><time>2026-04-02T13:08:18.999Z</time></trkpt><trkpt lat="45.03325351564008" lon="9.577109876308173"><ele>70.0</ele><time>2026-04-02T13:08:20.999Z</time></trkpt><trkpt lat="45.03318490761543" lon="9.577135866991284"><ele>70.0</ele><time>2026-04-02T13:08:22.999Z</time></trkpt><trkpt lat="45.03311647644289" lon="9.577168921686644"><ele>70.0</ele><time>2026-04-02T13:08:24.999Z</time></trkpt><trkpt lat="45.033045446698786" lon="9.5772061670573"><ele>70.0</ele><time>2026-04-02T13:08:26.999Z</time></trkpt><trkpt lat="45.03297126205218" lon="9.577230923451214"><ele>70.0</ele><time>2026-04-02T13:08:28.999Z</time></trkpt><trkpt lat="45.0328915870697" lon="9.57726845123986"><ele>70.0</ele><time>2026-04-02T13:08:30.999Z</time></trkpt><trkpt lat="45.032815811546854" lon="9.577302515589896"><ele>70.0</ele><time>2026-04-02T13:08:32.999Z</time></trkpt><trkpt lat="45.0327389228973" lon="9.577328542066477"><ele>70.0</ele><time>2026-04-02T13:08:34.999Z</time></trkpt><trkpt lat="45.03266435470212" lon="9.577367240451057"><ele>70.0</ele><time>2026-04-02T13:08:36.999Z</time></trkpt><trkpt lat="45.032592950762826" lon="9.5774006963433"><ele>70.0</ele><time>2026-04-02T13:08:38.999Z</time></trkpt><trkpt lat="45.032514491225" lon="9.577436860476531"><ele>70.0</ele><time>2026-04-02T13:08:40.999Z</time></trkpt><trkpt lat="45.03246752201458" lon="9.5775244816794"><ele>70.0</ele><time>2026-04-02T13:08:42.999Z</time></trkpt><trkpt lat="45.03242238984595" lon="9.57759197025367"><ele>70.0</ele><time>2026-04-02T13:08:44.999Z</time></trkpt><trkpt lat="45.03237071420585" lon="9.577644033895185"><ele>70.0</ele><time>2026-04-02T13:08:46.999Z</time></trkpt><trkpt lat="45.03231642009666" lon="9.577699278269012"><ele>70.0</ele><time>2026-04-02T13:08:48.999Z</time></trkpt><trkpt lat="45.03230244959312" lon="9.577831082421058"><ele>70.0</ele><time>2026-04-02T13:08:51.999Z</time></trkpt><trkpt lat="45.03231529188783" lon="9.577930676578644"><ele>70.0</ele><time>2026-04-02T13:08:53.999Z</time></trkpt><trkpt lat="45.0323205155494" lon="9.578051256788003"><ele>70.0</ele><time>2026-04-02T13:08:56.999Z</time></trkpt><trkpt lat="45.03232282104991" lon="9.578140490406145"><ele>70.0</ele><time>2026-04-02T13:08:58.999Z</time></trkpt><trkpt lat="45.03229327834388" lon="9.578254734887091"><ele>70.0</ele><time>2026-04-02T13:09:01.999Z</time></trkpt><trkpt lat="45.032227907789554" lon="9.578305780285602"><ele>70.0</ele><time>2026-04-02T13:09:13.999Z</time></trkpt><trkpt lat="45.032167323596255" lon="9.578391359030809"><ele>70.0</ele><time>2026-04-02T13:09:16.999Z</time></trkpt><trkpt lat="45.03210320153869" lon="9.578425311776193"><ele>70.0</ele><time>2026-04-02T13:09:18.999Z</time></trkpt><trkpt lat="45.03203428795696" lon="9.57843608320793"><ele>70.0</ele><time>2026-04-02T13:09:20.999Z</time></trkpt><trkpt lat="45.031966248078234" lon="9.578450166881327"><ele>70.0</ele><time>2026-04-02T13:09:22.999Z</time></trkpt><trkpt lat="45.031890486195934" lon="9.578472933396387"><ele>70.0</ele><time>2026-04-02T13:09:24.999Z</time></trkpt><trkpt lat="45.031821930888434" lon="9.578495931813041"><ele>70.0</ele><time>2026-04-02T13:09:26.999Z</time></trkpt><trkpt lat="45.03174883755846" lon="9.578518263179019"><ele>70.0</ele><time>2026-04-02T13:09:28.999Z</time></trkpt><trkpt lat="45.0316777299289" lon="9.578537566977701"><ele>70.0</ele><time>2026-04-02T13:09:30.999Z</time></trkpt><trkpt lat="45.03161086591416" lon="9.578553458148708"><ele>70.0</ele><time>2026-04-02T13:09:32.999Z</time></trkpt><trkpt lat="45.03154048845749" lon="9.578580083777009"><ele>70.0</ele><time>2026-04-02T13:09:34.999Z</time></trkpt><trkpt lat="45.031475439278985" lon="9.578599602029982"><ele>70.0</ele><time>2026-04-02T13:09:36.999Z</time></trkpt><trkpt lat="45.031404235705146" lon="9.57862011610041"><ele>70.0</ele><time>2026-04-02T13:09:38.999Z</time></trkpt><trkpt lat="45.031336212806345" lon="9.578641120691861"><ele>69.85714285714286</ele><time>2026-04-02T13:09:40.999Z</time></trkpt><trkpt lat="45.031266577531106" lon="9.578654117512636"><ele>69.71428571428572</ele><time>2026-04-02T13:09:42.999Z</time></trkpt><trkpt lat="45.031193945144736" lon="9.578674642312995"><ele>69.57142857142857</ele><time>2026-04-02T13:09:44.999Z</time></trkpt><trkpt lat="45.03112605786503" lon="9.578696331256296"><ele>69.42857142857143</ele><time>2026-04-02T13:09:46.999Z</time></trkpt><trkpt lat="45.03105834506045" lon="9.578716165909412"><ele>69.28571428571429</ele><time>2026-04-02T13:09:48.999Z</time></trkpt><trkpt lat="45.03098510193426" lon="9.57873112669227"><ele>69.14285714285714</ele><time>2026-04-02T13:09:50.999Z</time></trkpt><trkpt lat="45.030919551798725" lon="9.578743765567788"><ele>69.0</ele><time>2026-04-02T13:09:52.999Z</time></trkpt><trkpt lat="45.03085209388108" lon="9.578761321667816"><ele>69.14285714285714</ele><time>2026-04-02T13:09:54.999Z</time></trkpt><trkpt lat="45.030786052905526" lon="9.578787772469258"><ele>69.28571428571429</ele><time>2026-04-02T13:09:56.999Z</time></trkpt><trkpt lat="45.030717419725626" lon="9.578803544977504"><ele>69.42857142857143</ele><time>2026-04-02T13:09:58.999Z</time></trkpt><trkpt lat="45.03064879539324" lon="9.578831021354722"><ele>69.57142857142857</ele><time>2026-04-02T13:10:00.999Z</time></trkpt><trkpt lat="45.03057678485936" lon="9.578849383605675"><ele>69.71428571428572</ele><time>2026-04-02T13:10:02.999Z</time></trkpt><trkpt lat="45.03050758557875" lon="9.578870299128809"><ele>69.85714285714286</ele><time>2026-04-02T13:10:04.999Z</time></trkpt><trkpt lat="45.030436664627864" lon="9.578888537981262"><ele>70.0</ele><time>2026-04-02T13:10:06.999Z</time></trkpt><trkpt lat="45.03036300443956" lon="9.578908966548257"><ele>70.0</ele><time>2026-04-02T13:10:08.999Z</time></trkpt><trkpt lat="45.03029209707694" lon="9.57892432054432"><ele>70.0</ele><time>2026-04-02T13:10:10.999Z</time></trkpt><trkpt lat="45.030223097093796" lon="9.578929609623106"><ele>70.0</ele><time>2026-04-02T13:10:12.999Z</time></trkpt><trkpt lat="45.03015543823065" lon="9.578942487794837"><ele>70.0</ele><time>2026-04-02T13:10:14.999Z</time></trkpt><trkpt lat="45.03009067460476" lon="9.578958366917442"><ele>70.0</ele><time>2026-04-02T13:10:16.999Z</time></trkpt><trkpt lat="45.030026159143986" lon="9.578962138712349"><ele>70.0</ele><time>2026-04-02T13:10:18.999Z</time></trkpt><trkpt lat="45.029933421082745" lon="9.578951949126473"><ele>70.0</ele><time>2026-04-02T13:10:21.999Z</time></trkpt><trkpt lat="45.02986942577226" lon="9.578956767516733"><ele>70.0</ele><time>2026-04-02T13:10:23.999Z</time></trkpt><trkpt lat="45.02980655968162" lon="9.578964343232885"><ele>70.0</ele><time>2026-04-02T13:10:25.999Z</time></trkpt><trkpt lat="45.0297184476161" lon="9.578968389974381"><ele>70.0</ele><time>2026-04-02T13:10:28.999Z</time></trkpt><trkpt lat="45.029656886156786" lon="9.578987795771827"><ele>70.0</ele><time>2026-04-02T13:10:30.999Z</time></trkpt><trkpt lat="45.029564277325285" lon="9.579009785323022"><ele>70.0</ele><time>2026-04-02T13:10:33.999Z</time></trkpt><trkpt lat="45.02950220112109" lon="9.57902504037534"><ele>70.0</ele><time>2026-04-02T13:10:35.999Z</time></trkpt><trkpt lat="45.02943754728782" lon="9.579042765385225"><ele>70.0</ele><time>2026-04-02T13:10:37.999Z</time></trkpt><trkpt lat="45.02934652772204" lon="9.579067593992677"><ele>70.0</ele><time>2026-04-02T13:10:40.999Z</time></trkpt><trkpt lat="45.02928021249978" lon="9.579101046717051"><ele>70.0</ele><time>2026-04-02T13:10:42.999Z</time></trkpt><trkpt lat="45.0292096517402" lon="9.57910714063283"><ele>70.0</ele><time>2026-04-02T13:10:44.999Z</time></trkpt><trkpt lat="45.02914447993991" lon="9.579108269094354"><ele>70.0</ele><time>2026-04-02T13:10:46.999Z</time></trkpt><trkpt lat="45.02905946373163" lon="9.579097054409617"><ele>70.0</ele><time>2026-04-02T13:10:49.999Z</time></trkpt><trkpt lat="45.0289911576364" lon="9.579087487678054"><ele>70.0</ele><time>2026-04-02T13:10:51.999Z</time></trkpt><trkpt lat="45.02892599234045" lon="9.579086970156691"><ele>70.0</ele><time>2026-04-02T13:10:53.999Z</time></trkpt><trkpt lat="45.02886278099652" lon="9.579080279758264"><ele>70.0</ele><time>2026-04-02T13:10:55.999Z</time></trkpt><trkpt lat="45.02879472680092" lon="9.57907517744894"><ele>70.0</ele><time>2026-04-02T13:10:57.999Z</time></trkpt><trkpt lat="45.02872875922656" lon="9.579076912786556"><ele>70.0</ele><time>2026-04-02T13:10:59.999Z</time></trkpt><trkpt lat="45.02866567662515" lon="9.579070753363014"><ele>70.0</ele><time>2026-04-02T13:11:01.999Z</time></trkpt><trkpt lat="45.028572692936365" lon="9.579069224349963"><ele>70.0</ele><time>2026-04-02T13:11:04.999Z</time></trkpt><trkpt lat="45.02848429851848" lon="9.57904840136838"><ele>70.0</ele><time>2026-04-02T13:11:08.002Z</time></trkpt><trkpt lat="45.028418169165285" lon="9.579052578028584"><ele>70.0</ele><time>2026-04-02T13:11:10.002Z</time></trkpt><trkpt lat="45.02835549785133" lon="9.579042347646158"><ele>70.0</ele><time>2026-04-02T13:11:12.002Z</time></trkpt><trkpt lat="45.02828847827474" lon="9.57904212153665"><ele>70.0</ele><time>2026-04-02T13:11:14.002Z</time></trkpt><trkpt lat="45.0282217711086" lon="9.57903675429062"><ele>70.0</ele><time>2026-04-02T13:11:16.002Z</time></trkpt><trkpt lat="45.02812498531561" lon="9.579034290994633"><ele>70.0</ele><time>2026-04-02T13:11:19.002Z</time></trkpt><trkpt lat="45.02805623697201" lon="9.579034298449933"><ele>70.0</ele><time>2026-04-02T13:11:21.002Z</time></trkpt><trkpt lat="45.02799299150754" lon="9.579016295749652"><ele>70.0</ele><time>2026-04-02T13:11:23.002Z</time></trkpt><trkpt lat="45.02793439154218" lon="9.578983644285389"><ele>70.0</ele><time>2026-04-02T13:11:25.002Z</time></trkpt><trkpt lat="45.027850866860646" lon="9.5789227169795"><ele>70.0</ele><time>2026-04-02T13:11:28.002Z</time></trkpt><trkpt lat="45.02776188391588" lon="9.578872262417441"><ele>70.0</ele><time>2026-04-02T13:11:31.002Z</time></trkpt><trkpt lat="45.02768061422027" lon="9.578823558131843"><ele>70.0</ele><time>2026-04-02T13:11:34.002Z</time></trkpt><trkpt lat="45.027598921787046" lon="9.578798334553884"><ele>70.0</ele><time>2026-04-02T13:11:37.002Z</time></trkpt><trkpt lat="45.02754137788107" lon="9.578876983946644"><ele>70.0</ele><time>2026-04-02T13:11:40.002Z</time></trkpt><trkpt lat="45.027544416529544" lon="9.578973108050343"><ele>70.0</ele><time>2026-04-02T13:11:42.002Z</time></trkpt><trkpt lat="45.02755040954411" lon="9.579067976890817"><ele>70.0</ele><time>2026-04-02T13:11:44.002Z</time></trkpt><trkpt lat="45.027567526231884" lon="9.579167614952071"><ele>70.0</ele><time>2026-04-02T13:11:46.002Z</time></trkpt><trkpt lat="45.02757299248236" lon="9.579262881884386"><ele>70.0</ele><time>2026-04-02T13:11:48.002Z</time></trkpt><trkpt lat="45.0275821672519" lon="9.579357733484251"><ele>70.0</ele><time>2026-04-02T13:11:50.002Z</time></trkpt><trkpt lat="45.027589843062074" lon="9.579447540294524"><ele>70.0</ele><time>2026-04-02T13:11:52.002Z</time></trkpt><trkpt lat="45.027592105430884" lon="9.579553943941843"><ele>70.0</ele><time>2026-04-02T13:11:54.002Z</time></trkpt><trkpt lat="45.027599046971986" lon="9.579652678233558"><ele>70.0</ele><time>2026-04-02T13:11:56.002Z</time></trkpt><trkpt lat="45.02760535215267" lon="9.579743145695346"><ele>69.85714285714286</ele><time>2026-04-02T13:11:58.003Z</time></trkpt><trkpt lat="45.027609424364066" lon="9.579842333053987"><ele>69.71428571428572</ele><time>2026-04-02T13:12:00.002Z</time></trkpt><trkpt lat="45.027616639831976" lon="9.57993816089187"><ele>69.57142857142857</ele><time>2026-04-02T13:12:02.002Z</time></trkpt><trkpt lat="45.02761971616618" lon="9.58003642994362"><ele>69.42857142857143</ele><time>2026-04-02T13:12:04.002Z</time></trkpt><trkpt lat="45.02762257383511" lon="9.580137236657967"><ele>69.28571428571429</ele><time>2026-04-02T13:12:06.002Z</time></trkpt><trkpt lat="45.0276336416896" lon="9.580236856938933"><ele>69.14285714285714</ele><time>2026-04-02T13:12:08.002Z</time></trkpt><trkpt lat="45.027642216322626" lon="9.580341005422417"><ele>69.0</ele><time>2026-04-02T13:12:10.002Z</time></trkpt><trkpt lat="45.02764817483997" lon="9.580439593588954"><ele>69.0</ele><time>2026-04-02T13:12:12.002Z</time></trkpt><trkpt lat="45.027655947928" lon="9.580528806611827"><ele>69.0</ele><time>2026-04-02T13:12:14.002Z</time></trkpt><trkpt lat="45.02767026743616" lon="9.580619112334942"><ele>69.0</ele><time>2026-04-02T13:12:16.002Z</time></trkpt><trkpt lat="45.02767833710043" lon="9.580716227229601"><ele>69.0</ele><time>2026-04-02T13:12:18.002Z</time></trkpt><trkpt lat="45.0276878172663" lon="9.580809085556513"><ele>69.0</ele><time>2026-04-02T13:12:20.002Z</time></trkpt><trkpt lat="45.02769826735648" lon="9.580908673637428"><ele>69.0</ele><time>2026-04-02T13:12:22.002Z</time></trkpt><trkpt lat="45.02770662461984" lon="9.581006676610736"><ele>69.0</ele><time>2026-04-02T13:12:24.002Z</time></trkpt><trkpt lat="45.02771633030814" lon="9.58110232494745"><ele>69.0</ele><time>2026-04-02T13:12:26.002Z</time></trkpt><trkpt lat="45.027724563536424" lon="9.58120382013429"><ele>69.0</ele><time>2026-04-02T13:12:28.002Z</time></trkpt><trkpt lat="45.027731710404865" lon="9.58130063372483"><ele>69.0</ele><time>2026-04-02T13:12:30.002Z</time></trkpt><trkpt lat="45.02773860858892" lon="9.581397115945691"><ele>69.0</ele><time>2026-04-02T13:12:32.002Z</time></trkpt><trkpt lat="45.027752078246294" lon="9.581490640426019"><ele>69.0</ele><time>2026-04-02T13:12:34.002Z</time></trkpt><trkpt lat="45.027757147992475" lon="9.581585903223615"><ele>69.0</ele><time>2026-04-02T13:12:36.002Z</time></trkpt><trkpt lat="45.027766349285415" lon="9.581679138285008"><ele>69.0</ele><time>2026-04-02T13:12:38.002Z</time></trkpt><trkpt lat="45.027774795970494" lon="9.581777311681886"><ele>69.0</ele><time>2026-04-02T13:12:40.002Z</time></trkpt><trkpt lat="45.02778492995426" lon="9.581871902823112"><ele>69.0</ele><time>2026-04-02T13:12:42.002Z</time></trkpt><trkpt lat="45.02779280139213" lon="9.581966976571577"><ele>69.0</ele><time>2026-04-02T13:12:44.002Z</time></trkpt><trkpt lat="45.027802939373174" lon="9.58206066614766"><ele>69.0</ele><time>2026-04-02T13:12:46.002Z</time></trkpt><trkpt lat="45.02781368625615" lon="9.58215259391792"><ele>69.0</ele><time>2026-04-02T13:12:48.002Z</time></trkpt><trkpt lat="45.02781249498321" lon="9.582256326644067"><ele>69.0</ele><time>2026-04-02T13:12:50.002Z</time></trkpt><trkpt lat="45.027823697344076" lon="9.582354803761397"><ele>69.0</ele><time>2026-04-02T13:12:52.002Z</time></trkpt><trkpt lat="45.02783258502446" lon="9.582454557069367"><ele>69.0</ele><time>2026-04-02T13:12:54.002Z</time></trkpt><trkpt lat="45.02783935292774" lon="9.582552288965704"><ele>69.0</ele><time>2026-04-02T13:12:56.002Z</time></trkpt><trkpt lat="45.02785164334352" lon="9.582650893770824"><ele>69.0</ele><time>2026-04-02T13:12:58.002Z</time></trkpt><trkpt lat="45.027862409099654" lon="9.58274630122592"><ele>69.0</ele><time>2026-04-02T13:13:00.002Z</time></trkpt><trkpt lat="45.027867017059954" lon="9.582849499924226"><ele>69.0</ele><time>2026-04-02T13:13:02.002Z</time></trkpt><trkpt lat="45.02787615663274" lon="9.582952425494359"><ele>69.0</ele><time>2026-04-02T13:13:04.002Z</time></trkpt><trkpt lat="45.02788246345406" lon="9.583056298917006"><ele>69.0</ele><time>2026-04-02T13:13:06.002Z</time></trkpt><trkpt lat="45.0278897543926" lon="9.583159029404518"><ele>69.0</ele><time>2026-04-02T13:13:08.002Z</time></trkpt><trkpt lat="45.02789759946469" lon="9.583262181680077"><ele>69.0</ele><time>2026-04-02T13:13:10.002Z</time></trkpt><trkpt lat="45.02790904630114" lon="9.583363164048128"><ele>69.0</ele><time>2026-04-02T13:13:12.002Z</time></trkpt><trkpt lat="45.02791437900434" lon="9.58346064472366"><ele>69.0</ele><time>2026-04-02T13:13:14.002Z</time></trkpt><trkpt lat="45.02792274849834" lon="9.583560933514379"><ele>69.0</ele><time>2026-04-02T13:13:16.002Z</time></trkpt><trkpt lat="45.02793037244373" lon="9.58365161066112"><ele>69.0</ele><time>2026-04-02T13:13:18.002Z</time></trkpt><trkpt lat="45.02793716942974" lon="9.583748896947005"><ele>69.0</ele><time>2026-04-02T13:13:20.002Z</time></trkpt><trkpt lat="45.02794368679284" lon="9.58384878048188"><ele>69.0</ele><time>2026-04-02T13:13:22.002Z</time></trkpt><trkpt lat="45.02795365589536" lon="9.583945576070127"><ele>69.0</ele><time>2026-04-02T13:13:24.002Z</time></trkpt><trkpt lat="45.02796111988662" lon="9.584039585336932"><ele>69.0</ele><time>2026-04-02T13:13:26.002Z</time></trkpt><trkpt lat="45.02797109511113" lon="9.584132947005475"><ele>69.0</ele><time>2026-04-02T13:13:28.002Z</time></trkpt><trkpt lat="45.027976018813725" lon="9.584227485481469"><ele>69.0</ele><time>2026-04-02T13:13:30.002Z</time></trkpt><trkpt lat="45.0279843847576" lon="9.584323534366552"><ele>69.0</ele><time>2026-04-02T13:13:32.002Z</time></trkpt><trkpt lat="45.02799002468009" lon="9.584422075579525"><ele>69.0</ele><time>2026-04-02T13:13:34.002Z</time></trkpt><trkpt lat="45.02800132912464" lon="9.584521198184428"><ele>69.33333333333333</ele><time>2026-04-02T13:13:36.002Z</time></trkpt><trkpt lat="45.02800650410401" lon="9.584612545653107"><ele>69.66666666666667</ele><time>2026-04-02T13:13:38.002Z</time></trkpt><trkpt lat="45.02801897769362" lon="9.584704083346395"><ele>70.0</ele><time>2026-04-02T13:13:40.002Z</time></trkpt><trkpt lat="45.02802768830978" lon="9.584804298567397"><ele>70.33333333333334</ele><time>2026-04-02T13:13:42.002Z</time></trkpt><trkpt lat="45.02803510242305" lon="9.584899992828547"><ele>70.66666666666667</ele><time>2026-04-02T13:13:44.002Z</time></trkpt><trkpt lat="45.02804923572618" lon="9.585031079185287"><ele>71.0</ele><time>2026-04-02T13:13:47.002Z</time></trkpt><trkpt lat="45.02805204054965" lon="9.585163950532836"><ele>71.0</ele><time>2026-04-02T13:13:50.002Z</time></trkpt><trkpt lat="45.02800088617759" lon="9.58524361766461"><ele>71.0</ele><time>2026-04-02T13:13:53.002Z</time></trkpt><trkpt lat="45.02793451084959" lon="9.585236964251731"><ele>71.0</ele><time>2026-04-02T13:13:55.002Z</time></trkpt><trkpt lat="45.02786857237167" lon="9.58524856999527"><ele>71.0</ele><time>2026-04-02T13:13:57.002Z</time></trkpt><trkpt lat="45.02777155616477" lon="9.58526647583284"><ele>71.0</ele><time>2026-04-02T13:14:00.002Z</time></trkpt><trkpt lat="45.027706123976294" lon="9.585276740905487"><ele>71.0</ele><time>2026-04-02T13:14:02.002Z</time></trkpt><trkpt lat="45.02764091342991" lon="9.585294071280739"><ele>71.0</ele><time>2026-04-02T13:14:04.003Z</time></trkpt><trkpt lat="45.02757156422666" lon="9.585303781060203"><ele>71.0</ele><time>2026-04-02T13:14:06.002Z</time></trkpt><trkpt lat="45.0275024580754" lon="9.585312291296933"><ele>71.0</ele><time>2026-04-02T13:14:08.002Z</time></trkpt><trkpt lat="45.02743242638592" lon="9.585322467167437"><ele>71.0</ele><time>2026-04-02T13:14:10.002Z</time></trkpt><trkpt lat="45.02736301423815" lon="9.585333989620791"><ele>71.0</ele><time>2026-04-02T13:14:12.002Z</time></trkpt><trkpt lat="45.027299027424796" lon="9.585341494488526"><ele>71.0</ele><time>2026-04-02T13:14:14.002Z</time></trkpt><trkpt lat="45.02723216120615" lon="9.585346975410648"><ele>71.0</ele><time>2026-04-02T13:14:16.002Z</time></trkpt><trkpt lat="45.02716103534854" lon="9.585362029118455"><ele>71.0</ele><time>2026-04-02T13:14:18.002Z</time></trkpt><trkpt lat="45.02708879924243" lon="9.585371460594795"><ele>71.0</ele><time>2026-04-02T13:14:20.002Z</time></trkpt><trkpt lat="45.02701948584523" lon="9.585387745278247"><ele>71.0</ele><time>2026-04-02T13:14:22.002Z</time></trkpt><trkpt lat="45.02694859893042" lon="9.585392086157738"><ele>71.0</ele><time>2026-04-02T13:14:24.002Z</time></trkpt><trkpt lat="45.02687334210914" lon="9.585391502671758"><ele>71.0</ele><time>2026-04-02T13:14:26.002Z</time></trkpt><trkpt lat="45.02680464783805" lon="9.58535469147462"><ele>71.0</ele><time>2026-04-02T13:14:28.002Z</time></trkpt><trkpt lat="45.02674272356525" lon="9.585304826012239"><ele>71.0</ele><time>2026-04-02T13:14:30.002Z</time></trkpt><trkpt lat="45.02668616656587" lon="9.585245540410497"><ele>71.0</ele><time>2026-04-02T13:14:32.002Z</time></trkpt><trkpt lat="45.02663530064052" lon="9.585163074045209"><ele>70.83333333333334</ele><time>2026-04-02T13:14:34.002Z</time></trkpt><trkpt lat="45.02660092541474" lon="9.585065393029033"><ele>70.66666666666667</ele><time>2026-04-02T13:14:36.002Z</time></trkpt><trkpt lat="45.02658088590886" lon="9.584957856942612"><ele>70.5</ele><time>2026-04-02T13:14:38.002Z</time></trkpt><trkpt lat="45.02656428790799" lon="9.584845760696872"><ele>70.33333333333333</ele><time>2026-04-02T13:14:40.002Z</time></trkpt><trkpt lat="45.026549976509735" lon="9.584743220903874"><ele>70.16666666666666</ele><time>2026-04-02T13:14:42.002Z</time></trkpt><trkpt lat="45.026531867876805" lon="9.584632396621164"><ele>70.0</ele><time>2026-04-02T13:14:44.002Z</time></trkpt><trkpt lat="45.02651330226271" lon="9.58451893033074"><ele>70.0</ele><time>2026-04-02T13:14:46.002Z</time></trkpt><trkpt lat="45.02649442858989" lon="9.584405502476075"><ele>70.0</ele><time>2026-04-02T13:14:48.002Z</time></trkpt><trkpt lat="45.026476986555004" lon="9.584292725705263"><ele>70.0</ele><time>2026-04-02T13:14:50.002Z</time></trkpt><trkpt lat="45.0264609723139" lon="9.58418159290844"><ele>70.0</ele><time>2026-04-02T13:14:52.002Z</time></trkpt><trkpt lat="45.02644540684409" lon="9.584068340388894"><ele>70.0</ele><time>2026-04-02T13:14:54.002Z</time></trkpt><trkpt lat="45.026429059708605" lon="9.583967385176116"><ele>70.0</ele><time>2026-04-02T13:14:56.002Z</time></trkpt><trkpt lat="45.02640790089229" lon="9.583866964119562"><ele>70.0</ele><time>2026-04-02T13:14:58.002Z</time></trkpt><trkpt lat="45.02639269410946" lon="9.583765878318529"><ele>70.0</ele><time>2026-04-02T13:15:00.002Z</time></trkpt><trkpt lat="45.026372839396515" lon="9.583667557539608"><ele>70.0</ele><time>2026-04-02T13:15:02.002Z</time></trkpt><trkpt lat="45.02633161390642" lon="9.583584384787756"><ele>70.0</ele><time>2026-04-02T13:15:04.002Z</time></trkpt><trkpt lat="45.02625638846102" lon="9.58355909843708"><ele>70.0</ele><time>2026-04-02T13:15:06.002Z</time></trkpt><trkpt lat="45.02617450451508" lon="9.583570623389594"><ele>70.0</ele><time>2026-04-02T13:15:08.002Z</time></trkpt><trkpt lat="45.026102617277196" lon="9.583619672672722"><ele>70.0</ele><time>2026-04-02T13:15:10.002Z</time></trkpt><trkpt lat="45.02602366126953" lon="9.583655152672646"><ele>70.0</ele><time>2026-04-02T13:15:12.002Z</time></trkpt><trkpt lat="45.02595200664295" lon="9.583694798051933"><ele>70.0</ele><time>2026-04-02T13:15:14.002Z</time></trkpt><trkpt lat="45.02587745047136" lon="9.583737259035962"><ele>70.0</ele><time>2026-04-02T13:15:16.002Z</time></trkpt><trkpt lat="45.0258058701367" lon="9.583779388592918"><ele>70.0</ele><time>2026-04-02T13:15:18.002Z</time></trkpt><trkpt lat="45.02573572336304" lon="9.583814891851501"><ele>70.0</ele><time>2026-04-02T13:15:20.002Z</time></trkpt><trkpt lat="45.02566483170106" lon="9.583860545684171"><ele>70.16666666666666</ele><time>2026-04-02T13:15:22.002Z</time></trkpt><trkpt lat="45.02558907579745" lon="9.583904057099744"><ele>70.33333333333333</ele><time>2026-04-02T13:15:24.002Z</time></trkpt><trkpt lat="45.02551679235088" lon="9.5839457959126"><ele>70.5</ele><time>2026-04-02T13:15:26.002Z</time></trkpt><trkpt lat="45.02544176055558" lon="9.583982689528462"><ele>70.66666666666667</ele><time>2026-04-02T13:15:28.002Z</time></trkpt><trkpt lat="45.025366434876496" lon="9.58401957367879"><ele>70.83333333333334</ele><time>2026-04-02T13:15:30.002Z</time></trkpt><trkpt lat="45.02529126976069" lon="9.584046884605987"><ele>71.0</ele><time>2026-04-02T13:15:32.002Z</time></trkpt><trkpt lat="45.0252151938124" lon="9.584073731748644"><ele>71.0</ele><time>2026-04-02T13:15:34.002Z</time></trkpt><trkpt lat="45.025142732328256" lon="9.584093723706767"><ele>71.0</ele><time>2026-04-02T13:15:36.002Z</time></trkpt><trkpt lat="45.02507049405838" lon="9.58411575852122"><ele>71.0</ele><time>2026-04-02T13:15:38.002Z</time></trkpt><trkpt lat="45.024993547331086" lon="9.584135384241879"><ele>71.0</ele><time>2026-04-02T13:15:40.002Z</time></trkpt><trkpt lat="45.0249194543445" lon="9.584156646713256"><ele>71.0</ele><time>2026-04-02T13:15:42.002Z</time></trkpt><trkpt lat="45.0248431447215" lon="9.5841804589973"><ele>71.0</ele><time>2026-04-02T13:15:44.002Z</time></trkpt><trkpt lat="45.02476743183322" lon="9.58420104278309"><ele>71.0</ele><time>2026-04-02T13:15:46.002Z</time></trkpt><trkpt lat="45.02469033574015" lon="9.584220731958784"><ele>71.0</ele><time>2026-04-02T13:15:48.002Z</time></trkpt><trkpt lat="45.02461552343838" lon="9.584240443846106"><ele>71.0</ele><time>2026-04-02T13:15:50.002Z</time></trkpt><trkpt lat="45.02453733075019" lon="9.584262238080447"><ele>71.0</ele><time>2026-04-02T13:15:52.002Z</time></trkpt><trkpt lat="45.02446180654657" lon="9.584279771007717"><ele>71.0</ele><time>2026-04-02T13:15:54.002Z</time></trkpt><trkpt lat="45.02438982826258" lon="9.584300183781115"><ele>71.0</ele><time>2026-04-02T13:15:56.002Z</time></trkpt><trkpt lat="45.024309582207295" lon="9.58432056146218"><ele>71.0</ele><time>2026-04-02T13:15:58.002Z</time></trkpt><trkpt lat="45.02423885633305" lon="9.584343406615293"><ele>71.0</ele><time>2026-04-02T13:16:00.002Z</time></trkpt><trkpt lat="45.02416641882483" lon="9.584362921005873"><ele>71.0</ele><time>2026-04-02T13:16:02.002Z</time></trkpt><trkpt lat="45.024089605581004" lon="9.584382016139337"><ele>71.0</ele><time>2026-04-02T13:16:04.002Z</time></trkpt><trkpt lat="45.024014014353654" lon="9.584398919138806"><ele>71.0</ele><time>2026-04-02T13:16:06.002Z</time></trkpt><trkpt lat="45.02393780917087" lon="9.584418271962099"><ele>71.0</ele><time>2026-04-02T13:16:08.003Z</time></trkpt><trkpt lat="45.02386354460398" lon="9.584442100236675"><ele>70.83333333333334</ele><time>2026-04-02T13:16:10.003Z</time></trkpt><trkpt lat="45.023786041483085" lon="9.584457666935169"><ele>70.66666666666667</ele><time>2026-04-02T13:16:12.002Z</time></trkpt><trkpt lat="45.023711320550355" lon="9.584477269147515"><ele>70.5</ele><time>2026-04-02T13:16:14.002Z</time></trkpt><trkpt lat="45.02363222826997" lon="9.584495212858046"><ele>70.33333333333333</ele><time>2026-04-02T13:16:16.002Z</time></trkpt><trkpt lat="45.02355530788891" lon="9.58452273020326"><ele>70.16666666666666</ele><time>2026-04-02T13:16:18.002Z</time></trkpt><trkpt lat="45.023477729207464" lon="9.58453662204569"><ele>70.0</ele><time>2026-04-02T13:16:20.002Z</time></trkpt><trkpt lat="45.02340150321777" lon="9.58455834469102"><ele>70.33333333333333</ele><time>2026-04-02T13:16:22.002Z</time></trkpt><trkpt lat="45.02332546415322" lon="9.584574292410673"><ele>70.66666666666666</ele><time>2026-04-02T13:16:24.002Z</time></trkpt><trkpt lat="45.02325242891119" lon="9.584595171093321"><ele>71.0</ele><time>2026-04-02T13:16:26.002Z</time></trkpt><trkpt lat="45.02317547686707" lon="9.584610601050239"><ele>71.33333333333333</ele><time>2026-04-02T13:16:28.002Z</time></trkpt><trkpt lat="45.02310282487582" lon="9.584630600044331"><ele>71.66666666666667</ele><time>2026-04-02T13:16:30.002Z</time></trkpt><trkpt lat="45.02302765296385" lon="9.58464756857448"><ele>72.0</ele><time>2026-04-02T13:16:32.002Z</time></trkpt><trkpt lat="45.022953137387525" lon="9.584601847757524"><ele>71.83333333333333</ele><time>2026-04-02T13:16:34.002Z</time></trkpt><trkpt lat="45.0229207536238" lon="9.584490332732829"><ele>71.66666666666667</ele><time>2026-04-02T13:16:36.002Z</time></trkpt><trkpt lat="45.02288374606852" lon="9.584382867715842"><ele>71.5</ele><time>2026-04-02T13:16:38.002Z</time></trkpt><trkpt lat="45.022843405365194" lon="9.584284923589937"><ele>71.33333333333334</ele><time>2026-04-02T13:16:40.002Z</time></trkpt><trkpt lat="45.02280490885543" lon="9.584185330347355"><ele>71.16666666666667</ele><time>2026-04-02T13:16:42.002Z</time></trkpt><trkpt lat="45.02276327222967" lon="9.584085165299923"><ele>71.0</ele><time>2026-04-02T13:16:44.002Z</time></trkpt><trkpt lat="45.02272158366114" lon="9.583981312338251"><ele>71.0</ele><time>2026-04-02T13:16:46.002Z</time></trkpt><trkpt lat="45.02268066924514" lon="9.583874042399694"><ele>71.0</ele><time>2026-04-02T13:16:48.002Z</time></trkpt><trkpt lat="45.02263631083801" lon="9.583766676391813"><ele>71.0</ele><time>2026-04-02T13:16:50.002Z</time></trkpt><trkpt lat="45.02258987753589" lon="9.583656729922374"><ele>71.0</ele><time>2026-04-02T13:16:52.002Z</time></trkpt><trkpt lat="45.02254459494779" lon="9.583544257268741"><ele>71.0</ele><time>2026-04-02T13:16:54.002Z</time></trkpt><trkpt lat="45.02250032211651" lon="9.58343282994101"><ele>71.0</ele><time>2026-04-02T13:16:56.002Z</time></trkpt><trkpt lat="45.022451736659754" lon="9.583316423373281"><ele>71.2</ele><time>2026-04-02T13:16:58.002Z</time></trkpt><trkpt lat="45.02240837496345" lon="9.583197158772792"><ele>71.39999999999999</ele><time>2026-04-02T13:17:00.002Z</time></trkpt><trkpt lat="45.022359074373476" lon="9.58307984562339"><ele>71.6</ele><time>2026-04-02T13:17:02.002Z</time></trkpt><trkpt lat="45.02231242226871" lon="9.58296028476246"><ele>71.8</ele><time>2026-04-02T13:17:04.002Z</time></trkpt><trkpt lat="45.02226299822068" lon="9.58284817015093"><ele>72.0</ele><time>2026-04-02T13:17:06.002Z</time></trkpt><trkpt lat="45.02221558861747" lon="9.582734454135387"><ele>72.33333333333333</ele><time>2026-04-02T13:17:08.002Z</time></trkpt><trkpt lat="45.022160598012505" lon="9.582627628488384"><ele>72.66666666666667</ele><time>2026-04-02T13:17:10.002Z</time></trkpt><trkpt lat="45.022111419735104" lon="9.582522717724583"><ele>73.0</ele><time>2026-04-02T13:17:12.002Z</time></trkpt><trkpt lat="45.02205838200905" lon="9.582432856649076"><ele>73.33333333333334</ele><time>2026-04-02T13:17:14.002Z</time></trkpt><trkpt lat="45.022009518131036" lon="9.582344347379939"><ele>73.66666666666667</ele><time>2026-04-02T13:17:16.002Z</time></trkpt><trkpt lat="45.02196242296565" lon="9.582266640772822"><ele>74.0</ele><time>2026-04-02T13:17:18.002Z</time></trkpt><trkpt lat="45.021915721386684" lon="9.582191071022766"><ele>74.0</ele><time>2026-04-02T13:17:20.002Z</time></trkpt><trkpt lat="45.02185867615897" lon="9.582090509330275"><ele>74.0</ele><time>2026-04-02T13:17:23.002Z</time></trkpt><trkpt lat="45.02179928912682" lon="9.582033306995413"><ele>74.0</ele><time>2026-04-02T13:17:25.002Z</time></trkpt><trkpt lat="45.02172052557813" lon="9.582021422781306"><ele>74.0</ele><time>2026-04-02T13:17:27.002Z</time></trkpt><trkpt lat="45.021654155065384" lon="9.582054438209905"><ele>74.0</ele><time>2026-04-02T13:17:29.002Z</time></trkpt><trkpt lat="45.021590535015044" lon="9.582103930335373"><ele>74.0</ele><time>2026-04-02T13:17:31.002Z</time></trkpt><trkpt lat="45.02152318301142" lon="9.582145081826402"><ele>73.71428571428572</ele><time>2026-04-02T13:17:33.002Z</time></trkpt><trkpt lat="45.02145419677475" lon="9.582185935453275"><ele>73.42857142857143</ele><time>2026-04-02T13:17:35.002Z</time></trkpt><trkpt lat="45.02138984276776" lon="9.582231548588926"><ele>73.14285714285714</ele><time>2026-04-02T13:17:37.002Z</time></trkpt><trkpt lat="45.02132364097319" lon="9.582270191708954"><ele>72.85714285714286</ele><time>2026-04-02T13:17:39.002Z</time></trkpt><trkpt lat="45.0212624593283" lon="9.58231625204799"><ele>72.57142857142857</ele><time>2026-04-02T13:17:41.002Z</time></trkpt><trkpt lat="45.0211953598943" lon="9.582351735857424"><ele>72.28571428571429</ele><time>2026-04-02T13:17:43.002Z</time></trkpt><trkpt lat="45.021136622807134" lon="9.582397838813126"><ele>72.0</ele><time>2026-04-02T13:17:45.002Z</time></trkpt><trkpt lat="45.02107636255478" lon="9.582438052915574"><ele>72.0</ele><time>2026-04-02T13:17:47.002Z</time></trkpt><trkpt lat="45.02100984567473" lon="9.582476247908447"><ele>72.0</ele><time>2026-04-02T13:17:49.002Z</time></trkpt><trkpt lat="45.02094632752347" lon="9.582522577149884"><ele>72.0</ele><time>2026-04-02T13:17:51.002Z</time></trkpt><trkpt lat="45.02086125025772" lon="9.58257399491686"><ele>72.0</ele><time>2026-04-02T13:17:54.002Z</time></trkpt><trkpt lat="45.020800993760155" lon="9.582612605477498"><ele>72.0</ele><time>2026-04-02T13:17:56.002Z</time></trkpt><trkpt lat="45.02071088352774" lon="9.582632465642996"><ele>72.0</ele><time>2026-04-02T13:17:59.002Z</time></trkpt><trkpt lat="45.02064988611241" lon="9.582581245741657"><ele>71.85714285714286</ele><time>2026-04-02T13:18:01.002Z</time></trkpt><trkpt lat="45.02060563274263" lon="9.582509859574424"><ele>71.71428571428572</ele><time>2026-04-02T13:18:03.002Z</time></trkpt><trkpt lat="45.02057189691227" lon="9.582417828398508"><ele>71.57142857142857</ele><time>2026-04-02T13:18:05.002Z</time></trkpt><trkpt lat="45.02052818726518" lon="9.582342967482024"><ele>71.42857142857143</ele><time>2026-04-02T13:18:07.002Z</time></trkpt><trkpt lat="45.02048390311979" lon="9.582264301412652"><ele>71.28571428571428</ele><time>2026-04-02T13:18:09.002Z</time></trkpt><trkpt lat="45.020427244377515" lon="9.58218276726792"><ele>71.14285714285714</ele><time>2026-04-02T13:18:11.002Z</time></trkpt><trkpt lat="45.020374546633015" lon="9.58210886320987"><ele>71.0</ele><time>2026-04-02T13:18:13.003Z</time></trkpt><trkpt lat="45.020315358854155" lon="9.582045891144377"><ele>71.0</ele><time>2026-04-02T13:18:15.002Z</time></trkpt><trkpt lat="45.02025503242443" lon="9.581991225559053"><ele>71.0</ele><time>2026-04-02T13:18:17.002Z</time></trkpt><trkpt lat="45.02018932319441" lon="9.581950007007354"><ele>71.0</ele><time>2026-04-02T13:18:19.003Z</time></trkpt><trkpt lat="45.02012950048613" lon="9.581913290336121"><ele>71.0</ele><time>2026-04-02T13:18:21.003Z</time></trkpt><trkpt lat="45.020063040486214" lon="9.581880882862345"><ele>71.0</ele><time>2026-04-02T13:18:23.003Z</time></trkpt><trkpt lat="45.019999766777694" lon="9.581852862275024"><ele>71.0</ele><time>2026-04-02T13:18:25.003Z</time></trkpt><trkpt lat="45.019929916640855" lon="9.581823920221181"><ele>71.0</ele><time>2026-04-02T13:18:27.003Z</time></trkpt><trkpt lat="45.01986115220014" lon="9.58180891284733"><ele>71.57142857142857</ele><time>2026-04-02T13:18:29.003Z</time></trkpt><trkpt lat="45.019802069289945" lon="9.581775623008511"><ele>72.14285714285714</ele><time>2026-04-02T13:18:31.003Z</time></trkpt><trkpt lat="45.01973810914453" lon="9.581752137641306"><ele>72.71428571428571</ele><time>2026-04-02T13:18:33.003Z</time></trkpt><trkpt lat="45.019678853907195" lon="9.581717897280708"><ele>73.28571428571428</ele><time>2026-04-02T13:18:35.003Z</time></trkpt><trkpt lat="45.01960930870653" lon="9.581698601387682"><ele>73.85714285714286</ele><time>2026-04-02T13:18:37.003Z</time></trkpt><trkpt lat="45.01954399594949" lon="9.581673762065607"><ele>74.42857142857142</ele><time>2026-04-02T13:18:39.003Z</time></trkpt><trkpt lat="45.019481185241176" lon="9.58163306375907"><ele>75.0</ele><time>2026-04-02T13:18:41.003Z</time></trkpt><trkpt lat="45.01941688368877" lon="9.581610249843635"><ele>74.99999999999999</ele><time>2026-04-02T13:18:43.003Z</time></trkpt><trkpt lat="45.01934710017111" lon="9.581597027325008"><ele>75.0</ele><time>2026-04-02T13:18:45.003Z</time></trkpt><trkpt lat="45.019278650097746" lon="9.581603867452733"><ele>75.0</ele><time>2026-04-02T13:18:47.003Z</time></trkpt><trkpt lat="45.01918088163324" lon="9.58161791610935"><ele>75.0</ele><time>2026-04-02T13:18:50.003Z</time></trkpt><trkpt lat="45.01910524721786" lon="9.581615287493157"><ele>75.0</ele><time>2026-04-02T13:18:52.003Z</time></trkpt><trkpt lat="45.01903985765887" lon="9.581619173335293"><ele>74.99999999999999</ele><time>2026-04-02T13:18:54.003Z</time></trkpt><trkpt lat="45.0189724196244" lon="9.581618492297714"><ele>75.0</ele><time>2026-04-02T13:18:56.003Z</time></trkpt><trkpt lat="45.01889698999482" lon="9.581614085318128"><ele>74.83333333333333</ele><time>2026-04-02T13:18:58.003Z</time></trkpt><trkpt lat="45.018831203151414" lon="9.581608271756998"><ele>74.66666666666667</ele><time>2026-04-02T13:19:00.003Z</time></trkpt><trkpt lat="45.018762533014694" lon="9.581604127060144"><ele>74.5</ele><time>2026-04-02T13:19:02.003Z</time></trkpt><trkpt lat="45.01869768921014" lon="9.581597193274764"><ele>74.33333333333334</ele><time>2026-04-02T13:19:04.003Z</time></trkpt><trkpt lat="45.018601165577" lon="9.581602169542311"><ele>74.16666666666667</ele><time>2026-04-02T13:19:07.003Z</time></trkpt><trkpt lat="45.01850985283404" lon="9.581593524338695"><ele>74.0</ele><time>2026-04-02T13:19:10.003Z</time></trkpt><trkpt lat="45.018412898963504" lon="9.581594938963512"><ele>74.0</ele><time>2026-04-02T13:19:13.003Z</time></trkpt><trkpt lat="45.01832129918138" lon="9.58159566573642"><ele>74.0</ele><time>2026-04-02T13:19:16.003Z</time></trkpt><trkpt lat="45.018257262610426" lon="9.581597640092664"><ele>74.0</ele><time>2026-04-02T13:19:18.003Z</time></trkpt><trkpt lat="45.0181833756146" lon="9.581601763462016"><ele>74.0</ele><time>2026-04-02T13:19:20.003Z</time></trkpt><trkpt lat="45.0181094599888" lon="9.58160801355843"><ele>74.0</ele><time>2026-04-02T13:19:22.003Z</time></trkpt><trkpt lat="45.01803927822641" lon="9.581606665049575"><ele>74.0</ele><time>2026-04-02T13:19:24.003Z</time></trkpt><trkpt lat="45.01797143083588" lon="9.58160941465879"><ele>74.0</ele><time>2026-04-02T13:19:26.003Z</time></trkpt><trkpt lat="45.0178992504197" lon="9.581618733215597"><ele>74.0</ele><time>2026-04-02T13:19:28.003Z</time></trkpt><trkpt lat="45.01783057435231" lon="9.581621573786233"><ele>74.0</ele><time>2026-04-02T13:19:30.003Z</time></trkpt><trkpt lat="45.01776234589734" lon="9.581630204509274"><ele>74.0</ele><time>2026-04-02T13:19:32.003Z</time></trkpt><trkpt lat="45.01769657150257" lon="9.581637599009424"><ele>74.0</ele><time>2026-04-02T13:19:34.003Z</time></trkpt><trkpt lat="45.01762897377668" lon="9.581662317295493"><ele>74.0</ele><time>2026-04-02T13:19:36.003Z</time></trkpt><trkpt lat="45.017568080530204" lon="9.581706878715936"><ele>74.0</ele><time>2026-04-02T13:19:38.003Z</time></trkpt><trkpt lat="45.01750038403152" lon="9.581745260261124"><ele>74.0</ele><time>2026-04-02T13:19:40.003Z</time></trkpt><trkpt lat="45.017441706695145" lon="9.58179122257819"><ele>74.0</ele><time>2026-04-02T13:19:42.003Z</time></trkpt><trkpt lat="45.01738084315823" lon="9.58184119933667"><ele>74.0</ele><time>2026-04-02T13:19:44.003Z</time></trkpt><trkpt lat="45.01731762820546" lon="9.581882753610063"><ele>74.0</ele><time>2026-04-02T13:19:46.003Z</time></trkpt><trkpt lat="45.01726087930408" lon="9.58193459101889"><ele>74.0</ele><time>2026-04-02T13:19:48.003Z</time></trkpt><trkpt lat="45.017179864560035" lon="9.582013072434723"><ele>74.0</ele><time>2026-04-02T13:19:51.003Z</time></trkpt><trkpt lat="45.017126286234486" lon="9.582068439754995"><ele>74.0</ele><time>2026-04-02T13:19:53.003Z</time></trkpt><trkpt lat="45.01706511391256" lon="9.582119111887604"><ele>74.0</ele><time>2026-04-02T13:19:55.003Z</time></trkpt><trkpt lat="45.016998599920086" lon="9.582163553111736"><ele>74.0</ele><time>2026-04-02T13:19:57.003Z</time></trkpt><trkpt lat="45.01693704975462" lon="9.582217343554262"><ele>74.0</ele><time>2026-04-02T13:19:59.003Z</time></trkpt><trkpt lat="45.01687938015635" lon="9.582274563210866"><ele>74.0</ele><time>2026-04-02T13:20:01.003Z</time></trkpt><trkpt lat="45.01681645597259" lon="9.5823302943348"><ele>74.0</ele><time>2026-04-02T13:20:03.003Z</time></trkpt><trkpt lat="45.01675919539354" lon="9.582392551240488"><ele>74.0</ele><time>2026-04-02T13:20:05.003Z</time></trkpt><trkpt lat="45.01669433829906" lon="9.582446138469498"><ele>74.0</ele><time>2026-04-02T13:20:07.003Z</time></trkpt><trkpt lat="45.01663091414778" lon="9.582503340579752"><ele>74.0</ele><time>2026-04-02T13:20:09.003Z</time></trkpt><trkpt lat="45.01656616004453" lon="9.582557486531199"><ele>74.14285714285714</ele><time>2026-04-02T13:20:11.003Z</time></trkpt><trkpt lat="45.016505058801286" lon="9.58260886024314"><ele>74.28571428571428</ele><time>2026-04-02T13:20:13.003Z</time></trkpt><trkpt lat="45.016444905860766" lon="9.582665732869167"><ele>74.42857142857142</ele><time>2026-04-02T13:20:15.003Z</time></trkpt><trkpt lat="45.01638736656441" lon="9.582726410829972"><ele>74.57142857142857</ele><time>2026-04-02T13:20:17.003Z</time></trkpt><trkpt lat="45.01632631912843" lon="9.58278706817536"><ele>74.71428571428571</ele><time>2026-04-02T13:20:19.003Z</time></trkpt><trkpt lat="45.016277245887004" lon="9.582849953379085"><ele>74.85714285714285</ele><time>2026-04-02T13:20:21.002Z</time></trkpt><trkpt lat="45.01622398686859" lon="9.582928628028034"><ele>75.0</ele><time>2026-04-02T13:20:23.003Z</time></trkpt><trkpt lat="45.01616273695412" lon="9.582970417214979"><ele>75.14285714285714</ele><time>2026-04-02T13:20:25.003Z</time></trkpt><trkpt lat="45.0161092404837" lon="9.583026000921441"><ele>75.28571428571428</ele><time>2026-04-02T13:20:27.003Z</time></trkpt><trkpt lat="45.01605225575667" lon="9.583089238309128"><ele>75.42857142857142</ele><time>2026-04-02T13:20:29.003Z</time></trkpt><trkpt lat="45.01598989804953" lon="9.5831508091117"><ele>75.57142857142857</ele><time>2026-04-02T13:20:31.003Z</time></trkpt><trkpt lat="45.01591238501838" lon="9.583232821244252"><ele>75.71428571428572</ele><time>2026-04-02T13:20:34.003Z</time></trkpt><trkpt lat="45.01585554631447" lon="9.583285540937872"><ele>75.85714285714285</ele><time>2026-04-02T13:20:36.003Z</time></trkpt><trkpt lat="45.01579876087931" lon="9.583341627615875"><ele>76.0</ele><time>2026-04-02T13:20:38.003Z</time></trkpt><trkpt lat="45.01574477152482" lon="9.583398011968386"><ele>76.0</ele><time>2026-04-02T13:20:40.003Z</time></trkpt><trkpt lat="45.01565977431263" lon="9.583460423082643"><ele>76.0</ele><time>2026-04-02T13:20:43.003Z</time></trkpt><trkpt lat="45.01559599329011" lon="9.5834738726467"><ele>76.0</ele><time>2026-04-02T13:20:45.003Z</time></trkpt><trkpt lat="45.01555797032272" lon="9.583366527500347"><ele>76.0</ele><time>2026-04-02T13:20:48.003Z</time></trkpt><trkpt lat="45.01554704637972" lon="9.583276997695613"><ele>76.0</ele><time>2026-04-02T13:20:50.003Z</time></trkpt><trkpt lat="45.01553721193797" lon="9.583186622505094"><ele>76.0</ele><time>2026-04-02T13:20:52.003Z</time></trkpt><trkpt lat="45.015526785707124" lon="9.583062848032402"><ele>76.0</ele><time>2026-04-02T13:20:55.003Z</time></trkpt><trkpt lat="45.01551304242606" lon="9.582967784046586"><ele>76.0</ele><time>2026-04-02T13:20:57.003Z</time></trkpt><trkpt lat="45.015496864888334" lon="9.582856817071484"><ele>76.0</ele><time>2026-04-02T13:20:59.003Z</time></trkpt><trkpt lat="45.015462595998756" lon="9.582746957887455"><ele>76.0</ele><time>2026-04-02T13:21:01.003Z</time></trkpt><trkpt lat="45.01543132213946" lon="9.58262584490746"><ele>76.0</ele><time>2026-04-02T13:21:03.003Z</time></trkpt><trkpt lat="45.015412359232776" lon="9.582510381673455"><ele>76.0</ele><time>2026-04-02T13:21:05.003Z</time></trkpt><trkpt lat="45.0153779709022" lon="9.582398694650358"><ele>76.0</ele><time>2026-04-02T13:21:07.003Z</time></trkpt><trkpt lat="45.01533237800841" lon="9.58229198447924"><ele>76.0</ele><time>2026-04-02T13:21:09.003Z</time></trkpt><trkpt lat="45.01529338460304" lon="9.5821796752925"><ele>76.0</ele><time>2026-04-02T13:21:11.003Z</time></trkpt><trkpt lat="45.01525528997918" lon="9.582066793502637"><ele>76.0</ele><time>2026-04-02T13:21:13.003Z</time></trkpt><trkpt lat="45.01521807887994" lon="9.581953637008267"><ele>76.0</ele><time>2026-04-02T13:21:15.003Z</time></trkpt><trkpt lat="45.01518460063222" lon="9.581833993851715"><ele>76.0</ele><time>2026-04-02T13:21:17.003Z</time></trkpt><trkpt lat="45.01515474968411" lon="9.58171223841876"><ele>76.0</ele><time>2026-04-02T13:21:19.003Z</time></trkpt><trkpt lat="45.015129545474345" lon="9.581585609138527"><ele>76.0</ele><time>2026-04-02T13:21:21.003Z</time></trkpt><trkpt lat="45.01510673130071" lon="9.581456065835173"><ele>76.0</ele><time>2026-04-02T13:21:23.003Z</time></trkpt><trkpt lat="45.015099332797384" lon="9.581309858010053"><ele>76.0</ele><time>2026-04-02T13:21:25.003Z</time></trkpt><trkpt lat="45.015089517568576" lon="9.581177975579998"><ele>76.0</ele><time>2026-04-02T13:21:27.003Z</time></trkpt><trkpt lat="45.01508197317428" lon="9.58103278029406"><ele>76.0</ele><time>2026-04-02T13:21:29.003Z</time></trkpt><trkpt lat="45.015078172357526" lon="9.580886740288443"><ele>76.0</ele><time>2026-04-02T13:21:31.003Z</time></trkpt><trkpt lat="45.01506351051482" lon="9.58074027554314"><ele>76.0</ele><time>2026-04-02T13:21:33.003Z</time></trkpt><trkpt lat="45.01505284675508" lon="9.580583855600064"><ele>76.0</ele><time>2026-04-02T13:21:35.003Z</time></trkpt><trkpt lat="45.015042219360666" lon="9.580437686194175"><ele>76.0</ele><time>2026-04-02T13:21:37.003Z</time></trkpt><trkpt lat="45.01503603041253" lon="9.580286958120757"><ele>76.0</ele><time>2026-04-02T13:21:39.003Z</time></trkpt><trkpt lat="45.01502679286068" lon="9.580141644646165"><ele>76.0</ele><time>2026-04-02T13:21:41.003Z</time></trkpt><trkpt lat="45.01501682782693" lon="9.579985341931827"><ele>76.0</ele><time>2026-04-02T13:21:43.003Z</time></trkpt><trkpt lat="45.01500569411442" lon="9.579835810203159"><ele>76.0</ele><time>2026-04-02T13:21:45.003Z</time></trkpt><trkpt lat="45.01499314841822" lon="9.579682186562394"><ele>76.0</ele><time>2026-04-02T13:21:47.003Z</time></trkpt><trkpt lat="45.014978155578596" lon="9.579530490233237"><ele>76.39999999999999</ele><time>2026-04-02T13:21:49.003Z</time></trkpt><trkpt lat="45.014963040597344" lon="9.579383756185443"><ele>76.8</ele><time>2026-04-02T13:21:51.003Z</time></trkpt><trkpt lat="45.01494060712523" lon="9.579237278117965"><ele>77.19999999999999</ele><time>2026-04-02T13:21:53.003Z</time></trkpt><trkpt lat="45.01490761473795" lon="9.579101325260046"><ele>77.6</ele><time>2026-04-02T13:21:55.003Z</time></trkpt><trkpt lat="45.01486641790141" lon="9.578957939008426"><ele>78.0</ele><time>2026-04-02T13:21:57.003Z</time></trkpt><trkpt lat="45.01483378933988" lon="9.578815839743529"><ele>77.8</ele><time>2026-04-02T13:21:59.003Z</time></trkpt><trkpt lat="45.01478868043571" lon="9.578671867479613"><ele>77.6</ele><time>2026-04-02T13:22:01.003Z</time></trkpt><trkpt lat="45.01474368967453" lon="9.578532794739294"><ele>77.4</ele><time>2026-04-02T13:22:03.003Z</time></trkpt><trkpt lat="45.01470299507559" lon="9.57839771979267"><ele>77.2</ele><time>2026-04-02T13:22:05.003Z</time></trkpt><trkpt lat="45.01465795146578" lon="9.578269563565545"><ele>77.0</ele><time>2026-04-02T13:22:07.003Z</time></trkpt><trkpt lat="45.01460409887423" lon="9.578144117843769"><ele>77.0</ele><time>2026-04-02T13:22:09.003Z</time></trkpt><trkpt lat="45.014521773624494" lon="9.578063261862141"><ele>77.0</ele><time>2026-04-02T13:22:11.003Z</time></trkpt><trkpt lat="45.014422072781485" lon="9.57801526263841"><ele>77.0</ele><time>2026-04-02T13:22:13.003Z</time></trkpt><trkpt lat="45.014331412216485" lon="9.577975025159969"><ele>77.0</ele><time>2026-04-02T13:22:15.003Z</time></trkpt><trkpt lat="45.01423536414097" lon="9.577920821360097"><ele>77.0</ele><time>2026-04-02T13:22:17.003Z</time></trkpt><trkpt lat="45.01414606845965" lon="9.577876422557475"><ele>77.0</ele><time>2026-04-02T13:22:19.003Z</time></trkpt><trkpt lat="45.01405217217194" lon="9.577832986764978"><ele>77.0</ele><time>2026-04-02T13:22:21.003Z</time></trkpt><trkpt lat="45.013958556609914" lon="9.577802101473893"><ele>77.0</ele><time>2026-04-02T13:22:23.003Z</time></trkpt><trkpt lat="45.013866999355926" lon="9.577769770942368"><ele>77.0</ele><time>2026-04-02T13:22:25.003Z</time></trkpt><trkpt lat="45.013776837554786" lon="9.5777369548543"><ele>77.0</ele><time>2026-04-02T13:22:27.003Z</time></trkpt><trkpt lat="45.01368809396572" lon="9.57770087925777"><ele>77.0</ele><time>2026-04-02T13:22:29.003Z</time></trkpt><trkpt lat="45.013618429221175" lon="9.577610046600402"><ele>77.0</ele><time>2026-04-02T13:22:31.003Z</time></trkpt><trkpt lat="45.01361059014821" lon="9.577461354159256"><ele>77.0</ele><time>2026-04-02T13:22:33.002Z</time></trkpt><trkpt lat="45.013617217767965" lon="9.577310809754389"><ele>77.0</ele><time>2026-04-02T13:22:35.002Z</time></trkpt><trkpt lat="45.0136155232262" lon="9.577167540690459"><ele>77.0</ele><time>2026-04-02T13:22:37.003Z</time></trkpt><trkpt lat="45.01360503436911" lon="9.577017101419077"><ele>76.6</ele><time>2026-04-02T13:22:39.003Z</time></trkpt><trkpt lat="45.01359517269881" lon="9.576868364343513"><ele>76.2</ele><time>2026-04-02T13:22:41.003Z</time></trkpt><trkpt lat="45.013587181100135" lon="9.57672250867615"><ele>75.8</ele><time>2026-04-02T13:22:43.003Z</time></trkpt><trkpt lat="45.013565203245136" lon="9.576575929967698"><ele>75.4</ele><time>2026-04-02T13:22:45.003Z</time></trkpt><trkpt lat="45.01354825231122" lon="9.57642999508675"><ele>75.0</ele><time>2026-04-02T13:22:47.003Z</time></trkpt><trkpt lat="45.0135314576505" lon="9.576282584580873"><ele>75.4</ele><time>2026-04-02T13:22:49.003Z</time></trkpt><trkpt lat="45.01350814277715" lon="9.576137524988537"><ele>75.8</ele><time>2026-04-02T13:22:51.003Z</time></trkpt><trkpt lat="45.013487802066514" lon="9.575992088972574"><ele>76.2</ele><time>2026-04-02T13:22:53.003Z</time></trkpt><trkpt lat="45.013468456448365" lon="9.575852528286383"><ele>76.6</ele><time>2026-04-02T13:22:55.003Z</time></trkpt><trkpt lat="45.01344488265939" lon="9.575703296561823"><ele>77.0</ele><time>2026-04-02T13:22:57.003Z</time></trkpt><trkpt lat="45.01342416831684" lon="9.575558123033181"><ele>77.0</ele><time>2026-04-02T13:22:59.003Z</time></trkpt><trkpt lat="45.0134074048788" lon="9.575415846754671"><ele>77.0</ele><time>2026-04-02T13:23:01.003Z</time></trkpt><trkpt lat="45.013387015303316" lon="9.575275503859295"><ele>77.0</ele><time>2026-04-02T13:23:03.003Z</time></trkpt><trkpt lat="45.01336390295862" lon="9.575126408102859"><ele>77.0</ele><time>2026-04-02T13:23:05.003Z</time></trkpt><trkpt lat="45.01334181301118" lon="9.574983264359396"><ele>77.0</ele><time>2026-04-02T13:23:07.003Z</time></trkpt><trkpt lat="45.013316497130624" lon="9.574847028337674"><ele>77.0</ele><time>2026-04-02T13:23:09.003Z</time></trkpt><trkpt lat="45.01329542651381" lon="9.574701760035177"><ele>77.0</ele><time>2026-04-02T13:23:11.003Z</time></trkpt><trkpt lat="45.01327549653366" lon="9.574560886462246"><ele>77.0</ele><time>2026-04-02T13:23:13.003Z</time></trkpt><trkpt lat="45.01325226151788" lon="9.574423071421784"><ele>77.0</ele><time>2026-04-02T13:23:15.003Z</time></trkpt><trkpt lat="45.01322975199998" lon="9.574267345345357"><ele>77.0</ele><time>2026-04-02T13:23:17.003Z</time></trkpt><trkpt lat="45.01320537577321" lon="9.574123630008163"><ele>76.8</ele><time>2026-04-02T13:23:19.003Z</time></trkpt><trkpt lat="45.01318044767197" lon="9.573979425666183"><ele>76.6</ele><time>2026-04-02T13:23:21.003Z</time></trkpt><trkpt lat="45.013155998912225" lon="9.573837792155564"><ele>76.39999999999999</ele><time>2026-04-02T13:23:23.003Z</time></trkpt><trkpt lat="45.01313346980062" lon="9.57369934121672"><ele>76.2</ele><time>2026-04-02T13:23:25.003Z</time></trkpt><trkpt lat="45.0131206357345" lon="9.573548749233298"><ele>76.0</ele><time>2026-04-02T13:23:27.003Z</time></trkpt><trkpt lat="45.01311183428976" lon="9.573393032564526"><ele>76.0</ele><time>2026-04-02T13:23:29.003Z</time></trkpt><trkpt lat="45.01310119412825" lon="9.573237037016646"><ele>76.0</ele><time>2026-04-02T13:23:31.003Z</time></trkpt><trkpt lat="45.013102836945045" lon="9.573084303081346"><ele>76.0</ele><time>2026-04-02T13:23:33.003Z</time></trkpt><trkpt lat="45.013109136126666" lon="9.57294064724983"><ele>76.0</ele><time>2026-04-02T13:23:35.003Z</time></trkpt><trkpt lat="45.01310576867176" lon="9.572805942901583"><ele>76.0</ele><time>2026-04-02T13:23:37.003Z</time></trkpt><trkpt lat="45.01309976440936" lon="9.572680239993494"><ele>76.39999999999999</ele><time>2026-04-02T13:23:39.003Z</time></trkpt><trkpt lat="45.01309686282525" lon="9.572544047069252"><ele>76.8</ele><time>2026-04-02T13:23:41.003Z</time></trkpt><trkpt lat="45.01308096969863" lon="9.572414199249444"><ele>77.19999999999999</ele><time>2026-04-02T13:23:43.003Z</time></trkpt><trkpt lat="45.01307290285963" lon="9.572291826848582"><ele>77.6</ele><time>2026-04-02T13:23:45.003Z</time></trkpt><trkpt lat="45.013072616712265" lon="9.572171372410061"><ele>78.0</ele><time>2026-04-02T13:23:47.003Z</time></trkpt><trkpt lat="45.01306086298978" lon="9.572045035575513"><ele>78.16666666666667</ele><time>2026-04-02T13:23:49.003Z</time></trkpt><trkpt lat="45.013045137916485" lon="9.571932138542842"><ele>78.33333333333333</ele><time>2026-04-02T13:23:51.003Z</time></trkpt><trkpt lat="45.013040566180784" lon="9.571806731927053"><ele>78.5</ele><time>2026-04-02T13:23:53.003Z</time></trkpt><trkpt lat="45.01303213822281" lon="9.571705844130125"><ele>78.66666666666666</ele><time>2026-04-02T13:23:55.003Z</time></trkpt><trkpt lat="45.013024745556024" lon="9.571604014118646"><ele>78.83333333333333</ele><time>2026-04-02T13:23:57.003Z</time></trkpt><trkpt lat="45.013022032352865" lon="9.571503769345076"><ele>79.0</ele><time>2026-04-02T13:23:59.003Z</time></trkpt><trkpt lat="45.01299618577966" lon="9.571398319662183"><ele>79.0</ele><time>2026-04-02T13:24:02.003Z</time></trkpt><trkpt lat="45.01297352046132" lon="9.571309477770845"><ele>79.0</ele><time>2026-04-02T13:24:11.003Z</time></trkpt><trkpt lat="45.012906637298215" lon="9.571291323999935"><ele>79.0</ele><time>2026-04-02T13:24:16.003Z</time></trkpt><trkpt lat="45.01282428258601" lon="9.571303003134194"><ele>79.0</ele><time>2026-04-02T13:24:19.003Z</time></trkpt><trkpt lat="45.01274156070228" lon="9.571309333243747"><ele>79.0</ele><time>2026-04-02T13:24:22.003Z</time></trkpt><trkpt lat="45.01265044366743" lon="9.571321972863316"><ele>79.0</ele><time>2026-04-02T13:24:24.003Z</time></trkpt><trkpt lat="45.01256543674054" lon="9.5713380936689"><ele>79.0</ele><time>2026-04-02T13:24:26.003Z</time></trkpt><trkpt lat="45.01248116060798" lon="9.571338537567051"><ele>79.0</ele><time>2026-04-02T13:24:28.003Z</time></trkpt><trkpt lat="45.012390988165826" lon="9.571342776470809"><ele>79.0</ele><time>2026-04-02T13:24:30.003Z</time></trkpt><trkpt lat="45.012287895982304" lon="9.57133532145615"><ele>79.0</ele><time>2026-04-02T13:24:32.003Z</time></trkpt><trkpt lat="45.01219916477062" lon="9.571344368494007"><ele>79.0</ele><time>2026-04-02T13:24:34.004Z</time></trkpt><trkpt lat="45.012105631545616" lon="9.571335611592156"><ele>79.0</ele><time>2026-04-02T13:24:36.003Z</time></trkpt><trkpt lat="45.01201210669086" lon="9.571319648365991"><ele>79.0</ele><time>2026-04-02T13:24:38.003Z</time></trkpt><trkpt lat="45.01192965173984" lon="9.571322064800487"><ele>79.0</ele><time>2026-04-02T13:24:40.003Z</time></trkpt><trkpt lat="45.01185140716494" lon="9.571325819457988"><ele>79.0</ele><time>2026-04-02T13:24:42.003Z</time></trkpt><trkpt lat="45.011781429186954" lon="9.57133099151822"><ele>79.0</ele><time>2026-04-02T13:24:44.003Z</time></trkpt><trkpt lat="45.01169922229713" lon="9.571336094142184"><ele>79.0</ele><time>2026-04-02T13:24:46.003Z</time></trkpt><trkpt lat="45.011614540424034" lon="9.571339708138094"><ele>78.83333333333333</ele><time>2026-04-02T13:24:48.003Z</time></trkpt><trkpt lat="45.01152324114466" lon="9.571348044094718"><ele>78.66666666666666</ele><time>2026-04-02T13:24:50.003Z</time></trkpt><trkpt lat="45.01143923510628" lon="9.571349960500267"><ele>78.5</ele><time>2026-04-02T13:24:52.003Z</time></trkpt><trkpt lat="45.011350424176456" lon="9.571360113052586"><ele>78.33333333333333</ele><time>2026-04-02T13:24:54.003Z</time></trkpt><trkpt lat="45.01126784599369" lon="9.571377485450217"><ele>78.16666666666667</ele><time>2026-04-02T13:24:56.003Z</time></trkpt><trkpt lat="45.01117810507977" lon="9.571393213472028"><ele>78.0</ele><time>2026-04-02T13:24:58.003Z</time></trkpt><trkpt lat="45.01108069348112" lon="9.571400425276053"><ele>78.0</ele><time>2026-04-02T13:25:00.003Z</time></trkpt><trkpt lat="45.010995174323696" lon="9.571416127337535"><ele>78.0</ele><time>2026-04-02T13:25:02.003Z</time></trkpt><trkpt lat="45.01090143639559" lon="9.571431294798044"><ele>78.0</ele><time>2026-04-02T13:25:04.003Z</time></trkpt><trkpt lat="45.01081452094335" lon="9.571443543087799"><ele>78.0</ele><time>2026-04-02T13:25:06.003Z</time></trkpt><trkpt lat="45.01072622455098" lon="9.571460025536254"><ele>78.0</ele><time>2026-04-02T13:25:08.003Z</time></trkpt><trkpt lat="45.01063979641101" lon="9.571469970030337"><ele>78.0</ele><time>2026-04-02T13:25:10.003Z</time></trkpt><trkpt lat="45.01055676921796" lon="9.571469353860518"><ele>78.33333333333333</ele><time>2026-04-02T13:25:12.003Z</time></trkpt><trkpt lat="45.01048189997706" lon="9.571478939863326"><ele>78.66666666666667</ele><time>2026-04-02T13:25:14.003Z</time></trkpt><trkpt lat="45.01039907414926" lon="9.571485810382185"><ele>79.0</ele><time>2026-04-02T13:25:16.003Z</time></trkpt><trkpt lat="45.01031179495582" lon="9.571489853701115"><ele>79.33333333333334</ele><time>2026-04-02T13:25:18.003Z</time></trkpt><trkpt lat="45.01022421951657" lon="9.571520564189143"><ele>79.66666666666667</ele><time>2026-04-02T13:25:20.003Z</time></trkpt><trkpt lat="45.01013704611014" lon="9.571536755180595"><ele>80.0</ele><time>2026-04-02T13:25:22.003Z</time></trkpt><trkpt lat="45.010044191134625" lon="9.571554074126613"><ele>80.0</ele><time>2026-04-02T13:25:24.003Z</time></trkpt><trkpt lat="45.00994926746355" lon="9.571563584988962"><ele>80.0</ele><time>2026-04-02T13:25:26.003Z</time></trkpt><trkpt lat="45.009856362726964" lon="9.571593149859611"><ele>80.0</ele><time>2026-04-02T13:25:28.003Z</time></trkpt><trkpt lat="45.00976352434142" lon="9.571612697212787"><ele>80.0</ele><time>2026-04-02T13:25:30.003Z</time></trkpt><trkpt lat="45.009668884707594" lon="9.571619522323681"><ele>80.0</ele><time>2026-04-02T13:25:32.003Z</time></trkpt><trkpt lat="45.00957228001945" lon="9.571641749853548"><ele>80.0</ele><time>2026-04-02T13:25:34.003Z</time></trkpt><trkpt lat="45.00947752376671" lon="9.571650827498415"><ele>80.0</ele><time>2026-04-02T13:25:36.003Z</time></trkpt><trkpt lat="45.00938606460084" lon="9.57167047421955"><ele>80.0</ele><time>2026-04-02T13:25:38.003Z</time></trkpt><trkpt lat="45.009296249860036" lon="9.571683418313897"><ele>80.0</ele><time>2026-04-02T13:25:40.003Z</time></trkpt><trkpt lat="45.009203692956746" lon="9.571707542189214"><ele>80.0</ele><time>2026-04-02T13:25:42.003Z</time></trkpt><trkpt lat="45.0091135297549" lon="9.571727655413106"><ele>80.0</ele><time>2026-04-02T13:25:44.003Z</time></trkpt><trkpt lat="45.00902750832152" lon="9.571743815818282"><ele>80.0</ele><time>2026-04-02T13:25:46.003Z</time></trkpt><trkpt lat="45.00893622518463" lon="9.571759650893876"><ele>80.0</ele><time>2026-04-02T13:25:48.003Z</time></trkpt><trkpt lat="45.008849387111546" lon="9.571780717743977"><ele>80.0</ele><time>2026-04-02T13:25:50.003Z</time></trkpt><trkpt lat="45.008765826314416" lon="9.5717984661197"><ele>80.0</ele><time>2026-04-02T13:25:52.003Z</time></trkpt><trkpt lat="45.00867623932123" lon="9.57181293539514"><ele>80.0</ele><time>2026-04-02T13:25:54.003Z</time></trkpt><trkpt lat="45.00859533065154" lon="9.571833399161468"><ele>80.0</ele><time>2026-04-02T13:25:56.003Z</time></trkpt><trkpt lat="45.008510632075456" lon="9.571849480175429"><ele>80.0</ele><time>2026-04-02T13:25:58.003Z</time></trkpt><trkpt lat="45.00842640014712" lon="9.571856977096706"><ele>80.0</ele><time>2026-04-02T13:26:00.003Z</time></trkpt><trkpt lat="45.00834807477788" lon="9.571867900838752"><ele>80.0</ele><time>2026-04-02T13:26:02.003Z</time></trkpt><trkpt lat="45.00827329963224" lon="9.571876978878004"><ele>80.0</ele><time>2026-04-02T13:26:04.003Z</time></trkpt><trkpt lat="45.00819803310366" lon="9.571887937973553"><ele>80.0</ele><time>2026-04-02T13:26:06.003Z</time></trkpt><trkpt lat="45.00813638741848" lon="9.57191142254736"><ele>79.85714285714286</ele><time>2026-04-02T13:26:08.003Z</time></trkpt><trkpt lat="45.00806799912569" lon="9.571919584800673"><ele>79.71428571428572</ele><time>2026-04-02T13:26:10.003Z</time></trkpt><trkpt lat="45.00800003460214" lon="9.57193447837111"><ele>79.57142857142858</ele><time>2026-04-02T13:26:12.003Z</time></trkpt><trkpt lat="45.007933929032355" lon="9.571940989767537"><ele>79.42857142857143</ele><time>2026-04-02T13:26:14.003Z</time></trkpt><trkpt lat="45.00790340399875" lon="9.571850316381806"><ele>79.28571428571429</ele><time>2026-04-02T13:26:16.003Z</time></trkpt><trkpt lat="45.00790924167293" lon="9.571749532527917"><ele>79.14285714285715</ele><time>2026-04-02T13:26:18.003Z</time></trkpt><trkpt lat="45.0079169597648" lon="9.571651051451175"><ele>79.0</ele><time>2026-04-02T13:26:20.003Z</time></trkpt><trkpt lat="45.00791839461902" lon="9.571548927941667"><ele>79.00000000000001</ele><time>2026-04-02T13:26:22.003Z</time></trkpt><trkpt lat="45.007921601677374" lon="9.57145101769895"><ele>79.0</ele><time>2026-04-02T13:26:24.003Z</time></trkpt><trkpt lat="45.00793240954808" lon="9.571362199127591"><ele>79.0</ele><time>2026-04-02T13:26:26.003Z</time></trkpt><trkpt lat="45.0079399427091" lon="9.57127259896665"><ele>79.0</ele><time>2026-04-02T13:26:28.003Z</time></trkpt><trkpt lat="45.00793608983014" lon="9.571176375856826"><ele>79.0</ele><time>2026-04-02T13:26:30.003Z</time></trkpt><trkpt lat="45.00794545668471" lon="9.57107379203531"><ele>79.00000000000001</ele><time>2026-04-02T13:26:32.003Z</time></trkpt><trkpt lat="45.007956426415475" lon="9.57095746736542"><ele>79.0</ele><time>2026-04-02T13:26:34.003Z</time></trkpt><trkpt lat="45.00795596933152" lon="9.570854095572741"><ele>79.14285714285715</ele><time>2026-04-02T13:26:36.003Z</time></trkpt><trkpt lat="45.0079649348677" lon="9.570752671674798"><ele>79.28571428571429</ele><time>2026-04-02T13:26:38.003Z</time></trkpt><trkpt lat="45.00797172051758" lon="9.570646784879914"><ele>79.42857142857143</ele><time>2026-04-02T13:26:40.003Z</time></trkpt><trkpt lat="45.007978102387995" lon="9.570534534732491"><ele>79.57142857142858</ele><time>2026-04-02T13:26:42.004Z</time></trkpt><trkpt lat="45.007986945462406" lon="9.570432869177342"><ele>79.71428571428572</ele><time>2026-04-02T13:26:44.004Z</time></trkpt><trkpt lat="45.00800576309909" lon="9.570331120803404"><ele>79.85714285714286</ele><time>2026-04-02T13:26:46.003Z</time></trkpt><trkpt lat="45.00801750216252" lon="9.570228938087054"><ele>80.0</ele><time>2026-04-02T13:26:48.004Z</time></trkpt><trkpt lat="45.008024277377515" lon="9.570131466233212"><ele>80.0</ele><time>2026-04-02T13:26:50.003Z</time></trkpt><trkpt lat="45.008039043581725" lon="9.570038181018777"><ele>80.0</ele><time>2026-04-02T13:26:52.003Z</time></trkpt><trkpt lat="45.00805021379076" lon="9.569945938397634"><ele>80.0</ele><time>2026-04-02T13:26:54.003Z</time></trkpt><trkpt lat="45.008082025201055" lon="9.569821686854114"><ele>80.0</ele><time>2026-04-02T13:26:57.003Z</time></trkpt><trkpt lat="45.00809337171792" lon="9.569715870438769"><ele>80.0</ele><time>2026-04-02T13:27:01.003Z</time></trkpt><trkpt lat="45.00811261370798" lon="9.569617265797717"><ele>80.0</ele><time>2026-04-02T13:27:03.003Z</time></trkpt><trkpt lat="45.00812131485667" lon="9.569495546970003"><ele>79.83333333333334</ele><time>2026-04-02T13:27:05.003Z</time></trkpt><trkpt lat="45.00813419815719" lon="9.56937427057352"><ele>79.66666666666667</ele><time>2026-04-02T13:27:07.003Z</time></trkpt><trkpt lat="45.00814709688115" lon="9.56925675328188"><ele>79.5</ele><time>2026-04-02T13:27:09.003Z</time></trkpt><trkpt lat="45.00815320062584" lon="9.569153305531295"><ele>79.33333333333333</ele><time>2026-04-02T13:27:11.003Z</time></trkpt><trkpt lat="45.008167157535546" lon="9.569032737523615"><ele>79.16666666666666</ele><time>2026-04-02T13:27:13.003Z</time></trkpt><trkpt lat="45.00818114369698" lon="9.568906977073933"><ele>79.0</ele><time>2026-04-02T13:27:15.003Z</time></trkpt><trkpt lat="45.0081987046377" lon="9.568784028588574"><ele>79.33333333333333</ele><time>2026-04-02T13:27:17.003Z</time></trkpt><trkpt lat="45.00821659046861" lon="9.568658448692032"><ele>79.66666666666666</ele><time>2026-04-02T13:27:19.003Z</time></trkpt><trkpt lat="45.00822242059505" lon="9.568532989580214"><ele>80.0</ele><time>2026-04-02T13:27:21.003Z</time></trkpt><trkpt lat="45.00823949220234" lon="9.568421472465857"><ele>80.33333333333333</ele><time>2026-04-02T13:27:23.003Z</time></trkpt><trkpt lat="45.00825655824499" lon="9.568321714206146"><ele>80.66666666666667</ele><time>2026-04-02T13:27:25.003Z</time></trkpt><trkpt lat="45.008259652101984" lon="9.568228891135455"><ele>81.0</ele><time>2026-04-02T13:27:27.003Z</time></trkpt><trkpt lat="45.00823357107621" lon="9.568113969342118"><ele>81.0</ele><time>2026-04-02T13:27:29.003Z</time></trkpt><trkpt lat="45.00820454618769" lon="9.567976772533392"><ele>81.0</ele><time>2026-04-02T13:27:31.003Z</time></trkpt><trkpt lat="45.0081849826956" lon="9.5678496151518"><ele>81.0</ele><time>2026-04-02T13:27:33.003Z</time></trkpt><trkpt lat="45.008194123460505" lon="9.567697849090473"><ele>81.0</ele><time>2026-04-02T13:27:35.003Z</time></trkpt><trkpt lat="45.008190773613514" lon="9.567538994034521"><ele>81.0</ele><time>2026-04-02T13:27:37.003Z</time></trkpt><trkpt lat="45.00819483619028" lon="9.567392309159784"><ele>80.6</ele><time>2026-04-02T13:27:39.003Z</time></trkpt><trkpt lat="45.00818571739266" lon="9.567249126695286"><ele>80.19999999999999</ele><time>2026-04-02T13:27:41.003Z</time></trkpt><trkpt lat="45.00816545193501" lon="9.567100880148596"><ele>79.80000000000001</ele><time>2026-04-02T13:27:43.003Z</time></trkpt><trkpt lat="45.00810524515974" lon="9.566964825503572"><ele>79.4</ele><time>2026-04-02T13:27:45.003Z</time></trkpt><trkpt lat="45.00805461822659" lon="9.566824493231127"><ele>79.0</ele><time>2026-04-02T13:27:47.003Z</time></trkpt><trkpt lat="45.007999459706404" lon="9.56669207063596"><ele>79.0</ele><time>2026-04-02T13:27:49.003Z</time></trkpt><trkpt lat="45.0079440186154" lon="9.566554781200127"><ele>79.0</ele><time>2026-04-02T13:27:51.003Z</time></trkpt><trkpt lat="45.00788995837426" lon="9.566418959506732"><ele>79.0</ele><time>2026-04-02T13:27:53.003Z</time></trkpt><trkpt lat="45.00783385382574" lon="9.566298427722659"><ele>79.0</ele><time>2026-04-02T13:27:55.003Z</time></trkpt><trkpt lat="45.00778550621801" lon="9.566169590830643"><ele>79.0</ele><time>2026-04-02T13:27:57.003Z</time></trkpt><trkpt lat="45.00772927399787" lon="9.566032024079453"><ele>79.0</ele><time>2026-04-02T13:27:59.003Z</time></trkpt><trkpt lat="45.00767083622438" lon="9.565909478024194"><ele>79.0</ele><time>2026-04-02T13:28:01.003Z</time></trkpt><trkpt lat="45.00763145672747" lon="9.565772274673991"><ele>79.0</ele><time>2026-04-02T13:28:03.003Z</time></trkpt><trkpt lat="45.007582613539306" lon="9.56563596403594"><ele>79.0</ele><time>2026-04-02T13:28:05.003Z</time></trkpt><trkpt lat="45.0075351822235" lon="9.56550418416751"><ele>79.0</ele><time>2026-04-02T13:28:07.003Z</time></trkpt><trkpt lat="45.007484502616705" lon="9.565375828992865"><ele>79.2</ele><time>2026-04-02T13:28:09.003Z</time></trkpt><trkpt lat="45.00742864583151" lon="9.565261962895255"><ele>79.4</ele><time>2026-04-02T13:28:11.003Z</time></trkpt><trkpt lat="45.007382639056104" lon="9.56514469563954"><ele>79.6</ele><time>2026-04-02T13:28:13.003Z</time></trkpt><trkpt lat="45.007322846162786" lon="9.565026967892509"><ele>79.8</ele><time>2026-04-02T13:28:15.003Z</time></trkpt><trkpt lat="45.00727908845521" lon="9.564908772178072"><ele>80.0</ele><time>2026-04-02T13:28:17.003Z</time></trkpt><trkpt lat="45.00722256125137" lon="9.56478275922823"><ele>80.0</ele><time>2026-04-02T13:28:19.003Z</time></trkpt><trkpt lat="45.0071706255638" lon="9.564650209422304"><ele>80.0</ele><time>2026-04-02T13:28:21.003Z</time></trkpt><trkpt lat="45.007125578479936" lon="9.564531284267224"><ele>80.0</ele><time>2026-04-02T13:28:23.003Z</time></trkpt><trkpt lat="45.00707603147991" lon="9.564402837565048"><ele>80.0</ele><time>2026-04-02T13:28:25.003Z</time></trkpt><trkpt lat="45.00703097145823" lon="9.564283805739972"><ele>80.0</ele><time>2026-04-02T13:28:27.003Z</time></trkpt><trkpt lat="45.006972424152856" lon="9.564175672038111"><ele>80.0</ele><time>2026-04-02T13:28:29.003Z</time></trkpt><trkpt lat="45.00689984263329" lon="9.564082316453026"><ele>80.0</ele><time>2026-04-02T13:28:31.003Z</time></trkpt><trkpt lat="45.006807753689266" lon="9.564046370564032"><ele>80.0</ele><time>2026-04-02T13:28:33.003Z</time></trkpt><trkpt lat="45.00671722254585" lon="9.564032358691025"><ele>80.0</ele><time>2026-04-02T13:28:35.003Z</time></trkpt><trkpt lat="45.00663561046109" lon="9.564037795558196"><ele>80.0</ele><time>2026-04-02T13:28:37.003Z</time></trkpt><trkpt lat="45.00655591716176" lon="9.5640493024919"><ele>80.0</ele><time>2026-04-02T13:28:39.003Z</time></trkpt><trkpt lat="45.006477439785456" lon="9.564057890696336"><ele>80.16666666666667</ele><time>2026-04-02T13:28:41.003Z</time></trkpt><trkpt lat="45.00640103333195" lon="9.564065600617784"><ele>80.33333333333334</ele><time>2026-04-02T13:28:43.004Z</time></trkpt><trkpt lat="45.006324169764234" lon="9.564074360654306"><ele>80.5</ele><time>2026-04-02T13:28:45.004Z</time></trkpt><trkpt lat="45.00624370846934" lon="9.564077792470295"><ele>80.66666666666667</ele><time>2026-04-02T13:28:47.004Z</time></trkpt><trkpt lat="45.00616302008764" lon="9.564065292016311"><ele>80.83333333333333</ele><time>2026-04-02T13:28:49.004Z</time></trkpt><trkpt lat="45.006077255443216" lon="9.564071073444921"><ele>81.0</ele><time>2026-04-02T13:28:51.004Z</time></trkpt><trkpt lat="45.00599855372372" lon="9.564079959497015"><ele>81.0</ele><time>2026-04-02T13:28:53.003Z</time></trkpt><trkpt lat="45.005916551490344" lon="9.564084229533602"><ele>81.0</ele><time>2026-04-02T13:28:55.004Z</time></trkpt><trkpt lat="45.005834670886806" lon="9.564090979111098"><ele>81.0</ele><time>2026-04-02T13:28:57.004Z</time></trkpt><trkpt lat="45.00575431366878" lon="9.564097107504553"><ele>81.0</ele><time>2026-04-02T13:28:59.004Z</time></trkpt><trkpt lat="45.005675767371926" lon="9.564097103567855"><ele>81.0</ele><time>2026-04-02T13:29:01.004Z</time></trkpt><trkpt lat="45.005601022837475" lon="9.564108981714362"><ele>81.0</ele><time>2026-04-02T13:29:03.004Z</time></trkpt><trkpt lat="45.00552599270282" lon="9.564113865260518"><ele>80.83333333333333</ele><time>2026-04-02T13:29:05.004Z</time></trkpt><trkpt lat="45.005450895124255" lon="9.564120030816994"><ele>80.66666666666667</ele><time>2026-04-02T13:29:07.004Z</time></trkpt><trkpt lat="45.00537230223494" lon="9.564125977356253"><ele>80.5</ele><time>2026-04-02T13:29:09.004Z</time></trkpt><trkpt lat="45.005294283202616" lon="9.56413241127258"><ele>80.33333333333334</ele><time>2026-04-02T13:29:11.004Z</time></trkpt><trkpt lat="45.005214540151016" lon="9.564137208240219"><ele>80.16666666666667</ele><time>2026-04-02T13:29:13.004Z</time></trkpt><trkpt lat="45.005138224588165" lon="9.564143702054348"><ele>80.0</ele><time>2026-04-02T13:29:15.004Z</time></trkpt><trkpt lat="45.00505887048959" lon="9.564149245936118"><ele>80.16666666666667</ele><time>2026-04-02T13:29:17.004Z</time></trkpt><trkpt lat="45.00498361907088" lon="9.564155539350752"><ele>80.33333333333334</ele><time>2026-04-02T13:29:19.004Z</time></trkpt><trkpt lat="45.00490668333003" lon="9.564161398424869"><ele>80.5</ele><time>2026-04-02T13:29:21.004Z</time></trkpt><trkpt lat="45.00482983658316" lon="9.564169014897521"><ele>80.66666666666667</ele><time>2026-04-02T13:29:23.004Z</time></trkpt><trkpt lat="45.00475502997533" lon="9.564173948720928"><ele>80.83333333333333</ele><time>2026-04-02T13:29:25.004Z</time></trkpt><trkpt lat="45.00467859675745" lon="9.564179552695176"><ele>81.0</ele><time>2026-04-02T13:29:27.004Z</time></trkpt><trkpt lat="45.0045981618639" lon="9.564190802996198"><ele>81.0</ele><time>2026-04-02T13:29:29.004Z</time></trkpt><trkpt lat="45.004516797478004" lon="9.56419598219495"><ele>81.0</ele><time>2026-04-02T13:29:31.004Z</time></trkpt><trkpt lat="45.00443907466488" lon="9.564200789592572"><ele>81.0</ele><time>2026-04-02T13:29:33.004Z</time></trkpt><trkpt lat="45.00436321953025" lon="9.564209851312999"><ele>81.0</ele><time>2026-04-02T13:29:35.004Z</time></trkpt><trkpt lat="45.00428489806935" lon="9.56421143149796"><ele>81.0</ele><time>2026-04-02T13:29:37.004Z</time></trkpt><trkpt lat="45.00420360766529" lon="9.564225459480927"><ele>81.0</ele><time>2026-04-02T13:29:39.004Z</time></trkpt><trkpt lat="45.00412409216111" lon="9.564224598535436"><ele>81.16666666666667</ele><time>2026-04-02T13:29:41.004Z</time></trkpt><trkpt lat="45.00404440273739" lon="9.564235506211109"><ele>81.33333333333333</ele><time>2026-04-02T13:29:43.004Z</time></trkpt><trkpt lat="45.00396054199945" lon="9.564247179566104"><ele>81.5</ele><time>2026-04-02T13:29:45.004Z</time></trkpt><trkpt lat="45.003882792641434" lon="9.564245237463235"><ele>81.66666666666666</ele><time>2026-04-02T13:29:47.004Z</time></trkpt><trkpt lat="45.00380156656082" lon="9.564253295898606"><ele>81.83333333333333</ele><time>2026-04-02T13:29:49.004Z</time></trkpt><trkpt lat="45.003722163265365" lon="9.564254504541159"><ele>82.0</ele><time>2026-04-02T13:29:51.004Z</time></trkpt><trkpt lat="45.00364540912631" lon="9.564261762510185"><ele>82.0</ele><time>2026-04-02T13:29:53.004Z</time></trkpt><trkpt lat="45.003563806305074" lon="9.564273125086379"><ele>82.0</ele><time>2026-04-02T13:29:55.004Z</time></trkpt><trkpt lat="45.003483504123935" lon="9.56427695352065"><ele>82.0</ele><time>2026-04-02T13:29:57.004Z</time></trkpt><trkpt lat="45.00339789848417" lon="9.564286697076206"><ele>82.0</ele><time>2026-04-02T13:29:59.004Z</time></trkpt><trkpt lat="45.003318053326495" lon="9.564285893477553"><ele>82.0</ele><time>2026-04-02T13:30:01.004Z</time></trkpt><trkpt lat="45.00323184882157" lon="9.564296568903956"><ele>82.0</ele><time>2026-04-02T13:30:03.004Z</time></trkpt><trkpt lat="45.003146661732224" lon="9.564300835472947"><ele>81.66666666666666</ele><time>2026-04-02T13:30:05.004Z</time></trkpt><trkpt lat="45.00306072893463" lon="9.564303070494065"><ele>81.33333333333333</ele><time>2026-04-02T13:30:07.004Z</time></trkpt><trkpt lat="45.002975483173756" lon="9.564315971459003"><ele>81.0</ele><time>2026-04-02T13:30:09.004Z</time></trkpt><trkpt lat="45.002891571739696" lon="9.564322309822266"><ele>80.66666666666667</ele><time>2026-04-02T13:30:11.004Z</time></trkpt><trkpt lat="45.00281005311409" lon="9.564331316937306"><ele>80.33333333333334</ele><time>2026-04-02T13:30:13.004Z</time></trkpt><trkpt lat="45.00272955785243" lon="9.564342440091712"><ele>80.0</ele><time>2026-04-02T13:30:15.004Z</time></trkpt><trkpt lat="45.00265180440815" lon="9.564354101269664"><ele>80.0</ele><time>2026-04-02T13:30:17.004Z</time></trkpt><trkpt lat="45.00257094523273" lon="9.564360970881085"><ele>80.0</ele><time>2026-04-02T13:30:19.004Z</time></trkpt><trkpt lat="45.002493907010546" lon="9.564377886314997"><ele>80.0</ele><time>2026-04-02T13:30:21.004Z</time></trkpt><trkpt lat="45.002419116744" lon="9.564406650065157"><ele>80.0</ele><time>2026-04-02T13:30:23.004Z</time></trkpt><trkpt lat="45.00234731273561" lon="9.564438525960087"><ele>80.0</ele><time>2026-04-02T13:30:25.004Z</time></trkpt><trkpt lat="45.002279022101256" lon="9.56446347482063"><ele>80.0</ele><time>2026-04-02T13:30:27.004Z</time></trkpt><trkpt lat="45.00220954654317" lon="9.564483496776559"><ele>80.16666666666667</ele><time>2026-04-02T13:30:29.004Z</time></trkpt><trkpt lat="45.002130601720864" lon="9.564492516621746"><ele>80.33333333333334</ele><time>2026-04-02T13:30:31.004Z</time></trkpt><trkpt lat="45.002052782334324" lon="9.564495536022731"><ele>80.5</ele><time>2026-04-02T13:30:33.004Z</time></trkpt><trkpt lat="45.00197022653974" lon="9.56449781256711"><ele>80.66666666666667</ele><time>2026-04-02T13:30:35.004Z</time></trkpt><trkpt lat="45.0018907156895" lon="9.564494234982757"><ele>80.83333333333333</ele><time>2026-04-02T13:30:37.004Z</time></trkpt><trkpt lat="45.00181018074991" lon="9.564503250924558"><ele>81.0</ele><time>2026-04-02T13:30:39.004Z</time></trkpt><trkpt lat="45.00172548718236" lon="9.564512566570947"><ele>81.0</ele><time>2026-04-02T13:30:41.004Z</time></trkpt><trkpt lat="45.0016468019611" lon="9.564522828136845"><ele>81.0</ele><time>2026-04-02T13:30:43.004Z</time></trkpt><trkpt lat="45.001566148130124" lon="9.564520561656856"><ele>81.0</ele><time>2026-04-02T13:30:45.004Z</time></trkpt><trkpt lat="45.00149003377925" lon="9.56452797729647"><ele>81.0</ele><time>2026-04-02T13:30:47.004Z</time></trkpt><trkpt lat="45.00140588225934" lon="9.564536323022619"><ele>81.0</ele><time>2026-04-02T13:30:49.004Z</time></trkpt><trkpt lat="45.001321327961506" lon="9.5645421860904"><ele>81.0</ele><time>2026-04-02T13:30:51.003Z</time></trkpt><trkpt lat="45.001237581237916" lon="9.564542258680543"><ele>81.0</ele><time>2026-04-02T13:30:53.003Z</time></trkpt><trkpt lat="45.00115759670418" lon="9.564549961941205"><ele>81.0</ele><time>2026-04-02T13:30:55.004Z</time></trkpt><trkpt lat="45.001073621307725" lon="9.564560356931752"><ele>81.0</ele><time>2026-04-02T13:30:57.004Z</time></trkpt><trkpt lat="45.000989382156206" lon="9.564558063234974"><ele>81.0</ele><time>2026-04-02T13:30:59.004Z</time></trkpt><trkpt lat="45.00090254383949" lon="9.564566343451732"><ele>81.0</ele><time>2026-04-02T13:31:01.004Z</time></trkpt><trkpt lat="45.00082293310316" lon="9.564576023287975"><ele>81.0</ele><time>2026-04-02T13:31:03.004Z</time></trkpt><trkpt lat="45.00074306581952" lon="9.56458223016971"><ele>81.0</ele><time>2026-04-02T13:31:05.004Z</time></trkpt><trkpt lat="45.00066939635189" lon="9.56460636098175"><ele>81.0</ele><time>2026-04-02T13:31:07.004Z</time></trkpt><trkpt lat="45.000591771255706" lon="9.564590947894501"><ele>81.0</ele><time>2026-04-02T13:31:09.004Z</time></trkpt><trkpt lat="45.00052613739033" lon="9.564513880603304"><ele>81.0</ele><time>2026-04-02T13:31:11.004Z</time></trkpt><trkpt lat="45.000491434933195" lon="9.564413603350594"><ele>81.0</ele><time>2026-04-02T13:31:13.004Z</time></trkpt><trkpt lat="45.000482234820076" lon="9.564300338278917"><ele>81.0</ele><time>2026-04-02T13:31:15.004Z</time></trkpt><trkpt lat="45.00048415595532" lon="9.564186405781086"><ele>81.33333333333333</ele><time>2026-04-02T13:31:17.004Z</time></trkpt><trkpt lat="45.00048177825386" lon="9.564078104329328"><ele>81.66666666666667</ele><time>2026-04-02T13:31:19.004Z</time></trkpt><trkpt lat="45.000472509088695" lon="9.563969501634627"><ele>82.0</ele><time>2026-04-02T13:31:21.003Z</time></trkpt><trkpt lat="45.00046632376634" lon="9.563856057578981"><ele>82.33333333333334</ele><time>2026-04-02T13:31:23.002Z</time></trkpt><trkpt lat="45.00046260656304" lon="9.563746231011201"><ele>82.66666666666667</ele><time>2026-04-02T13:31:25.002Z</time></trkpt><trkpt lat="45.000452383800315" lon="9.563633778320908"><ele>83.0</ele><time>2026-04-02T13:31:27.001Z</time></trkpt><trkpt lat="45.00044481774103" lon="9.563528790208165"><ele>83.0</ele><time>2026-04-02T13:31:29.001Z</time></trkpt><trkpt lat="45.00043668552527" lon="9.563435718386986"><ele>83.0</ele><time>2026-04-02T13:31:31Z</time></trkpt><trkpt lat="45.00042538587123" lon="9.563327104036562"><ele>83.0</ele><time>2026-04-02T13:31:33Z</time></trkpt><trkpt lat="45.000420279327884" lon="9.563212589782081"><ele>83.0</ele><time>2026-04-02T13:31:35Z</time></trkpt><trkpt lat="45.00040806858705" lon="9.56309257302944"><ele>83.0</ele><time>2026-04-02T13:31:37Z</time></trkpt><trkpt lat="45.00039859711475" lon="9.56297243112332"><ele>83.0</ele><time>2026-04-02T13:31:38.999Z</time></trkpt><trkpt lat="45.000388162856666" lon="9.562852531633567"><ele>83.16666666666667</ele><time>2026-04-02T13:31:40.999Z</time></trkpt><trkpt lat="45.00038164802459" lon="9.56272770343726"><ele>83.33333333333334</ele><time>2026-04-02T13:31:42.999Z</time></trkpt><trkpt lat="45.000369976924596" lon="9.562602688309212"><ele>83.5</ele><time>2026-04-02T13:31:44.999Z</time></trkpt><trkpt lat="45.00036180539182" lon="9.562476694653776"><ele>83.66666666666667</ele><time>2026-04-02T13:31:46.999Z</time></trkpt><trkpt lat="45.00035693337015" lon="9.562356619072744"><ele>83.83333333333333</ele><time>2026-04-02T13:31:48.999Z</time></trkpt><trkpt lat="45.000366925829326" lon="9.562240983767108"><ele>84.0</ele><time>2026-04-02T13:31:50.998Z</time></trkpt><trkpt lat="45.000380775154696" lon="9.562129491715082"><ele>84.16666666666667</ele><time>2026-04-02T13:31:52.998Z</time></trkpt><trkpt lat="45.00039260375845" lon="9.562017282487766"><ele>84.33333333333333</ele><time>2026-04-02T13:31:54.998Z</time></trkpt><trkpt lat="45.00038592312313" lon="9.56191549796649"><ele>84.5</ele><time>2026-04-02T13:31:56.998Z</time></trkpt><trkpt lat="45.00033756623012" lon="9.561819813312363"><ele>84.66666666666666</ele><time>2026-04-02T13:31:58.998Z</time></trkpt><trkpt lat="45.00026595799246" lon="9.561777934837789"><ele>84.83333333333333</ele><time>2026-04-02T13:32:00.998Z</time></trkpt><trkpt lat="45.00018901155973" lon="9.561778359689235"><ele>85.0</ele><time>2026-04-02T13:32:02.998Z</time></trkpt><trkpt lat="45.00011568451189" lon="9.561778704098167"><ele>85.0</ele><time>2026-04-02T13:32:04.998Z</time></trkpt><trkpt lat="45.000038778957496" lon="9.561773173851465"><ele>85.0</ele><time>2026-04-02T13:32:06.998Z</time></trkpt><trkpt lat="44.999964878452566" lon="9.561765952197328"><ele>85.0</ele><time>2026-04-02T13:32:08.998Z</time></trkpt><trkpt lat="44.99988803342273" lon="9.561759397340648"><ele>85.0</ele><time>2026-04-02T13:32:10.998Z</time></trkpt><trkpt lat="44.99981479949233" lon="9.561747864980102"><ele>85.0</ele><time>2026-04-02T13:32:12.998Z</time></trkpt><trkpt lat="44.99974211065177" lon="9.561733941887145"><ele>85.0</ele><time>2026-04-02T13:32:14.998Z</time></trkpt><trkpt lat="44.99966883566227" lon="9.56172974167712"><ele>85.0</ele><time>2026-04-02T13:32:16.998Z</time></trkpt><trkpt lat="44.99959535754277" lon="9.56172429617406"><ele>85.0</ele><time>2026-04-02T13:32:18.998Z</time></trkpt><trkpt lat="44.99952807794509" lon="9.561727883231507"><ele>85.0</ele><time>2026-04-02T13:32:20.998Z</time></trkpt><trkpt lat="44.99945721573957" lon="9.56172630221169"><ele>85.0</ele><time>2026-04-02T13:32:22.998Z</time></trkpt><trkpt lat="44.9993851259478" lon="9.561726744047924"><ele>85.0</ele><time>2026-04-02T13:32:24.998Z</time></trkpt><trkpt lat="44.99931555533204" lon="9.56172762567786"><ele>85.0</ele><time>2026-04-02T13:32:26.998Z</time></trkpt><trkpt lat="44.99924494620387" lon="9.56172016891544"><ele>85.0</ele><time>2026-04-02T13:32:28.998Z</time></trkpt><trkpt lat="44.999168012335694" lon="9.561729257035969"><ele>85.0</ele><time>2026-04-02T13:32:30.998Z</time></trkpt><trkpt lat="44.99909807764843" lon="9.56172809342261"><ele>85.0</ele><time>2026-04-02T13:32:32.998Z</time></trkpt><trkpt lat="44.999027420840896" lon="9.561730911004558"><ele>85.0</ele><time>2026-04-02T13:32:34.998Z</time></trkpt><trkpt lat="44.998959407155056" lon="9.561729780045827"><ele>85.0</ele><time>2026-04-02T13:32:36.998Z</time></trkpt><trkpt lat="44.998889602111454" lon="9.561734860214173"><ele>85.0</ele><time>2026-04-02T13:32:38.998Z</time></trkpt><trkpt lat="44.998822988953606" lon="9.561745810807091"><ele>85.0</ele><time>2026-04-02T13:32:40.998Z</time></trkpt><trkpt lat="44.99874929660677" lon="9.561737599995547"><ele>85.0</ele><time>2026-04-02T13:32:42.998Z</time></trkpt><trkpt lat="44.99867135399143" lon="9.561750685180858"><ele>85.0</ele><time>2026-04-02T13:32:44.998Z</time></trkpt><trkpt lat="44.99858493338927" lon="9.561752270717404"><ele>85.0</ele><time>2026-04-02T13:32:46.998Z</time></trkpt><trkpt lat="44.998503024098014" lon="9.561750755877803"><ele>85.0</ele><time>2026-04-02T13:32:48.998Z</time></trkpt><trkpt lat="44.99841171248702" lon="9.5617623899329"><ele>85.0</ele><time>2026-04-02T13:32:50.998Z</time></trkpt><trkpt lat="44.998329988876264" lon="9.56176217676025"><ele>85.0</ele><time>2026-04-02T13:32:52.998Z</time></trkpt><trkpt lat="44.99824396142644" lon="9.561756777527298"><ele>85.0</ele><time>2026-04-02T13:32:54.998Z</time></trkpt><trkpt lat="44.99815676853077" lon="9.561763994341133"><ele>85.0</ele><time>2026-04-02T13:32:56.998Z</time></trkpt><trkpt lat="44.99807479775936" lon="9.561756486806505"><ele>85.16666666666666</ele><time>2026-04-02T13:32:58.998Z</time></trkpt><trkpt lat="44.99799490457261" lon="9.561761671765524"><ele>85.33333333333333</ele><time>2026-04-02T13:33:00.998Z</time></trkpt><trkpt lat="44.99791858045867" lon="9.561756788781869"><ele>85.5</ele><time>2026-04-02T13:33:02.998Z</time></trkpt><trkpt lat="44.99784032069092" lon="9.561763335123649"><ele>85.66666666666667</ele><time>2026-04-02T13:33:04.998Z</time></trkpt><trkpt lat="44.99776449870762" lon="9.561761972478076"><ele>85.83333333333334</ele><time>2026-04-02T13:33:06.998Z</time></trkpt><trkpt lat="44.99769271506282" lon="9.561768095738515"><ele>86.0</ele><time>2026-04-02T13:33:08.998Z</time></trkpt><trkpt lat="44.99762296730682" lon="9.561767153511752"><ele>86.00000000000001</ele><time>2026-04-02T13:33:10.998Z</time></trkpt><trkpt lat="44.99755150557803" lon="9.561773671187078"><ele>86.0</ele><time>2026-04-02T13:33:12.998Z</time></trkpt><trkpt lat="44.99748318435072" lon="9.561760011869891"><ele>86.0</ele><time>2026-04-02T13:33:14.998Z</time></trkpt><trkpt lat="44.997413526844014" lon="9.561771121179428"><ele>86.0</ele><time>2026-04-02T13:33:16.998Z</time></trkpt><trkpt lat="44.9973434454698" lon="9.56177251290947"><ele>86.0</ele><time>2026-04-02T13:33:18.998Z</time></trkpt><trkpt lat="44.99727232746383" lon="9.561777130172464"><ele>86.00000000000001</ele><time>2026-04-02T13:33:20.998Z</time></trkpt><trkpt lat="44.99719987996818" lon="9.56178307494293"><ele>86.0</ele><time>2026-04-02T13:33:22.998Z</time></trkpt><trkpt lat="44.997126753877474" lon="9.561780888540412"><ele>85.83333333333334</ele><time>2026-04-02T13:33:24.998Z</time></trkpt><trkpt lat="44.99705489305299" lon="9.561783515409815"><ele>85.66666666666667</ele><time>2026-04-02T13:33:26.998Z</time></trkpt><trkpt lat="44.99698057910128" lon="9.56178905363778"><ele>85.5</ele><time>2026-04-02T13:33:28.998Z</time></trkpt><trkpt lat="44.99690861538672" lon="9.56179025365494"><ele>85.33333333333333</ele><time>2026-04-02T13:33:30.998Z</time></trkpt><trkpt lat="44.99682888161666" lon="9.561800858452061"><ele>85.16666666666666</ele><time>2026-04-02T13:33:32.998Z</time></trkpt><trkpt lat="44.99675532308952" lon="9.561797987486212"><ele>85.0</ele><time>2026-04-02T13:33:34.998Z</time></trkpt><trkpt lat="44.99667598985345" lon="9.56179901515962"><ele>85.0</ele><time>2026-04-02T13:33:36.998Z</time></trkpt><trkpt lat="44.99659597473832" lon="9.56180370501451"><ele>85.0</ele><time>2026-04-02T13:33:38.998Z</time></trkpt><trkpt lat="44.99651887200319" lon="9.561803494658575"><ele>85.0</ele><time>2026-04-02T13:33:40.998Z</time></trkpt><trkpt lat="44.99644015355548" lon="9.561807703140198"><ele>85.0</ele><time>2026-04-02T13:33:42.998Z</time></trkpt><trkpt lat="44.996358371072276" lon="9.561808806098135"><ele>85.0</ele><time>2026-04-02T13:33:44.998Z</time></trkpt><trkpt lat="44.99627227879309" lon="9.561811538590534"><ele>85.0</ele><time>2026-04-02T13:33:46.998Z</time></trkpt><trkpt lat="44.996196153351484" lon="9.561817204482951"><ele>85.0</ele><time>2026-04-02T13:33:48.998Z</time></trkpt><trkpt lat="44.99611495183749" lon="9.561807886909135"><ele>85.0</ele><time>2026-04-02T13:33:50.998Z</time></trkpt><trkpt lat="44.99603944153043" lon="9.561803273359388"><ele>85.0</ele><time>2026-04-02T13:33:52.998Z</time></trkpt><trkpt lat="44.995963082623476" lon="9.561798282305103"><ele>85.0</ele><time>2026-04-02T13:33:54.998Z</time></trkpt><trkpt lat="44.995888957208706" lon="9.561788291865687"><ele>85.0</ele><time>2026-04-02T13:33:56.998Z</time></trkpt><trkpt lat="44.995813606273764" lon="9.56177526667987"><ele>85.0</ele><time>2026-04-02T13:33:58.998Z</time></trkpt><trkpt lat="44.99573309511082" lon="9.561766511239227"><ele>85.33333333333333</ele><time>2026-04-02T13:34:00.998Z</time></trkpt><trkpt lat="44.99565566449915" lon="9.56175858436615"><ele>85.66666666666666</ele><time>2026-04-02T13:34:02.998Z</time></trkpt><trkpt lat="44.99558079804943" lon="9.561745405996403"><ele>86.0</ele><time>2026-04-02T13:34:04.998Z</time></trkpt><trkpt lat="44.99550326171083" lon="9.56173689800873"><ele>86.33333333333333</ele><time>2026-04-02T13:34:06.998Z</time></trkpt><trkpt lat="44.99542775021053" lon="9.56173247755629"><ele>86.66666666666667</ele><time>2026-04-02T13:34:08.998Z</time></trkpt><trkpt lat="44.99535255544302" lon="9.561720233461884"><ele>87.0</ele><time>2026-04-02T13:34:10.998Z</time></trkpt><trkpt lat="44.99527956007949" lon="9.561717130787162"><ele>87.0</ele><time>2026-04-02T13:34:12.998Z</time></trkpt><trkpt lat="44.9952055789502" lon="9.56171183316705"><ele>87.0</ele><time>2026-04-02T13:34:14.998Z</time></trkpt><trkpt lat="44.99513031105018" lon="9.561702255730014"><ele>87.0</ele><time>2026-04-02T13:34:16.998Z</time></trkpt><trkpt lat="44.995054780584354" lon="9.561694698519924"><ele>87.0</ele><time>2026-04-02T13:34:18.998Z</time></trkpt><trkpt lat="44.99497799465888" lon="9.561689555505485"><ele>87.0</ele><time>2026-04-02T13:34:20.998Z</time></trkpt><trkpt lat="44.994901182419866" lon="9.561682276650492"><ele>87.0</ele><time>2026-04-02T13:34:22.998Z</time></trkpt><trkpt lat="44.99482366838876" lon="9.561674195120142"><ele>87.16666666666667</ele><time>2026-04-02T13:34:24.998Z</time></trkpt><trkpt lat="44.99474739907794" lon="9.561663053407779"><ele>87.33333333333333</ele><time>2026-04-02T13:34:26.998Z</time></trkpt><trkpt lat="44.994670147669396" lon="9.56165916265115"><ele>87.5</ele><time>2026-04-02T13:34:28.998Z</time></trkpt><trkpt lat="44.994593801882644" lon="9.56165457599501"><ele>87.66666666666666</ele><time>2026-04-02T13:34:30.998Z</time></trkpt><trkpt lat="44.9945156123862" lon="9.56164457841336"><ele>87.83333333333333</ele><time>2026-04-02T13:34:32.998Z</time></trkpt><trkpt lat="44.994439114401324" lon="9.561638735533293"><ele>88.0</ele><time>2026-04-02T13:34:34.998Z</time></trkpt><trkpt lat="44.99436373561617" lon="9.561632614108541"><ele>88.0</ele><time>2026-04-02T13:34:36.998Z</time></trkpt><trkpt lat="44.99428870579555" lon="9.561605292734862"><ele>88.0</ele><time>2026-04-02T13:34:38.998Z</time></trkpt><trkpt lat="44.99421529863037" lon="9.561592726362997"><ele>88.0</ele><time>2026-04-02T13:34:40.998Z</time></trkpt><trkpt lat="44.9941411368412" lon="9.561592132272612"><ele>88.0</ele><time>2026-04-02T13:34:42.998Z</time></trkpt><trkpt lat="44.994064122848854" lon="9.561595794428381"><ele>88.0</ele><time>2026-04-02T13:34:44.998Z</time></trkpt><trkpt lat="44.993988078192636" lon="9.56159509444021"><ele>88.0</ele><time>2026-04-02T13:34:46.998Z</time></trkpt><trkpt lat="44.99391763078444" lon="9.561574696935132"><ele>88.16666666666666</ele><time>2026-04-02T13:34:48.998Z</time></trkpt><trkpt lat="44.99382944242406" lon="9.561573173573867"><ele>88.33333333333333</ele><time>2026-04-02T13:34:51.998Z</time></trkpt><trkpt lat="44.99375620631878" lon="9.561528428879056"><ele>88.5</ele><time>2026-04-02T13:34:54.998Z</time></trkpt><trkpt lat="44.99378029881186" lon="9.561407229627873"><ele>88.66666666666667</ele><time>2026-04-02T13:34:57.998Z</time></trkpt><trkpt lat="44.99379150382117" lon="9.561318462229414"><ele>88.83333333333334</ele><time>2026-04-02T13:34:59.998Z</time></trkpt><trkpt lat="44.993810727961645" lon="9.561229733522142"><ele>89.0</ele><time>2026-04-02T13:35:01.998Z</time></trkpt><trkpt lat="44.99383266600438" lon="9.561140736781285"><ele>89.28571428571428</ele><time>2026-04-02T13:35:03.998Z</time></trkpt><trkpt lat="44.99385723707575" lon="9.561047729910293"><ele>89.57142857142857</ele><time>2026-04-02T13:35:05.998Z</time></trkpt><trkpt lat="44.99386079901213" lon="9.56095190492118"><ele>89.85714285714286</ele><time>2026-04-02T13:35:07.997Z</time></trkpt><trkpt lat="44.99387436236015" lon="9.560845748932874"><ele>90.14285714285714</ele><time>2026-04-02T13:35:09.998Z</time></trkpt><trkpt lat="44.99389543481577" lon="9.56075273979904"><ele>90.42857142857143</ele><time>2026-04-02T13:35:11.998Z</time></trkpt><trkpt lat="44.99390404577257" lon="9.560652487230843"><ele>90.71428571428571</ele><time>2026-04-02T13:35:13.998Z</time></trkpt><trkpt lat="44.99388299987752" lon="9.56056028870963"><ele>91.0</ele><time>2026-04-02T13:35:15.998Z</time></trkpt><trkpt lat="44.99382112562897" lon="9.560514133129775"><ele>91.0</ele><time>2026-04-02T13:35:17.998Z</time></trkpt><trkpt lat="44.99375876954483" lon="9.560487909383003"><ele>91.0</ele><time>2026-04-02T13:35:19.998Z</time></trkpt><trkpt lat="44.993692499400524" lon="9.560468572714472"><ele>91.0</ele><time>2026-04-02T13:35:21.998Z</time></trkpt><trkpt lat="44.99360820887452" lon="9.56044243242824"><ele>91.0</ele><time>2026-04-02T13:35:24.998Z</time></trkpt><trkpt lat="44.99354821737677" lon="9.560411811903757"><ele>91.0</ele><time>2026-04-02T13:35:26.998Z</time></trkpt><trkpt lat="44.993471663130975" lon="9.560394380350916"><ele>91.0</ele><time>2026-04-02T13:35:28.998Z</time></trkpt><trkpt lat="44.993392358787965" lon="9.560384838144545"><ele>91.0</ele><time>2026-04-02T13:35:30.998Z</time></trkpt><trkpt lat="44.993310656467216" lon="9.560376115375913"><ele>91.0</ele><time>2026-04-02T13:35:33.998Z</time></trkpt><trkpt lat="44.993220498888256" lon="9.560398115359288"><ele>91.0</ele><time>2026-04-02T13:35:36.998Z</time></trkpt><trkpt lat="44.99314803096024" lon="9.560468917845736"><ele>91.0</ele><time>2026-04-02T13:35:39.998Z</time></trkpt><trkpt lat="44.993088404998176" lon="9.560526472312857"><ele>91.0</ele><time>2026-04-02T13:35:41.998Z</time></trkpt><trkpt lat="44.99301712975237" lon="9.560560133831261"><ele>91.0</ele><time>2026-04-02T13:35:43.998Z</time></trkpt><trkpt lat="44.99295172917909" lon="9.560572902807259"><ele>91.0</ele><time>2026-04-02T13:35:45.998Z</time></trkpt><trkpt lat="44.99287874245333" lon="9.560592915983216"><ele>91.0</ele><time>2026-04-02T13:35:47.998Z</time></trkpt><trkpt lat="44.99280745210617" lon="9.560607940196304"><ele>91.0</ele><time>2026-04-02T13:35:49.998Z</time></trkpt><trkpt lat="44.99273128348064" lon="9.56061700787845"><ele>91.0</ele><time>2026-04-02T13:35:51.998Z</time></trkpt><trkpt lat="44.99266854932616" lon="9.560635386727087"><ele>91.0</ele><time>2026-04-02T13:35:53.998Z</time></trkpt><trkpt lat="44.992572608391704" lon="9.560642130659712"><ele>91.0</ele><time>2026-04-02T13:35:56.998Z</time></trkpt><trkpt lat="44.9924983804369" lon="9.5606454893484"><ele>91.0</ele><time>2026-04-02T13:35:58.998Z</time></trkpt><trkpt lat="44.99242567551151" lon="9.560652335672897"><ele>90.83333333333333</ele><time>2026-04-02T13:36:00.998Z</time></trkpt><trkpt lat="44.992355458127086" lon="9.560668727909631"><ele>90.66666666666666</ele><time>2026-04-02T13:36:02.998Z</time></trkpt><trkpt lat="44.99228308665547" lon="9.560682627112774"><ele>90.5</ele><time>2026-04-02T13:36:04.998Z</time></trkpt><trkpt lat="44.9922067386667" lon="9.560705182521335"><ele>90.33333333333333</ele><time>2026-04-02T13:36:06.998Z</time></trkpt><trkpt lat="44.99213393854433" lon="9.560718217206393"><ele>90.16666666666667</ele><time>2026-04-02T13:36:08.998Z</time></trkpt><trkpt lat="44.992055860483234" lon="9.560733220873482"><ele>90.0</ele><time>2026-04-02T13:36:10.998Z</time></trkpt><trkpt lat="44.99197856197972" lon="9.560748030238758"><ele>90.0</ele><time>2026-04-02T13:36:12.998Z</time></trkpt><trkpt lat="44.99189778701908" lon="9.560761541039293"><ele>90.0</ele><time>2026-04-02T13:36:14.998Z</time></trkpt><trkpt lat="44.99182609028843" lon="9.560782932765171"><ele>90.0</ele><time>2026-04-02T13:36:16.998Z</time></trkpt><trkpt lat="44.99175572251431" lon="9.560783846902279"><ele>90.0</ele><time>2026-04-02T13:36:18.998Z</time></trkpt><trkpt lat="44.991686602985546" lon="9.560769797806731"><ele>90.0</ele><time>2026-04-02T13:36:20.998Z</time></trkpt><trkpt lat="44.991618915279346" lon="9.560765029849954"><ele>90.0</ele><time>2026-04-02T13:36:22.998Z</time></trkpt><trkpt lat="44.99154635097988" lon="9.560763236973033"><ele>90.0</ele><time>2026-04-02T13:36:24.998Z</time></trkpt><trkpt lat="44.991476150537885" lon="9.560769277273337"><ele>90.28571428571428</ele><time>2026-04-02T13:36:26.998Z</time></trkpt><trkpt lat="44.99140078611716" lon="9.560760372782854"><ele>90.57142857142858</ele><time>2026-04-02T13:36:28.998Z</time></trkpt><trkpt lat="44.99133234186475" lon="9.560769859051005"><ele>90.85714285714286</ele><time>2026-04-02T13:36:30.998Z</time></trkpt><trkpt lat="44.99125963802942" lon="9.560778983515267"><ele>91.14285714285714</ele><time>2026-04-02T13:36:32.998Z</time></trkpt><trkpt lat="44.99119042079155" lon="9.560777656590316"><ele>91.42857142857142</ele><time>2026-04-02T13:36:34.998Z</time></trkpt><trkpt lat="44.99111865603187" lon="9.560775115267928"><ele>91.71428571428572</ele><time>2026-04-02T13:36:36.998Z</time></trkpt><trkpt lat="44.99104463865488" lon="9.560772012072807"><ele>92.0</ele><time>2026-04-02T13:36:38.998Z</time></trkpt><trkpt lat="44.99097170524982" lon="9.560761890354197"><ele>92.0</ele><time>2026-04-02T13:36:40.998Z</time></trkpt><trkpt lat="44.99090116873274" lon="9.560748448988985"><ele>92.0</ele><time>2026-04-02T13:36:42.998Z</time></trkpt><trkpt lat="44.99082702151562" lon="9.560759570173909"><ele>92.0</ele><time>2026-04-02T13:36:44.998Z</time></trkpt><trkpt lat="44.990759974609176" lon="9.56077979041993"><ele>92.0</ele><time>2026-04-02T13:36:46.998Z</time></trkpt><trkpt lat="44.99069567887491" lon="9.560811278648584"><ele>92.0</ele><time>2026-04-02T13:36:48.998Z</time></trkpt><trkpt lat="44.990630793735534" lon="9.560858947403222"><ele>92.0</ele><time>2026-04-02T13:36:50.998Z</time></trkpt><trkpt lat="44.99056901925455" lon="9.560895373966986"><ele>92.0</ele><time>2026-04-02T13:36:52.998Z</time></trkpt><trkpt lat="44.99050740199272" lon="9.560942125068541"><ele>92.0</ele><time>2026-04-02T13:36:54.998Z</time></trkpt><trkpt lat="44.99044852947586" lon="9.560992504435102"><ele>92.0</ele><time>2026-04-02T13:36:56.998Z</time></trkpt><trkpt lat="44.99039069464816" lon="9.561044435553995"><ele>92.0</ele><time>2026-04-02T13:36:58.998Z</time></trkpt><trkpt lat="44.990329148618486" lon="9.561098130880374"><ele>92.0</ele><time>2026-04-02T13:37:00.998Z</time></trkpt><trkpt lat="44.9902642789035" lon="9.561156591544846"><ele>92.0</ele><time>2026-04-02T13:37:02.998Z</time></trkpt><trkpt lat="44.990200276912226" lon="9.561215329025147"><ele>92.0</ele><time>2026-04-02T13:37:04.998Z</time></trkpt><trkpt lat="44.990119643971816" lon="9.561289495930938"><ele>91.85714285714286</ele><time>2026-04-02T13:37:07.997Z</time></trkpt><trkpt lat="44.99006194325366" lon="9.561333705664346"><ele>91.71428571428571</ele><time>2026-04-02T13:37:09.998Z</time></trkpt><trkpt lat="44.99000404860897" lon="9.561387657971544"><ele>91.57142857142857</ele><time>2026-04-02T13:37:11.997Z</time></trkpt><trkpt lat="44.989944475387844" lon="9.561431398229699"><ele>91.42857142857143</ele><time>2026-04-02T13:37:13.998Z</time></trkpt><trkpt lat="44.989888860794395" lon="9.561489679045566"><ele>91.28571428571428</ele><time>2026-04-02T13:37:15.998Z</time></trkpt><trkpt lat="44.98982846317853" lon="9.56154644940213"><ele>91.14285714285714</ele><time>2026-04-02T13:37:17.998Z</time></trkpt><trkpt lat="44.98977134621774" lon="9.561592165632407"><ele>91.0</ele><time>2026-04-02T13:37:19.998Z</time></trkpt><trkpt lat="44.989712679243205" lon="9.561645810810553"><ele>90.85714285714286</ele><time>2026-04-02T13:37:21.998Z</time></trkpt><trkpt lat="44.9896543187005" lon="9.561698707612763"><ele>90.71428571428572</ele><time>2026-04-02T13:37:23.998Z</time></trkpt><trkpt lat="44.989595501417654" lon="9.561756747021349"><ele>90.57142857142857</ele><time>2026-04-02T13:37:25.998Z</time></trkpt><trkpt lat="44.98953544614363" lon="9.561812747427995"><ele>90.42857142857143</ele><time>2026-04-02T13:37:27.998Z</time></trkpt><trkpt lat="44.98948096009371" lon="9.561859327648731"><ele>90.28571428571429</ele><time>2026-04-02T13:37:29.998Z</time></trkpt><trkpt lat="44.98941989252892" lon="9.561902908700297"><ele>90.14285714285714</ele><time>2026-04-02T13:37:31.998Z</time></trkpt><trkpt lat="44.98936465847419" lon="9.561951566232791"><ele>90.0</ele><time>2026-04-02T13:37:33.998Z</time></trkpt><trkpt lat="44.9892807792831" lon="9.562018127196817"><ele>90.0</ele><time>2026-04-02T13:37:36.998Z</time></trkpt><trkpt lat="44.98922626082288" lon="9.56206930928392"><ele>90.0</ele><time>2026-04-02T13:37:38.998Z</time></trkpt><trkpt lat="44.989167986635685" lon="9.562109527528934"><ele>90.0</ele><time>2026-04-02T13:37:40.998Z</time></trkpt><trkpt lat="44.98910680538596" lon="9.562141630318711"><ele>90.0</ele><time>2026-04-02T13:37:42.998Z</time></trkpt><trkpt lat="44.989042115865374" lon="9.562174187180252"><ele>90.0</ele><time>2026-04-02T13:37:44.998Z</time></trkpt><trkpt lat="44.988984547469535" lon="9.562215606134195"><ele>90.0</ele><time>2026-04-02T13:37:46.998Z</time></trkpt><trkpt lat="44.988916120966266" lon="9.562232831651333"><ele>90.0</ele><time>2026-04-02T13:37:48.998Z</time></trkpt><trkpt lat="44.98884539665276" lon="9.56225167350689"><ele>90.0</ele><time>2026-04-02T13:37:50.998Z</time></trkpt><trkpt lat="44.988782753207275" lon="9.562270807362333"><ele>90.0</ele><time>2026-04-02T13:37:52.998Z</time></trkpt><trkpt lat="44.98871126243586" lon="9.562284677529227"><ele>90.0</ele><time>2026-04-02T13:37:54.998Z</time></trkpt><trkpt lat="44.98864119501769" lon="9.562288560906897"><ele>90.0</ele><time>2026-04-02T13:37:56.998Z</time></trkpt><trkpt lat="44.98857152169139" lon="9.562293444009097"><ele>90.0</ele><time>2026-04-02T13:37:58.998Z</time></trkpt><trkpt lat="44.98850598206609" lon="9.562305568207991"><ele>90.0</ele><time>2026-04-02T13:38:00.998Z</time></trkpt><trkpt lat="44.98843890427633" lon="9.562319833328724"><ele>90.0</ele><time>2026-04-02T13:38:02.998Z</time></trkpt><trkpt lat="44.988372514163615" lon="9.562332590786275"><ele>90.42857142857143</ele><time>2026-04-02T13:38:04.998Z</time></trkpt><trkpt lat="44.98830782554245" lon="9.56234424285792"><ele>90.85714285714286</ele><time>2026-04-02T13:38:06.998Z</time></trkpt><trkpt lat="44.98824563785534" lon="9.562358829139294"><ele>91.28571428571429</ele><time>2026-04-02T13:38:08.998Z</time></trkpt><trkpt lat="44.98817735466611" lon="9.562366318493524"><ele>91.71428571428572</ele><time>2026-04-02T13:38:10.998Z</time></trkpt><trkpt lat="44.98808145698739" lon="9.56238823202413"><ele>92.14285714285714</ele><time>2026-04-02T13:38:13.998Z</time></trkpt><trkpt lat="44.98801678015978" lon="9.562403429042597"><ele>92.57142857142858</ele><time>2026-04-02T13:38:15.998Z</time></trkpt><trkpt lat="44.987950136911685" lon="9.562415738102297"><ele>93.0</ele><time>2026-04-02T13:38:17.998Z</time></trkpt><trkpt lat="44.987852898139636" lon="9.562434453644972"><ele>93.0</ele><time>2026-04-02T13:38:20.998Z</time></trkpt><trkpt lat="44.987790105439444" lon="9.562445645448763"><ele>93.0</ele><time>2026-04-02T13:38:22.998Z</time></trkpt><trkpt lat="44.987694540529425" lon="9.56246155420463"><ele>93.0</ele><time>2026-04-02T13:38:25.998Z</time></trkpt><trkpt lat="44.98760100911779" lon="9.56247681734833"><ele>93.0</ele><time>2026-04-02T13:38:28.998Z</time></trkpt><trkpt lat="44.98753806157846" lon="9.56249247062732"><ele>93.0</ele><time>2026-04-02T13:38:30.998Z</time></trkpt><trkpt lat="44.98744887886335" lon="9.562533986503874"><ele>93.0</ele><time>2026-04-02T13:38:33.998Z</time></trkpt><trkpt lat="44.987370267704236" lon="9.562594493375101"><ele>93.0</ele><time>2026-04-02T13:38:36.998Z</time></trkpt><trkpt lat="44.98729898451721" lon="9.562675604374277"><ele>93.0</ele><time>2026-04-02T13:38:39.998Z</time></trkpt><trkpt lat="44.9872330686409" lon="9.56275480736505"><ele>93.0</ele><time>2026-04-02T13:38:42.998Z</time></trkpt><trkpt lat="44.98716785297002" lon="9.562837041394292"><ele>93.0</ele><time>2026-04-02T13:38:45.998Z</time></trkpt><trkpt lat="44.98709125477259" lon="9.56290192962838"><ele>93.0</ele><time>2026-04-02T13:38:48.998Z</time></trkpt><trkpt lat="44.98700823462537" lon="9.562948487799947"><ele>93.0</ele><time>2026-04-02T13:38:51.998Z</time></trkpt><trkpt lat="44.986925070888375" lon="9.563002372751438"><ele>93.0</ele><time>2026-04-02T13:38:54.998Z</time></trkpt><trkpt lat="44.98683319799906" lon="9.563027636073608"><ele>93.0</ele><time>2026-04-02T13:38:57.998Z</time></trkpt><trkpt lat="44.986746512853436" lon="9.563076056391841"><ele>93.0</ele><time>2026-04-02T13:39:00.998Z</time></trkpt><trkpt lat="44.98665720215727" lon="9.563095328013913"><ele>93.0</ele><time>2026-04-02T13:39:03.998Z</time></trkpt><trkpt lat="44.986572164881814" lon="9.563120917167998"><ele>93.0</ele><time>2026-04-02T13:39:06.997Z</time></trkpt><trkpt lat="44.986504651851305" lon="9.56314205564469"><ele>93.0</ele><time>2026-04-02T13:39:08.997Z</time></trkpt><trkpt lat="44.98643947954716" lon="9.56315335551709"><ele>93.5</ele><time>2026-04-02T13:39:10.997Z</time></trkpt><trkpt lat="44.98637341340782" lon="9.563162682782485"><ele>94.0</ele><time>2026-04-02T13:39:12.998Z</time></trkpt><trkpt lat="44.98630902225305" lon="9.563173249577881"><ele>94.5</ele><time>2026-04-02T13:39:14.998Z</time></trkpt><trkpt lat="44.98621502996727" lon="9.563179335476889"><ele>95.0</ele><time>2026-04-02T13:39:17.997Z</time></trkpt><trkpt lat="44.98614848363632" lon="9.563193016316815"><ele>95.5</ele><time>2026-04-02T13:39:19.998Z</time></trkpt><trkpt lat="44.98605446859049" lon="9.563207458859896"><ele>96.0</ele><time>2026-04-02T13:39:22.998Z</time></trkpt><trkpt lat="44.9859908547473" lon="9.563215997198887"><ele>96.0</ele><time>2026-04-02T13:39:24.998Z</time></trkpt><trkpt lat="44.98592612327822" lon="9.563215266205882"><ele>96.0</ele><time>2026-04-02T13:39:26.998Z</time></trkpt><trkpt lat="44.98583408917888" lon="9.563225579591128"><ele>96.0</ele><time>2026-04-02T13:39:29.998Z</time></trkpt><trkpt lat="44.985741757434745" lon="9.563232952488514"><ele>96.0</ele><time>2026-04-02T13:39:32.998Z</time></trkpt><trkpt lat="44.98565094689458" lon="9.563248597122488"><ele>96.0</ele><time>2026-04-02T13:39:35.998Z</time></trkpt><trkpt lat="44.98556380011685" lon="9.563259667450676"><ele>96.0</ele><time>2026-04-02T13:39:38.998Z</time></trkpt><trkpt lat="44.985472826144715" lon="9.563271928002068"><ele>95.83333333333333</ele><time>2026-04-02T13:39:41.998Z</time></trkpt><trkpt lat="44.98538335967347" lon="9.563285758935484"><ele>95.66666666666667</ele><time>2026-04-02T13:39:44.998Z</time></trkpt><trkpt lat="44.9852931949863" lon="9.563309314992264"><ele>95.5</ele><time>2026-04-02T13:39:47.998Z</time></trkpt><trkpt lat="44.98522900350937" lon="9.56330940404768"><ele>95.33333333333334</ele><time>2026-04-02T13:39:49.998Z</time></trkpt><trkpt lat="44.98513939869592" lon="9.563323163447933"><ele>95.16666666666667</ele><time>2026-04-02T13:39:52.998Z</time></trkpt><trkpt lat="44.985046988416435" lon="9.563327779802089"><ele>95.0</ele><time>2026-04-02T13:39:55.998Z</time></trkpt><trkpt lat="44.98495441828956" lon="9.563345338327007"><ele>95.0</ele><time>2026-04-02T13:39:58.998Z</time></trkpt><trkpt lat="44.98488944437893" lon="9.56335691503578"><ele>95.0</ele><time>2026-04-02T13:40:00.998Z</time></trkpt><trkpt lat="44.98482570989542" lon="9.563344407925948"><ele>95.0</ele><time>2026-04-02T13:40:02.998Z</time></trkpt><trkpt lat="44.984755781049984" lon="9.5633710854135"><ele>95.0</ele><time>2026-04-02T13:40:04.998Z</time></trkpt><trkpt lat="44.98468608349606" lon="9.563388681901612"><ele>95.0</ele><time>2026-04-02T13:40:06.998Z</time></trkpt><trkpt lat="44.98461957387889" lon="9.563397685646713"><ele>95.0</ele><time>2026-04-02T13:40:08.998Z</time></trkpt><trkpt lat="44.98455619071602" lon="9.56341247325203"><ele>95.0</ele><time>2026-04-02T13:40:10.998Z</time></trkpt><trkpt lat="44.984463770677216" lon="9.563410012789493"><ele>95.0</ele><time>2026-04-02T13:40:13.998Z</time></trkpt><trkpt lat="44.98439301423974" lon="9.563411815674266"><ele>95.0</ele><time>2026-04-02T13:40:15.998Z</time></trkpt><trkpt lat="44.98430074757343" lon="9.563420180405249"><ele>95.0</ele><time>2026-04-02T13:40:18.998Z</time></trkpt><trkpt lat="44.98420468173772" lon="9.56342453724524"><ele>95.0</ele><time>2026-04-02T13:40:21.998Z</time></trkpt><trkpt lat="44.98413089185054" lon="9.56342720499635"><ele>95.0</ele><time>2026-04-02T13:40:23.998Z</time></trkpt><trkpt lat="44.98405971950791" lon="9.563418925851181"><ele>95.0</ele><time>2026-04-02T13:40:25.998Z</time></trkpt><trkpt lat="44.983991497446" lon="9.563408759555296"><ele>95.16666666666667</ele><time>2026-04-02T13:40:27.998Z</time></trkpt><trkpt lat="44.983894385644234" lon="9.563410863557916"><ele>95.33333333333334</ele><time>2026-04-02T13:40:30.998Z</time></trkpt><trkpt lat="44.98380050651252" lon="9.563421754175444"><ele>95.5</ele><time>2026-04-02T13:40:33.998Z</time></trkpt><trkpt lat="44.983740515465506" lon="9.563452149748588"><ele>95.66666666666667</ele><time>2026-04-02T13:40:35.998Z</time></trkpt><trkpt lat="44.983655534292204" lon="9.563505435807135"><ele>95.83333333333333</ele><time>2026-04-02T13:40:38.998Z</time></trkpt><trkpt lat="44.98359739839162" lon="9.563549576539591"><ele>96.0</ele><time>2026-04-02T13:40:40.998Z</time></trkpt><trkpt lat="44.9835429953829" lon="9.56359582906344"><ele>96.0</ele><time>2026-04-02T13:40:42.998Z</time></trkpt><trkpt lat="44.983468121379104" lon="9.563667606537441"><ele>96.0</ele><time>2026-04-02T13:40:45.998Z</time></trkpt><trkpt lat="44.983403830784724" lon="9.563758275863957"><ele>96.0</ele><time>2026-04-02T13:40:48.998Z</time></trkpt><trkpt lat="44.98335770448392" lon="9.56386610741771"><ele>96.0</ele><time>2026-04-02T13:40:51.998Z</time></trkpt><trkpt lat="44.98332174374324" lon="9.563980754415018"><ele>96.0</ele><time>2026-04-02T13:40:54.998Z</time></trkpt><trkpt lat="44.98330179998265" lon="9.564099613093196"><ele>96.0</ele><time>2026-04-02T13:40:57.998Z</time></trkpt><trkpt lat="44.98328974714552" lon="9.56422197499499"><ele>96.16666666666667</ele><time>2026-04-02T13:41:00.998Z</time></trkpt><trkpt lat="44.98326606844492" lon="9.564347164883433"><ele>96.33333333333334</ele><time>2026-04-02T13:41:03.998Z</time></trkpt><trkpt lat="44.98322485583836" lon="9.564421090850912"><ele>96.5</ele><time>2026-04-02T13:41:05.998Z</time></trkpt><trkpt lat="44.983148014254205" lon="9.56450705840634"><ele>96.66666666666667</ele><time>2026-04-02T13:41:08.998Z</time></trkpt><trkpt lat="44.983062212193076" lon="9.564542250516677"><ele>96.83333333333334</ele><time>2026-04-02T13:41:11.998Z</time></trkpt><trkpt lat="44.98297465538263" lon="9.564585969355383"><ele>97.0</ele><time>2026-04-02T13:41:14.998Z</time></trkpt><trkpt lat="44.98290846032647" lon="9.564613765968764"><ele>97.0</ele><time>2026-04-02T13:41:16.998Z</time></trkpt><trkpt lat="44.98284116594677" lon="9.564642738186635"><ele>97.0</ele><time>2026-04-02T13:41:18.998Z</time></trkpt><trkpt lat="44.98277322429694" lon="9.564672341403394"><ele>97.0</ele><time>2026-04-02T13:41:20.997Z</time></trkpt><trkpt lat="44.982705557532014" lon="9.564709805426409"><ele>97.0</ele><time>2026-04-02T13:41:22.998Z</time></trkpt><trkpt lat="44.982640341767464" lon="9.564740383060593"><ele>97.0</ele><time>2026-04-02T13:41:24.998Z</time></trkpt><trkpt lat="44.98257781668411" lon="9.564780645251654"><ele>97.0</ele><time>2026-04-02T13:41:26.997Z</time></trkpt><trkpt lat="44.98251873646753" lon="9.564815152235555"><ele>97.0</ele><time>2026-04-02T13:41:28.998Z</time></trkpt><trkpt lat="44.98245968997521" lon="9.56485189823613"><ele>97.14285714285714</ele><time>2026-04-02T13:41:30.998Z</time></trkpt><trkpt lat="44.982396491988354" lon="9.564890227315116"><ele>97.28571428571429</ele><time>2026-04-02T13:41:32.998Z</time></trkpt><trkpt lat="44.98233811938304" lon="9.564933612983447"><ele>97.42857142857143</ele><time>2026-04-02T13:41:34.998Z</time></trkpt><trkpt lat="44.982271439444084" lon="9.564971594213707"><ele>97.57142857142857</ele><time>2026-04-02T13:41:36.998Z</time></trkpt><trkpt lat="44.98221277025446" lon="9.565010937721105"><ele>97.71428571428572</ele><time>2026-04-02T13:41:38.998Z</time></trkpt><trkpt lat="44.982150764326086" lon="9.565043167509796"><ele>97.85714285714286</ele><time>2026-04-02T13:41:40.998Z</time></trkpt><trkpt lat="44.98209064280244" lon="9.565079572968054"><ele>98.0</ele><time>2026-04-02T13:41:42.998Z</time></trkpt><trkpt lat="44.98202886558236" lon="9.565115610538033"><ele>98.0</ele><time>2026-04-02T13:41:44.998Z</time></trkpt><trkpt lat="44.98196668112097" lon="9.565150530861276"><ele>98.0</ele><time>2026-04-02T13:41:46.998Z</time></trkpt><trkpt lat="44.98190520530786" lon="9.56518608755045"><ele>98.0</ele><time>2026-04-02T13:41:48.998Z</time></trkpt><trkpt lat="44.98184948096841" lon="9.565229034376104"><ele>98.0</ele><time>2026-04-02T13:41:50.998Z</time></trkpt><trkpt lat="44.98179136713431" lon="9.565264402635119"><ele>98.0</ele><time>2026-04-02T13:41:52.998Z</time></trkpt><trkpt lat="44.98172946647082" lon="9.565291404377943"><ele>98.0</ele><time>2026-04-02T13:41:54.998Z</time></trkpt><trkpt lat="44.98166974839771" lon="9.565322249016763"><ele>98.0</ele><time>2026-04-02T13:41:56.997Z</time></trkpt><trkpt lat="44.98157870697377" lon="9.565366549981826"><ele>97.66666666666666</ele><time>2026-04-02T13:41:59.997Z</time></trkpt><trkpt lat="44.98149002831118" lon="9.56539787705844"><ele>97.33333333333333</ele><time>2026-04-02T13:42:02.997Z</time></trkpt><trkpt lat="44.981426614860894" lon="9.565416922269206"><ele>97.0</ele><time>2026-04-02T13:42:04.997Z</time></trkpt><trkpt lat="44.98136398500527" lon="9.565438621207164"><ele>96.66666666666666</ele><time>2026-04-02T13:42:06.997Z</time></trkpt><trkpt lat="44.98127503264601" lon="9.5654718039218"><ele>96.33333333333333</ele><time>2026-04-02T13:42:09.997Z</time></trkpt><trkpt lat="44.981186515064" lon="9.565499961579054"><ele>96.0</ele><time>2026-04-02T13:42:12.997Z</time></trkpt><trkpt lat="44.981125571272145" lon="9.565522497214117"><ele>96.0</ele><time>2026-04-02T13:42:14.997Z</time></trkpt><trkpt lat="44.98106319881456" lon="9.56554530805078"><ele>96.0</ele><time>2026-04-02T13:42:16.997Z</time></trkpt><trkpt lat="44.980973820460385" lon="9.565579134357481"><ele>96.0</ele><time>2026-04-02T13:42:19.997Z</time></trkpt><trkpt lat="44.98088464756692" lon="9.565604375202119"><ele>96.0</ele><time>2026-04-02T13:42:22.997Z</time></trkpt><trkpt lat="44.980796530917594" lon="9.565636418419192"><ele>96.0</ele><time>2026-04-02T13:42:25.997Z</time></trkpt><trkpt lat="44.98070710995669" lon="9.565666115413332"><ele>96.0</ele><time>2026-04-02T13:42:28.997Z</time></trkpt><trkpt lat="44.980618254655205" lon="9.565699827680781"><ele>96.5</ele><time>2026-04-02T13:42:31.997Z</time></trkpt><trkpt lat="44.98053219042166" lon="9.565736077294314"><ele>97.0</ele><time>2026-04-02T13:42:34.997Z</time></trkpt><trkpt lat="44.98044446444751" lon="9.565763666096645"><ele>97.5</ele><time>2026-04-02T13:42:37.997Z</time></trkpt><trkpt lat="44.98035581250608" lon="9.565794573635582"><ele>98.0</ele><time>2026-04-02T13:42:40.997Z</time></trkpt><trkpt lat="44.98028894778927" lon="9.565812295074913"><ele>98.5</ele><time>2026-04-02T13:42:42.997Z</time></trkpt><trkpt lat="44.98019843612437" lon="9.565853269396586"><ele>99.0</ele><time>2026-04-02T13:42:45.997Z</time></trkpt><trkpt lat="44.98010947126975" lon="9.56588582056877"><ele>99.0</ele><time>2026-04-02T13:42:48.997Z</time></trkpt><trkpt lat="44.98004011694724" lon="9.565898888558207"><ele>99.0</ele><time>2026-04-02T13:42:50.997Z</time></trkpt><trkpt lat="44.979970092790545" lon="9.565943819193933"><ele>99.0</ele><time>2026-04-02T13:42:52.997Z</time></trkpt><trkpt lat="44.97989758060085" lon="9.565970753083771"><ele>99.0</ele><time>2026-04-02T13:42:54.997Z</time></trkpt><trkpt lat="44.97982402843526" lon="9.565995298256734"><ele>99.0</ele><time>2026-04-02T13:42:56.997Z</time></trkpt><trkpt lat="44.97976346921807" lon="9.566027783472672"><ele>99.0</ele><time>2026-04-02T13:42:58.997Z</time></trkpt><trkpt lat="44.97967679778356" lon="9.566047704555832"><ele>99.33333333333333</ele><time>2026-04-02T13:43:01.997Z</time></trkpt><trkpt lat="44.97961014979814" lon="9.5659895999074"><ele>99.66666666666666</ele><time>2026-04-02T13:43:04.997Z</time></trkpt><trkpt lat="44.97954742096118" lon="9.565895700073334"><ele>100.0</ele><time>2026-04-02T13:43:07.997Z</time></trkpt><trkpt lat="44.97948615373198" lon="9.565800129796724"><ele>100.33333333333333</ele><time>2026-04-02T13:43:10.997Z</time></trkpt><trkpt lat="44.97942428341851" lon="9.56570214421475"><ele>100.66666666666666</ele><time>2026-04-02T13:43:13.997Z</time></trkpt><trkpt lat="44.979350301668944" lon="9.56562862210927"><ele>101.0</ele><time>2026-04-02T13:43:16.997Z</time></trkpt><trkpt lat="44.97928065947272" lon="9.565635131165127"><ele>100.99999999999999</ele><time>2026-04-02T13:43:18.997Z</time></trkpt><trkpt lat="44.979221724492994" lon="9.565674991798915"><ele>101.0</ele><time>2026-04-02T13:43:20.997Z</time></trkpt><trkpt lat="44.97915727283275" lon="9.565742731408244"><ele>101.0</ele><time>2026-04-02T13:43:23.997Z</time></trkpt><trkpt lat="44.97908627741025" lon="9.565818506174265"><ele>101.0</ele><time>2026-04-02T13:43:26.998Z</time></trkpt><trkpt lat="44.979010050188236" lon="9.565892607224447"><ele>100.99999999999999</ele><time>2026-04-02T13:43:29.998Z</time></trkpt><trkpt lat="44.978933969200845" lon="9.565967593348578"><ele>101.0</ele><time>2026-04-02T13:43:32.998Z</time></trkpt><trkpt lat="44.9788803381817" lon="9.566025024611355"><ele>101.16666666666666</ele><time>2026-04-02T13:43:34.998Z</time></trkpt><trkpt lat="44.97881700686251" lon="9.566106332396567"><ele>101.33333333333333</ele><time>2026-04-02T13:43:37.997Z</time></trkpt><trkpt lat="44.97875885493734" lon="9.566154885018824"><ele>101.5</ele><time>2026-04-02T13:43:39.997Z</time></trkpt><trkpt lat="44.97868185451649" lon="9.566232058506104"><ele>101.66666666666666</ele><time>2026-04-02T13:43:42.997Z</time></trkpt><trkpt lat="44.97862975599122" lon="9.566282523820163"><ele>101.83333333333333</ele><time>2026-04-02T13:43:44.997Z</time></trkpt><trkpt lat="44.978556269611325" lon="9.566367195952273"><ele>102.0</ele><time>2026-04-02T13:43:47.997Z</time></trkpt><trkpt lat="44.97847420391555" lon="9.566426794457668"><ele>101.66666666666667</ele><time>2026-04-02T13:43:50.997Z</time></trkpt><trkpt lat="44.978403621387116" lon="9.566498355013723"><ele>101.33333333333334</ele><time>2026-04-02T13:43:53.997Z</time></trkpt><trkpt lat="44.97835256677035" lon="9.566553181662627"><ele>101.0</ele><time>2026-04-02T13:43:55.997Z</time></trkpt><trkpt lat="44.97827821314669" lon="9.566620179860358"><ele>100.66666666666667</ele><time>2026-04-02T13:43:58.997Z</time></trkpt><trkpt lat="44.97819921317842" lon="9.566681917538181"><ele>100.33333333333334</ele><time>2026-04-02T13:44:01.997Z</time></trkpt><trkpt lat="44.97812085964801" lon="9.566740265541958"><ele>100.0</ele><time>2026-04-02T13:44:04.997Z</time></trkpt><trkpt lat="44.978038724310686" lon="9.566789812040982"><ele>100.00000000000001</ele><time>2026-04-02T13:44:07.997Z</time></trkpt><trkpt lat="44.97796300810114" lon="9.566822160642634"><ele>100.0</ele><time>2026-04-02T13:44:10.997Z</time></trkpt><trkpt lat="44.97787418208918" lon="9.56684700338841"><ele>100.0</ele><time>2026-04-02T13:44:13.997Z</time></trkpt><trkpt lat="44.97779185145204" lon="9.566879709030344"><ele>100.0</ele><time>2026-04-02T13:44:16.997Z</time></trkpt><trkpt lat="44.977700913308595" lon="9.566906338662836"><ele>100.00000000000001</ele><time>2026-04-02T13:44:19.997Z</time></trkpt><trkpt lat="44.97761971310113" lon="9.566933542111636"><ele>100.0</ele><time>2026-04-02T13:44:22.997Z</time></trkpt><trkpt lat="44.977557558380006" lon="9.566955377785725"><ele>100.14285714285715</ele><time>2026-04-02T13:44:24.997Z</time></trkpt><trkpt lat="44.977495684444534" lon="9.56697457304516"><ele>100.28571428571429</ele><time>2026-04-02T13:44:26.997Z</time></trkpt><trkpt lat="44.97740356398498" lon="9.567002183981153"><ele>100.42857142857143</ele><time>2026-04-02T13:44:29.997Z</time></trkpt><trkpt lat="44.977338270466404" lon="9.56702239850277"><ele>100.57142857142858</ele><time>2026-04-02T13:44:31.997Z</time></trkpt><trkpt lat="44.97727470725213" lon="9.567045178970593"><ele>100.71428571428571</ele><time>2026-04-02T13:44:33.997Z</time></trkpt><trkpt lat="44.97721174168771" lon="9.567066065153682"><ele>100.85714285714286</ele><time>2026-04-02T13:44:35.997Z</time></trkpt><trkpt lat="44.97712335972242" lon="9.567096740397876"><ele>101.0</ele><time>2026-04-02T13:44:38.997Z</time></trkpt><trkpt lat="44.97705046136734" lon="9.567128074159992"><ele>101.33333333333333</ele><time>2026-04-02T13:44:41.997Z</time></trkpt><trkpt lat="44.97698032897743" lon="9.567144492445538"><ele>101.66666666666666</ele><time>2026-04-02T13:44:44.997Z</time></trkpt><trkpt lat="44.97691332185319" lon="9.567167659408264"><ele>102.0</ele><time>2026-04-02T13:44:47.997Z</time></trkpt><trkpt lat="44.97682229639156" lon="9.567197166110097"><ele>102.33333333333334</ele><time>2026-04-02T13:44:50.997Z</time></trkpt><trkpt lat="44.97673344296968" lon="9.567223250224233"><ele>102.66666666666667</ele><time>2026-04-02T13:44:53.997Z</time></trkpt><trkpt lat="44.976670723699065" lon="9.567240566297244"><ele>103.0</ele><time>2026-04-02T13:44:55.997Z</time></trkpt><trkpt lat="44.9766065673366" lon="9.567262308330118"><ele>102.99999999999999</ele><time>2026-04-02T13:44:57.997Z</time></trkpt><trkpt lat="44.976543239221" lon="9.56728550559782"><ele>103.0</ele><time>2026-04-02T13:44:59.997Z</time></trkpt><trkpt lat="44.97647881942079" lon="9.567306860913614"><ele>103.0</ele><time>2026-04-02T13:45:01.997Z</time></trkpt><trkpt lat="44.97641485623252" lon="9.567322219165703"><ele>103.0</ele><time>2026-04-02T13:45:03.997Z</time></trkpt><trkpt lat="44.97635049328302" lon="9.567341296255696"><ele>103.0</ele><time>2026-04-02T13:45:05.997Z</time></trkpt><trkpt lat="44.976287502551926" lon="9.567367291351527"><ele>102.99999999999999</ele><time>2026-04-02T13:45:07.997Z</time></trkpt><trkpt lat="44.97619599200287" lon="9.567392181455615"><ele>103.0</ele><time>2026-04-02T13:45:10.997Z</time></trkpt><trkpt lat="44.97613278983973" lon="9.56741216685771"><ele>102.99999999999999</ele><time>2026-04-02T13:45:12.997Z</time></trkpt><trkpt lat="44.97606936968025" lon="9.567432899326258"><ele>103.0</ele><time>2026-04-02T13:45:14.997Z</time></trkpt><trkpt lat="44.976005135635596" lon="9.567454647279671"><ele>103.0</ele><time>2026-04-02T13:45:16.997Z</time></trkpt><trkpt lat="44.97594138056323" lon="9.567469343776862"><ele>103.0</ele><time>2026-04-02T13:45:18.997Z</time></trkpt><trkpt lat="44.975877319818" lon="9.567492394234987"><ele>103.0</ele><time>2026-04-02T13:45:20.997Z</time></trkpt><trkpt lat="44.97581196489203" lon="9.567519631836353"><ele>102.99999999999999</ele><time>2026-04-02T13:45:22.997Z</time></trkpt><trkpt lat="44.975745674478745" lon="9.567542164077027"><ele>103.0</ele><time>2026-04-02T13:45:24.997Z</time></trkpt><trkpt lat="44.97567861637312" lon="9.567560548583739"><ele>103.14285714285714</ele><time>2026-04-02T13:45:26.997Z</time></trkpt><trkpt lat="44.9756158351425" lon="9.567587591563328"><ele>103.28571428571428</ele><time>2026-04-02T13:45:28.997Z</time></trkpt><trkpt lat="44.97554776418494" lon="9.56760996600016"><ele>103.42857142857142</ele><time>2026-04-02T13:45:30.998Z</time></trkpt><trkpt lat="44.97548317301863" lon="9.567637390337222"><ele>103.57142857142857</ele><time>2026-04-02T13:45:32.998Z</time></trkpt><trkpt lat="44.97542108748887" lon="9.56765253417059"><ele>103.71428571428572</ele><time>2026-04-02T13:45:34.998Z</time></trkpt><trkpt lat="44.97535979306853" lon="9.567673059854785"><ele>103.85714285714285</ele><time>2026-04-02T13:45:36.998Z</time></trkpt><trkpt lat="44.97529413042043" lon="9.567692336981237"><ele>104.0</ele><time>2026-04-02T13:45:38.998Z</time></trkpt><trkpt lat="44.97522803883182" lon="9.567706083033267"><ele>104.0</ele><time>2026-04-02T13:45:40.998Z</time></trkpt><trkpt lat="44.97516538084448" lon="9.567725896087659"><ele>104.0</ele><time>2026-04-02T13:45:42.998Z</time></trkpt><trkpt lat="44.975100411356195" lon="9.567729295434399"><ele>104.0</ele><time>2026-04-02T13:45:44.998Z</time></trkpt><trkpt lat="44.97502927022483" lon="9.567728484249738"><ele>104.0</ele><time>2026-04-02T13:45:46.998Z</time></trkpt><trkpt lat="44.97496342806994" lon="9.567716627117559"><ele>104.0</ele><time>2026-04-02T13:45:48.998Z</time></trkpt><trkpt lat="44.974878670027316" lon="9.567670160856277"><ele>104.0</ele><time>2026-04-02T13:45:51.998Z</time></trkpt><trkpt lat="44.974818138932086" lon="9.567635774293214"><ele>104.0</ele><time>2026-04-02T13:45:53.998Z</time></trkpt><trkpt lat="44.974757286576555" lon="9.5675917560456"><ele>104.14285714285714</ele><time>2026-04-02T13:45:55.998Z</time></trkpt><trkpt lat="44.97469427333311" lon="9.567554040098475"><ele>104.28571428571429</ele><time>2026-04-02T13:45:57.998Z</time></trkpt><trkpt lat="44.97463085329198" lon="9.567525483676723"><ele>104.42857142857143</ele><time>2026-04-02T13:45:59.998Z</time></trkpt><trkpt lat="44.97456586109191" lon="9.567496795493"><ele>104.57142857142857</ele><time>2026-04-02T13:46:01.998Z</time></trkpt><trkpt lat="44.974497950904414" lon="9.567477887300269"><ele>104.71428571428572</ele><time>2026-04-02T13:46:03.998Z</time></trkpt><trkpt lat="44.97442634544567" lon="9.567465860292483"><ele>104.85714285714286</ele><time>2026-04-02T13:46:05.998Z</time></trkpt><trkpt lat="44.97435294474828" lon="9.567455634895781"><ele>105.0</ele><time>2026-04-02T13:46:07.998Z</time></trkpt><trkpt lat="44.97428445155375" lon="9.567444176421965"><ele>105.0</ele><time>2026-04-02T13:46:09.998Z</time></trkpt><trkpt lat="44.97421451208892" lon="9.567431295858775"><ele>105.0</ele><time>2026-04-02T13:46:11.998Z</time></trkpt><trkpt lat="44.974142653505695" lon="9.567421692572763"><ele>105.0</ele><time>2026-04-02T13:46:13.998Z</time></trkpt><trkpt lat="44.97407051498314" lon="9.5674150007112"><ele>105.0</ele><time>2026-04-02T13:46:15.998Z</time></trkpt><trkpt lat="44.9740004459782" lon="9.567400753473828"><ele>105.0</ele><time>2026-04-02T13:46:17.998Z</time></trkpt><trkpt lat="44.97393357525615" lon="9.567395395163585"><ele>105.0</ele><time>2026-04-02T13:46:19.998Z</time></trkpt><trkpt lat="44.973862450836116" lon="9.567388184552444"><ele>105.0</ele><time>2026-04-02T13:46:21.998Z</time></trkpt><trkpt lat="44.97378672161389" lon="9.567374531560136"><ele>104.83333333333333</ele><time>2026-04-02T13:46:23.998Z</time></trkpt><trkpt lat="44.97371179846866" lon="9.567370066920587"><ele>104.66666666666666</ele><time>2026-04-02T13:46:25.998Z</time></trkpt><trkpt lat="44.97363722190786" lon="9.567365867424996"><ele>104.5</ele><time>2026-04-02T13:46:27.998Z</time></trkpt><trkpt lat="44.97355640853693" lon="9.567357862016056"><ele>104.33333333333333</ele><time>2026-04-02T13:46:29.998Z</time></trkpt><trkpt lat="44.97346811702137" lon="9.567368019798309"><ele>104.16666666666666</ele><time>2026-04-02T13:46:31.998Z</time></trkpt><trkpt lat="44.97338236409232" lon="9.567409832744573"><ele>104.0</ele><time>2026-04-02T13:46:33.998Z</time></trkpt><trkpt lat="44.97330883570822" lon="9.567468092302644"><ele>103.99999999999999</ele><time>2026-04-02T13:46:35.998Z</time></trkpt><trkpt lat="44.973241082450954" lon="9.56753975566673"><ele>104.0</ele><time>2026-04-02T13:46:37.998Z</time></trkpt><trkpt lat="44.97318369206639" lon="9.5676088098176"><ele>104.0</ele><time>2026-04-02T13:46:39.998Z</time></trkpt><trkpt lat="44.97312536230402" lon="9.567679944435673"><ele>104.0</ele><time>2026-04-02T13:46:41.998Z</time></trkpt><trkpt lat="44.97306434341289" lon="9.567750373152554"><ele>103.99999999999999</ele><time>2026-04-02T13:46:43.998Z</time></trkpt><trkpt lat="44.97300361756803" lon="9.567812000737659"><ele>104.0</ele><time>2026-04-02T13:46:45.998Z</time></trkpt><trkpt lat="44.97294122284027" lon="9.567873507806313"><ele>103.85714285714285</ele><time>2026-04-02T13:46:47.998Z</time></trkpt><trkpt lat="44.97287882735749" lon="9.567933708988164"><ele>103.71428571428572</ele><time>2026-04-02T13:46:49.998Z</time></trkpt><trkpt lat="44.97281439198922" lon="9.567994361986536"><ele>103.57142857142857</ele><time>2026-04-02T13:46:51.998Z</time></trkpt><trkpt lat="44.972755402374496" lon="9.568050942864346"><ele>103.42857142857142</ele><time>2026-04-02T13:46:53.998Z</time></trkpt><trkpt lat="44.97270115162518" lon="9.568103965415384"><ele>103.28571428571428</ele><time>2026-04-02T13:46:55.998Z</time></trkpt><trkpt lat="44.97264508007653" lon="9.568158463655273"><ele>103.14285714285714</ele><time>2026-04-02T13:46:57.998Z</time></trkpt><trkpt lat="44.97259235054575" lon="9.56821550535287"><ele>103.0</ele><time>2026-04-02T13:46:59.998Z</time></trkpt><trkpt lat="44.97253563880723" lon="9.568274850545766"><ele>103.33333333333334</ele><time>2026-04-02T13:47:01.998Z</time></trkpt><trkpt lat="44.97246928162224" lon="9.56835137802244"><ele>103.66666666666667</ele><time>2026-04-02T13:47:03.998Z</time></trkpt><trkpt lat="44.97239374304913" lon="9.56843410762"><ele>104.0</ele><time>2026-04-02T13:47:05.998Z</time></trkpt><trkpt lat="44.97232540536263" lon="9.568505737204143"><ele>104.33333333333334</ele><time>2026-04-02T13:47:07.998Z</time></trkpt><trkpt lat="44.97226844282706" lon="9.568574226713396"><ele>104.66666666666667</ele><time>2026-04-02T13:47:09.998Z</time></trkpt><trkpt lat="44.972208117347265" lon="9.568636561055655"><ele>105.0</ele><time>2026-04-02T13:47:11.998Z</time></trkpt><trkpt lat="44.97215010952303" lon="9.568712813259905"><ele>105.33333333333333</ele><time>2026-04-02T13:47:13.998Z</time></trkpt><trkpt lat="44.9720943294042" lon="9.568779984086172"><ele>105.66666666666666</ele><time>2026-04-02T13:47:15.998Z</time></trkpt><trkpt lat="44.972026269086776" lon="9.568881087821808"><ele>106.0</ele><time>2026-04-02T13:47:19.998Z</time></trkpt><trkpt lat="44.97196369134499" lon="9.568950218397788"><ele>106.33333333333333</ele><time>2026-04-02T13:47:22.996Z</time></trkpt><trkpt lat="44.971922672557014" lon="9.569042262507397"><ele>106.66666666666666</ele><time>2026-04-02T13:47:24.996Z</time></trkpt><trkpt lat="44.97187596094685" lon="9.56910453569607"><ele>107.0</ele><time>2026-04-02T13:47:25.996Z</time></trkpt><trkpt lat="44.97181659936793" lon="9.569168711861163"><ele>106.99999999999999</ele><time>2026-04-02T13:47:27.995Z</time></trkpt><trkpt lat="44.97175262884731" lon="9.569250454578228"><ele>107.0</ele><time>2026-04-02T13:47:29.995Z</time></trkpt><trkpt lat="44.97169612306413" lon="9.569329717626253"><ele>107.0</ele><time>2026-04-02T13:47:31.994Z</time></trkpt><trkpt lat="44.97164076116504" lon="9.569410837498728"><ele>107.0</ele><time>2026-04-02T13:47:33.994Z</time></trkpt><trkpt lat="44.97157935672269" lon="9.569498933685486"><ele>106.99999999999999</ele><time>2026-04-02T13:47:35.994Z</time></trkpt><trkpt lat="44.97151607015406" lon="9.569584989665849"><ele>107.0</ele><time>2026-04-02T13:47:37.993Z</time></trkpt><trkpt lat="44.97145997576116" lon="9.569662542235056"><ele>107.33333333333333</ele><time>2026-04-02T13:47:39.993Z</time></trkpt><trkpt lat="44.971399208086396" lon="9.569741226636284"><ele>107.66666666666666</ele><time>2026-04-02T13:47:41.993Z</time></trkpt><trkpt lat="44.97134201744836" lon="9.569808859416371"><ele>108.0</ele><time>2026-04-02T13:47:43.993Z</time></trkpt><trkpt lat="44.971284937678064" lon="9.569888852060862"><ele>108.33333333333334</ele><time>2026-04-02T13:47:45.993Z</time></trkpt><trkpt lat="44.97122844731205" lon="9.569967952374613"><ele>108.66666666666667</ele><time>2026-04-02T13:47:47.992Z</time></trkpt><trkpt lat="44.97117219189006" lon="9.570050476803711"><ele>109.0</ele><time>2026-04-02T13:47:49.992Z</time></trkpt><trkpt lat="44.97110818482677" lon="9.570130488883361"><ele>109.00000000000001</ele><time>2026-04-02T13:47:51.992Z</time></trkpt><trkpt lat="44.97104031723147" lon="9.570211467943789"><ele>109.0</ele><time>2026-04-02T13:47:53.992Z</time></trkpt><trkpt lat="44.970964192114295" lon="9.57025211858583"><ele>109.0</ele><time>2026-04-02T13:47:55.992Z</time></trkpt><trkpt lat="44.97088132189268" lon="9.57024471083323"><ele>109.0</ele><time>2026-04-02T13:47:57.992Z</time></trkpt><trkpt lat="44.97080365401199" lon="9.57022460918612"><ele>109.00000000000001</ele><time>2026-04-02T13:47:59.992Z</time></trkpt><trkpt lat="44.970735985039106" lon="9.570166773157677"><ele>109.0</ele><time>2026-04-02T13:48:01.992Z</time></trkpt><trkpt lat="44.97066374755481" lon="9.570111877232005"><ele>109.33333333333334</ele><time>2026-04-02T13:48:03.992Z</time></trkpt><trkpt lat="44.970597375886655" lon="9.570058067485444"><ele>109.66666666666667</ele><time>2026-04-02T13:48:05.991Z</time></trkpt><trkpt lat="44.97052711346162" lon="9.57000236336854"><ele>110.0</ele><time>2026-04-02T13:48:07.991Z</time></trkpt><trkpt lat="44.97045634872988" lon="9.569948860247967"><ele>110.33333333333334</ele><time>2026-04-02T13:48:09.991Z</time></trkpt><trkpt lat="44.97038505102555" lon="9.569894776817664"><ele>110.66666666666667</ele><time>2026-04-02T13:48:11.991Z</time></trkpt><trkpt lat="44.970317364539675" lon="9.569840739554824"><ele>111.0</ele><time>2026-04-02T13:48:13.991Z</time></trkpt><trkpt lat="44.970246867115584" lon="9.569782776380942"><ele>111.0</ele><time>2026-04-02T13:48:15.991Z</time></trkpt><trkpt lat="44.97017216130327" lon="9.569725980930663"><ele>111.0</ele><time>2026-04-02T13:48:17.991Z</time></trkpt><trkpt lat="44.97010007669142" lon="9.569668197470522"><ele>111.0</ele><time>2026-04-02T13:48:19.991Z</time></trkpt><trkpt lat="44.970021291762286" lon="9.569620830682812"><ele>111.0</ele><time>2026-04-02T13:48:21.991Z</time></trkpt><trkpt lat="44.96994965651188" lon="9.569558406219496"><ele>111.0</ele><time>2026-04-02T13:48:23.991Z</time></trkpt><trkpt lat="44.969872806827155" lon="9.569507985965059"><ele>111.0</ele><time>2026-04-02T13:48:25.991Z</time></trkpt><trkpt lat="44.96980473675601" lon="9.569453899497706"><ele>111.0</ele><time>2026-04-02T13:48:27.991Z</time></trkpt><trkpt lat="44.96973107718008" lon="9.569401495664431"><ele>111.0</ele><time>2026-04-02T13:48:29.991Z</time></trkpt><trkpt lat="44.96966042561189" lon="9.569351568446667"><ele>111.0</ele><time>2026-04-02T13:48:31.991Z</time></trkpt><trkpt lat="44.969586742517166" lon="9.569294816934525"><ele>111.0</ele><time>2026-04-02T13:48:33.991Z</time></trkpt><trkpt lat="44.96951236519653" lon="9.56923885365526"><ele>111.0</ele><time>2026-04-02T13:48:35.991Z</time></trkpt><trkpt lat="44.96944038912527" lon="9.569184438797455"><ele>111.0</ele><time>2026-04-02T13:48:37.991Z</time></trkpt><trkpt lat="44.9693679244866" lon="9.569130131849345"><ele>111.0</ele><time>2026-04-02T13:48:39.991Z</time></trkpt><trkpt lat="44.969302072381375" lon="9.569079437840822"><ele>111.0</ele><time>2026-04-02T13:48:41.991Z</time></trkpt><trkpt lat="44.96924534116062" lon="9.569035502486283"><ele>111.0</ele><time>2026-04-02T13:48:43.991Z</time></trkpt><trkpt lat="44.969163202359" lon="9.568988874307948"><ele>111.0</ele><time>2026-04-02T13:48:46.991Z</time></trkpt><trkpt lat="44.969087635031975" lon="9.568928757654813"><ele>111.0</ele><time>2026-04-02T13:49:08.991Z</time></trkpt><trkpt lat="44.96903563255935" lon="9.56887460211424"><ele>111.0</ele><time>2026-04-02T13:49:10.991Z</time></trkpt><trkpt lat="44.96895438637323" lon="9.56881084001498"><ele>111.0</ele><time>2026-04-02T13:49:13.991Z</time></trkpt><trkpt lat="44.96887911258246" lon="9.56875290532981"><ele>111.0</ele><time>2026-04-02T13:49:16.991Z</time></trkpt><trkpt lat="44.96882091371207" lon="9.56870766468134"><ele>111.0</ele><time>2026-04-02T13:49:18.991Z</time></trkpt><trkpt lat="44.96875805348413" lon="9.568667500612944"><ele>111.0</ele><time>2026-04-02T13:49:20.991Z</time></trkpt><trkpt lat="44.96869854939192" lon="9.568622225038101"><ele>111.0</ele><time>2026-04-02T13:49:22.991Z</time></trkpt><trkpt lat="44.968620139287246" lon="9.568560549758432"><ele>111.0</ele><time>2026-04-02T13:49:25.991Z</time></trkpt><trkpt lat="44.968540244560096" lon="9.568493547299013"><ele>111.0</ele><time>2026-04-02T13:49:28.991Z</time></trkpt><trkpt lat="44.96848215768845" lon="9.568453574471608"><ele>111.0</ele><time>2026-04-02T13:49:30.991Z</time></trkpt><trkpt lat="44.968422485652376" lon="9.568409036464093"><ele>111.0</ele><time>2026-04-02T13:49:32.991Z</time></trkpt><trkpt lat="44.96835836525233" lon="9.56836279282521"><ele>111.0</ele><time>2026-04-02T13:49:34.991Z</time></trkpt><trkpt lat="44.968291700314275" lon="9.568316630196383"><ele>111.0</ele><time>2026-04-02T13:49:36.991Z</time></trkpt><trkpt lat="44.96822565071032" lon="9.568264524758805"><ele>111.0</ele><time>2026-04-02T13:49:38.991Z</time></trkpt><trkpt lat="44.968156081002945" lon="9.56821977403243"><ele>111.0</ele><time>2026-04-02T13:49:40.991Z</time></trkpt><trkpt lat="44.9680904403531" lon="9.56816347254926"><ele>111.16666666666667</ele><time>2026-04-02T13:49:42.991Z</time></trkpt><trkpt lat="44.96802519608332" lon="9.568102661096738"><ele>111.33333333333334</ele><time>2026-04-02T13:49:44.992Z</time></trkpt><trkpt lat="44.96798552589056" lon="9.568018457089359"><ele>111.5</ele><time>2026-04-02T13:49:46.991Z</time></trkpt><trkpt lat="44.967972532119795" lon="9.567898001221177"><ele>111.66666666666667</ele><time>2026-04-02T13:49:48.991Z</time></trkpt><trkpt lat="44.96798413832333" lon="9.567775891483691"><ele>111.83333333333334</ele><time>2026-04-02T13:49:50.992Z</time></trkpt><trkpt lat="44.967978782256914" lon="9.567667433611355"><ele>112.0</ele><time>2026-04-02T13:49:52.992Z</time></trkpt><trkpt lat="44.96792063177887" lon="9.567581668704623"><ele>112.00000000000001</ele><time>2026-04-02T13:49:54.992Z</time></trkpt><trkpt lat="44.96784243649687" lon="9.567546157939644"><ele>112.0</ele><time>2026-04-02T13:49:56.991Z</time></trkpt><trkpt lat="44.96776583475195" lon="9.567536269808016"><ele>112.0</ele><time>2026-04-02T13:49:58.991Z</time></trkpt><trkpt lat="44.96769171782646" lon="9.567528898841996"><ele>112.0</ele><time>2026-04-02T13:50:00.991Z</time></trkpt><trkpt lat="44.96762554294786" lon="9.56751407109852"><ele>112.00000000000001</ele><time>2026-04-02T13:50:02.991Z</time></trkpt><trkpt lat="44.967556394251375" lon="9.56750120379765"><ele>112.0</ele><time>2026-04-02T13:50:04.991Z</time></trkpt><trkpt lat="44.96747009877228" lon="9.567488230281747"><ele>112.33333333333334</ele><time>2026-04-02T13:50:06.991Z</time></trkpt><trkpt lat="44.967399737538145" lon="9.567481691792713"><ele>112.66666666666667</ele><time>2026-04-02T13:50:08.991Z</time></trkpt><trkpt lat="44.96731992992538" lon="9.567471317694393"><ele>113.0</ele><time>2026-04-02T13:50:10.991Z</time></trkpt><trkpt lat="44.96723833960087" lon="9.567457748195277"><ele>113.33333333333334</ele><time>2026-04-02T13:50:12.991Z</time></trkpt><trkpt lat="44.96715424985489" lon="9.567454900261081"><ele>113.66666666666667</ele><time>2026-04-02T13:50:14.991Z</time></trkpt><trkpt lat="44.96707168250899" lon="9.567459930371797"><ele>114.0</ele><time>2026-04-02T13:50:16.991Z</time></trkpt><trkpt lat="44.96699555417851" lon="9.567462803747192"><ele>114.0</ele><time>2026-04-02T13:50:18.991Z</time></trkpt><trkpt lat="44.96691870414724" lon="9.56745785396024"><ele>114.0</ele><time>2026-04-02T13:50:20.991Z</time></trkpt><trkpt lat="44.96684180387429" lon="9.567473720044642"><ele>114.0</ele><time>2026-04-02T13:50:22.991Z</time></trkpt><trkpt lat="44.96676306080257" lon="9.567480599807572"><ele>114.0</ele><time>2026-04-02T13:50:24.991Z</time></trkpt><trkpt lat="44.966677633723556" lon="9.567488220878465"><ele>114.0</ele><time>2026-04-02T13:50:26.991Z</time></trkpt><trkpt lat="44.96659895557115" lon="9.567499589604314"><ele>114.0</ele><time>2026-04-02T13:50:28.991Z</time></trkpt><trkpt lat="44.966513812803456" lon="9.567509035268705"><ele>114.14285714285714</ele><time>2026-04-02T13:50:30.991Z</time></trkpt><trkpt lat="44.96643375858867" lon="9.56752198316489"><ele>114.28571428571428</ele><time>2026-04-02T13:50:32.991Z</time></trkpt><trkpt lat="44.96635312152343" lon="9.567539048752796"><ele>114.42857142857142</ele><time>2026-04-02T13:50:34.991Z</time></trkpt><trkpt lat="44.96628062454635" lon="9.567548601249426"><ele>114.57142857142856</ele><time>2026-04-02T13:50:36.991Z</time></trkpt><trkpt lat="44.966217013166805" lon="9.567555691264271"><ele>114.71428571428571</ele><time>2026-04-02T13:50:38.991Z</time></trkpt><trkpt lat="44.966151719190414" lon="9.567570013090986"><ele>114.85714285714283</ele><time>2026-04-02T13:50:40.991Z</time></trkpt><trkpt lat="44.96607156854129" lon="9.567560045982184"><ele>114.99999999999999</ele><time>2026-04-02T13:50:42.991Z</time></trkpt><trkpt lat="44.96598419777618" lon="9.567491613550722"><ele>115.0</ele><time>2026-04-02T13:50:44.991Z</time></trkpt><trkpt lat="44.96592983737247" lon="9.567376811612661"><ele>115.0</ele><time>2026-04-02T13:50:46.991Z</time></trkpt><trkpt lat="44.96589101037279" lon="9.567232797976033"><ele>115.0</ele><time>2026-04-02T13:50:48.991Z</time></trkpt><trkpt lat="44.965850849563644" lon="9.56709468182081"><ele>115.0</ele><time>2026-04-02T13:50:50.991Z</time></trkpt><trkpt lat="44.96580708880288" lon="9.566947078601597"><ele>115.0</ele><time>2026-04-02T13:50:52.991Z</time></trkpt><trkpt lat="44.96576586516801" lon="9.566799914333528"><ele>115.0</ele><time>2026-04-02T13:50:54.991Z</time></trkpt><trkpt lat="44.96572560215383" lon="9.566656900897758"><ele>115.0</ele><time>2026-04-02T13:50:56.991Z</time></trkpt><trkpt lat="44.96568367722798" lon="9.566515286765377"><ele>115.0</ele><time>2026-04-02T13:50:58.991Z</time></trkpt><trkpt lat="44.96565744072032" lon="9.56637239065038"><ele>115.0</ele><time>2026-04-02T13:51:00.991Z</time></trkpt><trkpt lat="44.96561881392441" lon="9.566232322510784"><ele>115.0</ele><time>2026-04-02T13:51:02.991Z</time></trkpt><trkpt lat="44.96556132334914" lon="9.566108652678023"><ele>115.16666666666667</ele><time>2026-04-02T13:51:04.991Z</time></trkpt><trkpt lat="44.96553746906249" lon="9.565989602845756"><ele>115.33333333333334</ele><time>2026-04-02T13:51:06.991Z</time></trkpt><trkpt lat="44.96550364401636" lon="9.56587159689869"><ele>115.5</ele><time>2026-04-02T13:51:08.991Z</time></trkpt><trkpt lat="44.965473653258655" lon="9.565760036678855"><ele>115.66666666666666</ele><time>2026-04-02T13:51:10.991Z</time></trkpt><trkpt lat="44.9654490595435" lon="9.565646495838587"><ele>115.83333333333333</ele><time>2026-04-02T13:51:12.991Z</time></trkpt><trkpt lat="44.96541818741689" lon="9.565537115058989"><ele>116.0</ele><time>2026-04-02T13:51:14.991Z</time></trkpt><trkpt lat="44.965376941216455" lon="9.565418558604946"><ele>116.16666666666666</ele><time>2026-04-02T13:51:16.991Z</time></trkpt><trkpt lat="44.96532176483261" lon="9.565319436445053"><ele>116.33333333333333</ele><time>2026-04-02T13:51:18.991Z</time></trkpt><trkpt lat="44.96524826424455" lon="9.565261517286691"><ele>116.5</ele><time>2026-04-02T13:51:20.991Z</time></trkpt><trkpt lat="44.9651649213569" lon="9.565194707825162"><ele>116.66666666666666</ele><time>2026-04-02T13:51:22.991Z</time></trkpt><trkpt lat="44.96508536190852" lon="9.565143071173683"><ele>116.83333333333333</ele><time>2026-04-02T13:51:24.991Z</time></trkpt><trkpt lat="44.96501154695414" lon="9.565092927608402"><ele>117.0</ele><time>2026-04-02T13:51:26.991Z</time></trkpt><trkpt lat="44.96493909049758" lon="9.565044865333554"><ele>117.0</ele><time>2026-04-02T13:51:28.991Z</time></trkpt><trkpt lat="44.96486145538753" lon="9.565001634381815"><ele>117.0</ele><time>2026-04-02T13:51:30.991Z</time></trkpt><trkpt lat="44.964788852443974" lon="9.564946209804512"><ele>117.0</ele><time>2026-04-02T13:51:32.99Z</time></trkpt><trkpt lat="44.96471366298971" lon="9.564896040124786"><ele>117.0</ele><time>2026-04-02T13:51:34.99Z</time></trkpt><trkpt lat="44.964639229794365" lon="9.564852393671886"><ele>117.0</ele><time>2026-04-02T13:51:36.99Z</time></trkpt><trkpt lat="44.96456012978537" lon="9.564797129352675"><ele>117.0</ele><time>2026-04-02T13:51:38.99Z</time></trkpt><trkpt lat="44.96448338753603" lon="9.5647515610779"><ele>117.0</ele><time>2026-04-02T13:51:40.99Z</time></trkpt><trkpt lat="44.964406321804624" lon="9.564694177252917"><ele>117.0</ele><time>2026-04-02T13:51:42.99Z</time></trkpt><trkpt lat="44.96432796365334" lon="9.564639685942304"><ele>117.0</ele><time>2026-04-02T13:51:44.99Z</time></trkpt><trkpt lat="44.96425031569152" lon="9.564587715033324"><ele>117.0</ele><time>2026-04-02T13:51:46.99Z</time></trkpt><trkpt lat="44.96417565895043" lon="9.564534717081425"><ele>117.0</ele><time>2026-04-02T13:51:48.991Z</time></trkpt><trkpt lat="44.96409761687549" lon="9.564485780344487"><ele>117.0</ele><time>2026-04-02T13:51:50.991Z</time></trkpt><trkpt lat="44.96402005625021" lon="9.564432870088035"><ele>117.33333333333333</ele><time>2026-04-02T13:51:52.991Z</time></trkpt><trkpt lat="44.9639403078581" lon="9.564378391090562"><ele>117.66666666666666</ele><time>2026-04-02T13:51:54.992Z</time></trkpt><trkpt lat="44.96386266210916" lon="9.564325678796791"><ele>118.0</ele><time>2026-04-02T13:51:56.991Z</time></trkpt><trkpt lat="44.96378354509305" lon="9.564277118533681"><ele>118.33333333333333</ele><time>2026-04-02T13:51:58.992Z</time></trkpt><trkpt lat="44.96370570696114" lon="9.56422112939308"><ele>118.66666666666666</ele><time>2026-04-02T13:52:00.992Z</time></trkpt><trkpt lat="44.96362053734601" lon="9.5641732874895"><ele>119.0</ele><time>2026-04-02T13:52:02.991Z</time></trkpt><trkpt lat="44.96354397346868" lon="9.564121282663931"><ele>118.99999999999999</ele><time>2026-04-02T13:52:04.991Z</time></trkpt><trkpt lat="44.96346360706493" lon="9.564068070768155"><ele>119.0</ele><time>2026-04-02T13:52:06.991Z</time></trkpt><trkpt lat="44.9633815546443" lon="9.564024996879741"><ele>119.0</ele><time>2026-04-02T13:52:08.991Z</time></trkpt><trkpt lat="44.96330542785561" lon="9.563968947766837"><ele>119.0</ele><time>2026-04-02T13:52:10.991Z</time></trkpt><trkpt lat="44.96322246664392" lon="9.563923617669957"><ele>118.99999999999999</ele><time>2026-04-02T13:52:12.991Z</time></trkpt><trkpt lat="44.96314549326944" lon="9.563871579949474"><ele>119.0</ele><time>2026-04-02T13:52:14.991Z</time></trkpt><trkpt lat="44.96306689133525" lon="9.56381896441872"><ele>118.99999999999999</ele><time>2026-04-02T13:52:16.991Z</time></trkpt><trkpt lat="44.962987631446914" lon="9.563763111788827"><ele>119.0</ele><time>2026-04-02T13:52:18.991Z</time></trkpt><trkpt lat="44.962907366783234" lon="9.563705566976703"><ele>119.0</ele><time>2026-04-02T13:52:20.991Z</time></trkpt><trkpt lat="44.9628266354819" lon="9.563647335469032"><ele>119.0</ele><time>2026-04-02T13:52:22.991Z</time></trkpt><trkpt lat="44.96274891665018" lon="9.563598921639006"><ele>118.99999999999999</ele><time>2026-04-02T13:52:24.991Z</time></trkpt><trkpt lat="44.962663946072034" lon="9.563555644206025"><ele>119.0</ele><time>2026-04-02T13:52:26.991Z</time></trkpt><trkpt lat="44.96258156228882" lon="9.563509019604473"><ele>119.4</ele><time>2026-04-02T13:52:28.991Z</time></trkpt><trkpt lat="44.96249207621264" lon="9.563474495788913"><ele>119.80000000000001</ele><time>2026-04-02T13:52:30.991Z</time></trkpt><trkpt lat="44.962408701947666" lon="9.563441688667032"><ele>120.19999999999999</ele><time>2026-04-02T13:52:32.991Z</time></trkpt><trkpt lat="44.96231978262677" lon="9.563413152362568"><ele>120.6</ele><time>2026-04-02T13:52:34.991Z</time></trkpt><trkpt lat="44.96223158983353" lon="9.56338832894048"><ele>121.0</ele><time>2026-04-02T13:52:36.991Z</time></trkpt><trkpt lat="44.962142390972126" lon="9.56336589558402"><ele>121.0</ele><time>2026-04-02T13:52:38.991Z</time></trkpt><trkpt lat="44.96205431998347" lon="9.563341337264053"><ele>121.0</ele><time>2026-04-02T13:52:40.991Z</time></trkpt><trkpt lat="44.961964997356525" lon="9.563319476811468"><ele>121.0</ele><time>2026-04-02T13:52:42.991Z</time></trkpt><trkpt lat="44.96187663784624" lon="9.563294471316164"><ele>121.0</ele><time>2026-04-02T13:52:44.991Z</time></trkpt><trkpt lat="44.961787195539685" lon="9.563275168102505"><ele>121.0</ele><time>2026-04-02T13:52:46.991Z</time></trkpt><trkpt lat="44.961693154081324" lon="9.56325805986209"><ele>121.16666666666667</ele><time>2026-04-02T13:52:48.991Z</time></trkpt><trkpt lat="44.96160804567746" lon="9.563237940789847"><ele>121.33333333333334</ele><time>2026-04-02T13:52:50.991Z</time></trkpt><trkpt lat="44.96151852434762" lon="9.56322813525956"><ele>121.5</ele><time>2026-04-02T13:52:52.991Z</time></trkpt><trkpt lat="44.96143150491658" lon="9.563217771669494"><ele>121.66666666666666</ele><time>2026-04-02T13:52:54.991Z</time></trkpt><trkpt lat="44.961344657422664" lon="9.563212695778173"><ele>121.83333333333333</ele><time>2026-04-02T13:52:56.991Z</time></trkpt><trkpt lat="44.96125862016782" lon="9.563196863319382"><ele>122.0</ele><time>2026-04-02T13:52:58.991Z</time></trkpt><trkpt lat="44.961173823866936" lon="9.563183100056438"><ele>121.99999999999999</ele><time>2026-04-02T13:53:00.991Z</time></trkpt><trkpt lat="44.961097099453404" lon="9.563169263034661"><ele>122.0</ele><time>2026-04-02T13:53:02.991Z</time></trkpt><trkpt lat="44.96101595162227" lon="9.563143373764643"><ele>122.0</ele><time>2026-04-02T13:53:04.991Z</time></trkpt><trkpt lat="44.960934200959954" lon="9.563126847214534"><ele>122.0</ele><time>2026-04-02T13:53:06.991Z</time></trkpt><trkpt lat="44.96085272908494" lon="9.563102562838143"><ele>121.99999999999999</ele><time>2026-04-02T13:53:08.991Z</time></trkpt><trkpt lat="44.960770526456045" lon="9.563084109623372"><ele>122.0</ele><time>2026-04-02T13:53:10.991Z</time></trkpt><trkpt lat="44.96068125690766" lon="9.563067884510195"><ele>122.16666666666666</ele><time>2026-04-02T13:53:12.991Z</time></trkpt><trkpt lat="44.9605968316154" lon="9.563049108066604"><ele>122.33333333333333</ele><time>2026-04-02T13:53:14.991Z</time></trkpt><trkpt lat="44.96051369577006" lon="9.563038743343725"><ele>122.5</ele><time>2026-04-02T13:53:16.991Z</time></trkpt><trkpt lat="44.96042407755209" lon="9.563019505243583"><ele>122.66666666666666</ele><time>2026-04-02T13:53:18.991Z</time></trkpt><trkpt lat="44.96033687478823" lon="9.563008467659074"><ele>122.83333333333333</ele><time>2026-04-02T13:53:20.991Z</time></trkpt><trkpt lat="44.96024863966704" lon="9.562997635434138"><ele>123.0</ele><time>2026-04-02T13:53:22.991Z</time></trkpt><trkpt lat="44.960162036157314" lon="9.562983216856066"><ele>123.0</ele><time>2026-04-02T13:53:24.991Z</time></trkpt><trkpt lat="44.960078009960746" lon="9.56298183321868"><ele>123.0</ele><time>2026-04-02T13:53:26.991Z</time></trkpt><trkpt lat="44.9599939588052" lon="9.562959109008222"><ele>123.0</ele><time>2026-04-02T13:53:28.991Z</time></trkpt><trkpt lat="44.95990271193334" lon="9.562948457280328"><ele>123.0</ele><time>2026-04-02T13:53:30.991Z</time></trkpt><trkpt lat="44.9598237871289" lon="9.562936493271902"><ele>123.0</ele><time>2026-04-02T13:53:32.991Z</time></trkpt><trkpt lat="44.959741583949324" lon="9.562926255328012"><ele>123.0</ele><time>2026-04-02T13:53:34.991Z</time></trkpt><trkpt lat="44.95965781652241" lon="9.562905579515835"><ele>123.0</ele><time>2026-04-02T13:53:36.991Z</time></trkpt><trkpt lat="44.959585346810286" lon="9.562903541346902"><ele>123.0</ele><time>2026-04-02T13:53:38.991Z</time></trkpt><trkpt lat="44.959509248258435" lon="9.562882926484901"><ele>123.0</ele><time>2026-04-02T13:53:40.991Z</time></trkpt><trkpt lat="44.95942876661636" lon="9.562859622024096"><ele>123.0</ele><time>2026-04-02T13:53:42.991Z</time></trkpt><trkpt lat="44.9593519649828" lon="9.562840879899975"><ele>123.0</ele><time>2026-04-02T13:53:44.991Z</time></trkpt><trkpt lat="44.95927739050168" lon="9.562828831632945"><ele>123.0</ele><time>2026-04-02T13:53:46.991Z</time></trkpt><trkpt lat="44.95921028269557" lon="9.56281526372456"><ele>123.66666666666667</ele><time>2026-04-02T13:53:48.991Z</time></trkpt><trkpt lat="44.95912395233112" lon="9.562798872879991"><ele>124.33333333333334</ele><time>2026-04-02T13:53:51.991Z</time></trkpt><trkpt lat="44.9590538716996" lon="9.562779404025397"><ele>125.0</ele><time>2026-04-02T13:53:54.991Z</time></trkpt><trkpt lat="44.958999150877744" lon="9.562701962661778"><ele>125.66666666666667</ele><time>2026-04-02T13:54:02.991Z</time></trkpt><trkpt lat="44.958991970159914" lon="9.562601830296455"><ele>126.33333333333334</ele><time>2026-04-02T13:54:05.99Z</time></trkpt><trkpt lat="44.95899150219322" lon="9.562503731831606"><ele>127.0</ele><time>2026-04-02T13:54:07.991Z</time></trkpt><trkpt lat="44.95899331551472" lon="9.562394374075131"><ele>127.0</ele><time>2026-04-02T13:54:09.991Z</time></trkpt><trkpt lat="44.958988941106284" lon="9.562284975846666"><ele>126.99999999999999</ele><time>2026-04-02T13:54:11.991Z</time></trkpt><trkpt lat="44.95899095909579" lon="9.562150650512363"><ele>126.99999999999999</ele><time>2026-04-02T13:54:13.991Z</time></trkpt><trkpt lat="44.95898481973863" lon="9.562004646730422"><ele>127.0</ele><time>2026-04-02T13:54:15.991Z</time></trkpt><trkpt lat="44.9589866142327" lon="9.56184706330628"><ele>127.0</ele><time>2026-04-02T13:54:17.991Z</time></trkpt><trkpt lat="44.95898307146856" lon="9.56167224317298"><ele>126.85714285714286</ele><time>2026-04-02T13:54:19.991Z</time></trkpt><trkpt lat="44.95898379346617" lon="9.561576062543667"><ele>126.71428571428571</ele><time>2026-04-02T13:54:20.991Z</time></trkpt><trkpt lat="44.95898178500493" lon="9.561475994326695"><ele>126.57142857142857</ele><time>2026-04-02T13:54:21.991Z</time></trkpt><trkpt lat="44.958983404709244" lon="9.561376264662753"><ele>126.42857142857143</ele><time>2026-04-02T13:54:22.991Z</time></trkpt><trkpt lat="44.958981799451244" lon="9.56126793177078"><ele>126.28571428571428</ele><time>2026-04-02T13:54:23.991Z</time></trkpt><trkpt lat="44.95898206404471" lon="9.561159032860079"><ele>126.14285714285714</ele><time>2026-04-02T13:54:24.991Z</time></trkpt><trkpt lat="44.958986139185626" lon="9.5610461128386"><ele>126.0</ele><time>2026-04-02T13:54:25.991Z</time></trkpt><trkpt lat="44.958982406503885" lon="9.560936275692546"><ele>125.33333333333333</ele><time>2026-04-02T13:54:26.991Z</time></trkpt><trkpt lat="44.95898204984925" lon="9.56081167600961"><ele>124.66666666666666</ele><time>2026-04-02T13:54:27.991Z</time></trkpt><trkpt lat="44.95897914385801" lon="9.5606890386248"><ele>124.0</ele><time>2026-04-02T13:54:28.991Z</time></trkpt><trkpt lat="44.958979421758194" lon="9.56056195151094"><ele>123.33333333333333</ele><time>2026-04-02T13:54:29.991Z</time></trkpt><trkpt lat="44.95897949044207" lon="9.560436360273536"><ele>122.66666666666666</ele><time>2026-04-02T13:54:30.991Z</time></trkpt><trkpt lat="44.958976873335814" lon="9.560309816372643"><ele>122.0</ele><time>2026-04-02T13:54:31.991Z</time></trkpt><trkpt lat="44.958972668253566" lon="9.560173300064891"><ele>121.39999999999999</ele><time>2026-04-02T13:54:32.991Z</time></trkpt><trkpt lat="44.95897023507" lon="9.560040786682748"><ele>120.79999999999998</ele><time>2026-04-02T13:54:33.991Z</time></trkpt><trkpt lat="44.95897220526866" lon="9.559909044937553"><ele>120.2</ele><time>2026-04-02T13:54:34.991Z</time></trkpt><trkpt lat="44.95897217698559" lon="9.559771576779521"><ele>119.6</ele><time>2026-04-02T13:54:35.991Z</time></trkpt><trkpt lat="44.95896871344085" lon="9.55964461959215"><ele>119.0</ele><time>2026-04-02T13:54:36.991Z</time></trkpt><trkpt lat="44.9589675791295" lon="9.559514859456465"><ele>118.83333333333333</ele><time>2026-04-02T13:54:37.991Z</time></trkpt><trkpt lat="44.95896705402555" lon="9.55939097474775"><ele>118.66666666666666</ele><time>2026-04-02T13:54:38.991Z</time></trkpt><trkpt lat="44.95896253919518" lon="9.55926585795197"><ele>118.5</ele><time>2026-04-02T13:54:39.991Z</time></trkpt><trkpt lat="44.958959756809776" lon="9.559142456054456"><ele>118.33333333333334</ele><time>2026-04-02T13:54:40.991Z</time></trkpt><trkpt lat="44.9589480694741" lon="9.559027121996127"><ele>118.16666666666667</ele><time>2026-04-02T13:54:41.991Z</time></trkpt><trkpt lat="44.958938184057835" lon="9.558906559481494"><ele>118.0</ele><time>2026-04-02T13:54:42.991Z</time></trkpt><trkpt lat="44.95891852964659" lon="9.55879260697997"><ele>118.50000000000001</ele><time>2026-04-02T13:54:43.991Z</time></trkpt><trkpt lat="44.95889470858278" lon="9.558680478874228"><ele>119.0</ele><time>2026-04-02T13:54:44.991Z</time></trkpt><trkpt lat="44.95886321897487" lon="9.558575973537726"><ele>119.5</ele><time>2026-04-02T13:54:45.991Z</time></trkpt><trkpt lat="44.95882499345249" lon="9.558475404456184"><ele>120.0</ele><time>2026-04-02T13:54:46.991Z</time></trkpt><trkpt lat="44.958779502272584" lon="9.558370978721253"><ele>120.50000000000001</ele><time>2026-04-02T13:54:47.99Z</time></trkpt><trkpt lat="44.95873170918991" lon="9.55827356523251"><ele>121.0</ele><time>2026-04-02T13:54:48.99Z</time></trkpt><trkpt lat="44.958678553658835" lon="9.558177884833867"><ele>121.00000000000001</ele><time>2026-04-02T13:54:49.99Z</time></trkpt><trkpt lat="44.958624392147726" lon="9.558089645503705"><ele>121.0</ele><time>2026-04-02T13:54:50.99Z</time></trkpt><trkpt lat="44.95857042697032" lon="9.55800098262979"><ele>121.0</ele><time>2026-04-02T13:54:51.99Z</time></trkpt><trkpt lat="44.95851551467997" lon="9.557916066498883"><ele>121.0</ele><time>2026-04-02T13:54:52.99Z</time></trkpt><trkpt lat="44.95846321281807" lon="9.557834104453677"><ele>121.00000000000001</ele><time>2026-04-02T13:54:53.99Z</time></trkpt><trkpt lat="44.95841280259883" lon="9.55775136825571"><ele>121.0</ele><time>2026-04-02T13:54:54.99Z</time></trkpt><trkpt lat="44.9583661813906" lon="9.557670924865361"><ele>121.28571428571428</ele><time>2026-04-02T13:54:55.99Z</time></trkpt><trkpt lat="44.95832117847421" lon="9.557593259474181"><ele>121.57142857142856</ele><time>2026-04-02T13:54:56.99Z</time></trkpt><trkpt lat="44.95827600971502" lon="9.557515577274657"><ele>121.85714285714286</ele><time>2026-04-02T13:54:57.99Z</time></trkpt><trkpt lat="44.958234979011706" lon="9.557435041890988"><ele>122.14285714285714</ele><time>2026-04-02T13:54:58.99Z</time></trkpt><trkpt lat="44.95819988415529" lon="9.55735359593863"><ele>122.42857142857143</ele><time>2026-04-02T13:54:59.99Z</time></trkpt><trkpt lat="44.95816408126938" lon="9.5572655022312"><ele>122.71428571428572</ele><time>2026-04-02T13:55:00.99Z</time></trkpt><trkpt lat="44.95813469990967" lon="9.557185813012081"><ele>123.00000000000001</ele><time>2026-04-02T13:55:01.99Z</time></trkpt><trkpt lat="44.95810476374545" lon="9.557104210907708"><ele>123.60000000000001</ele><time>2026-04-02T13:55:02.99Z</time></trkpt><trkpt lat="44.958076809678985" lon="9.557022036132373"><ele>124.20000000000002</ele><time>2026-04-02T13:55:03.99Z</time></trkpt><trkpt lat="44.958025800032026" lon="9.556863916849474"><ele>124.8</ele><time>2026-04-02T13:55:05.99Z</time></trkpt><trkpt lat="44.957974961072395" lon="9.556723806289943"><ele>125.4</ele><time>2026-04-02T13:55:07.99Z</time></trkpt><trkpt lat="44.957928742891326" lon="9.556588745075517"><ele>126.0</ele><time>2026-04-02T13:55:09.99Z</time></trkpt><trkpt lat="44.95788932421663" lon="9.556464806333187"><ele>126.0</ele><time>2026-04-02T13:55:11.99Z</time></trkpt><trkpt lat="44.95785035380471" lon="9.556340975804508"><ele>126.0</ele><time>2026-04-02T13:55:13.99Z</time></trkpt><trkpt lat="44.95781153031096" lon="9.556220855968306"><ele>126.0</ele><time>2026-04-02T13:55:15.99Z</time></trkpt><trkpt lat="44.95777446577032" lon="9.556106964883835"><ele>126.0</ele><time>2026-04-02T13:55:17.99Z</time></trkpt><trkpt lat="44.95773142592675" lon="9.55598308162894"><ele>126.0</ele><time>2026-04-02T13:55:19.99Z</time></trkpt><trkpt lat="44.9576936107073" lon="9.555865502946459"><ele>126.6</ele><time>2026-04-02T13:55:21.99Z</time></trkpt><trkpt lat="44.957658943796254" lon="9.555739621973656"><ele>127.19999999999999</ele><time>2026-04-02T13:55:23.99Z</time></trkpt><trkpt lat="44.957630261949774" lon="9.555609697278522"><ele>127.80000000000001</ele><time>2026-04-02T13:55:25.99Z</time></trkpt><trkpt lat="44.95760097216075" lon="9.555482819235174"><ele>128.4</ele><time>2026-04-02T13:55:27.99Z</time></trkpt><trkpt lat="44.95757121993884" lon="9.5553557130383"><ele>129.0</ele><time>2026-04-02T13:55:29.99Z</time></trkpt><trkpt lat="44.95754985783006" lon="9.555224300318526"><ele>129.2</ele><time>2026-04-02T13:55:31.99Z</time></trkpt><trkpt lat="44.957530436069476" lon="9.555091373084839"><ele>129.4</ele><time>2026-04-02T13:55:33.99Z</time></trkpt><trkpt lat="44.95750649189972" lon="9.554954065103585"><ele>129.6</ele><time>2026-04-02T13:55:35.99Z</time></trkpt><trkpt lat="44.957482865293414" lon="9.554823658461194"><ele>129.8</ele><time>2026-04-02T13:55:37.99Z</time></trkpt><trkpt lat="44.957458293149266" lon="9.55468435571631"><ele>130.0</ele><time>2026-04-02T13:55:39.99Z</time></trkpt><trkpt lat="44.95743783878365" lon="9.554548459852864"><ele>130.2</ele><time>2026-04-02T13:55:41.99Z</time></trkpt><trkpt lat="44.95741448585314" lon="9.554404907535382"><ele>130.4</ele><time>2026-04-02T13:55:43.99Z</time></trkpt><trkpt lat="44.95739271339169" lon="9.554262951492852"><ele>130.6</ele><time>2026-04-02T13:55:45.99Z</time></trkpt><trkpt lat="44.957368329995695" lon="9.554120627061579"><ele>130.8</ele><time>2026-04-02T13:55:47.99Z</time></trkpt><trkpt lat="44.957347038908495" lon="9.553972849214722"><ele>131.0</ele><time>2026-04-02T13:55:49.99Z</time></trkpt><trkpt lat="44.957321158936985" lon="9.55383022046976"><ele>131.2</ele><time>2026-04-02T13:55:51.99Z</time></trkpt><trkpt lat="44.95729750144261" lon="9.553689869109116"><ele>131.39999999999998</ele><time>2026-04-02T13:55:53.99Z</time></trkpt><trkpt lat="44.95727596350107" lon="9.553549264280997"><ele>131.6</ele><time>2026-04-02T13:55:55.99Z</time></trkpt><trkpt lat="44.957256922253436" lon="9.553404517653977"><ele>131.79999999999998</ele><time>2026-04-02T13:55:57.99Z</time></trkpt><trkpt lat="44.95724360571291" lon="9.553263044014775"><ele>132.0</ele><time>2026-04-02T13:55:59.99Z</time></trkpt><trkpt lat="44.95723873657525" lon="9.553121614129703"><ele>132.0</ele><time>2026-04-02T13:56:01.991Z</time></trkpt><trkpt lat="44.957250277744606" lon="9.55297820185284"><ele>132.0</ele><time>2026-04-02T13:56:03.991Z</time></trkpt><trkpt lat="44.95727417981739" lon="9.552845640678212"><ele>132.0</ele><time>2026-04-02T13:56:05.991Z</time></trkpt><trkpt lat="44.9573089348862" lon="9.552729284379515"><ele>132.0</ele><time>2026-04-02T13:56:07.99Z</time></trkpt><trkpt lat="44.95733682785342" lon="9.552627344526377"><ele>132.0</ele><time>2026-04-02T13:56:09.991Z</time></trkpt><trkpt lat="44.95736659441634" lon="9.552531552821216"><ele>132.0</ele><time>2026-04-02T13:56:11.99Z</time></trkpt><trkpt lat="44.95739239901019" lon="9.552437840168832"><ele>132.14285714285714</ele><time>2026-04-02T13:56:13.991Z</time></trkpt><trkpt lat="44.95742025605677" lon="9.552346393640086"><ele>132.28571428571428</ele><time>2026-04-02T13:56:15.991Z</time></trkpt><trkpt lat="44.957449039231584" lon="9.552256312376668"><ele>132.42857142857144</ele><time>2026-04-02T13:56:17.991Z</time></trkpt><trkpt lat="44.95747508976158" lon="9.552164365304268"><ele>132.57142857142856</ele><time>2026-04-02T13:56:19.991Z</time></trkpt><trkpt lat="44.957502390844446" lon="9.552074892590879"><ele>132.71428571428572</ele><time>2026-04-02T13:56:21.991Z</time></trkpt><trkpt lat="44.9575286419092" lon="9.551983793752092"><ele>132.85714285714286</ele><time>2026-04-02T13:56:23.991Z</time></trkpt><trkpt lat="44.957558561165875" lon="9.551891449154013"><ele>133.0</ele><time>2026-04-02T13:56:25.991Z</time></trkpt><trkpt lat="44.95758362425229" lon="9.551793538270658"><ele>133.0</ele><time>2026-04-02T13:56:27.991Z</time></trkpt><trkpt lat="44.95761792687123" lon="9.551696935177002"><ele>133.0</ele><time>2026-04-02T13:56:29.991Z</time></trkpt><trkpt lat="44.95764793650528" lon="9.5515912613809"><ele>133.0</ele><time>2026-04-02T13:56:31.991Z</time></trkpt><trkpt lat="44.95767812833701" lon="9.551479510438954"><ele>133.0</ele><time>2026-04-02T13:56:33.991Z</time></trkpt><trkpt lat="44.957717274285834" lon="9.551366445060363"><ele>133.0</ele><time>2026-04-02T13:56:35.991Z</time></trkpt><trkpt lat="44.95775001078351" lon="9.551249442942394"><ele>133.0</ele><time>2026-04-02T13:56:37.991Z</time></trkpt><trkpt lat="44.95778271590726" lon="9.551131543262427"><ele>133.0</ele><time>2026-04-02T13:56:39.991Z</time></trkpt><trkpt lat="44.95781917730708" lon="9.551019367001935"><ele>133.0</ele><time>2026-04-02T13:56:41.991Z</time></trkpt><trkpt lat="44.957853012912004" lon="9.550903725547956"><ele>133.0</ele><time>2026-04-02T13:56:43.991Z</time></trkpt><trkpt lat="44.957883411076324" lon="9.550786500320205"><ele>133.0</ele><time>2026-04-02T13:56:45.991Z</time></trkpt><trkpt lat="44.95791211279505" lon="9.550675214189338"><ele>133.0</ele><time>2026-04-02T13:56:47.991Z</time></trkpt><trkpt lat="44.95795003549144" lon="9.550568682647699"><ele>133.0</ele><time>2026-04-02T13:56:49.991Z</time></trkpt><trkpt lat="44.95797314104888" lon="9.550450830082257"><ele>133.4</ele><time>2026-04-02T13:56:51.991Z</time></trkpt><trkpt lat="44.9580143489406" lon="9.55032852977347"><ele>133.8</ele><time>2026-04-02T13:56:53.991Z</time></trkpt><trkpt lat="44.95804911037247" lon="9.550198603988933"><ele>134.2</ele><time>2026-04-02T13:56:55.991Z</time></trkpt><trkpt lat="44.958083984203526" lon="9.55006116077381"><ele>134.6</ele><time>2026-04-02T13:56:57.991Z</time></trkpt><trkpt lat="44.958122903596035" lon="9.549924913145308"><ele>135.0</ele><time>2026-04-02T13:56:59.991Z</time></trkpt><trkpt lat="44.95815964903461" lon="9.549788009686843"><ele>135.0</ele><time>2026-04-02T13:57:01.991Z</time></trkpt><trkpt lat="44.9581970743017" lon="9.549624993234852"><ele>135.0</ele><time>2026-04-02T13:57:03.991Z</time></trkpt><trkpt lat="44.9582319822493" lon="9.549483347030845"><ele>135.0</ele><time>2026-04-02T13:57:05.991Z</time></trkpt><trkpt lat="44.958276954201175" lon="9.549345310796012"><ele>135.0</ele><time>2026-04-02T13:57:07.991Z</time></trkpt><trkpt lat="44.95832280575629" lon="9.549206356515214"><ele>135.0</ele><time>2026-04-02T13:57:09.991Z</time></trkpt><trkpt lat="44.958366077736585" lon="9.549070873222611"><ele>135.2</ele><time>2026-04-02T13:57:11.991Z</time></trkpt><trkpt lat="44.95840098135506" lon="9.54894016852167"><ele>135.4</ele><time>2026-04-02T13:57:13.991Z</time></trkpt><trkpt lat="44.958440911434124" lon="9.548803859098243"><ele>135.6</ele><time>2026-04-02T13:57:15.991Z</time></trkpt><trkpt lat="44.958474900639025" lon="9.54867813417822"><ele>135.8</ele><time>2026-04-02T13:57:17.991Z</time></trkpt><trkpt lat="44.95851097430437" lon="9.548552798490638"><ele>136.0</ele><time>2026-04-02T13:57:19.991Z</time></trkpt><trkpt lat="44.95854027303111" lon="9.548435284545127"><ele>136.0</ele><time>2026-04-02T13:57:21.991Z</time></trkpt><trkpt lat="44.958580720305555" lon="9.548311555470493"><ele>136.0</ele><time>2026-04-02T13:57:23.991Z</time></trkpt><trkpt lat="44.958618230110254" lon="9.548193318442964"><ele>136.0</ele><time>2026-04-02T13:57:25.99Z</time></trkpt><trkpt lat="44.95864672553942" lon="9.548084773024879"><ele>136.0</ele><time>2026-04-02T13:57:27.99Z</time></trkpt><trkpt lat="44.958672995580976" lon="9.547992205075094"><ele>136.0</ele><time>2026-04-02T13:57:29.99Z</time></trkpt><trkpt lat="44.95871231296986" lon="9.547906077709603"><ele>136.0</ele><time>2026-04-02T13:57:31.99Z</time></trkpt><trkpt lat="44.95874500712286" lon="9.547807882407884"><ele>136.5</ele><time>2026-04-02T13:57:34.99Z</time></trkpt><trkpt lat="44.95875859726857" lon="9.547710890836479"><ele>137.0</ele><time>2026-04-02T13:57:36.99Z</time></trkpt><trkpt lat="44.958690023563264" lon="9.547623985004867"><ele>137.5</ele><time>2026-04-02T13:57:38.99Z</time></trkpt><trkpt lat="44.958619378433355" lon="9.547560133450226"><ele>138.0</ele><time>2026-04-02T13:57:40.99Z</time></trkpt><trkpt lat="44.95855946849649" lon="9.547493927828192"><ele>138.5</ele><time>2026-04-02T13:57:42.99Z</time></trkpt><trkpt lat="44.958494877936765" lon="9.547429012657425"><ele>139.0</ele><time>2026-04-02T13:57:44.99Z</time></trkpt><trkpt lat="44.958431332707384" lon="9.547360549759068"><ele>139.0</ele><time>2026-04-02T13:57:46.99Z</time></trkpt><trkpt lat="44.958361539490525" lon="9.547298116647655"><ele>139.0</ele><time>2026-04-02T13:57:48.99Z</time></trkpt><trkpt lat="44.958299094666536" lon="9.547232317898017"><ele>139.0</ele><time>2026-04-02T13:57:50.99Z</time></trkpt><trkpt lat="44.95823690217229" lon="9.547160545416626"><ele>139.0</ele><time>2026-04-02T13:57:52.99Z</time></trkpt><trkpt lat="44.958164570115486" lon="9.547104358163882"><ele>139.0</ele><time>2026-04-02T13:57:54.99Z</time></trkpt><trkpt lat="44.95810077096271" lon="9.547029397576374"><ele>139.0</ele><time>2026-04-02T13:57:56.99Z</time></trkpt><trkpt lat="44.95803271144205" lon="9.546964398922455"><ele>139.0</ele><time>2026-04-02T13:57:58.99Z</time></trkpt><trkpt lat="44.95797191579728" lon="9.546906792714601"><ele>139.0</ele><time>2026-04-02T13:58:00.99Z</time></trkpt><trkpt lat="44.95790048158382" lon="9.546838940587396"><ele>139.0</ele><time>2026-04-02T13:58:02.99Z</time></trkpt><trkpt lat="44.95782894728808" lon="9.546762134173946"><ele>139.0</ele><time>2026-04-02T13:58:04.99Z</time></trkpt><trkpt lat="44.95776120020843" lon="9.546678532061977"><ele>139.0</ele><time>2026-04-02T13:58:06.991Z</time></trkpt><trkpt lat="44.95769160761127" lon="9.546603397218428"><ele>139.0</ele><time>2026-04-02T13:58:08.99Z</time></trkpt><trkpt lat="44.95761683953289" lon="9.54652285767627"><ele>139.0</ele><time>2026-04-02T13:58:10.99Z</time></trkpt><trkpt lat="44.95754326197227" lon="9.546446668259332"><ele>139.0</ele><time>2026-04-02T13:58:12.991Z</time></trkpt><trkpt lat="44.95747634744068" lon="9.546367698050343"><ele>139.0</ele><time>2026-04-02T13:58:14.99Z</time></trkpt><trkpt lat="44.95740335988663" lon="9.54628861719809"><ele>139.0</ele><time>2026-04-02T13:58:16.99Z</time></trkpt><trkpt lat="44.95732694921895" lon="9.546210500564133"><ele>139.0</ele><time>2026-04-02T13:58:18.991Z</time></trkpt><trkpt lat="44.957254120145365" lon="9.546132981739332"><ele>138.8</ele><time>2026-04-02T13:58:20.99Z</time></trkpt><trkpt lat="44.957180757001254" lon="9.546054401576308"><ele>138.60000000000002</ele><time>2026-04-02T13:58:22.99Z</time></trkpt><trkpt lat="44.95710381139584" lon="9.545971226339981"><ele>138.4</ele><time>2026-04-02T13:58:24.99Z</time></trkpt><trkpt lat="44.95702577401227" lon="9.545896127358455"><ele>138.20000000000002</ele><time>2026-04-02T13:58:26.99Z</time></trkpt><trkpt lat="44.956947648640075" lon="9.545814454895847"><ele>138.0</ele><time>2026-04-02T13:58:28.99Z</time></trkpt><trkpt lat="44.956875179157805" lon="9.545735376570455"><ele>138.0</ele><time>2026-04-02T13:58:30.99Z</time></trkpt><trkpt lat="44.95679652876725" lon="9.54565274857657"><ele>138.0</ele><time>2026-04-02T13:58:32.99Z</time></trkpt><trkpt lat="44.95671602393952" lon="9.545577938560543"><ele>138.0</ele><time>2026-04-02T13:58:34.99Z</time></trkpt><trkpt lat="44.95664081793657" lon="9.545500318471367"><ele>138.0</ele><time>2026-04-02T13:58:36.99Z</time></trkpt><trkpt lat="44.95656710808796" lon="9.545421040939146"><ele>138.0</ele><time>2026-04-02T13:58:38.99Z</time></trkpt><trkpt lat="44.956486961050224" lon="9.545336337066162"><ele>137.8</ele><time>2026-04-02T13:58:40.99Z</time></trkpt><trkpt lat="44.956408569215995" lon="9.545260229920203"><ele>137.60000000000002</ele><time>2026-04-02T13:58:42.99Z</time></trkpt><trkpt lat="44.956331859481296" lon="9.54518186567252"><ele>137.39999999999998</ele><time>2026-04-02T13:58:44.99Z</time></trkpt><trkpt lat="44.95625258506039" lon="9.545096737711642"><ele>137.2</ele><time>2026-04-02T13:58:46.99Z</time></trkpt><trkpt lat="44.95617309669269" lon="9.545026720177388"><ele>137.0</ele><time>2026-04-02T13:58:48.99Z</time></trkpt><trkpt lat="44.95609838182758" lon="9.544936153646855"><ele>137.0</ele><time>2026-04-02T13:58:50.99Z</time></trkpt><trkpt lat="44.956020577154625" lon="9.544863183308188"><ele>137.0</ele><time>2026-04-02T13:58:52.99Z</time></trkpt><trkpt lat="44.95593690636115" lon="9.544790747630948"><ele>137.0</ele><time>2026-04-02T13:58:54.99Z</time></trkpt><trkpt lat="44.95586367281358" lon="9.544713926737753"><ele>137.0</ele><time>2026-04-02T13:58:56.99Z</time></trkpt><trkpt lat="44.9557804003195" lon="9.544630019659166"><ele>137.0</ele><time>2026-04-02T13:58:58.99Z</time></trkpt><trkpt lat="44.955703625643146" lon="9.54455252864772"><ele>137.2</ele><time>2026-04-02T13:59:00.99Z</time></trkpt><trkpt lat="44.955630777503" lon="9.544464753749176"><ele>137.39999999999998</ele><time>2026-04-02T13:59:02.99Z</time></trkpt><trkpt lat="44.95554613191734" lon="9.544387876158545"><ele>137.60000000000002</ele><time>2026-04-02T13:59:04.99Z</time></trkpt><trkpt lat="44.9554671925632" lon="9.544303051124936"><ele>137.8</ele><time>2026-04-02T13:59:06.99Z</time></trkpt><trkpt lat="44.955385517689336" lon="9.544223331159113"><ele>138.0</ele><time>2026-04-02T13:59:08.99Z</time></trkpt><trkpt lat="44.95529905443691" lon="9.544136784395308"><ele>138.0</ele><time>2026-04-02T13:59:10.99Z</time></trkpt><trkpt lat="44.95521049859547" lon="9.544057677494113"><ele>138.0</ele><time>2026-04-02T13:59:12.99Z</time></trkpt><trkpt lat="44.95512478172272" lon="9.543993290924002"><ele>138.0</ele><time>2026-04-02T13:59:14.99Z</time></trkpt><trkpt lat="44.95503605629717" lon="9.54393720250909"><ele>138.0</ele><time>2026-04-02T13:59:16.99Z</time></trkpt><trkpt lat="44.954945335949915" lon="9.543875321723576"><ele>138.0</ele><time>2026-04-02T13:59:18.99Z</time></trkpt><trkpt lat="44.95484681109627" lon="9.543826936485349"><ele>138.25</ele><time>2026-04-02T13:59:20.99Z</time></trkpt><trkpt lat="44.95473685019605" lon="9.543776865042346"><ele>138.5</ele><time>2026-04-02T13:59:22.99Z</time></trkpt><trkpt lat="44.95463167888157" lon="9.543716670306523"><ele>138.75</ele><time>2026-04-02T13:59:24.99Z</time></trkpt><trkpt lat="44.95452398824507" lon="9.543669462677544"><ele>139.0</ele><time>2026-04-02T13:59:26.99Z</time></trkpt><trkpt lat="44.95441594029323" lon="9.543616879973825"><ele>139.0</ele><time>2026-04-02T13:59:28.99Z</time></trkpt><trkpt lat="44.954307555574786" lon="9.543556148359679"><ele>139.0</ele><time>2026-04-02T13:59:30.99Z</time></trkpt><trkpt lat="44.95420909870959" lon="9.543486296360344"><ele>139.0</ele><time>2026-04-02T13:59:32.99Z</time></trkpt><trkpt lat="44.95410509194291" lon="9.543420950246288"><ele>139.0</ele><time>2026-04-02T13:59:34.99Z</time></trkpt><trkpt lat="44.9540098576146" lon="9.54334889250642"><ele>139.0</ele><time>2026-04-02T13:59:36.99Z</time></trkpt><trkpt lat="44.95395131712845" lon="9.543308056883484"><ele>139.75</ele><time>2026-04-02T13:59:37.99Z</time></trkpt><trkpt lat="44.95385199503978" lon="9.543240177403819"><ele>140.5</ele><time>2026-04-02T13:59:39.99Z</time></trkpt><trkpt lat="44.95374796224239" lon="9.543164061058459"><ele>141.25</ele><time>2026-04-02T13:59:41.99Z</time></trkpt><trkpt lat="44.95364120230708" lon="9.543077336737475"><ele>142.0</ele><time>2026-04-02T13:59:43.99Z</time></trkpt><trkpt lat="44.95353453208694" lon="9.542996173005838"><ele>142.0</ele><time>2026-04-02T13:59:45.99Z</time></trkpt><trkpt lat="44.95343096054286" lon="9.542912418615318"><ele>142.0</ele><time>2026-04-02T13:59:47.99Z</time></trkpt><trkpt lat="44.953374731913954" lon="9.542869184667968"><ele>142.0</ele><time>2026-04-02T13:59:48.99Z</time></trkpt><trkpt lat="44.95327284586408" lon="9.542791849712614"><ele>142.0</ele><time>2026-04-02T13:59:50.99Z</time></trkpt><trkpt lat="44.95316780088128" lon="9.54271569905939"><ele>142.0</ele><time>2026-04-02T13:59:52.99Z</time></trkpt><trkpt lat="44.9530676044637" lon="9.54264207318152"><ele>142.0</ele><time>2026-04-02T13:59:54.99Z</time></trkpt><trkpt lat="44.95296322652026" lon="9.542579746263788"><ele>142.0</ele><time>2026-04-02T13:59:56.99Z</time></trkpt><trkpt lat="44.95285051112281" lon="9.542516965062063"><ele>142.0</ele><time>2026-04-02T13:59:58.99Z</time></trkpt><trkpt lat="44.95274296970531" lon="9.54245347068687"><ele>142.0</ele><time>2026-04-02T14:00:00.99Z</time></trkpt><trkpt lat="44.95262891402593" lon="9.542390671212077"><ele>142.5</ele><time>2026-04-02T14:00:02.99Z</time></trkpt><trkpt lat="44.952521388246836" lon="9.542329642968719"><ele>143.0</ele><time>2026-04-02T14:00:04.99Z</time></trkpt><trkpt lat="44.95240669233567" lon="9.542262426256041"><ele>143.5</ele><time>2026-04-02T14:00:06.99Z</time></trkpt><trkpt lat="44.952300159233374" lon="9.542183417022503"><ele>144.0</ele><time>2026-04-02T14:00:08.99Z</time></trkpt><trkpt lat="44.952196704988026" lon="9.542097386178742"><ele>143.8</ele><time>2026-04-02T14:00:10.99Z</time></trkpt><trkpt lat="44.952098442415945" lon="9.542012874159097"><ele>143.60000000000002</ele><time>2026-04-02T14:00:12.991Z</time></trkpt><trkpt lat="44.952002514758505" lon="9.54192172818765"><ele>143.4</ele><time>2026-04-02T14:00:14.99Z</time></trkpt><trkpt lat="44.95191629650717" lon="9.541824314261966"><ele>143.20000000000002</ele><time>2026-04-02T14:00:16.991Z</time></trkpt><trkpt lat="44.95186885536878" lon="9.541759833848499"><ele>143.0</ele><time>2026-04-02T14:00:17.991Z</time></trkpt><trkpt lat="44.95178185446621" lon="9.541649691956847"><ele>143.0</ele><time>2026-04-02T14:00:19.99Z</time></trkpt><trkpt lat="44.95169081902084" lon="9.541537855322973"><ele>143.0</ele><time>2026-04-02T14:00:21.991Z</time></trkpt><trkpt lat="44.95160202930886" lon="9.54142388567708"><ele>143.0</ele><time>2026-04-02T14:00:23.99Z</time></trkpt><trkpt lat="44.95151966666362" lon="9.54131011943287"><ele>143.0</ele><time>2026-04-02T14:00:25.99Z</time></trkpt><trkpt lat="44.95147143524707" lon="9.541247785206423"><ele>143.0</ele><time>2026-04-02T14:00:26.99Z</time></trkpt><trkpt lat="44.951381416914934" lon="9.541132327693214"><ele>143.0</ele><time>2026-04-02T14:00:28.99Z</time></trkpt><trkpt lat="44.9513347640047" lon="9.541072103568588"><ele>143.0</ele><time>2026-04-02T14:00:29.99Z</time></trkpt><trkpt lat="44.95124740032341" lon="9.54096008107159"><ele>143.0</ele><time>2026-04-02T14:00:31.99Z</time></trkpt><trkpt lat="44.95116193165334" lon="9.540849188086465"><ele>143.0</ele><time>2026-04-02T14:00:33.99Z</time></trkpt><trkpt lat="44.95107841814676" lon="9.5407393265774"><ele>143.0</ele><time>2026-04-02T14:00:35.99Z</time></trkpt><trkpt lat="44.950993387584866" lon="9.540634484453411"><ele>143.0</ele><time>2026-04-02T14:00:37.99Z</time></trkpt><trkpt lat="44.950909822558" lon="9.540523616605299"><ele>143.0</ele><time>2026-04-02T14:00:39.99Z</time></trkpt><trkpt lat="44.95082409403789" lon="9.540414686206304"><ele>143.0</ele><time>2026-04-02T14:00:41.99Z</time></trkpt><trkpt lat="44.950741335955286" lon="9.540296706552956"><ele>143.0</ele><time>2026-04-02T14:00:43.99Z</time></trkpt><trkpt lat="44.95065001850256" lon="9.540185028656321"><ele>144.0</ele><time>2026-04-02T14:00:45.99Z</time></trkpt><trkpt lat="44.95056117261224" lon="9.5400683103096"><ele>145.0</ele><time>2026-04-02T14:00:47.99Z</time></trkpt><trkpt lat="44.950485414780616" lon="9.539943836017542"><ele>146.0</ele><time>2026-04-02T14:00:49.99Z</time></trkpt><trkpt lat="44.95041543122136" lon="9.539815361604697"><ele>147.0</ele><time>2026-04-02T14:00:51.99Z</time></trkpt><trkpt lat="44.95033955275404" lon="9.539689300714622"><ele>147.0</ele><time>2026-04-02T14:00:53.99Z</time></trkpt><trkpt lat="44.95027123301415" lon="9.53956446011649"><ele>147.0</ele><time>2026-04-02T14:00:55.99Z</time></trkpt><trkpt lat="44.95020153901823" lon="9.53944881578857"><ele>147.0</ele><time>2026-04-02T14:00:57.99Z</time></trkpt><trkpt lat="44.950130940787254" lon="9.539324933110901"><ele>147.0</ele><time>2026-04-02T14:00:59.99Z</time></trkpt><trkpt lat="44.95006596417088" lon="9.539212135320655"><ele>147.0</ele><time>2026-04-02T14:01:01.99Z</time></trkpt><trkpt lat="44.94999253550936" lon="9.539092434097094"><ele>147.6</ele><time>2026-04-02T14:01:03.99Z</time></trkpt><trkpt lat="44.94992631532149" lon="9.538976686361476"><ele>148.2</ele><time>2026-04-02T14:01:05.99Z</time></trkpt><trkpt lat="44.94986164110756" lon="9.538860169115097"><ele>148.8</ele><time>2026-04-02T14:01:07.99Z</time></trkpt><trkpt lat="44.949797088169056" lon="9.538746772836724"><ele>149.4</ele><time>2026-04-02T14:01:09.99Z</time></trkpt><trkpt lat="44.94972913662458" lon="9.538644512313684"><ele>150.0</ele><time>2026-04-02T14:01:11.99Z</time></trkpt><trkpt lat="44.94966655111928" lon="9.538530976427154"><ele>150.2</ele><time>2026-04-02T14:01:13.99Z</time></trkpt><trkpt lat="44.94960339603031" lon="9.538424340969955"><ele>150.4</ele><time>2026-04-02T14:01:15.99Z</time></trkpt><trkpt lat="44.94954599698038" lon="9.538329784439856"><ele>150.6</ele><time>2026-04-02T14:01:17.99Z</time></trkpt><trkpt lat="44.94948251564225" lon="9.53821313809397"><ele>150.8</ele><time>2026-04-02T14:01:19.99Z</time></trkpt><trkpt lat="44.949418401018924" lon="9.538104364223264"><ele>151.0</ele><time>2026-04-02T14:01:21.99Z</time></trkpt><trkpt lat="44.94935629324963" lon="9.537992177230333"><ele>151.0</ele><time>2026-04-02T14:01:23.99Z</time></trkpt><trkpt lat="44.949296310875496" lon="9.537885610558277"><ele>151.0</ele><time>2026-04-02T14:01:25.99Z</time></trkpt><trkpt lat="44.949233503069955" lon="9.537776380018789"><ele>151.0</ele><time>2026-04-02T14:01:27.99Z</time></trkpt><trkpt lat="44.94916960313289" lon="9.537665503377394"><ele>151.0</ele><time>2026-04-02T14:01:29.99Z</time></trkpt><trkpt lat="44.949109116543234" lon="9.537558880107632"><ele>151.0</ele><time>2026-04-02T14:01:31.99Z</time></trkpt><trkpt lat="44.94903991561323" lon="9.537455044670821"><ele>151.0</ele><time>2026-04-02T14:01:33.99Z</time></trkpt><trkpt lat="44.94897499509108" lon="9.537352833009194"><ele>151.0</ele><time>2026-04-02T14:01:35.99Z</time></trkpt><trkpt lat="44.94890729864701" lon="9.537257116047376"><ele>151.0</ele><time>2026-04-02T14:01:37.99Z</time></trkpt><trkpt lat="44.94883880774078" lon="9.537155214383686"><ele>151.0</ele><time>2026-04-02T14:01:39.99Z</time></trkpt><trkpt lat="44.9487753813856" lon="9.537064399086958"><ele>151.0</ele><time>2026-04-02T14:01:41.99Z</time></trkpt><trkpt lat="44.94871557066045" lon="9.536972383455458"><ele>151.0</ele><time>2026-04-02T14:01:43.99Z</time></trkpt><trkpt lat="44.94865972312067" lon="9.53688226078034"><ele>151.0</ele><time>2026-04-02T14:01:45.99Z</time></trkpt><trkpt lat="44.948597195904824" lon="9.536816738412865"><ele>151.0</ele><time>2026-04-02T14:01:47.99Z</time></trkpt><trkpt lat="44.94854163143773" lon="9.536730303222209"><ele>151.0</ele><time>2026-04-02T14:01:49.99Z</time></trkpt><trkpt lat="44.94846994212169" lon="9.536652332941395"><ele>151.0</ele><time>2026-04-02T14:01:51.99Z</time></trkpt><trkpt lat="44.94841551336059" lon="9.536576023710928"><ele>151.0</ele><time>2026-04-02T14:01:53.99Z</time></trkpt><trkpt lat="44.94835997398523" lon="9.536494355420837"><ele>151.5</ele><time>2026-04-02T14:01:55.99Z</time></trkpt><trkpt lat="44.948298311711994" lon="9.536414855371106"><ele>152.0</ele><time>2026-04-02T14:01:57.99Z</time></trkpt><trkpt lat="44.948239626300776" lon="9.536333731512478"><ele>152.5</ele><time>2026-04-02T14:01:59.99Z</time></trkpt><trkpt lat="44.94817806052887" lon="9.536249423624477"><ele>153.0</ele><time>2026-04-02T14:02:01.99Z</time></trkpt><trkpt lat="44.94812371477051" lon="9.53617243152405"><ele>153.5</ele><time>2026-04-02T14:02:03.99Z</time></trkpt><trkpt lat="44.94806370893832" lon="9.536088163797276"><ele>154.0</ele><time>2026-04-02T14:02:05.99Z</time></trkpt><trkpt lat="44.94800763758219" lon="9.536012557344009"><ele>154.0</ele><time>2026-04-02T14:02:07.99Z</time></trkpt><trkpt lat="44.947951106888205" lon="9.535932298452181"><ele>154.0</ele><time>2026-04-02T14:02:09.989Z</time></trkpt><trkpt lat="44.947892057921976" lon="9.535855387613529"><ele>154.0</ele><time>2026-04-02T14:02:11.989Z</time></trkpt><trkpt lat="44.947838787934415" lon="9.535780240207943"><ele>154.0</ele><time>2026-04-02T14:02:13.989Z</time></trkpt><trkpt lat="44.9477852841313" lon="9.535700519348731"><ele>154.0</ele><time>2026-04-02T14:02:15.989Z</time></trkpt><trkpt lat="44.94773012353513" lon="9.535614952196942"><ele>154.0</ele><time>2026-04-02T14:02:17.989Z</time></trkpt><trkpt lat="44.94767845256323" lon="9.535535841109535"><ele>154.0</ele><time>2026-04-02T14:02:19.99Z</time></trkpt><trkpt lat="44.947625401788855" lon="9.535452970106402"><ele>154.0</ele><time>2026-04-02T14:02:21.99Z</time></trkpt><trkpt lat="44.94757184055629" lon="9.53536948156281"><ele>154.0</ele><time>2026-04-02T14:02:23.99Z</time></trkpt><trkpt lat="44.94752633114421" lon="9.535291705863685"><ele>154.0</ele><time>2026-04-02T14:02:25.991Z</time></trkpt><trkpt lat="44.94747708268853" lon="9.535213355354212"><ele>154.0</ele><time>2026-04-02T14:02:27.99Z</time></trkpt><trkpt lat="44.9474260559658" lon="9.535116788852678"><ele>154.0</ele><time>2026-04-02T14:02:29.991Z</time></trkpt><trkpt lat="44.94739247436402" lon="9.534995691029689"><ele>154.4</ele><time>2026-04-02T14:02:31.99Z</time></trkpt><trkpt lat="44.94739239676622" lon="9.534850090840536"><ele>154.8</ele><time>2026-04-02T14:02:33.99Z</time></trkpt><trkpt lat="44.94735533432996" lon="9.53471766038874"><ele>155.2</ele><time>2026-04-02T14:02:35.99Z</time></trkpt><trkpt lat="44.94731153946081" lon="9.534588073482936"><ele>155.6</ele><time>2026-04-02T14:02:37.99Z</time></trkpt><trkpt lat="44.94726776740914" lon="9.534459458494835"><ele>156.0</ele><time>2026-04-02T14:02:39.99Z</time></trkpt><trkpt lat="44.9472620792585" lon="9.534285363011746"><ele>156.0</ele><time>2026-04-02T14:02:41.99Z</time></trkpt><trkpt lat="44.94726624104442" lon="9.53419174536467"><ele>156.0</ele><time>2026-04-02T14:02:42.99Z</time></trkpt><trkpt lat="44.94727166223563" lon="9.534092092814717"><ele>156.0</ele><time>2026-04-02T14:02:43.99Z</time></trkpt><trkpt lat="44.94727564414218" lon="9.533989153711133"><ele>156.0</ele><time>2026-04-02T14:02:44.99Z</time></trkpt><trkpt lat="44.947279375393094" lon="9.533887827128508"><ele>156.0</ele><time>2026-04-02T14:02:45.99Z</time></trkpt><trkpt lat="44.947282807174325" lon="9.533780999547346"><ele>156.0</ele><time>2026-04-02T14:02:46.99Z</time></trkpt><trkpt lat="44.94728914857717" lon="9.533674431327995"><ele>156.0</ele><time>2026-04-02T14:02:47.99Z</time></trkpt><trkpt lat="44.94730017106067" lon="9.533565325164158"><ele>155.66666666666666</ele><time>2026-04-02T14:02:48.99Z</time></trkpt><trkpt lat="44.94730867645861" lon="9.533458744797725"><ele>155.33333333333334</ele><time>2026-04-02T14:02:49.99Z</time></trkpt><trkpt lat="44.947323428819615" lon="9.533346730297259"><ele>155.0</ele><time>2026-04-02T14:02:50.99Z</time></trkpt><trkpt lat="44.9473495353532" lon="9.53323864622714"><ele>154.66666666666669</ele><time>2026-04-02T14:02:51.99Z</time></trkpt><trkpt lat="44.94737522847963" lon="9.533131579684497"><ele>154.33333333333334</ele><time>2026-04-02T14:02:52.99Z</time></trkpt><trkpt lat="44.94739708787117" lon="9.533018416970984"><ele>154.0</ele><time>2026-04-02T14:02:53.99Z</time></trkpt><trkpt lat="44.94743366681711" lon="9.532912311258375"><ele>153.83333333333334</ele><time>2026-04-02T14:02:54.99Z</time></trkpt><trkpt lat="44.94746547352027" lon="9.53281029366661"><ele>153.66666666666669</ele><time>2026-04-02T14:02:55.99Z</time></trkpt><trkpt lat="44.94749870292924" lon="9.532704945830927"><ele>153.5</ele><time>2026-04-02T14:02:56.99Z</time></trkpt><trkpt lat="44.94753218826275" lon="9.53259607064292"><ele>153.33333333333334</ele><time>2026-04-02T14:02:57.99Z</time></trkpt><trkpt lat="44.94756949069921" lon="9.532493882600187"><ele>153.16666666666666</ele><time>2026-04-02T14:02:58.99Z</time></trkpt><trkpt lat="44.947597006575556" lon="9.532393308606304"><ele>153.0</ele><time>2026-04-02T14:02:59.99Z</time></trkpt><trkpt lat="44.94762650714689" lon="9.532287798845424"><ele>152.66666666666666</ele><time>2026-04-02T14:03:00.99Z</time></trkpt><trkpt lat="44.947658381567535" lon="9.532186198974932"><ele>152.33333333333334</ele><time>2026-04-02T14:03:01.99Z</time></trkpt><trkpt lat="44.94768778287835" lon="9.532082610800764"><ele>152.0</ele><time>2026-04-02T14:03:02.99Z</time></trkpt><trkpt lat="44.94772222230561" lon="9.53197865493523"><ele>151.66666666666669</ele><time>2026-04-02T14:03:03.99Z</time></trkpt><trkpt lat="44.94776029954533" lon="9.531874135908096"><ele>151.33333333333334</ele><time>2026-04-02T14:03:04.99Z</time></trkpt><trkpt lat="44.94778731343177" lon="9.531779979800898"><ele>151.0</ele><time>2026-04-02T14:03:05.99Z</time></trkpt><trkpt lat="44.94781313137947" lon="9.531680468123252"><ele>150.83333333333334</ele><time>2026-04-02T14:03:06.99Z</time></trkpt><trkpt lat="44.94784103838305" lon="9.531576816332334"><ele>150.66666666666669</ele><time>2026-04-02T14:03:07.99Z</time></trkpt><trkpt lat="44.94787637225844" lon="9.531477897290813"><ele>150.5</ele><time>2026-04-02T14:03:08.99Z</time></trkpt><trkpt lat="44.94791103441803" lon="9.531380678458016"><ele>150.33333333333334</ele><time>2026-04-02T14:03:09.99Z</time></trkpt><trkpt lat="44.947941461763925" lon="9.531276292285344"><ele>150.16666666666666</ele><time>2026-04-02T14:03:10.99Z</time></trkpt><trkpt lat="44.947969505236" lon="9.531177461454394"><ele>150.0</ele><time>2026-04-02T14:03:11.99Z</time></trkpt><trkpt lat="44.947999858583174" lon="9.531075821964926"><ele>150.0</ele><time>2026-04-02T14:03:12.99Z</time></trkpt><trkpt lat="44.94803318282325" lon="9.530972414034236"><ele>150.0</ele><time>2026-04-02T14:03:13.99Z</time></trkpt><trkpt lat="44.948062673533855" lon="9.530875780226854"><ele>150.0</ele><time>2026-04-02T14:03:14.99Z</time></trkpt><trkpt lat="44.94809606987829" lon="9.530784161254608"><ele>150.0</ele><time>2026-04-02T14:03:15.99Z</time></trkpt><trkpt lat="44.948125869937826" lon="9.530677578305738"><ele>150.0</ele><time>2026-04-02T14:03:16.99Z</time></trkpt><trkpt lat="44.94815946255798" lon="9.53057614803844"><ele>150.0</ele><time>2026-04-02T14:03:17.99Z</time></trkpt><trkpt lat="44.94818144771373" lon="9.530479380144518"><ele>150.0</ele><time>2026-04-02T14:03:18.99Z</time></trkpt><trkpt lat="44.94821665387707" lon="9.530377369926336"><ele>150.0</ele><time>2026-04-02T14:03:19.99Z</time></trkpt><trkpt lat="44.94824899240902" lon="9.530269297307264"><ele>150.0</ele><time>2026-04-02T14:03:20.99Z</time></trkpt><trkpt lat="44.94827710633411" lon="9.530182021233061"><ele>150.0</ele><time>2026-04-02T14:03:21.99Z</time></trkpt><trkpt lat="44.948316619942084" lon="9.53007926341089"><ele>150.0</ele><time>2026-04-02T14:03:22.99Z</time></trkpt><trkpt lat="44.94835398739661" lon="9.529980771130475"><ele>150.0</ele><time>2026-04-02T14:03:23.99Z</time></trkpt><trkpt lat="44.94838261879487" lon="9.52988307199891"><ele>149.66666666666666</ele><time>2026-04-02T14:03:24.99Z</time></trkpt><trkpt lat="44.948414841451516" lon="9.529780248138117"><ele>149.33333333333334</ele><time>2026-04-02T14:03:25.99Z</time></trkpt><trkpt lat="44.948447236936005" lon="9.529683970173293"><ele>149.0</ele><time>2026-04-02T14:03:26.99Z</time></trkpt><trkpt lat="44.948482312982314" lon="9.529585728448229"><ele>148.66666666666669</ele><time>2026-04-02T14:03:27.99Z</time></trkpt><trkpt lat="44.9485116311378" lon="9.529485541443764"><ele>148.33333333333334</ele><time>2026-04-02T14:03:28.99Z</time></trkpt><trkpt lat="44.94854559762389" lon="9.52938542315393"><ele>148.0</ele><time>2026-04-02T14:03:29.99Z</time></trkpt><trkpt lat="44.94857625457091" lon="9.529283428396448"><ele>148.0</ele><time>2026-04-02T14:03:30.99Z</time></trkpt><trkpt lat="44.948607568589" lon="9.52918902840412"><ele>148.0</ele><time>2026-04-02T14:03:31.99Z</time></trkpt><trkpt lat="44.94864368792554" lon="9.529086359430964"><ele>148.0</ele><time>2026-04-02T14:03:32.989Z</time></trkpt><trkpt lat="44.94868029375221" lon="9.528986254326185"><ele>148.0</ele><time>2026-04-02T14:03:33.989Z</time></trkpt><trkpt lat="44.94871834215253" lon="9.528887366681065"><ele>148.0</ele><time>2026-04-02T14:03:34.989Z</time></trkpt><trkpt lat="44.94874880393425" lon="9.528788608636948"><ele>148.0</ele><time>2026-04-02T14:03:35.989Z</time></trkpt><trkpt lat="44.94878449601246" lon="9.528686997518799"><ele>148.0</ele><time>2026-04-02T14:03:36.989Z</time></trkpt><trkpt lat="44.9488157497776" lon="9.528594975109458"><ele>148.0</ele><time>2026-04-02T14:03:37.989Z</time></trkpt><trkpt lat="44.94884573759178" lon="9.528495097421478"><ele>148.0</ele><time>2026-04-02T14:03:38.989Z</time></trkpt><trkpt lat="44.948877503532444" lon="9.528399227246407"><ele>148.0</ele><time>2026-04-02T14:03:39.989Z</time></trkpt><trkpt lat="44.9489163749006" lon="9.528300685076642"><ele>148.0</ele><time>2026-04-02T14:03:40.989Z</time></trkpt><trkpt lat="44.948946396089525" lon="9.528201611938892"><ele>148.0</ele><time>2026-04-02T14:03:41.989Z</time></trkpt><trkpt lat="44.948978614764314" lon="9.528097118356115"><ele>148.0</ele><time>2026-04-02T14:03:42.989Z</time></trkpt><trkpt lat="44.94900619645049" lon="9.527995503941684"><ele>148.0</ele><time>2026-04-02T14:03:43.989Z</time></trkpt><trkpt lat="44.9490480231364" lon="9.527890779406498"><ele>148.0</ele><time>2026-04-02T14:03:44.989Z</time></trkpt><trkpt lat="44.94907966473082" lon="9.527790461762436"><ele>148.0</ele><time>2026-04-02T14:03:45.989Z</time></trkpt><trkpt lat="44.94910915662312" lon="9.527693262946107"><ele>148.0</ele><time>2026-04-02T14:03:46.989Z</time></trkpt><trkpt lat="44.94913933386167" lon="9.527608490924846"><ele>148.0</ele><time>2026-04-02T14:03:47.989Z</time></trkpt><trkpt lat="44.94916647958334" lon="9.52752658752385"><ele>148.0</ele><time>2026-04-02T14:03:48.989Z</time></trkpt><trkpt lat="44.94918970602016" lon="9.52744138270835"><ele>148.4</ele><time>2026-04-02T14:03:49.989Z</time></trkpt><trkpt lat="44.949219992149985" lon="9.527356861123337"><ele>148.8</ele><time>2026-04-02T14:03:50.989Z</time></trkpt><trkpt lat="44.949267782304204" lon="9.527200449424425"><ele>149.2</ele><time>2026-04-02T14:03:52.989Z</time></trkpt><trkpt lat="44.94929744473722" lon="9.527121146693704"><ele>149.6</ele><time>2026-04-02T14:03:53.989Z</time></trkpt><trkpt lat="44.949341475002505" lon="9.52697383745483"><ele>150.0</ele><time>2026-04-02T14:03:55.989Z</time></trkpt><trkpt lat="44.94938875091732" lon="9.526824507764287"><ele>151.0</ele><time>2026-04-02T14:03:57.989Z</time></trkpt><trkpt lat="44.94942947635596" lon="9.526691500506267"><ele>152.0</ele><time>2026-04-02T14:03:59.989Z</time></trkpt><trkpt lat="44.9494727155528" lon="9.526561307326906"><ele>153.0</ele><time>2026-04-02T14:04:01.989Z</time></trkpt><trkpt lat="44.94950638768506" lon="9.52642791312298"><ele>154.0</ele><time>2026-04-02T14:04:03.989Z</time></trkpt><trkpt lat="44.94954715596259" lon="9.526302891313476"><ele>155.0</ele><time>2026-04-02T14:04:05.989Z</time></trkpt><trkpt lat="44.94958737805687" lon="9.526187016425972"><ele>155.83333333333331</ele><time>2026-04-02T14:04:07.989Z</time></trkpt><trkpt lat="44.94962012482869" lon="9.52607023365699"><ele>156.66666666666666</ele><time>2026-04-02T14:04:09.989Z</time></trkpt><trkpt lat="44.94965350430571" lon="9.525967526987786"><ele>157.5</ele><time>2026-04-02T14:04:11.989Z</time></trkpt><trkpt lat="44.949686448339335" lon="9.525861497626451"><ele>158.33333333333334</ele><time>2026-04-02T14:04:13.989Z</time></trkpt><trkpt lat="44.94972386406345" lon="9.525764702236339"><ele>159.16666666666669</ele><time>2026-04-02T14:04:15.989Z</time></trkpt><trkpt lat="44.94974729335339" lon="9.525663237911246"><ele>160.0</ele><time>2026-04-02T14:04:17.989Z</time></trkpt><trkpt lat="44.94977865330472" lon="9.525572749713351"><ele>160.0</ele><time>2026-04-02T14:04:19.989Z</time></trkpt><trkpt lat="44.949800571219804" lon="9.52547579930539"><ele>160.0</ele><time>2026-04-02T14:04:21.989Z</time></trkpt><trkpt lat="44.94983531237082" lon="9.525382184226373"><ele>160.0</ele><time>2026-04-02T14:04:23.989Z</time></trkpt><trkpt lat="44.94987034970229" lon="9.525293469269595"><ele>160.0</ele><time>2026-04-02T14:04:25.99Z</time></trkpt><trkpt lat="44.94989642049733" lon="9.525209001551874"><ele>160.0</ele><time>2026-04-02T14:04:27.99Z</time></trkpt><trkpt lat="44.94993339245204" lon="9.525089247651989"><ele>160.0</ele><time>2026-04-02T14:04:30.99Z</time></trkpt><trkpt lat="44.94996661679292" lon="9.525005387637648"><ele>160.0</ele><time>2026-04-02T14:04:32.99Z</time></trkpt><trkpt lat="44.94999855104676" lon="9.52492385290579"><ele>160.83333333333334</ele><time>2026-04-02T14:04:34.99Z</time></trkpt><trkpt lat="44.95003965869796" lon="9.52480377056746"><ele>161.66666666666669</ele><time>2026-04-02T14:04:37.99Z</time></trkpt><trkpt lat="44.95007307889987" lon="9.524684604276791"><ele>162.5</ele><time>2026-04-02T14:04:40.99Z</time></trkpt><trkpt lat="44.950104808748144" lon="9.52456229911139"><ele>163.33333333333334</ele><time>2026-04-02T14:04:43.99Z</time></trkpt><trkpt lat="44.95012974096002" lon="9.524479879847993"><ele>164.16666666666666</ele><time>2026-04-02T14:04:45.99Z</time></trkpt><trkpt lat="44.95016512293422" lon="9.524393966517374"><ele>165.0</ele><time>2026-04-02T14:04:47.99Z</time></trkpt><trkpt lat="44.95018331950563" lon="9.524281659685153"><ele>166.0</ele><time>2026-04-02T14:04:50.99Z</time></trkpt><trkpt lat="44.95021174062209" lon="9.524196107812116"><ele>167.0</ele><time>2026-04-02T14:04:52.99Z</time></trkpt><trkpt lat="44.95022758543505" lon="9.524068079785597"><ele>168.0</ele><time>2026-04-02T14:04:55.99Z</time></trkpt><trkpt lat="44.95024157468739" lon="9.523939852304121"><ele>169.0</ele><time>2026-04-02T14:04:58.99Z</time></trkpt><trkpt lat="44.950250962552545" lon="9.52382372987026"><ele>170.0</ele><time>2026-04-02T14:05:01.99Z</time></trkpt><trkpt lat="44.950263514857724" lon="9.52372578277146"><ele>171.0</ele><time>2026-04-02T14:05:04.99Z</time></trkpt><trkpt lat="44.950321383550055" lon="9.523683389740725"><ele>171.0</ele><time>2026-04-02T14:05:07.99Z</time></trkpt><trkpt lat="44.95036697187925" lon="9.523779688943119"><ele>171.0</ele><time>2026-04-02T14:05:10.99Z</time></trkpt><trkpt lat="44.950429499603054" lon="9.523870130662054"><ele>171.0</ele><time>2026-04-02T14:05:13.99Z</time></trkpt><trkpt lat="44.95046858933492" lon="9.52394259489481"><ele>171.0</ele><time>2026-04-02T14:05:15.99Z</time></trkpt><trkpt lat="44.95052872867054" lon="9.524034705556453"><ele>171.0</ele><time>2026-04-02T14:05:18.99Z</time></trkpt><trkpt lat="44.95059031924129" lon="9.524130701739002"><ele>171.0</ele><time>2026-04-02T14:05:21.99Z</time></trkpt><trkpt lat="44.95063535062573" lon="9.524206465694007"><ele>171.0</ele><time>2026-04-02T14:05:23.99Z</time></trkpt><trkpt lat="44.95068490957795" lon="9.524300295013278"><ele>171.0</ele><time>2026-04-02T14:05:25.99Z</time></trkpt><trkpt lat="44.95074041151564" lon="9.524390885602958"><ele>171.0</ele><time>2026-04-02T14:05:27.99Z</time></trkpt><trkpt lat="44.950800438468065" lon="9.524494085825614"><ele>171.0</ele><time>2026-04-02T14:05:29.99Z</time></trkpt><trkpt lat="44.95085618493448" lon="9.52460681753784"><ele>171.0</ele><time>2026-04-02T14:05:31.99Z</time></trkpt><trkpt lat="44.950926548368734" lon="9.524722813366767"><ele>170.60000000000002</ele><time>2026-04-02T14:05:33.99Z</time></trkpt><trkpt lat="44.95098735309549" lon="9.524843445835646"><ele>170.2</ele><time>2026-04-02T14:05:35.99Z</time></trkpt><trkpt lat="44.95106045381616" lon="9.524968177200464"><ele>169.8</ele><time>2026-04-02T14:05:37.99Z</time></trkpt><trkpt lat="44.95112938183225" lon="9.525096980503625"><ele>169.39999999999998</ele><time>2026-04-02T14:05:39.989Z</time></trkpt><trkpt lat="44.95119794036616" lon="9.525223733480567"><ele>169.0</ele><time>2026-04-02T14:05:41.989Z</time></trkpt><trkpt lat="44.95126524845349" lon="9.525361359908953"><ele>168.66666666666669</ele><time>2026-04-02T14:05:43.989Z</time></trkpt><trkpt lat="44.951332893673104" lon="9.525503628250112"><ele>168.33333333333334</ele><time>2026-04-02T14:05:45.989Z</time></trkpt><trkpt lat="44.95137054843552" lon="9.5255820396807"><ele>168.0</ele><time>2026-04-02T14:05:46.989Z</time></trkpt><trkpt lat="44.95143357687383" lon="9.525735256108456"><ele>167.66666666666666</ele><time>2026-04-02T14:05:48.989Z</time></trkpt><trkpt lat="44.95146653441135" lon="9.525815737252623"><ele>167.33333333333331</ele><time>2026-04-02T14:05:49.989Z</time></trkpt><trkpt lat="44.951504803990446" lon="9.52589685477386"><ele>167.0</ele><time>2026-04-02T14:05:50.989Z</time></trkpt><trkpt lat="44.95154402574872" lon="9.525979265030946"><ele>167.0</ele><time>2026-04-02T14:05:51.989Z</time></trkpt><trkpt lat="44.951581260378134" lon="9.52606409127733"><ele>167.0</ele><time>2026-04-02T14:05:52.989Z</time></trkpt><trkpt lat="44.951617502925785" lon="9.526147667256657"><ele>167.0</ele><time>2026-04-02T14:05:53.989Z</time></trkpt><trkpt lat="44.951652717504295" lon="9.526227922846086"><ele>167.0</ele><time>2026-04-02T14:05:54.989Z</time></trkpt><trkpt lat="44.951686424183144" lon="9.526315899102899"><ele>167.0</ele><time>2026-04-02T14:05:55.989Z</time></trkpt><trkpt lat="44.95172443367242" lon="9.526398126788234"><ele>167.0</ele><time>2026-04-02T14:05:56.989Z</time></trkpt><trkpt lat="44.951764450556894" lon="9.526477783870813"><ele>167.0</ele><time>2026-04-02T14:05:57.989Z</time></trkpt><trkpt lat="44.951807012841634" lon="9.52655732515445"><ele>166.57142857142856</ele><time>2026-04-02T14:05:58.989Z</time></trkpt><trkpt lat="44.95184158506562" lon="9.526637908157916"><ele>166.14285714285714</ele><time>2026-04-02T14:05:59.989Z</time></trkpt><trkpt lat="44.951872969495305" lon="9.526727575561306"><ele>165.71428571428572</ele><time>2026-04-02T14:06:00.989Z</time></trkpt><trkpt lat="44.951906544687816" lon="9.526805877820893"><ele>165.28571428571428</ele><time>2026-04-02T14:06:01.989Z</time></trkpt><trkpt lat="44.95194930823243" lon="9.526889158409794"><ele>164.85714285714286</ele><time>2026-04-02T14:06:02.989Z</time></trkpt><trkpt lat="44.95198726705677" lon="9.526972344172616"><ele>164.42857142857142</ele><time>2026-04-02T14:06:03.989Z</time></trkpt><trkpt lat="44.95202130635179" lon="9.527051888503916"><ele>164.0</ele><time>2026-04-02T14:06:04.989Z</time></trkpt><trkpt lat="44.95206289445996" lon="9.527135245105171"><ele>163.5</ele><time>2026-04-02T14:06:05.989Z</time></trkpt><trkpt lat="44.95211057334785" lon="9.527218945370075"><ele>163.0</ele><time>2026-04-02T14:06:06.989Z</time></trkpt><trkpt lat="44.95215044331671" lon="9.527310165873223"><ele>162.5</ele><time>2026-04-02T14:06:07.989Z</time></trkpt><trkpt lat="44.95219344054669" lon="9.527401478824151"><ele>162.0</ele><time>2026-04-02T14:06:08.989Z</time></trkpt><trkpt lat="44.95224323160686" lon="9.52748658087958"><ele>161.5</ele><time>2026-04-02T14:06:09.989Z</time></trkpt><trkpt lat="44.952295630830456" lon="9.527565611758138"><ele>161.0</ele><time>2026-04-02T14:06:10.989Z</time></trkpt><trkpt lat="44.952351590954734" lon="9.527641822729821"><ele>161.0</ele><time>2026-04-02T14:06:11.989Z</time></trkpt><trkpt lat="44.95241270671046" lon="9.527709876127062"><ele>161.0</ele><time>2026-04-02T14:06:12.989Z</time></trkpt><trkpt lat="44.952476363020054" lon="9.52777452533136"><ele>161.0</ele><time>2026-04-02T14:06:13.989Z</time></trkpt><trkpt lat="44.95254020382657" lon="9.52783661801826"><ele>161.0</ele><time>2026-04-02T14:06:14.989Z</time></trkpt><trkpt lat="44.952615409471846" lon="9.527890665288194"><ele>161.0</ele><time>2026-04-02T14:06:15.989Z</time></trkpt><trkpt lat="44.952683000619786" lon="9.527950364157793"><ele>161.0</ele><time>2026-04-02T14:06:16.989Z</time></trkpt><trkpt lat="44.95275044406816" lon="9.528007021743402"><ele>160.66666666666666</ele><time>2026-04-02T14:06:17.989Z</time></trkpt><trkpt lat="44.95281563682269" lon="9.528063488245259"><ele>160.33333333333331</ele><time>2026-04-02T14:06:18.989Z</time></trkpt><trkpt lat="44.95288078751338" lon="9.528119078720493"><ele>160.0</ele><time>2026-04-02T14:06:19.989Z</time></trkpt><trkpt lat="44.95294496397548" lon="9.528173182100591"><ele>159.66666666666666</ele><time>2026-04-02T14:06:20.989Z</time></trkpt><trkpt lat="44.953015997148924" lon="9.528228848184558"><ele>159.33333333333334</ele><time>2026-04-02T14:06:21.989Z</time></trkpt><trkpt lat="44.953078053186154" lon="9.528282036904386"><ele>159.0</ele><time>2026-04-02T14:06:22.989Z</time></trkpt><trkpt lat="44.953140946008936" lon="9.52834185603125"><ele>159.0</ele><time>2026-04-02T14:06:23.989Z</time></trkpt><trkpt lat="44.953202865786096" lon="9.528393684901635"><ele>159.0</ele><time>2026-04-02T14:06:24.989Z</time></trkpt><trkpt lat="44.953267783977076" lon="9.528446033251452"><ele>159.0</ele><time>2026-04-02T14:06:25.989Z</time></trkpt><trkpt lat="44.95332991950417" lon="9.528496460719891"><ele>159.0</ele><time>2026-04-02T14:06:26.989Z</time></trkpt><trkpt lat="44.95339419242278" lon="9.52854991061499"><ele>159.0</ele><time>2026-04-02T14:06:27.989Z</time></trkpt><trkpt lat="44.95346097689486" lon="9.528602758733198"><ele>159.0</ele><time>2026-04-02T14:06:28.989Z</time></trkpt><trkpt lat="44.95352591334568" lon="9.52864862808288"><ele>159.0</ele><time>2026-04-02T14:06:29.989Z</time></trkpt><trkpt lat="44.95358729355443" lon="9.528708310727492"><ele>158.57142857142856</ele><time>2026-04-02T14:06:30.99Z</time></trkpt><trkpt lat="44.95364811736636" lon="9.52875737354037"><ele>158.14285714285717</ele><time>2026-04-02T14:06:31.99Z</time></trkpt><trkpt lat="44.9537128688366" lon="9.528807302299404"><ele>157.71428571428572</ele><time>2026-04-02T14:06:32.99Z</time></trkpt><trkpt lat="44.953774283929306" lon="9.528857082765823"><ele>157.28571428571428</ele><time>2026-04-02T14:06:33.99Z</time></trkpt><trkpt lat="44.95383243291337" lon="9.528906613872786"><ele>156.85714285714283</ele><time>2026-04-02T14:06:34.99Z</time></trkpt><trkpt lat="44.953893467936815" lon="9.528951524488356"><ele>156.42857142857144</ele><time>2026-04-02T14:06:35.99Z</time></trkpt><trkpt lat="44.95395604615753" lon="9.529004659259755"><ele>156.0</ele><time>2026-04-02T14:06:36.991Z</time></trkpt><trkpt lat="44.954018730222224" lon="9.52905415181751"><ele>156.0</ele><time>2026-04-02T14:06:37.99Z</time></trkpt><trkpt lat="44.95408186492235" lon="9.529111343383406"><ele>156.0</ele><time>2026-04-02T14:06:38.99Z</time></trkpt><trkpt lat="44.95414622748867" lon="9.529164745116104"><ele>156.0</ele><time>2026-04-02T14:06:39.99Z</time></trkpt><trkpt lat="44.954210682251556" lon="9.529214860394552"><ele>156.0</ele><time>2026-04-02T14:06:40.99Z</time></trkpt><trkpt lat="44.95427400167269" lon="9.529266554283584"><ele>156.0</ele><time>2026-04-02T14:06:41.99Z</time></trkpt><trkpt lat="44.95434055255033" lon="9.529316438651815"><ele>156.0</ele><time>2026-04-02T14:06:42.99Z</time></trkpt><trkpt lat="44.95441228864225" lon="9.529365863060733"><ele>156.0</ele><time>2026-04-02T14:06:43.99Z</time></trkpt><trkpt lat="44.95446283708293" lon="9.529425896696752"><ele>156.0</ele><time>2026-04-02T14:06:44.99Z</time></trkpt><trkpt lat="44.95451885867097" lon="9.529470993592373"><ele>156.0</ele><time>2026-04-02T14:06:45.99Z</time></trkpt><trkpt lat="44.954589405033424" lon="9.52952360186587"><ele>156.0</ele><time>2026-04-02T14:06:46.99Z</time></trkpt><trkpt lat="44.954658558783876" lon="9.52957950343834"><ele>156.0</ele><time>2026-04-02T14:06:47.99Z</time></trkpt><trkpt lat="44.95471625507543" lon="9.529629664481305"><ele>156.0</ele><time>2026-04-02T14:06:48.99Z</time></trkpt><trkpt lat="44.95477015107708" lon="9.52968104251013"><ele>156.0</ele><time>2026-04-02T14:06:49.99Z</time></trkpt><trkpt lat="44.9548360706182" lon="9.529726845484465"><ele>156.0</ele><time>2026-04-02T14:06:50.99Z</time></trkpt><trkpt lat="44.95489954145153" lon="9.529770512020098"><ele>156.0</ele><time>2026-04-02T14:06:51.99Z</time></trkpt><trkpt lat="44.954959789634806" lon="9.529813059670767"><ele>156.0</ele><time>2026-04-02T14:06:52.99Z</time></trkpt><trkpt lat="44.95501784133207" lon="9.529853331162416"><ele>156.0</ele><time>2026-04-02T14:06:53.99Z</time></trkpt><trkpt lat="44.95508316247981" lon="9.52988376542082"><ele>156.0</ele><time>2026-04-02T14:06:54.99Z</time></trkpt><trkpt lat="44.955156439070684" lon="9.529904943400942"><ele>156.0</ele><time>2026-04-02T14:06:55.99Z</time></trkpt><trkpt lat="44.955231958646635" lon="9.529922936219311"><ele>156.0</ele><time>2026-04-02T14:06:56.99Z</time></trkpt><trkpt lat="44.955303779696926" lon="9.529932526553766"><ele>155.33333333333334</ele><time>2026-04-02T14:06:57.989Z</time></trkpt><trkpt lat="44.955378940042756" lon="9.529934006256614"><ele>154.66666666666666</ele><time>2026-04-02T14:06:58.989Z</time></trkpt><trkpt lat="44.955459550864624" lon="9.529928588267653"><ele>154.0</ele><time>2026-04-02T14:06:59.989Z</time></trkpt><trkpt lat="44.955532953012586" lon="9.529921302344217"><ele>153.33333333333331</ele><time>2026-04-02T14:07:00.989Z</time></trkpt><trkpt lat="44.95560225579565" lon="9.529903428237676"><ele>152.66666666666666</ele><time>2026-04-02T14:07:01.989Z</time></trkpt><trkpt lat="44.955683800374686" lon="9.52987940539387"><ele>152.0</ele><time>2026-04-02T14:07:02.989Z</time></trkpt><trkpt lat="44.95575706106104" lon="9.529868276529482"><ele>152.0</ele><time>2026-04-02T14:07:03.989Z</time></trkpt><trkpt lat="44.95582853292387" lon="9.52986643316863"><ele>152.0</ele><time>2026-04-02T14:07:04.989Z</time></trkpt><trkpt lat="44.95590176303412" lon="9.529857962119555"><ele>152.0</ele><time>2026-04-02T14:07:05.989Z</time></trkpt><trkpt lat="44.95598066778111" lon="9.529852564094682"><ele>152.0</ele><time>2026-04-02T14:07:06.989Z</time></trkpt><trkpt lat="44.95605752251379" lon="9.529867032306026"><ele>152.0</ele><time>2026-04-02T14:07:07.989Z</time></trkpt><trkpt lat="44.95613555897464" lon="9.529895840515913"><ele>152.0</ele><time>2026-04-02T14:07:08.989Z</time></trkpt><trkpt lat="44.95620574628223" lon="9.52993383585177"><ele>151.85714285714286</ele><time>2026-04-02T14:07:09.989Z</time></trkpt><trkpt lat="44.956270843373744" lon="9.529973901279087"><ele>151.71428571428572</ele><time>2026-04-02T14:07:10.989Z</time></trkpt><trkpt lat="44.95633799578643" lon="9.530016957109986"><ele>151.57142857142858</ele><time>2026-04-02T14:07:11.989Z</time></trkpt><trkpt lat="44.95640317180879" lon="9.530051497781432"><ele>151.42857142857144</ele><time>2026-04-02T14:07:12.989Z</time></trkpt><trkpt lat="44.95646729063147" lon="9.530100529908294"><ele>151.28571428571428</ele><time>2026-04-02T14:07:13.989Z</time></trkpt><trkpt lat="44.956531260060814" lon="9.530140686961735"><ele>151.14285714285717</ele><time>2026-04-02T14:07:14.989Z</time></trkpt><trkpt lat="44.956592799106545" lon="9.53018190582325"><ele>151.0</ele><time>2026-04-02T14:07:15.989Z</time></trkpt><trkpt lat="44.95665624941339" lon="9.530221537747565"><ele>151.00000000000003</ele><time>2026-04-02T14:07:16.989Z</time></trkpt><trkpt lat="44.956722365902266" lon="9.530264697179838"><ele>151.0</ele><time>2026-04-02T14:07:17.989Z</time></trkpt><trkpt lat="44.956786042588455" lon="9.530305086732584"><ele>151.0</ele><time>2026-04-02T14:07:18.989Z</time></trkpt><trkpt lat="44.956852094640524" lon="9.530350830719254"><ele>151.0</ele><time>2026-04-02T14:07:19.989Z</time></trkpt><trkpt lat="44.956917220463026" lon="9.530386485848886"><ele>151.0</ele><time>2026-04-02T14:07:20.989Z</time></trkpt><trkpt lat="44.95698434548997" lon="9.530430831881437"><ele>151.00000000000003</ele><time>2026-04-02T14:07:21.989Z</time></trkpt><trkpt lat="44.95704821374737" lon="9.530468683472684"><ele>151.0</ele><time>2026-04-02T14:07:22.989Z</time></trkpt><trkpt lat="44.95711216838899" lon="9.53051436941173"><ele>151.0</ele><time>2026-04-02T14:07:23.989Z</time></trkpt><trkpt lat="44.957177525968575" lon="9.530557971160148"><ele>151.0</ele><time>2026-04-02T14:07:24.989Z</time></trkpt><trkpt lat="44.95724334723217" lon="9.530598646394767"><ele>151.0</ele><time>2026-04-02T14:07:25.989Z</time></trkpt><trkpt lat="44.957305933317514" lon="9.530639715571416"><ele>151.0</ele><time>2026-04-02T14:07:26.989Z</time></trkpt><trkpt lat="44.957368844790864" lon="9.530683033599797"><ele>151.0</ele><time>2026-04-02T14:07:27.989Z</time></trkpt><trkpt lat="44.95743121359774" lon="9.53072198275253"><ele>151.0</ele><time>2026-04-02T14:07:28.989Z</time></trkpt><trkpt lat="44.95755397542881" lon="9.530809167792114"><ele>151.0</ele><time>2026-04-02T14:07:30.989Z</time></trkpt><trkpt lat="44.95767386107604" lon="9.530884534429166"><ele>151.0</ele><time>2026-04-02T14:07:32.989Z</time></trkpt><trkpt lat="44.957738223509764" lon="9.530920322056698"><ele>151.0</ele><time>2026-04-02T14:07:33.989Z</time></trkpt><trkpt lat="44.95780239529502" lon="9.530961564253733"><ele>151.0</ele><time>2026-04-02T14:07:34.989Z</time></trkpt><trkpt lat="44.95786286103633" lon="9.531003867073862"><ele>151.0</ele><time>2026-04-02T14:07:35.989Z</time></trkpt><trkpt lat="44.95792551815317" lon="9.531046669552138"><ele>151.0</ele><time>2026-04-02T14:07:36.989Z</time></trkpt><trkpt lat="44.95798905827099" lon="9.531084491466148"><ele>151.00000000000003</ele><time>2026-04-02T14:07:37.989Z</time></trkpt><trkpt lat="44.95805058682828" lon="9.531118493793016"><ele>151.0</ele><time>2026-04-02T14:07:38.989Z</time></trkpt><trkpt lat="44.95811652995941" lon="9.531139542279488"><ele>151.0</ele><time>2026-04-02T14:07:39.989Z</time></trkpt><trkpt lat="44.95818713724505" lon="9.531159225625265"><ele>151.0</ele><time>2026-04-02T14:07:40.989Z</time></trkpt><trkpt lat="44.95825164075031" lon="9.531172217019824"><ele>151.0</ele><time>2026-04-02T14:07:41.989Z</time></trkpt><trkpt lat="44.95831640405656" lon="9.531191772982954"><ele>151.00000000000003</ele><time>2026-04-02T14:07:42.989Z</time></trkpt><trkpt lat="44.95839438331061" lon="9.531202996132876"><ele>151.0</ele><time>2026-04-02T14:07:43.989Z</time></trkpt><trkpt lat="44.95846743380315" lon="9.53121028379814"><ele>150.42857142857144</ele><time>2026-04-02T14:07:44.989Z</time></trkpt><trkpt lat="44.9585439704509" lon="9.531219577684933"><ele>149.85714285714286</ele><time>2026-04-02T14:07:45.989Z</time></trkpt><trkpt lat="44.95861881438921" lon="9.53123036473419"><ele>149.28571428571428</ele><time>2026-04-02T14:07:46.989Z</time></trkpt><trkpt lat="44.95868665968521" lon="9.531249132291896"><ele>148.71428571428572</ele><time>2026-04-02T14:07:47.989Z</time></trkpt><trkpt lat="44.95875923991429" lon="9.531260683179314"><ele>148.14285714285714</ele><time>2026-04-02T14:07:48.989Z</time></trkpt><trkpt lat="44.95883522033005" lon="9.531271215225365"><ele>147.57142857142858</ele><time>2026-04-02T14:07:49.989Z</time></trkpt><trkpt lat="44.95890833632031" lon="9.531283291656466"><ele>147.0</ele><time>2026-04-02T14:07:50.989Z</time></trkpt><trkpt lat="44.95898062756649" lon="9.531299260166675"><ele>147.0</ele><time>2026-04-02T14:07:51.989Z</time></trkpt><trkpt lat="44.959054129186455" lon="9.53131386597494"><ele>147.0</ele><time>2026-04-02T14:07:52.989Z</time></trkpt><trkpt lat="44.95912242945389" lon="9.53132508849151"><ele>147.0</ele><time>2026-04-02T14:07:53.989Z</time></trkpt><trkpt lat="44.95919990305561" lon="9.53134126601127"><ele>147.0</ele><time>2026-04-02T14:07:54.989Z</time></trkpt><trkpt lat="44.959270720152574" lon="9.53135199721667"><ele>147.0</ele><time>2026-04-02T14:07:55.989Z</time></trkpt><trkpt lat="44.95934617833206" lon="9.531365134976053"><ele>147.0</ele><time>2026-04-02T14:07:56.989Z</time></trkpt><trkpt lat="44.95941665887246" lon="9.531380852447331"><ele>147.0</ele><time>2026-04-02T14:07:57.989Z</time></trkpt><trkpt lat="44.959494382059525" lon="9.531389539763344"><ele>146.83333333333334</ele><time>2026-04-02T14:07:58.989Z</time></trkpt><trkpt lat="44.959567872500386" lon="9.531405650505693"><ele>146.66666666666666</ele><time>2026-04-02T14:07:59.989Z</time></trkpt><trkpt lat="44.95964081496746" lon="9.531421493937788"><ele>146.5</ele><time>2026-04-02T14:08:00.989Z</time></trkpt><trkpt lat="44.95971877596006" lon="9.531426036977347"><ele>146.33333333333331</ele><time>2026-04-02T14:08:01.989Z</time></trkpt><trkpt lat="44.959790829087034" lon="9.531438911601192"><ele>146.16666666666666</ele><time>2026-04-02T14:08:02.989Z</time></trkpt><trkpt lat="44.959930831605575" lon="9.531461754581033"><ele>146.0</ele><time>2026-04-02T14:08:04.989Z</time></trkpt><trkpt lat="44.960016485264376" lon="9.531485091353725"><ele>145.66666666666666</ele><time>2026-04-02T14:08:05.989Z</time></trkpt><trkpt lat="44.96009822979011" lon="9.531499492028225"><ele>145.33333333333331</ele><time>2026-04-02T14:08:06.989Z</time></trkpt><trkpt lat="44.96017480055796" lon="9.53151351762956"><ele>145.0</ele><time>2026-04-02T14:08:07.989Z</time></trkpt><trkpt lat="44.9602520361257" lon="9.531523777992515"><ele>144.66666666666666</ele><time>2026-04-02T14:08:08.989Z</time></trkpt><trkpt lat="44.96033265030082" lon="9.531534864567378"><ele>144.33333333333334</ele><time>2026-04-02T14:08:09.989Z</time></trkpt><trkpt lat="44.960411654145595" lon="9.531554776161165"><ele>144.0</ele><time>2026-04-02T14:08:10.989Z</time></trkpt><trkpt lat="44.960492922923045" lon="9.531567261283422"><ele>144.0</ele><time>2026-04-02T14:08:11.989Z</time></trkpt><trkpt lat="44.9605701426632" lon="9.53158820770144"><ele>144.0</ele><time>2026-04-02T14:08:12.989Z</time></trkpt><trkpt lat="44.9606489842792" lon="9.531599221169726"><ele>144.0</ele><time>2026-04-02T14:08:13.989Z</time></trkpt><trkpt lat="44.96072662930165" lon="9.531612240560984"><ele>144.0</ele><time>2026-04-02T14:08:14.989Z</time></trkpt><trkpt lat="44.960804639890284" lon="9.53162696911927"><ele>144.0</ele><time>2026-04-02T14:08:15.989Z</time></trkpt><trkpt lat="44.96088166360226" lon="9.531639407216476"><ele>144.0</ele><time>2026-04-02T14:08:16.989Z</time></trkpt><trkpt lat="44.960958206677255" lon="9.531655558806992"><ele>143.83333333333334</ele><time>2026-04-02T14:08:17.989Z</time></trkpt><trkpt lat="44.9610358411616" lon="9.531671834679962"><ele>143.66666666666666</ele><time>2026-04-02T14:08:18.989Z</time></trkpt><trkpt lat="44.96111056479753" lon="9.531685148752928"><ele>143.5</ele><time>2026-04-02T14:08:19.989Z</time></trkpt><trkpt lat="44.961185956667165" lon="9.531698668250991"><ele>143.33333333333331</ele><time>2026-04-02T14:08:20.989Z</time></trkpt><trkpt lat="44.96126237223593" lon="9.531709734056548"><ele>143.16666666666666</ele><time>2026-04-02T14:08:21.989Z</time></trkpt><trkpt lat="44.96134063274507" lon="9.531723097896615"><ele>143.0</ele><time>2026-04-02T14:08:22.989Z</time></trkpt><trkpt lat="44.96141973612997" lon="9.531741605878842"><ele>143.0</ele><time>2026-04-02T14:08:23.989Z</time></trkpt><trkpt lat="44.96149475508758" lon="9.531757515895235"><ele>143.0</ele><time>2026-04-02T14:08:24.989Z</time></trkpt><trkpt lat="44.96157291499075" lon="9.531769978517172"><ele>143.0</ele><time>2026-04-02T14:08:25.989Z</time></trkpt><trkpt lat="44.961651795224896" lon="9.531783754781113"><ele>143.0</ele><time>2026-04-02T14:08:26.989Z</time></trkpt><trkpt lat="44.96173480442182" lon="9.531803428788011"><ele>143.0</ele><time>2026-04-02T14:08:27.989Z</time></trkpt><trkpt lat="44.961810827024514" lon="9.531814124660988"><ele>143.0</ele><time>2026-04-02T14:08:28.989Z</time></trkpt><trkpt lat="44.96189084637878" lon="9.531830904859472"><ele>142.5</ele><time>2026-04-02T14:08:29.989Z</time></trkpt><trkpt lat="44.961969626645455" lon="9.531844542102803"><ele>142.0</ele><time>2026-04-02T14:08:30.989Z</time></trkpt><trkpt lat="44.96204906326071" lon="9.531856644075775"><ele>141.5</ele><time>2026-04-02T14:08:31.989Z</time></trkpt><trkpt lat="44.96212906433995" lon="9.531873191195842"><ele>141.0</ele><time>2026-04-02T14:08:32.989Z</time></trkpt><trkpt lat="44.96221073777258" lon="9.531887143802022"><ele>140.5</ele><time>2026-04-02T14:08:33.989Z</time></trkpt><trkpt lat="44.96229002191885" lon="9.531902459792176"><ele>140.0</ele><time>2026-04-02T14:08:34.989Z</time></trkpt><trkpt lat="44.96236878965014" lon="9.531913521134898"><ele>140.0</ele><time>2026-04-02T14:08:35.989Z</time></trkpt><trkpt lat="44.96244921453709" lon="9.53192743351787"><ele>140.0</ele><time>2026-04-02T14:08:36.99Z</time></trkpt><trkpt lat="44.96253087785498" lon="9.53194198058481"><ele>140.0</ele><time>2026-04-02T14:08:37.989Z</time></trkpt><trkpt lat="44.96261014818183" lon="9.531955985874186"><ele>140.0</ele><time>2026-04-02T14:08:38.989Z</time></trkpt><trkpt lat="44.96269658971012" lon="9.531968480568864"><ele>140.0</ele><time>2026-04-02T14:08:39.99Z</time></trkpt><trkpt lat="44.962777015262375" lon="9.531982272354787"><ele>140.0</ele><time>2026-04-02T14:08:40.99Z</time></trkpt><trkpt lat="44.962861078458204" lon="9.531996740570184"><ele>139.66666666666666</ele><time>2026-04-02T14:08:41.99Z</time></trkpt><trkpt lat="44.96294340283408" lon="9.532010440809662"><ele>139.33333333333331</ele><time>2026-04-02T14:08:42.99Z</time></trkpt><trkpt lat="44.96303028873702" lon="9.53202411551144"><ele>139.0</ele><time>2026-04-02T14:08:43.99Z</time></trkpt><trkpt lat="44.96311253559183" lon="9.532035819263827"><ele>138.66666666666666</ele><time>2026-04-02T14:08:44.99Z</time></trkpt><trkpt lat="44.96319588342524" lon="9.532048896717884"><ele>138.33333333333334</ele><time>2026-04-02T14:08:45.99Z</time></trkpt><trkpt lat="44.963277232096075" lon="9.532068956654763"><ele>138.0</ele><time>2026-04-02T14:08:46.989Z</time></trkpt><trkpt lat="44.963360362126956" lon="9.532078963510694"><ele>137.83333333333334</ele><time>2026-04-02T14:08:47.989Z</time></trkpt><trkpt lat="44.96344799264499" lon="9.532092148690827"><ele>137.66666666666666</ele><time>2026-04-02T14:08:48.99Z</time></trkpt><trkpt lat="44.96352831562501" lon="9.532111652036644"><ele>137.5</ele><time>2026-04-02T14:08:49.989Z</time></trkpt><trkpt lat="44.963610311105654" lon="9.532121962419282"><ele>137.33333333333331</ele><time>2026-04-02T14:08:50.989Z</time></trkpt><trkpt lat="44.963691959863134" lon="9.532136314335826"><ele>137.16666666666666</ele><time>2026-04-02T14:08:51.989Z</time></trkpt><trkpt lat="44.963772577562295" lon="9.532152919432146"><ele>137.0</ele><time>2026-04-02T14:08:52.989Z</time></trkpt><trkpt lat="44.963850447984065" lon="9.53217029923776"><ele>137.0</ele><time>2026-04-02T14:08:53.989Z</time></trkpt><trkpt lat="44.963930998856604" lon="9.532180676519799"><ele>137.0</ele><time>2026-04-02T14:08:54.989Z</time></trkpt><trkpt lat="44.96401148953742" lon="9.532198890831005"><ele>137.0</ele><time>2026-04-02T14:08:55.989Z</time></trkpt><trkpt lat="44.96408735804967" lon="9.532209528940788"><ele>137.0</ele><time>2026-04-02T14:08:56.989Z</time></trkpt><trkpt lat="44.96416370515511" lon="9.532224078943342"><ele>137.0</ele><time>2026-04-02T14:08:57.989Z</time></trkpt><trkpt lat="44.964238914655176" lon="9.532239508638096"><ele>137.0</ele><time>2026-04-02T14:08:58.989Z</time></trkpt><trkpt lat="44.96431287429312" lon="9.532247354744445"><ele>136.66666666666666</ele><time>2026-04-02T14:08:59.989Z</time></trkpt><trkpt lat="44.96439314611522" lon="9.532260026876747"><ele>136.33333333333331</ele><time>2026-04-02T14:09:00.989Z</time></trkpt><trkpt lat="44.964468924314595" lon="9.532271433276858"><ele>136.0</ele><time>2026-04-02T14:09:01.989Z</time></trkpt><trkpt lat="44.964547007628695" lon="9.532289494729284"><ele>135.66666666666666</ele><time>2026-04-02T14:09:02.989Z</time></trkpt><trkpt lat="44.964624679411585" lon="9.532300615658663"><ele>135.33333333333334</ele><time>2026-04-02T14:09:03.989Z</time></trkpt><trkpt lat="44.96470458807264" lon="9.532316469351011"><ele>135.0</ele><time>2026-04-02T14:09:04.989Z</time></trkpt><trkpt lat="44.96478711137796" lon="9.532335056549291"><ele>135.0</ele><time>2026-04-02T14:09:05.989Z</time></trkpt><trkpt lat="44.96487144933746" lon="9.53234948873619"><ele>135.0</ele><time>2026-04-02T14:09:06.989Z</time></trkpt><trkpt lat="44.964957152832696" lon="9.532362828817224"><ele>135.0</ele><time>2026-04-02T14:09:07.989Z</time></trkpt><trkpt lat="44.96504067794359" lon="9.532374306038157"><ele>135.0</ele><time>2026-04-02T14:09:08.989Z</time></trkpt><trkpt lat="44.96512723135606" lon="9.53237978871677"><ele>135.0</ele><time>2026-04-02T14:09:09.989Z</time></trkpt><trkpt lat="44.96521586063821" lon="9.53237369382873"><ele>135.0</ele><time>2026-04-02T14:09:10.989Z</time></trkpt><trkpt lat="44.96530660996652" lon="9.532356246059859"><ele>133.6</ele><time>2026-04-02T14:09:11.989Z</time></trkpt><trkpt lat="44.96539720775827" lon="9.53233484769353"><ele>132.2</ele><time>2026-04-02T14:09:12.989Z</time></trkpt><trkpt lat="44.96548357186637" lon="9.53230561949606"><ele>130.8</ele><time>2026-04-02T14:09:13.989Z</time></trkpt><trkpt lat="44.96557311079234" lon="9.532279199710892"><ele>129.4</ele><time>2026-04-02T14:09:14.989Z</time></trkpt><trkpt lat="44.96566631656491" lon="9.532250930999563"><ele>128.0</ele><time>2026-04-02T14:09:15.989Z</time></trkpt><trkpt lat="44.965760481760306" lon="9.532230143667798"><ele>128.0</ele><time>2026-04-02T14:09:16.989Z</time></trkpt><trkpt lat="44.96585962371254" lon="9.532222752409803"><ele>128.0</ele><time>2026-04-02T14:09:17.989Z</time></trkpt><trkpt lat="44.96595405054612" lon="9.532227615722391"><ele>128.0</ele><time>2026-04-02T14:09:18.989Z</time></trkpt><trkpt lat="44.966049943840815" lon="9.532262946305094"><ele>128.0</ele><time>2026-04-02T14:09:19.989Z</time></trkpt><trkpt lat="44.96615039626615" lon="9.532307562389592"><ele>128.0</ele><time>2026-04-02T14:09:20.989Z</time></trkpt><trkpt lat="44.96623965216974" lon="9.532358747679522"><ele>127.4</ele><time>2026-04-02T14:09:21.989Z</time></trkpt><trkpt lat="44.96633810454323" lon="9.532391989546273"><ele>126.80000000000001</ele><time>2026-04-02T14:09:22.989Z</time></trkpt><trkpt lat="44.96644233338283" lon="9.532395640523555"><ele>126.2</ele><time>2026-04-02T14:09:23.989Z</time></trkpt><trkpt lat="44.966538251331386" lon="9.532385650673808"><ele>125.6</ele><time>2026-04-02T14:09:24.989Z</time></trkpt><trkpt lat="44.96665009051896" lon="9.532365878689442"><ele>125.0</ele><time>2026-04-02T14:09:25.989Z</time></trkpt><trkpt lat="44.96675416637697" lon="9.532340466970247"><ele>125.0</ele><time>2026-04-02T14:09:26.989Z</time></trkpt><trkpt lat="44.96685638464898" lon="9.53231800242508"><ele>125.0</ele><time>2026-04-02T14:09:27.989Z</time></trkpt><trkpt lat="44.96695793654027" lon="9.532313113078828"><ele>125.0</ele><time>2026-04-02T14:09:28.989Z</time></trkpt><trkpt lat="44.96706103537785" lon="9.532338947398701"><ele>125.0</ele><time>2026-04-02T14:09:29.989Z</time></trkpt><trkpt lat="44.96715744759339" lon="9.53238825192667"><ele>125.0</ele><time>2026-04-02T14:09:30.989Z</time></trkpt><trkpt lat="44.9672487636201" lon="9.532461214027716"><ele>125.0</ele><time>2026-04-02T14:09:31.989Z</time></trkpt><trkpt lat="44.96732739755675" lon="9.532542999623734"><ele>125.0</ele><time>2026-04-02T14:09:32.989Z</time></trkpt><trkpt lat="44.967397130855225" lon="9.53263169461817"><ele>125.0</ele><time>2026-04-02T14:09:33.989Z</time></trkpt><trkpt lat="44.96747253247379" lon="9.532710620106585"><ele>125.0</ele><time>2026-04-02T14:09:34.989Z</time></trkpt><trkpt lat="44.96754969696261" lon="9.53277749261402"><ele>125.0</ele><time>2026-04-02T14:09:35.989Z</time></trkpt><trkpt lat="44.96763243087167" lon="9.532842976785085"><ele>124.4</ele><time>2026-04-02T14:09:36.989Z</time></trkpt><trkpt lat="44.9677120302117" lon="9.532904240110359"><ele>123.8</ele><time>2026-04-02T14:09:37.989Z</time></trkpt><trkpt lat="44.96779073613783" lon="9.532967293839315"><ele>123.19999999999999</ele><time>2026-04-02T14:09:38.989Z</time></trkpt><trkpt lat="44.9678742280144" lon="9.533025627147932"><ele>122.6</ele><time>2026-04-02T14:09:39.989Z</time></trkpt><trkpt lat="44.96795051794887" lon="9.533084172672465"><ele>122.0</ele><time>2026-04-02T14:09:40.989Z</time></trkpt><trkpt lat="44.96803002039075" lon="9.533141159361085"><ele>121.99999999999999</ele><time>2026-04-02T14:09:41.989Z</time></trkpt><trkpt lat="44.96810199740489" lon="9.533197492207375"><ele>122.0</ele><time>2026-04-02T14:09:42.989Z</time></trkpt><trkpt lat="44.968175175556965" lon="9.533253913159639"><ele>122.0</ele><time>2026-04-02T14:09:43.989Z</time></trkpt><trkpt lat="44.96825212909498" lon="9.533307051676815"><ele>122.0</ele><time>2026-04-02T14:09:44.989Z</time></trkpt><trkpt lat="44.968317553178366" lon="9.53335202020362"><ele>121.99999999999999</ele><time>2026-04-02T14:09:45.989Z</time></trkpt><trkpt lat="44.96839236112672" lon="9.533402329562822"><ele>122.0</ele><time>2026-04-02T14:09:46.989Z</time></trkpt><trkpt lat="44.96846760807477" lon="9.53344930277323"><ele>122.16666666666666</ele><time>2026-04-02T14:09:47.989Z</time></trkpt><trkpt lat="44.9685414489997" lon="9.53347754563691"><ele>122.33333333333333</ele><time>2026-04-02T14:09:48.989Z</time></trkpt><trkpt lat="44.96861823968227" lon="9.53350079556791"><ele>122.5</ele><time>2026-04-02T14:09:49.989Z</time></trkpt><trkpt lat="44.96869740369024" lon="9.533526788765537"><ele>122.66666666666666</ele><time>2026-04-02T14:09:50.989Z</time></trkpt><trkpt lat="44.96877345833743" lon="9.533554360143713"><ele>122.83333333333333</ele><time>2026-04-02T14:09:51.989Z</time></trkpt><trkpt lat="44.96884084811804" lon="9.53359574822534"><ele>123.0</ele><time>2026-04-02T14:09:52.989Z</time></trkpt><trkpt lat="44.96889443130784" lon="9.533647319200343"><ele>123.0</ele><time>2026-04-02T14:09:53.989Z</time></trkpt><trkpt lat="44.96894200505616" lon="9.53371353722085"><ele>123.0</ele><time>2026-04-02T14:09:54.989Z</time></trkpt><trkpt lat="44.96899645624059" lon="9.533857449763783"><ele>123.0</ele><time>2026-04-02T14:09:56.989Z</time></trkpt><trkpt lat="44.96902219884284" lon="9.533986816444207"><ele>123.0</ele><time>2026-04-02T14:09:58.989Z</time></trkpt><trkpt lat="44.96902513073989" lon="9.534101357155564"><ele>123.0</ele><time>2026-04-02T14:10:01.989Z</time></trkpt><trkpt lat="44.9690272613607" lon="9.534196573918061"><ele>123.0</ele><time>2026-04-02T14:10:04.989Z</time></trkpt><trkpt lat="44.96904697399721" lon="9.534297863698905"><ele>122.5</ele><time>2026-04-02T14:10:06.989Z</time></trkpt><trkpt lat="44.96906676397909" lon="9.5344013440681"><ele>122.0</ele><time>2026-04-02T14:10:08.989Z</time></trkpt><trkpt lat="44.96909103425002" lon="9.534513427617394"><ele>121.5</ele><time>2026-04-02T14:10:11.989Z</time></trkpt><trkpt lat="44.96911684464974" lon="9.534609535900554"><ele>121.0</ele><time>2026-04-02T14:10:14.989Z</time></trkpt><trkpt lat="44.96914810011328" lon="9.534746195828976"><ele>120.5</ele><time>2026-04-02T14:10:17.989Z</time></trkpt><trkpt lat="44.9691588735557" lon="9.534854257353505"><ele>120.0</ele><time>2026-04-02T14:10:19.989Z</time></trkpt><trkpt lat="44.969180709886714" lon="9.534959295767493"><ele>119.83333333333333</ele><time>2026-04-02T14:10:21.989Z</time></trkpt><trkpt lat="44.96920059263929" lon="9.535091504191422"><ele>119.66666666666666</ele><time>2026-04-02T14:10:23.989Z</time></trkpt><trkpt lat="44.96921742761141" lon="9.535213598025415"><ele>119.5</ele><time>2026-04-02T14:10:25.989Z</time></trkpt><trkpt lat="44.969236859125246" lon="9.535325219484276"><ele>119.33333333333333</ele><time>2026-04-02T14:10:27.989Z</time></trkpt><trkpt lat="44.9692677439887" lon="9.535416489912201"><ele>119.16666666666666</ele><time>2026-04-02T14:10:29.989Z</time></trkpt><trkpt lat="44.969302376887086" lon="9.535515307442287"><ele>119.0</ele><time>2026-04-02T14:10:31.989Z</time></trkpt><trkpt lat="44.969345190367505" lon="9.535623067268386"><ele>118.80000000000001</ele><time>2026-04-02T14:10:33.989Z</time></trkpt><trkpt lat="44.96940058051828" lon="9.535718788833023"><ele>118.60000000000001</ele><time>2026-04-02T14:10:35.989Z</time></trkpt><trkpt lat="44.969463360723545" lon="9.53581461032145"><ele>118.4</ele><time>2026-04-02T14:10:37.989Z</time></trkpt><trkpt lat="44.96954039246304" lon="9.535907365740266"><ele>118.2</ele><time>2026-04-02T14:10:39.989Z</time></trkpt><trkpt lat="44.969629697050415" lon="9.535978363626263"><ele>118.0</ele><time>2026-04-02T14:10:41.989Z</time></trkpt><trkpt lat="44.96972507901679" lon="9.536050426574404"><ele>118.0</ele><time>2026-04-02T14:10:43.989Z</time></trkpt><trkpt lat="44.9698290473014" lon="9.53613485256687"><ele>118.0</ele><time>2026-04-02T14:10:45.99Z</time></trkpt><trkpt lat="44.96988516017449" lon="9.536176623705044"><ele>118.0</ele><time>2026-04-02T14:10:46.99Z</time></trkpt><trkpt lat="44.96994199566906" lon="9.536222384681206"><ele>118.0</ele><time>2026-04-02T14:10:47.99Z</time></trkpt><trkpt lat="44.96999835773452" lon="9.536269449840736"><ele>118.0</ele><time>2026-04-02T14:10:48.99Z</time></trkpt><trkpt lat="44.97005447415581" lon="9.536312029477761"><ele>118.0</ele><time>2026-04-02T14:10:49.989Z</time></trkpt><trkpt lat="44.9701134797971" lon="9.536354315352188"><ele>118.0</ele><time>2026-04-02T14:10:50.989Z</time></trkpt><trkpt lat="44.97017029480581" lon="9.536400254598028"><ele>117.85714285714286</ele><time>2026-04-02T14:10:51.99Z</time></trkpt><trkpt lat="44.970226678933656" lon="9.536448113354153"><ele>117.71428571428572</ele><time>2026-04-02T14:10:52.99Z</time></trkpt><trkpt lat="44.97028666520082" lon="9.536493030547867"><ele>117.57142857142858</ele><time>2026-04-02T14:10:53.99Z</time></trkpt><trkpt lat="44.970347354507716" lon="9.5365416788449"><ele>117.42857142857143</ele><time>2026-04-02T14:10:54.99Z</time></trkpt><trkpt lat="44.970404282051156" lon="9.536585487387566"><ele>117.2857142857143</ele><time>2026-04-02T14:10:55.99Z</time></trkpt><trkpt lat="44.97046807170529" lon="9.53663551751777"><ele>117.14285714285715</ele><time>2026-04-02T14:10:56.99Z</time></trkpt><trkpt lat="44.97053075658455" lon="9.536685801124156"><ele>117.0</ele><time>2026-04-02T14:10:57.99Z</time></trkpt><trkpt lat="44.97058810627072" lon="9.536734738367448"><ele>117.0</ele><time>2026-04-02T14:10:58.99Z</time></trkpt><trkpt lat="44.97064876380194" lon="9.536782770775302"><ele>117.00000000000001</ele><time>2026-04-02T14:10:59.99Z</time></trkpt><trkpt lat="44.97071380923016" lon="9.536836145257315"><ele>117.0</ele><time>2026-04-02T14:11:00.99Z</time></trkpt><trkpt lat="44.97077041977173" lon="9.536879663663028"><ele>117.0</ele><time>2026-04-02T14:11:01.99Z</time></trkpt><trkpt lat="44.97083176628162" lon="9.536926788537546"><ele>117.00000000000001</ele><time>2026-04-02T14:11:02.99Z</time></trkpt><trkpt lat="44.97089017375484" lon="9.536971880477573"><ele>117.0</ele><time>2026-04-02T14:11:03.99Z</time></trkpt><trkpt lat="44.9709491593584" lon="9.537020253350867"><ele>117.0</ele><time>2026-04-02T14:11:04.99Z</time></trkpt><trkpt lat="44.97100966218402" lon="9.537068666128015"><ele>116.85714285714286</ele><time>2026-04-02T14:11:05.99Z</time></trkpt><trkpt lat="44.97106835542239" lon="9.53711846761899"><ele>116.71428571428572</ele><time>2026-04-02T14:11:06.99Z</time></trkpt><trkpt lat="44.97112745875072" lon="9.53717086232636"><ele>116.57142857142858</ele><time>2026-04-02T14:11:07.99Z</time></trkpt><trkpt lat="44.97118706290287" lon="9.537220489222513"><ele>116.42857142857144</ele><time>2026-04-02T14:11:08.99Z</time></trkpt><trkpt lat="44.97124861736739" lon="9.537259390040308"><ele>116.28571428571429</ele><time>2026-04-02T14:11:09.99Z</time></trkpt><trkpt lat="44.971311939865906" lon="9.537310500001178"><ele>116.14285714285717</ele><time>2026-04-02T14:11:10.99Z</time></trkpt><trkpt lat="44.97137195476062" lon="9.537361433471476"><ele>116.00000000000001</ele><time>2026-04-02T14:11:11.99Z</time></trkpt><trkpt lat="44.97143020872424" lon="9.537408868662068"><ele>116.00000000000001</ele><time>2026-04-02T14:11:12.99Z</time></trkpt><trkpt lat="44.97149212787308" lon="9.537458982145012"><ele>116.0</ele><time>2026-04-02T14:11:13.99Z</time></trkpt><trkpt lat="44.97155359606478" lon="9.53750835419695"><ele>116.00000000000001</ele><time>2026-04-02T14:11:14.99Z</time></trkpt><trkpt lat="44.97161413255666" lon="9.53756529068762"><ele>116.00000000000001</ele><time>2026-04-02T14:11:15.99Z</time></trkpt><trkpt lat="44.97167506233304" lon="9.537606683920425"><ele>116.0</ele><time>2026-04-02T14:11:16.99Z</time></trkpt><trkpt lat="44.97173629290771" lon="9.537661656543632"><ele>116.00000000000001</ele><time>2026-04-02T14:11:17.99Z</time></trkpt><trkpt lat="44.97179883303772" lon="9.537714400260468"><ele>116.00000000000001</ele><time>2026-04-02T14:11:18.99Z</time></trkpt><trkpt lat="44.971859054419866" lon="9.53776853425335"><ele>115.85714285714288</ele><time>2026-04-02T14:11:19.989Z</time></trkpt><trkpt lat="44.971922030802034" lon="9.537818934453334"><ele>115.71428571428572</ele><time>2026-04-02T14:11:20.989Z</time></trkpt><trkpt lat="44.9719837013863" lon="9.537867317897728"><ele>115.57142857142857</ele><time>2026-04-02T14:11:21.989Z</time></trkpt><trkpt lat="44.97205177378085" lon="9.537917595300167"><ele>115.42857142857143</ele><time>2026-04-02T14:11:22.989Z</time></trkpt><trkpt lat="44.97211665412464" lon="9.537967772911434"><ele>115.28571428571428</ele><time>2026-04-02T14:11:23.989Z</time></trkpt><trkpt lat="44.972179541571116" lon="9.538018302155308"><ele>115.14285714285712</ele><time>2026-04-02T14:11:24.989Z</time></trkpt><trkpt lat="44.97223779132294" lon="9.538067347623633"><ele>114.99999999999999</ele><time>2026-04-02T14:11:25.989Z</time></trkpt><trkpt lat="44.97229510567395" lon="9.538118901381962"><ele>115.00000000000001</ele><time>2026-04-02T14:11:26.989Z</time></trkpt><trkpt lat="44.9723628475515" lon="9.538171056650686"><ele>115.0</ele><time>2026-04-02T14:11:27.989Z</time></trkpt><trkpt lat="44.97242771288273" lon="9.53821966536053"><ele>115.0</ele><time>2026-04-02T14:11:28.989Z</time></trkpt><trkpt lat="44.97249997300129" lon="9.538269127843842"><ele>115.0</ele><time>2026-04-02T14:11:29.989Z</time></trkpt><trkpt lat="44.97256918313123" lon="9.538328929784841"><ele>115.00000000000001</ele><time>2026-04-02T14:11:30.989Z</time></trkpt><trkpt lat="44.97263092233424" lon="9.538383812192631"><ele>115.0</ele><time>2026-04-02T14:11:31.989Z</time></trkpt><trkpt lat="44.97269802660977" lon="9.538430762112794"><ele>115.00000000000001</ele><time>2026-04-02T14:11:32.989Z</time></trkpt><trkpt lat="44.97276789500975" lon="9.538478863303336"><ele>115.0</ele><time>2026-04-02T14:11:33.989Z</time></trkpt><trkpt lat="44.97283519376185" lon="9.538528208604987"><ele>115.0</ele><time>2026-04-02T14:11:34.989Z</time></trkpt><trkpt lat="44.97290013360338" lon="9.538587322529253"><ele>115.0</ele><time>2026-04-02T14:11:35.989Z</time></trkpt><trkpt lat="44.9729654727538" lon="9.538640979871724"><ele>115.00000000000001</ele><time>2026-04-02T14:11:36.989Z</time></trkpt><trkpt lat="44.973031344541624" lon="9.53868927963144"><ele>115.0</ele><time>2026-04-02T14:11:37.989Z</time></trkpt><trkpt lat="44.97309995899919" lon="9.538748880649443"><ele>115.00000000000001</ele><time>2026-04-02T14:11:38.989Z</time></trkpt><trkpt lat="44.97316680777464" lon="9.538803796258895"><ele>115.0</ele><time>2026-04-02T14:11:39.989Z</time></trkpt><trkpt lat="44.973234279167606" lon="9.538856847489344"><ele>115.0</ele><time>2026-04-02T14:11:40.989Z</time></trkpt><trkpt lat="44.97329842832915" lon="9.538911586726929"><ele>115.0</ele><time>2026-04-02T14:11:41.989Z</time></trkpt><trkpt lat="44.973364485299406" lon="9.538975976980913"><ele>115.00000000000001</ele><time>2026-04-02T14:11:42.989Z</time></trkpt><trkpt lat="44.97342828223683" lon="9.539031487149032"><ele>115.0</ele><time>2026-04-02T14:11:43.989Z</time></trkpt><trkpt lat="44.97349307603288" lon="9.539088016027092"><ele>114.83333333333334</ele><time>2026-04-02T14:11:44.989Z</time></trkpt><trkpt lat="44.973558048136866" lon="9.539139867520419"><ele>114.66666666666667</ele><time>2026-04-02T14:11:45.989Z</time></trkpt><trkpt lat="44.97362601224295" lon="9.539186904862214"><ele>114.5</ele><time>2026-04-02T14:11:46.989Z</time></trkpt><trkpt lat="44.97369285484202" lon="9.539233236312626"><ele>114.33333333333334</ele><time>2026-04-02T14:11:47.989Z</time></trkpt><trkpt lat="44.97375749082715" lon="9.539285107987645"><ele>114.16666666666667</ele><time>2026-04-02T14:11:48.989Z</time></trkpt><trkpt lat="44.97382232212381" lon="9.539344040293726"><ele>114.0</ele><time>2026-04-02T14:11:49.989Z</time></trkpt><trkpt lat="44.97388417193797" lon="9.539402749514002"><ele>114.0</ele><time>2026-04-02T14:11:50.989Z</time></trkpt><trkpt lat="44.973954561536516" lon="9.539452249209305"><ele>114.0</ele><time>2026-04-02T14:11:51.989Z</time></trkpt><trkpt lat="44.97402277503872" lon="9.539499986865557"><ele>114.0</ele><time>2026-04-02T14:11:52.989Z</time></trkpt><trkpt lat="44.974096439717535" lon="9.539548844004951"><ele>114.0</ele><time>2026-04-02T14:11:53.989Z</time></trkpt><trkpt lat="44.974159606600935" lon="9.539602471358945"><ele>114.0</ele><time>2026-04-02T14:11:54.989Z</time></trkpt><trkpt lat="44.974232953444506" lon="9.53965190390601"><ele>114.0</ele><time>2026-04-02T14:11:55.989Z</time></trkpt><trkpt lat="44.97429577197118" lon="9.539701726622058"><ele>113.66666666666667</ele><time>2026-04-02T14:11:56.989Z</time></trkpt><trkpt lat="44.97436971461748" lon="9.539756150212641"><ele>113.33333333333334</ele><time>2026-04-02T14:11:57.989Z</time></trkpt><trkpt lat="44.97443296918763" lon="9.539816332227925"><ele>113.0</ele><time>2026-04-02T14:11:58.989Z</time></trkpt><trkpt lat="44.974499276518245" lon="9.539868454775974"><ele>112.66666666666667</ele><time>2026-04-02T14:11:59.989Z</time></trkpt><trkpt lat="44.97456966070558" lon="9.53991827181431"><ele>112.33333333333334</ele><time>2026-04-02T14:12:00.989Z</time></trkpt><trkpt lat="44.97463573411508" lon="9.539974172867772"><ele>112.0</ele><time>2026-04-02T14:12:01.989Z</time></trkpt><trkpt lat="44.974705315318914" lon="9.540027174838361"><ele>112.00000000000001</ele><time>2026-04-02T14:12:02.989Z</time></trkpt><trkpt lat="44.974775440471845" lon="9.540077039991067"><ele>112.0</ele><time>2026-04-02T14:12:03.989Z</time></trkpt><trkpt lat="44.97483847130054" lon="9.540133248754668"><ele>112.0</ele><time>2026-04-02T14:12:04.989Z</time></trkpt><trkpt lat="44.97490486803705" lon="9.5401904923411"><ele>112.0</ele><time>2026-04-02T14:12:05.989Z</time></trkpt><trkpt lat="44.97497096942677" lon="9.540239825795549"><ele>112.00000000000001</ele><time>2026-04-02T14:12:06.989Z</time></trkpt><trkpt lat="44.97504091916781" lon="9.540295199796986"><ele>112.0</ele><time>2026-04-02T14:12:07.989Z</time></trkpt><trkpt lat="44.97510964910736" lon="9.5403519851372"><ele>111.50000000000001</ele><time>2026-04-02T14:12:08.989Z</time></trkpt><trkpt lat="44.97517375024577" lon="9.540409140173473"><ele>111.0</ele><time>2026-04-02T14:12:09.989Z</time></trkpt><trkpt lat="44.97524010800345" lon="9.540470033943906"><ele>110.5</ele><time>2026-04-02T14:12:10.989Z</time></trkpt><trkpt lat="44.97531316814612" lon="9.540520184686754"><ele>110.0</ele><time>2026-04-02T14:12:11.989Z</time></trkpt><trkpt lat="44.97538139541315" lon="9.540577005471636"><ele>109.50000000000001</ele><time>2026-04-02T14:12:12.989Z</time></trkpt><trkpt lat="44.975450645492074" lon="9.540634128953215"><ele>109.0</ele><time>2026-04-02T14:12:13.989Z</time></trkpt><trkpt lat="44.97551821455737" lon="9.54069231715351"><ele>109.00000000000001</ele><time>2026-04-02T14:12:14.989Z</time></trkpt><trkpt lat="44.975587692608826" lon="9.540747994908415"><ele>109.0</ele><time>2026-04-02T14:12:15.989Z</time></trkpt><trkpt lat="44.975657483865135" lon="9.540800265972408"><ele>109.0</ele><time>2026-04-02T14:12:16.989Z</time></trkpt><trkpt lat="44.97572834524481" lon="9.540858779315563"><ele>109.0</ele><time>2026-04-02T14:12:17.989Z</time></trkpt><trkpt lat="44.97579805564823" lon="9.54091267541768"><ele>109.00000000000001</ele><time>2026-04-02T14:12:18.989Z</time></trkpt><trkpt lat="44.97586715163945" lon="9.540972497080606"><ele>109.0</ele><time>2026-04-02T14:12:19.989Z</time></trkpt><trkpt lat="44.97593652548889" lon="9.541028450207254"><ele>108.83333333333334</ele><time>2026-04-02T14:12:20.989Z</time></trkpt><trkpt lat="44.97600598112202" lon="9.541082086058738"><ele>108.66666666666667</ele><time>2026-04-02T14:12:21.989Z</time></trkpt><trkpt lat="44.97607805908212" lon="9.541137129122781"><ele>108.5</ele><time>2026-04-02T14:12:22.989Z</time></trkpt><trkpt lat="44.97614748953345" lon="9.541185987872389"><ele>108.33333333333334</ele><time>2026-04-02T14:12:23.989Z</time></trkpt><trkpt lat="44.97621754194986" lon="9.541240951945936"><ele>108.16666666666667</ele><time>2026-04-02T14:12:24.989Z</time></trkpt><trkpt lat="44.97628207417098" lon="9.541297472319043"><ele>108.0</ele><time>2026-04-02T14:12:25.989Z</time></trkpt><trkpt lat="44.97635056147738" lon="9.541352350743221"><ele>108.0</ele><time>2026-04-02T14:12:26.989Z</time></trkpt><trkpt lat="44.97641727373205" lon="9.54140360312729"><ele>108.0</ele><time>2026-04-02T14:12:27.989Z</time></trkpt><trkpt lat="44.976483770933356" lon="9.54145504396393"><ele>108.0</ele><time>2026-04-02T14:12:28.989Z</time></trkpt><trkpt lat="44.976549965571614" lon="9.541510646149751"><ele>108.0</ele><time>2026-04-02T14:12:29.989Z</time></trkpt><trkpt lat="44.976615479221145" lon="9.541560852676074"><ele>108.0</ele><time>2026-04-02T14:12:30.989Z</time></trkpt><trkpt lat="44.97667607350038" lon="9.541607895779345"><ele>108.0</ele><time>2026-04-02T14:12:31.989Z</time></trkpt><trkpt lat="44.97673985416543" lon="9.541666753188178"><ele>108.0</ele><time>2026-04-02T14:12:32.989Z</time></trkpt><trkpt lat="44.976804276223056" lon="9.541715774780167"><ele>108.0</ele><time>2026-04-02T14:12:33.989Z</time></trkpt><trkpt lat="44.97686906418367" lon="9.541761577704246"><ele>108.0</ele><time>2026-04-02T14:12:34.989Z</time></trkpt><trkpt lat="44.97693423573245" lon="9.541813141548712"><ele>108.0</ele><time>2026-04-02T14:12:35.989Z</time></trkpt><trkpt lat="44.976997156678756" lon="9.541865910985674"><ele>108.0</ele><time>2026-04-02T14:12:36.989Z</time></trkpt><trkpt lat="44.97705664247553" lon="9.541916505937412"><ele>108.0</ele><time>2026-04-02T14:12:37.989Z</time></trkpt><trkpt lat="44.97712134911839" lon="9.541967319345428"><ele>108.0</ele><time>2026-04-02T14:12:38.989Z</time></trkpt><trkpt lat="44.97718559394218" lon="9.542012484815242"><ele>108.0</ele><time>2026-04-02T14:12:39.989Z</time></trkpt><trkpt lat="44.97725028030939" lon="9.542064601452514"><ele>108.0</ele><time>2026-04-02T14:12:40.989Z</time></trkpt><trkpt lat="44.97731281979739" lon="9.542118219209476"><ele>108.0</ele><time>2026-04-02T14:12:41.989Z</time></trkpt><trkpt lat="44.97737496154959" lon="9.5421664376475"><ele>108.0</ele><time>2026-04-02T14:12:42.989Z</time></trkpt><trkpt lat="44.97743710491019" lon="9.542215441174333"><ele>108.0</ele><time>2026-04-02T14:12:43.989Z</time></trkpt><trkpt lat="44.97750045374882" lon="9.542269549788603"><ele>108.0</ele><time>2026-04-02T14:12:44.989Z</time></trkpt><trkpt lat="44.97756426696242" lon="9.542318285227841"><ele>108.0</ele><time>2026-04-02T14:12:45.989Z</time></trkpt><trkpt lat="44.97762798846031" lon="9.54236546036683"><ele>108.0</ele><time>2026-04-02T14:12:46.989Z</time></trkpt><trkpt lat="44.977689477690134" lon="9.542418749675692"><ele>107.85714285714286</ele><time>2026-04-02T14:12:47.989Z</time></trkpt><trkpt lat="44.97775077687379" lon="9.542467547473423"><ele>107.71428571428571</ele><time>2026-04-02T14:12:48.99Z</time></trkpt><trkpt lat="44.97780897596286" lon="9.542514763016788"><ele>107.57142857142858</ele><time>2026-04-02T14:12:49.989Z</time></trkpt><trkpt lat="44.97787714256386" lon="9.542563302016724"><ele>107.42857142857143</ele><time>2026-04-02T14:12:50.989Z</time></trkpt><trkpt lat="44.97794198955696" lon="9.542603242997446"><ele>107.28571428571429</ele><time>2026-04-02T14:12:51.99Z</time></trkpt><trkpt lat="44.978001414217964" lon="9.5426451306728"><ele>107.14285714285715</ele><time>2026-04-02T14:12:52.99Z</time></trkpt><trkpt lat="44.97806401434137" lon="9.542680247837295"><ele>107.0</ele><time>2026-04-02T14:12:53.99Z</time></trkpt><trkpt lat="44.97813329115348" lon="9.542725644067053"><ele>107.00000000000001</ele><time>2026-04-02T14:12:54.989Z</time></trkpt><trkpt lat="44.97819986717062" lon="9.542754226848098"><ele>107.0</ele><time>2026-04-02T14:12:55.989Z</time></trkpt><trkpt lat="44.97826605559728" lon="9.542784817592171"><ele>107.0</ele><time>2026-04-02T14:12:56.989Z</time></trkpt><trkpt lat="44.97833467220242" lon="9.54280921578041"><ele>107.0</ele><time>2026-04-02T14:12:57.99Z</time></trkpt><trkpt lat="44.97840082232916" lon="9.542833254098909"><ele>107.0</ele><time>2026-04-02T14:12:58.989Z</time></trkpt><trkpt lat="44.97846994846028" lon="9.542860349510367"><ele>107.00000000000001</ele><time>2026-04-02T14:12:59.989Z</time></trkpt><trkpt lat="44.978534090519666" lon="9.542883008853748"><ele>107.0</ele><time>2026-04-02T14:13:00.989Z</time></trkpt><trkpt lat="44.97860497565007" lon="9.54290189557169"><ele>107.00000000000001</ele><time>2026-04-02T14:13:01.989Z</time></trkpt><trkpt lat="44.97867071815236" lon="9.54291898829725"><ele>107.0</ele><time>2026-04-02T14:13:02.989Z</time></trkpt><trkpt lat="44.978739355402546" lon="9.542930117526296"><ele>107.0</ele><time>2026-04-02T14:13:03.989Z</time></trkpt><trkpt lat="44.97881112791448" lon="9.542944227045773"><ele>107.0</ele><time>2026-04-02T14:13:04.989Z</time></trkpt><trkpt lat="44.97888380767674" lon="9.542954414847713"><ele>107.0</ele><time>2026-04-02T14:13:05.989Z</time></trkpt><trkpt lat="44.97895280301037" lon="9.542969687926131"><ele>107.00000000000001</ele><time>2026-04-02T14:13:06.989Z</time></trkpt><trkpt lat="44.979025349648964" lon="9.542981878765636"><ele>107.0</ele><time>2026-04-02T14:13:07.989Z</time></trkpt><trkpt lat="44.97909458799986" lon="9.542996800418113"><ele>107.00000000000001</ele><time>2026-04-02T14:13:08.989Z</time></trkpt><trkpt lat="44.979161612332945" lon="9.543008828852422"><ele>107.0</ele><time>2026-04-02T14:13:09.989Z</time></trkpt><trkpt lat="44.979236396443675" lon="9.543029151202758"><ele>107.0</ele><time>2026-04-02T14:13:10.989Z</time></trkpt><trkpt lat="44.9793059916248" lon="9.543037641985675"><ele>107.0</ele><time>2026-04-02T14:13:11.989Z</time></trkpt><trkpt lat="44.979377747090545" lon="9.543044153396258"><ele>107.0</ele><time>2026-04-02T14:13:12.989Z</time></trkpt><trkpt lat="44.979447346896485" lon="9.543056655627574"><ele>107.00000000000001</ele><time>2026-04-02T14:13:13.989Z</time></trkpt><trkpt lat="44.97952319708423" lon="9.543075310529062"><ele>107.0</ele><time>2026-04-02T14:13:14.989Z</time></trkpt><trkpt lat="44.979592453923644" lon="9.543092271656624"><ele>106.85714285714286</ele><time>2026-04-02T14:13:15.989Z</time></trkpt><trkpt lat="44.97966758962914" lon="9.54310603063237"><ele>106.71428571428572</ele><time>2026-04-02T14:13:16.989Z</time></trkpt><trkpt lat="44.979741809398305" lon="9.543113804591897"><ele>106.57142857142858</ele><time>2026-04-02T14:13:17.989Z</time></trkpt><trkpt lat="44.97981469249243" lon="9.543130857511763"><ele>106.42857142857143</ele><time>2026-04-02T14:13:18.989Z</time></trkpt><trkpt lat="44.97988823978295" lon="9.543145538174507"><ele>106.28571428571428</ele><time>2026-04-02T14:13:19.989Z</time></trkpt><trkpt lat="44.97996114037665" lon="9.543159050812662"><ele>106.14285714285715</ele><time>2026-04-02T14:13:20.989Z</time></trkpt><trkpt lat="44.98003304594218" lon="9.543177000418178"><ele>106.0</ele><time>2026-04-02T14:13:21.989Z</time></trkpt><trkpt lat="44.98010371910929" lon="9.543192025756007"><ele>105.83333333333334</ele><time>2026-04-02T14:13:22.989Z</time></trkpt><trkpt lat="44.98017684326489" lon="9.543207826488615"><ele>105.66666666666667</ele><time>2026-04-02T14:13:23.989Z</time></trkpt><trkpt lat="44.98025204990016" lon="9.543219842322921"><ele>105.5</ele><time>2026-04-02T14:13:24.989Z</time></trkpt><trkpt lat="44.98032461165203" lon="9.543235026664895"><ele>105.33333333333334</ele><time>2026-04-02T14:13:25.989Z</time></trkpt><trkpt lat="44.980398746178224" lon="9.543246162133164"><ele>105.16666666666667</ele><time>2026-04-02T14:13:26.989Z</time></trkpt><trkpt lat="44.9804710947914" lon="9.54326825744457"><ele>105.0</ele><time>2026-04-02T14:13:27.989Z</time></trkpt><trkpt lat="44.98054841419243" lon="9.543288346855299"><ele>105.0</ele><time>2026-04-02T14:13:28.989Z</time></trkpt><trkpt lat="44.980620383794125" lon="9.543307121211217"><ele>105.0</ele><time>2026-04-02T14:13:29.989Z</time></trkpt><trkpt lat="44.980694798146665" lon="9.543320866257227"><ele>105.0</ele><time>2026-04-02T14:13:30.989Z</time></trkpt><trkpt lat="44.980766977462565" lon="9.54334551688272"><ele>105.0</ele><time>2026-04-02T14:13:31.989Z</time></trkpt><trkpt lat="44.980844087819506" lon="9.54337405176357"><ele>105.0</ele><time>2026-04-02T14:13:32.989Z</time></trkpt><trkpt lat="44.98091947727584" lon="9.54339463033764"><ele>105.0</ele><time>2026-04-02T14:13:33.989Z</time></trkpt><trkpt lat="44.98099604881352" lon="9.54341426475328"><ele>105.0</ele><time>2026-04-02T14:13:34.989Z</time></trkpt><trkpt lat="44.98107546140432" lon="9.543427967717879"><ele>105.0</ele><time>2026-04-02T14:13:35.989Z</time></trkpt><trkpt lat="44.98114868782394" lon="9.543458415158113"><ele>105.0</ele><time>2026-04-02T14:13:36.989Z</time></trkpt><trkpt lat="44.98122087889901" lon="9.543487427218317"><ele>105.0</ele><time>2026-04-02T14:13:37.989Z</time></trkpt><trkpt lat="44.98129757020689" lon="9.543523515864107"><ele>105.0</ele><time>2026-04-02T14:13:38.989Z</time></trkpt><trkpt lat="44.981371346425796" lon="9.54355042871307"><ele>105.0</ele><time>2026-04-02T14:13:39.989Z</time></trkpt><trkpt lat="44.98144500456179" lon="9.543584451792798"><ele>105.0</ele><time>2026-04-02T14:13:40.989Z</time></trkpt><trkpt lat="44.981522602806706" lon="9.543617561364636"><ele>105.0</ele><time>2026-04-02T14:13:41.989Z</time></trkpt><trkpt lat="44.98159578857613" lon="9.543643595240468"><ele>105.0</ele><time>2026-04-02T14:13:42.989Z</time></trkpt><trkpt lat="44.98166640036086" lon="9.54367395671722"><ele>105.0</ele><time>2026-04-02T14:13:43.989Z</time></trkpt><trkpt lat="44.98174144025255" lon="9.54370142430263"><ele>105.0</ele><time>2026-04-02T14:13:44.989Z</time></trkpt><trkpt lat="44.981818076016886" lon="9.54373308080148"><ele>105.0</ele><time>2026-04-02T14:13:45.989Z</time></trkpt><trkpt lat="44.981890619274196" lon="9.543763490782055"><ele>104.66666666666667</ele><time>2026-04-02T14:13:46.989Z</time></trkpt><trkpt lat="44.98196555826293" lon="9.543793830978558"><ele>104.33333333333334</ele><time>2026-04-02T14:13:47.989Z</time></trkpt><trkpt lat="44.982044637842755" lon="9.54382924356409"><ele>104.0</ele><time>2026-04-02T14:13:48.989Z</time></trkpt><trkpt lat="44.98212092991322" lon="9.543853629755978"><ele>103.66666666666667</ele><time>2026-04-02T14:13:49.989Z</time></trkpt><trkpt lat="44.98219336429286" lon="9.543887619506146"><ele>103.33333333333334</ele><time>2026-04-02T14:13:50.989Z</time></trkpt><trkpt lat="44.982266946827835" lon="9.54391404134937"><ele>103.0</ele><time>2026-04-02T14:13:51.989Z</time></trkpt><trkpt lat="44.98234155973563" lon="9.543942836225572"><ele>103.00000000000001</ele><time>2026-04-02T14:13:52.989Z</time></trkpt><trkpt lat="44.9824190868711" lon="9.543970727287938"><ele>103.0</ele><time>2026-04-02T14:13:53.989Z</time></trkpt><trkpt lat="44.98249332494375" lon="9.543997715025625"><ele>103.0</ele><time>2026-04-02T14:13:54.989Z</time></trkpt><trkpt lat="44.98256434255756" lon="9.544029317773061"><ele>103.0</ele><time>2026-04-02T14:13:55.989Z</time></trkpt><trkpt lat="44.98263601946547" lon="9.544059024543552"><ele>103.00000000000001</ele><time>2026-04-02T14:13:56.989Z</time></trkpt><trkpt lat="44.982708816672016" lon="9.544084109701444"><ele>103.0</ele><time>2026-04-02T14:13:57.989Z</time></trkpt><trkpt lat="44.98277612828761" lon="9.54410654181563"><ele>102.83333333333334</ele><time>2026-04-02T14:13:58.989Z</time></trkpt><trkpt lat="44.982842204035876" lon="9.54413281384141"><ele>102.66666666666667</ele><time>2026-04-02T14:13:59.989Z</time></trkpt><trkpt lat="44.98291010836088" lon="9.544160864755824"><ele>102.5</ele><time>2026-04-02T14:14:00.989Z</time></trkpt><trkpt lat="44.98297578638656" lon="9.544187443386933"><ele>102.33333333333334</ele><time>2026-04-02T14:14:01.989Z</time></trkpt><trkpt lat="44.98303930991629" lon="9.544214668737519"><ele>102.16666666666667</ele><time>2026-04-02T14:14:02.989Z</time></trkpt><trkpt lat="44.98310192848586" lon="9.544235669758585"><ele>102.0</ele><time>2026-04-02T14:14:03.989Z</time></trkpt><trkpt lat="44.98321995075903" lon="9.54428919045643"><ele>102.0</ele><time>2026-04-02T14:14:05.989Z</time></trkpt><trkpt lat="44.98333407939794" lon="9.544338129382933"><ele>102.0</ele><time>2026-04-02T14:14:07.989Z</time></trkpt><trkpt lat="44.98344497725075" lon="9.54437300967559"><ele>102.0</ele><time>2026-04-02T14:14:09.989Z</time></trkpt><trkpt lat="44.98355538195868" lon="9.544423905243383"><ele>102.0</ele><time>2026-04-02T14:14:11.989Z</time></trkpt><trkpt lat="44.98366106287761" lon="9.544458168636208"><ele>101.83333333333333</ele><time>2026-04-02T14:14:13.989Z</time></trkpt><trkpt lat="44.983767790454266" lon="9.544491719412537"><ele>101.66666666666666</ele><time>2026-04-02T14:14:15.989Z</time></trkpt><trkpt lat="44.983889466098894" lon="9.544509544622814"><ele>101.5</ele><time>2026-04-02T14:14:17.989Z</time></trkpt><trkpt lat="44.98395685041701" lon="9.544499275562854"><ele>101.33333333333333</ele><time>2026-04-02T14:14:18.989Z</time></trkpt><trkpt lat="44.984028202489746" lon="9.544484919016005"><ele>101.16666666666666</ele><time>2026-04-02T14:14:19.989Z</time></trkpt><trkpt lat="44.9840957164601" lon="9.54447548820898"><ele>101.0</ele><time>2026-04-02T14:14:20.989Z</time></trkpt><trkpt lat="44.98416058175475" lon="9.544459179658288"><ele>100.71428571428571</ele><time>2026-04-02T14:14:21.989Z</time></trkpt><trkpt lat="44.98422475284294" lon="9.544438503140437"><ele>100.42857142857142</ele><time>2026-04-02T14:14:22.989Z</time></trkpt><trkpt lat="44.984294528741785" lon="9.544423819475657"><ele>100.14285714285714</ele><time>2026-04-02T14:14:23.989Z</time></trkpt><trkpt lat="44.98436289324108" lon="9.544399877723595"><ele>99.85714285714286</ele><time>2026-04-02T14:14:24.989Z</time></trkpt><trkpt lat="44.984432657558976" lon="9.54437840413855"><ele>99.57142857142857</ele><time>2026-04-02T14:14:25.989Z</time></trkpt><trkpt lat="44.98450108641823" lon="9.544352283664578"><ele>99.28571428571429</ele><time>2026-04-02T14:14:26.989Z</time></trkpt><trkpt lat="44.984572326391515" lon="9.544331649085413"><ele>99.0</ele><time>2026-04-02T14:14:27.989Z</time></trkpt><trkpt lat="44.984642147033966" lon="9.544304411677313"><ele>99.0</ele><time>2026-04-02T14:14:28.989Z</time></trkpt><trkpt lat="44.984710529575416" lon="9.544272873855375"><ele>99.0</ele><time>2026-04-02T14:14:29.989Z</time></trkpt><trkpt lat="44.9847823378004" lon="9.544252748245881"><ele>99.0</ele><time>2026-04-02T14:14:30.989Z</time></trkpt><trkpt lat="44.98485294948625" lon="9.544235257089781"><ele>99.0</ele><time>2026-04-02T14:14:31.989Z</time></trkpt><trkpt lat="44.984928843329925" lon="9.544205174060576"><ele>99.0</ele><time>2026-04-02T14:14:32.989Z</time></trkpt><trkpt lat="44.98499740767416" lon="9.544176427451253"><ele>99.0</ele><time>2026-04-02T14:14:33.989Z</time></trkpt><trkpt lat="44.9850686746806" lon="9.544158907108688"><ele>99.0</ele><time>2026-04-02T14:14:34.989Z</time></trkpt><trkpt lat="44.985141658258414" lon="9.544132415815822"><ele>99.14285714285715</ele><time>2026-04-02T14:14:35.989Z</time></trkpt><trkpt lat="44.98521213157443" lon="9.544110203898722"><ele>99.28571428571428</ele><time>2026-04-02T14:14:36.989Z</time></trkpt><trkpt lat="44.98528410481837" lon="9.544094095613842"><ele>99.42857142857143</ele><time>2026-04-02T14:14:37.989Z</time></trkpt><trkpt lat="44.98535539758167" lon="9.544074413594494"><ele>99.57142857142858</ele><time>2026-04-02T14:14:38.989Z</time></trkpt><trkpt lat="44.98542906864793" lon="9.544046070068385"><ele>99.71428571428572</ele><time>2026-04-02T14:14:39.989Z</time></trkpt><trkpt lat="44.98549861418241" lon="9.54402222362902"><ele>99.85714285714286</ele><time>2026-04-02T14:14:40.989Z</time></trkpt><trkpt lat="44.98557342937771" lon="9.544002209049975"><ele>100.0</ele><time>2026-04-02T14:14:41.989Z</time></trkpt><trkpt lat="44.98564421558378" lon="9.54397705205304"><ele>100.00000000000001</ele><time>2026-04-02T14:14:42.989Z</time></trkpt><trkpt lat="44.98571749563512" lon="9.543954951498963"><ele>100.0</ele><time>2026-04-02T14:14:43.989Z</time></trkpt><trkpt lat="44.985789210118746" lon="9.543930640980067"><ele>100.0</ele><time>2026-04-02T14:14:44.989Z</time></trkpt><trkpt lat="44.98586561073715" lon="9.543917626326222"><ele>100.0</ele><time>2026-04-02T14:14:45.989Z</time></trkpt><trkpt lat="44.98593560331968" lon="9.543891473970497"><ele>100.0</ele><time>2026-04-02T14:14:46.989Z</time></trkpt><trkpt lat="44.98600473617187" lon="9.543867585633373"><ele>100.00000000000001</ele><time>2026-04-02T14:14:47.989Z</time></trkpt><trkpt lat="44.986075956180734" lon="9.543848452629474"><ele>100.0</ele><time>2026-04-02T14:14:48.989Z</time></trkpt><trkpt lat="44.986147251526766" lon="9.543822613915765"><ele>100.00000000000001</ele><time>2026-04-02T14:14:49.989Z</time></trkpt><trkpt lat="44.98621991330799" lon="9.543802705621035"><ele>100.0</ele><time>2026-04-02T14:14:50.989Z</time></trkpt><trkpt lat="44.98629128070292" lon="9.543781083544582"><ele>100.0</ele><time>2026-04-02T14:14:51.989Z</time></trkpt><trkpt lat="44.986363613601476" lon="9.543757111559007"><ele>100.0</ele><time>2026-04-02T14:14:52.989Z</time></trkpt><trkpt lat="44.986430553947244" lon="9.543740550835228"><ele>100.0</ele><time>2026-04-02T14:14:53.989Z</time></trkpt><trkpt lat="44.98650456101264" lon="9.5437188457438"><ele>100.00000000000001</ele><time>2026-04-02T14:14:54.989Z</time></trkpt><trkpt lat="44.98657393332842" lon="9.543692279678405"><ele>100.0</ele><time>2026-04-02T14:14:55.99Z</time></trkpt><trkpt lat="44.98664665136024" lon="9.54366681574865"><ele>99.85714285714286</ele><time>2026-04-02T14:14:56.99Z</time></trkpt><trkpt lat="44.986716501422514" lon="9.543645824662287"><ele>99.71428571428572</ele><time>2026-04-02T14:14:57.989Z</time></trkpt><trkpt lat="44.98678832538536" lon="9.543625446209937"><ele>99.57142857142858</ele><time>2026-04-02T14:14:58.989Z</time></trkpt><trkpt lat="44.98686097033208" lon="9.543603632571022"><ele>99.42857142857143</ele><time>2026-04-02T14:14:59.989Z</time></trkpt><trkpt lat="44.986929845553284" lon="9.543585215881178"><ele>99.28571428571428</ele><time>2026-04-02T14:15:00.989Z</time></trkpt><trkpt lat="44.98699594823838" lon="9.543556418347922"><ele>99.14285714285715</ele><time>2026-04-02T14:15:01.989Z</time></trkpt><trkpt lat="44.98706518216757" lon="9.543522484831177"><ele>99.0</ele><time>2026-04-02T14:15:02.989Z</time></trkpt><trkpt lat="44.98713924482794" lon="9.543507194812477"><ele>99.0</ele><time>2026-04-02T14:15:03.989Z</time></trkpt><trkpt lat="44.98721204852057" lon="9.54349499607188"><ele>99.0</ele><time>2026-04-02T14:15:04.989Z</time></trkpt><trkpt lat="44.98728277196219" lon="9.543480183265803"><ele>99.0</ele><time>2026-04-02T14:15:05.989Z</time></trkpt><trkpt lat="44.98735395293912" lon="9.543459417474159"><ele>99.0</ele><time>2026-04-02T14:15:06.989Z</time></trkpt><trkpt lat="44.98742900791646" lon="9.543439088714337"><ele>99.0</ele><time>2026-04-02T14:15:07.989Z</time></trkpt><trkpt lat="44.98749633035223" lon="9.54341972058021"><ele>99.0</ele><time>2026-04-02T14:15:08.989Z</time></trkpt><trkpt lat="44.98756695598681" lon="9.543401826527035"><ele>99.0</ele><time>2026-04-02T14:15:09.989Z</time></trkpt><trkpt lat="44.987636947732184" lon="9.543386327928594"><ele>98.71428571428572</ele><time>2026-04-02T14:15:10.989Z</time></trkpt><trkpt lat="44.98770904308658" lon="9.54337325976774"><ele>98.42857142857142</ele><time>2026-04-02T14:15:11.989Z</time></trkpt><trkpt lat="44.98777793123662" lon="9.54335266295054"><ele>98.14285714285714</ele><time>2026-04-02T14:15:12.989Z</time></trkpt><trkpt lat="44.98784502648031" lon="9.543329406020703"><ele>97.85714285714286</ele><time>2026-04-02T14:15:13.989Z</time></trkpt><trkpt lat="44.98791680839687" lon="9.543306037932505"><ele>97.57142857142858</ele><time>2026-04-02T14:15:14.989Z</time></trkpt><trkpt lat="44.98798894295175" lon="9.543284921540689"><ele>97.28571428571428</ele><time>2026-04-02T14:15:15.989Z</time></trkpt><trkpt lat="44.98805972212824" lon="9.543264823788185"><ele>97.0</ele><time>2026-04-02T14:15:16.989Z</time></trkpt><trkpt lat="44.98813140862426" lon="9.543241432073847"><ele>97.00000000000001</ele><time>2026-04-02T14:15:17.989Z</time></trkpt><trkpt lat="44.98820669852627" lon="9.543218322333875"><ele>97.0</ele><time>2026-04-02T14:15:18.989Z</time></trkpt><trkpt lat="44.9882782748184" lon="9.543192694596472"><ele>97.0</ele><time>2026-04-02T14:15:19.989Z</time></trkpt><trkpt lat="44.98835529112357" lon="9.543172644831099"><ele>97.0</ele><time>2026-04-02T14:15:20.989Z</time></trkpt><trkpt lat="44.98842863726416" lon="9.543156967848601"><ele>97.00000000000001</ele><time>2026-04-02T14:15:21.989Z</time></trkpt><trkpt lat="44.988500986481924" lon="9.543131594638364"><ele>97.0</ele><time>2026-04-02T14:15:22.989Z</time></trkpt><trkpt lat="44.98857548583187" lon="9.543106190639733"><ele>97.16666666666667</ele><time>2026-04-02T14:15:23.989Z</time></trkpt><trkpt lat="44.98864918385758" lon="9.543080256792669"><ele>97.33333333333334</ele><time>2026-04-02T14:15:24.989Z</time></trkpt><trkpt lat="44.98872237173245" lon="9.543055052205592"><ele>97.5</ele><time>2026-04-02T14:15:25.989Z</time></trkpt><trkpt lat="44.988799503387916" lon="9.543035238598945"><ele>97.66666666666666</ele><time>2026-04-02T14:15:26.989Z</time></trkpt><trkpt lat="44.98887258657631" lon="9.543018600960629"><ele>97.83333333333333</ele><time>2026-04-02T14:15:27.989Z</time></trkpt><trkpt lat="44.988947340965154" lon="9.543001269749166"><ele>98.0</ele><time>2026-04-02T14:15:28.989Z</time></trkpt><trkpt lat="44.989022022388745" lon="9.542978631592758"><ele>98.0</ele><time>2026-04-02T14:15:29.989Z</time></trkpt><trkpt lat="44.98908924312613" lon="9.542950809165117"><ele>98.0</ele><time>2026-04-02T14:15:30.989Z</time></trkpt><trkpt lat="44.98915961156106" lon="9.542926441835771"><ele>98.0</ele><time>2026-04-02T14:15:31.989Z</time></trkpt><trkpt lat="44.98922770126645" lon="9.54291199114456"><ele>98.0</ele><time>2026-04-02T14:15:32.989Z</time></trkpt><trkpt lat="44.98929352618471" lon="9.542891517646455"><ele>98.0</ele><time>2026-04-02T14:15:33.989Z</time></trkpt><trkpt lat="44.989364621263014" lon="9.542881653574872"><ele>98.0</ele><time>2026-04-02T14:15:34.989Z</time></trkpt><trkpt lat="44.98943002813785" lon="9.54287576954878"><ele>98.0</ele><time>2026-04-02T14:15:35.989Z</time></trkpt><trkpt lat="44.989497800430556" lon="9.542879215581086"><ele>98.2</ele><time>2026-04-02T14:15:36.989Z</time></trkpt><trkpt lat="44.98956163905741" lon="9.542893661392428"><ele>98.4</ele><time>2026-04-02T14:15:37.989Z</time></trkpt><trkpt lat="44.98968671740982" lon="9.542919153125695"><ele>98.60000000000001</ele><time>2026-04-02T14:15:39.989Z</time></trkpt><trkpt lat="44.98975261068968" lon="9.542940310867158"><ele>98.80000000000001</ele><time>2026-04-02T14:15:40.989Z</time></trkpt><trkpt lat="44.98989130266861" lon="9.543006765848014"><ele>99.0</ele><time>2026-04-02T14:15:42.989Z</time></trkpt><trkpt lat="44.989960331915555" lon="9.543060588195292"><ele>98.83333333333333</ele><time>2026-04-02T14:15:43.989Z</time></trkpt><trkpt lat="44.990033992863495" lon="9.543104527461837"><ele>98.66666666666666</ele><time>2026-04-02T14:15:44.989Z</time></trkpt><trkpt lat="44.990107192623654" lon="9.543139998068133"><ele>98.5</ele><time>2026-04-02T14:15:45.989Z</time></trkpt><trkpt lat="44.99017736071306" lon="9.543174963364223"><ele>98.33333333333333</ele><time>2026-04-02T14:15:46.989Z</time></trkpt><trkpt lat="44.99024309047282" lon="9.543205758395928"><ele>98.16666666666666</ele><time>2026-04-02T14:15:47.989Z</time></trkpt><trkpt lat="44.99031490698534" lon="9.543245572614063"><ele>98.0</ele><time>2026-04-02T14:15:48.989Z</time></trkpt><trkpt lat="44.99038432643279" lon="9.543285984261878"><ele>98.0</ele><time>2026-04-02T14:15:49.989Z</time></trkpt><trkpt lat="44.99045487489752" lon="9.543322256391548"><ele>98.0</ele><time>2026-04-02T14:15:50.989Z</time></trkpt><trkpt lat="44.99052163719192" lon="9.543358964428789"><ele>98.0</ele><time>2026-04-02T14:15:51.989Z</time></trkpt><trkpt lat="44.99059091167322" lon="9.543388790712052"><ele>98.0</ele><time>2026-04-02T14:15:52.989Z</time></trkpt><trkpt lat="44.990658665865915" lon="9.543433349376263"><ele>98.0</ele><time>2026-04-02T14:15:53.989Z</time></trkpt><trkpt lat="44.99072566240817" lon="9.54346550650191"><ele>98.0</ele><time>2026-04-02T14:15:54.989Z</time></trkpt><trkpt lat="44.990792976592004" lon="9.543492425342546"><ele>98.0</ele><time>2026-04-02T14:15:55.989Z</time></trkpt><trkpt lat="44.990859561239255" lon="9.543535870549965"><ele>97.42857142857143</ele><time>2026-04-02T14:15:56.989Z</time></trkpt><trkpt lat="44.99092354911286" lon="9.543575166231657"><ele>96.85714285714286</ele><time>2026-04-02T14:15:57.989Z</time></trkpt><trkpt lat="44.99099280357167" lon="9.543617618842752"><ele>96.28571428571428</ele><time>2026-04-02T14:15:58.989Z</time></trkpt><trkpt lat="44.99106064226033" lon="9.54365435881043"><ele>95.71428571428572</ele><time>2026-04-02T14:15:59.989Z</time></trkpt><trkpt lat="44.99113033835904" lon="9.543691586645116"><ele>95.14285714285714</ele><time>2026-04-02T14:16:00.989Z</time></trkpt><trkpt lat="44.991197755895584" lon="9.54373310539624"><ele>94.57142857142857</ele><time>2026-04-02T14:16:01.989Z</time></trkpt><trkpt lat="44.99126538207402" lon="9.543768997184081"><ele>94.0</ele><time>2026-04-02T14:16:02.989Z</time></trkpt><trkpt lat="44.9913353746259" lon="9.54380600069614"><ele>94.0</ele><time>2026-04-02T14:16:03.989Z</time></trkpt><trkpt lat="44.99141088605517" lon="9.543847186636201"><ele>94.0</ele><time>2026-04-02T14:16:04.989Z</time></trkpt><trkpt lat="44.99148197124539" lon="9.543882965770635"><ele>94.0</ele><time>2026-04-02T14:16:05.989Z</time></trkpt><trkpt lat="44.99154812079387" lon="9.543916044623982"><ele>94.0</ele><time>2026-04-02T14:16:06.989Z</time></trkpt><trkpt lat="44.99161618890711" lon="9.54396340269441"><ele>94.0</ele><time>2026-04-02T14:16:07.989Z</time></trkpt><trkpt lat="44.99168447795793" lon="9.544006112634083"><ele>94.0</ele><time>2026-04-02T14:16:08.989Z</time></trkpt><trkpt lat="44.99175165082285" lon="9.544052322864632"><ele>94.28571428571428</ele><time>2026-04-02T14:16:09.989Z</time></trkpt><trkpt lat="44.991816082015255" lon="9.544089168538987"><ele>94.57142857142857</ele><time>2026-04-02T14:16:10.989Z</time></trkpt><trkpt lat="44.99188214161416" lon="9.54412308479985"><ele>94.85714285714286</ele><time>2026-04-02T14:16:11.989Z</time></trkpt><trkpt lat="44.991949928486214" lon="9.54416079661995"><ele>95.14285714285714</ele><time>2026-04-02T14:16:12.988Z</time></trkpt><trkpt lat="44.99201704379484" lon="9.544198097419535"><ele>95.42857142857143</ele><time>2026-04-02T14:16:13.988Z</time></trkpt><trkpt lat="44.992085498926976" lon="9.54424073189413"><ele>95.71428571428571</ele><time>2026-04-02T14:16:14.988Z</time></trkpt><trkpt lat="44.992149455844945" lon="9.544283062743578"><ele>96.0</ele><time>2026-04-02T14:16:15.988Z</time></trkpt><trkpt lat="44.99221738442516" lon="9.54431860647341"><ele>95.99999999999999</ele><time>2026-04-02T14:16:16.988Z</time></trkpt><trkpt lat="44.99228301276374" lon="9.544355304430228"><ele>96.0</ele><time>2026-04-02T14:16:17.988Z</time></trkpt><trkpt lat="44.992348141344635" lon="9.544392201092545"><ele>96.0</ele><time>2026-04-02T14:16:18.988Z</time></trkpt><trkpt lat="44.99241474979632" lon="9.54443181607216"><ele>96.0</ele><time>2026-04-02T14:16:19.988Z</time></trkpt><trkpt lat="44.99247806718375" lon="9.54446627812045"><ele>96.0</ele><time>2026-04-02T14:16:20.988Z</time></trkpt><trkpt lat="44.99254142562737" lon="9.544498213781678"><ele>95.99999999999999</ele><time>2026-04-02T14:16:21.988Z</time></trkpt><trkpt lat="44.99260723456426" lon="9.544528816834024"><ele>96.0</ele><time>2026-04-02T14:16:22.988Z</time></trkpt><trkpt lat="44.992671461071346" lon="9.544567595953007"><ele>96.19999999999999</ele><time>2026-04-02T14:16:23.988Z</time></trkpt><trkpt lat="44.992734199098464" lon="9.544605005890608"><ele>96.39999999999999</ele><time>2026-04-02T14:16:24.988Z</time></trkpt><trkpt lat="44.992793516576555" lon="9.544640340617493"><ele>96.6</ele><time>2026-04-02T14:16:25.988Z</time></trkpt><trkpt lat="44.99291182652615" lon="9.544702482074783"><ele>96.8</ele><time>2026-04-02T14:16:27.988Z</time></trkpt><trkpt lat="44.99301937074955" lon="9.544767311996228"><ele>97.0</ele><time>2026-04-02T14:16:29.988Z</time></trkpt><trkpt lat="44.99311504049797" lon="9.544844802286871"><ele>97.0</ele><time>2026-04-02T14:16:31.988Z</time></trkpt><trkpt lat="44.99320680425353" lon="9.544917931367213"><ele>97.0</ele><time>2026-04-02T14:16:33.988Z</time></trkpt><trkpt lat="44.993283965813454" lon="9.544988651849296"><ele>97.0</ele><time>2026-04-02T14:16:35.988Z</time></trkpt><trkpt lat="44.993369169329014" lon="9.545071534408391"><ele>97.0</ele><time>2026-04-02T14:16:37.988Z</time></trkpt><trkpt lat="44.99345944879315" lon="9.545170319936945"><ele>97.0</ele><time>2026-04-02T14:16:39.988Z</time></trkpt><trkpt lat="44.99355686414347" lon="9.545261523020251"><ele>96.25</ele><time>2026-04-02T14:16:41.988Z</time></trkpt><trkpt lat="44.99365449780683" lon="9.545351485521048"><ele>95.5</ele><time>2026-04-02T14:16:43.988Z</time></trkpt><trkpt lat="44.993756050931154" lon="9.545438739660046"><ele>94.75</ele><time>2026-04-02T14:16:45.988Z</time></trkpt><trkpt lat="44.9938483823732" lon="9.545534505727792"><ele>94.0</ele><time>2026-04-02T14:16:47.988Z</time></trkpt><trkpt lat="44.993954307926" lon="9.545632153541778"><ele>93.80000000000001</ele><time>2026-04-02T14:16:49.988Z</time></trkpt><trkpt lat="44.99405701968215" lon="9.54573293392992"><ele>93.60000000000001</ele><time>2026-04-02T14:16:51.988Z</time></trkpt><trkpt lat="44.99415971869976" lon="9.545821933427673"><ele>93.4</ele><time>2026-04-02T14:16:53.988Z</time></trkpt><trkpt lat="44.99426156234378" lon="9.545916000350106"><ele>93.2</ele><time>2026-04-02T14:16:55.988Z</time></trkpt><trkpt lat="44.99431899398413" lon="9.545959017449944"><ele>93.0</ele><time>2026-04-02T14:16:56.988Z</time></trkpt><trkpt lat="44.99441339779175" lon="9.546050685934034"><ele>93.0</ele><time>2026-04-02T14:16:58.988Z</time></trkpt><trkpt lat="44.994518631873724" lon="9.546120038530601"><ele>93.0</ele><time>2026-04-02T14:17:00.989Z</time></trkpt><trkpt lat="44.99461520989747" lon="9.546165673187542"><ele>93.0</ele><time>2026-04-02T14:17:02.989Z</time></trkpt><trkpt lat="44.9947174862091" lon="9.546207647173706"><ele>93.0</ele><time>2026-04-02T14:17:04.989Z</time></trkpt><trkpt lat="44.99482152656847" lon="9.54623880474554"><ele>93.0</ele><time>2026-04-02T14:17:06.989Z</time></trkpt><trkpt lat="44.99493733952655" lon="9.546279156866646"><ele>92.5</ele><time>2026-04-02T14:17:08.989Z</time></trkpt><trkpt lat="44.99505302619806" lon="9.546311029844595"><ele>92.0</ele><time>2026-04-02T14:17:10.988Z</time></trkpt><trkpt lat="44.995171905655695" lon="9.546350517546442"><ele>91.5</ele><time>2026-04-02T14:17:12.989Z</time></trkpt><trkpt lat="44.99529241944278" lon="9.546384439961358"><ele>91.0</ele><time>2026-04-02T14:17:14.989Z</time></trkpt><trkpt lat="44.995405812481366" lon="9.546423532565049"><ele>91.0</ele><time>2026-04-02T14:17:16.989Z</time></trkpt><trkpt lat="44.9955237917124" lon="9.546461987334837"><ele>91.0</ele><time>2026-04-02T14:17:18.989Z</time></trkpt><trkpt lat="44.995638656641994" lon="9.546494707854094"><ele>91.0</ele><time>2026-04-02T14:17:20.989Z</time></trkpt><trkpt lat="44.99575170739381" lon="9.546529884866109"><ele>91.0</ele><time>2026-04-02T14:17:22.989Z</time></trkpt><trkpt lat="44.99586531568842" lon="9.546565756023712"><ele>91.19999999999999</ele><time>2026-04-02T14:17:24.989Z</time></trkpt><trkpt lat="44.995927548228856" lon="9.546583074320425"><ele>91.39999999999999</ele><time>2026-04-02T14:17:25.989Z</time></trkpt><trkpt lat="44.99604380650404" lon="9.54662043226766"><ele>91.6</ele><time>2026-04-02T14:17:27.989Z</time></trkpt><trkpt lat="44.99615164910483" lon="9.546649834167269"><ele>91.8</ele><time>2026-04-02T14:17:29.989Z</time></trkpt><trkpt lat="44.99625481098126" lon="9.546690234852305"><ele>92.0</ele><time>2026-04-02T14:17:31.989Z</time></trkpt><trkpt lat="44.996355960402376" lon="9.546704370684884"><ele>92.0</ele><time>2026-04-02T14:17:33.989Z</time></trkpt><trkpt lat="44.99645503516392" lon="9.546734154394214"><ele>92.0</ele><time>2026-04-02T14:17:35.989Z</time></trkpt><trkpt lat="44.99655002236238" lon="9.54677294545655"><ele>92.0</ele><time>2026-04-02T14:17:37.989Z</time></trkpt><trkpt lat="44.99665185202341" lon="9.546811217372328"><ele>92.0</ele><time>2026-04-02T14:17:39.989Z</time></trkpt><trkpt lat="44.99676309037259" lon="9.546842786642983"><ele>92.0</ele><time>2026-04-02T14:17:41.989Z</time></trkpt><trkpt lat="44.99687645368739" lon="9.546885484682134"><ele>92.6</ele><time>2026-04-02T14:17:43.989Z</time></trkpt><trkpt lat="44.99698395440664" lon="9.546910496250597"><ele>93.19999999999999</ele><time>2026-04-02T14:17:45.989Z</time></trkpt><trkpt lat="44.997098677736346" lon="9.546945392846562"><ele>93.8</ele><time>2026-04-02T14:17:47.989Z</time></trkpt><trkpt lat="44.99720381753904" lon="9.546959432910894"><ele>94.4</ele><time>2026-04-02T14:17:49.989Z</time></trkpt><trkpt lat="44.99731032435814" lon="9.546986058241735"><ele>95.0</ele><time>2026-04-02T14:17:51.989Z</time></trkpt><trkpt lat="44.99740982707888" lon="9.547039080591485"><ele>94.6</ele><time>2026-04-02T14:17:53.989Z</time></trkpt><trkpt lat="44.9974776544747" lon="9.547057613290079"><ele>94.2</ele><time>2026-04-02T14:17:54.989Z</time></trkpt><trkpt lat="44.99759895153886" lon="9.547093357291955"><ele>93.80000000000001</ele><time>2026-04-02T14:17:56.989Z</time></trkpt><trkpt lat="44.99770549793765" lon="9.547119033879081"><ele>93.4</ele><time>2026-04-02T14:17:58.989Z</time></trkpt><trkpt lat="44.99782344870736" lon="9.547112942036927"><ele>93.0</ele><time>2026-04-02T14:18:00.989Z</time></trkpt><trkpt lat="44.997947005570566" lon="9.547106710814438"><ele>92.80000000000001</ele><time>2026-04-02T14:18:02.989Z</time></trkpt><trkpt lat="44.9980605057304" lon="9.547075060121761"><ele>92.6</ele><time>2026-04-02T14:18:04.989Z</time></trkpt><trkpt lat="44.99816973176992" lon="9.547051748037116"><ele>92.4</ele><time>2026-04-02T14:18:06.989Z</time></trkpt><trkpt lat="44.99827119559737" lon="9.547030199145576"><ele>92.19999999999999</ele><time>2026-04-02T14:18:08.989Z</time></trkpt><trkpt lat="44.998379636441065" lon="9.547002630635616"><ele>92.0</ele><time>2026-04-02T14:18:10.989Z</time></trkpt><trkpt lat="44.998448381778104" lon="9.546993022867278"><ele>91.6</ele><time>2026-04-02T14:18:11.989Z</time></trkpt><trkpt lat="44.998513638962685" lon="9.546980532762907"><ele>91.19999999999999</ele><time>2026-04-02T14:18:12.989Z</time></trkpt><trkpt lat="44.99858759861966" lon="9.546969941168017"><ele>90.8</ele><time>2026-04-02T14:18:13.989Z</time></trkpt><trkpt lat="44.99871015466335" lon="9.546947744678517"><ele>90.4</ele><time>2026-04-02T14:18:15.989Z</time></trkpt><trkpt lat="44.99883714192022" lon="9.546933624482229"><ele>90.0</ele><time>2026-04-02T14:18:17.989Z</time></trkpt><trkpt lat="44.998952877379246" lon="9.546911497735485"><ele>90.0</ele><time>2026-04-02T14:18:19.989Z</time></trkpt><trkpt lat="44.99906734731784" lon="9.54688864157133"><ele>90.0</ele><time>2026-04-02T14:18:21.988Z</time></trkpt><trkpt lat="44.999182785383965" lon="9.546849144262094"><ele>90.0</ele><time>2026-04-02T14:18:23.988Z</time></trkpt><trkpt lat="44.99930594419685" lon="9.54682782269932"><ele>90.0</ele><time>2026-04-02T14:18:25.988Z</time></trkpt><trkpt lat="44.99942532288543" lon="9.546809371880915"><ele>90.0</ele><time>2026-04-02T14:18:27.988Z</time></trkpt><trkpt lat="44.999548600135284" lon="9.546798383626978"><ele>90.0</ele><time>2026-04-02T14:18:29.988Z</time></trkpt><trkpt lat="44.99961207326409" lon="9.54678912929178"><ele>90.0</ele><time>2026-04-02T14:18:30.988Z</time></trkpt><trkpt lat="44.99973722842624" lon="9.546767012041059"><ele>90.0</ele><time>2026-04-02T14:18:32.988Z</time></trkpt><trkpt lat="44.9998019870216" lon="9.546759281062974"><ele>90.0</ele><time>2026-04-02T14:18:33.988Z</time></trkpt><trkpt lat="44.999923901272524" lon="9.546741632251955"><ele>90.0</ele><time>2026-04-02T14:18:35.988Z</time></trkpt><trkpt lat="44.99998934038404" lon="9.546725826643826"><ele>90.0</ele><time>2026-04-02T14:18:36.988Z</time></trkpt><trkpt lat="45.00010985538769" lon="9.546704172858883"><ele>90.0</ele><time>2026-04-02T14:18:38.988Z</time></trkpt><trkpt lat="45.00017592705072" lon="9.546693381589645"><ele>90.0</ele><time>2026-04-02T14:18:39.988Z</time></trkpt><trkpt lat="45.00030163272886" lon="9.54667210211175"><ele>90.0</ele><time>2026-04-02T14:18:41.988Z</time></trkpt><trkpt lat="45.000363997106085" lon="9.546657068060805"><ele>90.0</ele><time>2026-04-02T14:18:42.988Z</time></trkpt><trkpt lat="45.00048885289447" lon="9.546640245611345"><ele>90.0</ele><time>2026-04-02T14:18:44.988Z</time></trkpt><trkpt lat="45.00055253781013" lon="9.546624832132737"><ele>90.0</ele><time>2026-04-02T14:18:45.988Z</time></trkpt><trkpt lat="45.00067271994594" lon="9.546597540661967"><ele>90.0</ele><time>2026-04-02T14:18:47.988Z</time></trkpt><trkpt lat="45.00079846946491" lon="9.546583002812197"><ele>90.0</ele><time>2026-04-02T14:18:49.988Z</time></trkpt><trkpt lat="45.000917976113364" lon="9.546558956744386"><ele>90.0</ele><time>2026-04-02T14:18:51.988Z</time></trkpt><trkpt lat="45.00103578511013" lon="9.546551629692901"><ele>89.75</ele><time>2026-04-02T14:18:53.988Z</time></trkpt><trkpt lat="45.001152761233364" lon="9.546537391236102"><ele>89.5</ele><time>2026-04-02T14:18:55.988Z</time></trkpt><trkpt lat="45.00126259633699" lon="9.546519860180085"><ele>89.25</ele><time>2026-04-02T14:18:57.988Z</time></trkpt><trkpt lat="45.00137969258527" lon="9.546508535878047"><ele>89.0</ele><time>2026-04-02T14:18:59.988Z</time></trkpt><trkpt lat="45.001486690263526" lon="9.546483147555229"><ele>89.0</ele><time>2026-04-02T14:19:01.988Z</time></trkpt><trkpt lat="45.00159696122326" lon="9.546460202203923"><ele>89.0</ele><time>2026-04-02T14:19:03.988Z</time></trkpt><trkpt lat="45.001706899514645" lon="9.54643468243856"><ele>89.0</ele><time>2026-04-02T14:19:05.988Z</time></trkpt><trkpt lat="45.00181162753081" lon="9.546411888817547"><ele>89.0</ele><time>2026-04-02T14:19:07.989Z</time></trkpt><trkpt lat="45.001909108585124" lon="9.546393722452008"><ele>89.0</ele><time>2026-04-02T14:19:09.989Z</time></trkpt><trkpt lat="45.00200550411377" lon="9.54637545045025"><ele>89.0</ele><time>2026-04-02T14:19:11.989Z</time></trkpt><trkpt lat="45.00210312848316" lon="9.546360007060638"><ele>89.0</ele><time>2026-04-02T14:19:13.989Z</time></trkpt><trkpt lat="45.00220578890423" lon="9.546338850069532"><ele>89.0</ele><time>2026-04-02T14:19:15.989Z</time></trkpt><trkpt lat="45.002306173560804" lon="9.546315227317075"><ele>89.0</ele><time>2026-04-02T14:19:17.988Z</time></trkpt><trkpt lat="45.00240645452122" lon="9.54629689787222"><ele>89.0</ele><time>2026-04-02T14:19:19.989Z</time></trkpt><trkpt lat="45.0025012260775" lon="9.54627611420031"><ele>88.5</ele><time>2026-04-02T14:19:21.989Z</time></trkpt><trkpt lat="45.00259670545116" lon="9.546265089601015"><ele>88.0</ele><time>2026-04-02T14:19:23.989Z</time></trkpt><trkpt lat="45.002692794201586" lon="9.54625560486562"><ele>87.5</ele><time>2026-04-02T14:19:25.989Z</time></trkpt><trkpt lat="45.002782295282294" lon="9.546241017356662"><ele>87.0</ele><time>2026-04-02T14:19:27.989Z</time></trkpt><trkpt lat="45.00286519821358" lon="9.546218162326866"><ele>86.5</ele><time>2026-04-02T14:19:29.989Z</time></trkpt><trkpt lat="45.00293729081499" lon="9.546199450618497"><ele>86.0</ele><time>2026-04-02T14:19:31.989Z</time></trkpt><trkpt lat="45.0030132168483" lon="9.546195292434362"><ele>86.0</ele><time>2026-04-02T14:19:34.989Z</time></trkpt><trkpt lat="45.00307061594571" lon="9.546234422098099"><ele>86.0</ele><time>2026-04-02T14:19:40.989Z</time></trkpt><trkpt lat="45.003161070050616" lon="9.546201157448493"><ele>86.0</ele><time>2026-04-02T14:19:43.989Z</time></trkpt><trkpt lat="45.003242135824934" lon="9.546189318113875"><ele>86.0</ele><time>2026-04-02T14:19:45.989Z</time></trkpt><trkpt lat="45.00333341203643" lon="9.54619294936325"><ele>86.0</ele><time>2026-04-02T14:19:47.989Z</time></trkpt><trkpt lat="45.00342545993367" lon="9.546194653495526"><ele>86.0</ele><time>2026-04-02T14:19:49.989Z</time></trkpt><trkpt lat="45.00352181737328" lon="9.546185746483147"><ele>85.75</ele><time>2026-04-02T14:19:51.989Z</time></trkpt><trkpt lat="45.003635261189466" lon="9.546193559564564"><ele>85.5</ele><time>2026-04-02T14:19:53.989Z</time></trkpt><trkpt lat="45.00374838565751" lon="9.546185668967398"><ele>85.25</ele><time>2026-04-02T14:19:55.989Z</time></trkpt><trkpt lat="45.00386345386526" lon="9.546189020738522"><ele>85.0</ele><time>2026-04-02T14:19:57.989Z</time></trkpt><trkpt lat="45.003985075391476" lon="9.546188941563916"><ele>85.0</ele><time>2026-04-02T14:19:59.989Z</time></trkpt><trkpt lat="45.004104870978686" lon="9.54618828102595"><ele>85.0</ele><time>2026-04-02T14:20:01.988Z</time></trkpt><trkpt lat="45.00422403089885" lon="9.54618518689842"><ele>85.0</ele><time>2026-04-02T14:20:03.988Z</time></trkpt><trkpt lat="45.00434566467766" lon="9.546179234265542"><ele>85.0</ele><time>2026-04-02T14:20:05.988Z</time></trkpt><trkpt lat="45.00446867873136" lon="9.546176554389472"><ele>84.5</ele><time>2026-04-02T14:20:07.988Z</time></trkpt><trkpt lat="45.00458928303332" lon="9.546172807087208"><ele>84.0</ele><time>2026-04-02T14:20:09.988Z</time></trkpt><trkpt lat="45.004704886779" lon="9.546172448603107"><ele>83.5</ele><time>2026-04-02T14:20:11.988Z</time></trkpt><trkpt lat="45.00482679636719" lon="9.54617617042932"><ele>83.0</ele><time>2026-04-02T14:20:13.988Z</time></trkpt><trkpt lat="45.00494824034382" lon="9.546174153583001"><ele>82.75</ele><time>2026-04-02T14:20:15.988Z</time></trkpt><trkpt lat="45.00506706706444" lon="9.546174595283228"><ele>82.5</ele><time>2026-04-02T14:20:17.988Z</time></trkpt><trkpt lat="45.00518736610886" lon="9.546174319705946"><ele>82.25</ele><time>2026-04-02T14:20:19.988Z</time></trkpt><trkpt lat="45.00530488403475" lon="9.546175645253905"><ele>82.0</ele><time>2026-04-02T14:20:21.988Z</time></trkpt><trkpt lat="45.00542654217277" lon="9.546172527609066"><ele>82.0</ele><time>2026-04-02T14:20:23.988Z</time></trkpt><trkpt lat="45.00554873767033" lon="9.546168622324027"><ele>82.0</ele><time>2026-04-02T14:20:25.988Z</time></trkpt><trkpt lat="45.005666736085885" lon="9.546167590815163"><ele>82.0</ele><time>2026-04-02T14:20:27.988Z</time></trkpt><trkpt lat="45.00578935708352" lon="9.546176055776849"><ele>82.0</ele><time>2026-04-02T14:20:29.988Z</time></trkpt><trkpt lat="45.00590868204578" lon="9.546170099324305"><ele>82.5</ele><time>2026-04-02T14:20:31.988Z</time></trkpt><trkpt lat="45.00602939263534" lon="9.546166858791748"><ele>83.0</ele><time>2026-04-02T14:20:33.988Z</time></trkpt><trkpt lat="45.006152868088336" lon="9.546167514959809"><ele>83.5</ele><time>2026-04-02T14:20:35.988Z</time></trkpt><trkpt lat="45.00627727172139" lon="9.546169639375913"><ele>84.0</ele><time>2026-04-02T14:20:37.988Z</time></trkpt><trkpt lat="45.00640234828882" lon="9.546166474923247"><ele>84.0</ele><time>2026-04-02T14:20:39.988Z</time></trkpt><trkpt lat="45.00652051608822" lon="9.546164120173028"><ele>84.0</ele><time>2026-04-02T14:20:41.988Z</time></trkpt><trkpt lat="45.00663190878801" lon="9.546163859996902"><ele>84.0</ele><time>2026-04-02T14:20:43.988Z</time></trkpt><trkpt lat="45.006741656009496" lon="9.546165119608924"><ele>84.0</ele><time>2026-04-02T14:20:45.988Z</time></trkpt><trkpt lat="45.00685836420308" lon="9.546165820257515"><ele>83.25</ele><time>2026-04-02T14:20:47.988Z</time></trkpt><trkpt lat="45.006980170832485" lon="9.546165727978735"><ele>82.5</ele><time>2026-04-02T14:20:49.988Z</time></trkpt><trkpt lat="45.007104405527095" lon="9.54616215254912"><ele>81.75</ele><time>2026-04-02T14:20:51.988Z</time></trkpt><trkpt lat="45.007228958911256" lon="9.546162020074727"><ele>81.0</ele><time>2026-04-02T14:20:53.988Z</time></trkpt><trkpt lat="45.00734987674084" lon="9.54615854812475"><ele>81.0</ele><time>2026-04-02T14:20:55.988Z</time></trkpt><trkpt lat="45.007473436492376" lon="9.546160543130314"><ele>81.0</ele><time>2026-04-02T14:20:57.988Z</time></trkpt><trkpt lat="45.00759527492782" lon="9.546160243573913"><ele>81.0</ele><time>2026-04-02T14:20:59.988Z</time></trkpt><trkpt lat="45.007715625095244" lon="9.546161759018844"><ele>81.0</ele><time>2026-04-02T14:21:01.988Z</time></trkpt><trkpt lat="45.007778830862804" lon="9.546165483633658"><ele>81.0</ele><time>2026-04-02T14:21:02.988Z</time></trkpt><trkpt lat="45.007907582357795" lon="9.546164639014167"><ele>81.0</ele><time>2026-04-02T14:21:04.988Z</time></trkpt><trkpt lat="45.0079727762666" lon="9.546171196747668"><ele>81.0</ele><time>2026-04-02T14:21:05.988Z</time></trkpt><trkpt lat="45.008035773307235" lon="9.546181455878418"><ele>81.0</ele><time>2026-04-02T14:21:06.988Z</time></trkpt><trkpt lat="45.008101376566124" lon="9.546185397049722"><ele>81.0</ele><time>2026-04-02T14:21:07.988Z</time></trkpt><trkpt lat="45.00816509040814" lon="9.54619048836727"><ele>81.0</ele><time>2026-04-02T14:21:08.988Z</time></trkpt><trkpt lat="45.00828746002508" lon="9.546201524691915"><ele>81.0</ele><time>2026-04-02T14:21:10.988Z</time></trkpt><trkpt lat="45.008410303012745" lon="9.546209583572184"><ele>80.83333333333333</ele><time>2026-04-02T14:21:12.989Z</time></trkpt><trkpt lat="45.00852946549909" lon="9.546217517095293"><ele>80.66666666666667</ele><time>2026-04-02T14:21:14.988Z</time></trkpt><trkpt lat="45.00865645241842" lon="9.54622588080616"><ele>80.5</ele><time>2026-04-02T14:21:16.988Z</time></trkpt><trkpt lat="45.00872062926938" lon="9.546228852225365"><ele>80.33333333333334</ele><time>2026-04-02T14:21:17.988Z</time></trkpt><trkpt lat="45.00878481511597" lon="9.546231925381445"><ele>80.16666666666667</ele><time>2026-04-02T14:21:18.989Z</time></trkpt><trkpt lat="45.00884852087621" lon="9.54623830276948"><ele>80.0</ele><time>2026-04-02T14:21:19.989Z</time></trkpt><trkpt lat="45.00891313661999" lon="9.546247159092639"><ele>80.0</ele><time>2026-04-02T14:21:20.989Z</time></trkpt><trkpt lat="45.00897932118514" lon="9.546246882439489"><ele>80.0</ele><time>2026-04-02T14:21:21.988Z</time></trkpt><trkpt lat="45.00904383262832" lon="9.546250361228358"><ele>80.0</ele><time>2026-04-02T14:21:22.989Z</time></trkpt><trkpt lat="45.00916753940016" lon="9.546262247596344"><ele>80.0</ele><time>2026-04-02T14:21:24.989Z</time></trkpt><trkpt lat="45.00928726079577" lon="9.546268508594178"><ele>80.0</ele><time>2026-04-02T14:21:26.989Z</time></trkpt><trkpt lat="45.009400640131076" lon="9.54627351982823"><ele>80.0</ele><time>2026-04-02T14:21:28.989Z</time></trkpt><trkpt lat="45.00951553408121" lon="9.546280260353596"><ele>80.0</ele><time>2026-04-02T14:21:30.989Z</time></trkpt><trkpt lat="45.009630488129226" lon="9.546287885476202"><ele>80.0</ele><time>2026-04-02T14:21:32.989Z</time></trkpt><trkpt lat="45.00975322385356" lon="9.546297806852403"><ele>80.0</ele><time>2026-04-02T14:21:34.989Z</time></trkpt><trkpt lat="45.009877121564884" lon="9.54630438427849"><ele>79.6</ele><time>2026-04-02T14:21:36.989Z</time></trkpt><trkpt lat="45.009999897591705" lon="9.5463123451839"><ele>79.2</ele><time>2026-04-02T14:21:38.989Z</time></trkpt><trkpt lat="45.01012240440635" lon="9.546317461676571"><ele>78.8</ele><time>2026-04-02T14:21:40.989Z</time></trkpt><trkpt lat="45.01018538565655" lon="9.546322918311377"><ele>78.4</ele><time>2026-04-02T14:21:41.989Z</time></trkpt><trkpt lat="45.01024874811777" lon="9.546329239658021"><ele>78.0</ele><time>2026-04-02T14:21:42.989Z</time></trkpt><trkpt lat="45.01037380275721" lon="9.546334100031565"><ele>78.0</ele><time>2026-04-02T14:21:44.989Z</time></trkpt><trkpt lat="45.01043750141083" lon="9.546338828308784"><ele>78.0</ele><time>2026-04-02T14:21:45.989Z</time></trkpt><trkpt lat="45.01050047076434" lon="9.546342760488729"><ele>78.0</ele><time>2026-04-02T14:21:46.989Z</time></trkpt><trkpt lat="45.01056691264347" lon="9.546348044801862"><ele>78.0</ele><time>2026-04-02T14:21:47.989Z</time></trkpt><trkpt lat="45.01063394768563" lon="9.5463532536196"><ele>78.0</ele><time>2026-04-02T14:21:48.989Z</time></trkpt><trkpt lat="45.0107605092693" lon="9.546357880164091"><ele>78.0</ele><time>2026-04-02T14:21:50.989Z</time></trkpt><trkpt lat="45.010879677083565" lon="9.546362786883936"><ele>78.25</ele><time>2026-04-02T14:21:52.989Z</time></trkpt><trkpt lat="45.01099962993033" lon="9.546373796983357"><ele>78.5</ele><time>2026-04-02T14:21:54.989Z</time></trkpt><trkpt lat="45.01111404243992" lon="9.546383227052493"><ele>78.75</ele><time>2026-04-02T14:21:56.989Z</time></trkpt><trkpt lat="45.01123029323956" lon="9.546389159768864"><ele>79.0</ele><time>2026-04-02T14:21:58.989Z</time></trkpt><trkpt lat="45.011350576155614" lon="9.546396376822994"><ele>79.0</ele><time>2026-04-02T14:22:00.989Z</time></trkpt><trkpt lat="45.011469769499115" lon="9.546400834190552"><ele>79.0</ele><time>2026-04-02T14:22:02.989Z</time></trkpt><trkpt lat="45.01153274801522" lon="9.546406695061576"><ele>79.0</ele><time>2026-04-02T14:22:03.989Z</time></trkpt><trkpt lat="45.01165480727745" lon="9.5464151807033"><ele>79.0</ele><time>2026-04-02T14:22:05.989Z</time></trkpt><trkpt lat="45.011777102485496" lon="9.54642246676198"><ele>79.0</ele><time>2026-04-02T14:22:07.989Z</time></trkpt><trkpt lat="45.01189937249922" lon="9.546433908942534"><ele>78.5</ele><time>2026-04-02T14:22:09.989Z</time></trkpt><trkpt lat="45.01202058844964" lon="9.546441403830302"><ele>78.0</ele><time>2026-04-02T14:22:11.989Z</time></trkpt><trkpt lat="45.01214106350827" lon="9.54644654009716"><ele>77.5</ele><time>2026-04-02T14:22:13.989Z</time></trkpt><trkpt lat="45.012261303897795" lon="9.5464499654519"><ele>77.0</ele><time>2026-04-02T14:22:15.989Z</time></trkpt><trkpt lat="45.01238471987292" lon="9.546459624316423"><ele>77.25</ele><time>2026-04-02T14:22:17.989Z</time></trkpt><trkpt lat="45.01250237047849" lon="9.546467194015579"><ele>77.5</ele><time>2026-04-02T14:22:19.989Z</time></trkpt><trkpt lat="45.01262054206633" lon="9.546461368464962"><ele>77.75</ele><time>2026-04-02T14:22:21.989Z</time></trkpt><trkpt lat="45.01274031634528" lon="9.54645811806414"><ele>78.0</ele><time>2026-04-02T14:22:23.989Z</time></trkpt><trkpt lat="45.012859092689254" lon="9.546453077275594"><ele>78.0</ele><time>2026-04-02T14:22:25.989Z</time></trkpt><trkpt lat="45.012973680379915" lon="9.546448559863355"><ele>78.0</ele><time>2026-04-02T14:22:27.989Z</time></trkpt><trkpt lat="45.01309089609321" lon="9.546441545767792"><ele>78.0</ele><time>2026-04-02T14:22:29.989Z</time></trkpt><trkpt lat="45.01321258718371" lon="9.546441674475137"><ele>78.0</ele><time>2026-04-02T14:22:31.989Z</time></trkpt><trkpt lat="45.01327608481403" lon="9.546438906398844"><ele>78.0</ele><time>2026-04-02T14:22:32.989Z</time></trkpt><trkpt lat="45.01333916797902" lon="9.546436400521511"><ele>78.16666666666667</ele><time>2026-04-02T14:22:33.989Z</time></trkpt><trkpt lat="45.01340355250572" lon="9.546441203950176"><ele>78.33333333333333</ele><time>2026-04-02T14:22:34.989Z</time></trkpt><trkpt lat="45.01346760681308" lon="9.546436259927134"><ele>78.5</ele><time>2026-04-02T14:22:35.989Z</time></trkpt><trkpt lat="45.01359454396778" lon="9.546431857582014"><ele>78.66666666666666</ele><time>2026-04-02T14:22:37.989Z</time></trkpt><trkpt lat="45.01366075162476" lon="9.546431394578532"><ele>78.83333333333333</ele><time>2026-04-02T14:22:38.989Z</time></trkpt><trkpt lat="45.01372657318722" lon="9.546427374918347"><ele>79.0</ele><time>2026-04-02T14:22:39.989Z</time></trkpt><trkpt lat="45.01379203170184" lon="9.546423681013605"><ele>79.00000000000001</ele><time>2026-04-02T14:22:40.989Z</time></trkpt><trkpt lat="45.013856545352226" lon="9.546423535426339"><ele>79.0</ele><time>2026-04-02T14:22:41.989Z</time></trkpt><trkpt lat="45.01392336468684" lon="9.54642237217519"><ele>79.0</ele><time>2026-04-02T14:22:42.989Z</time></trkpt><trkpt lat="45.01399068022273" lon="9.546424980399552"><ele>79.0</ele><time>2026-04-02T14:22:43.989Z</time></trkpt><trkpt lat="45.01405802176114" lon="9.546420243517357"><ele>79.0</ele><time>2026-04-02T14:22:44.989Z</time></trkpt><trkpt lat="45.014126475150995" lon="9.546419558303535"><ele>79.00000000000001</ele><time>2026-04-02T14:22:45.989Z</time></trkpt><trkpt lat="45.014193541076835" lon="9.546414255986994"><ele>79.0</ele><time>2026-04-02T14:22:46.989Z</time></trkpt><trkpt lat="45.014262547014276" lon="9.546416226045228"><ele>78.66666666666666</ele><time>2026-04-02T14:22:47.989Z</time></trkpt><trkpt lat="45.014327548877944" lon="9.546410236557689"><ele>78.33333333333333</ele><time>2026-04-02T14:22:48.989Z</time></trkpt><trkpt lat="45.014391139178066" lon="9.546412707739071"><ele>78.0</ele><time>2026-04-02T14:22:49.989Z</time></trkpt><trkpt lat="45.01445958017139" lon="9.546414156037141"><ele>77.66666666666667</ele><time>2026-04-02T14:22:50.989Z</time></trkpt><trkpt lat="45.01458730236172" lon="9.546405246551023"><ele>77.33333333333334</ele><time>2026-04-02T14:22:52.989Z</time></trkpt><trkpt lat="45.014651489633025" lon="9.546403052924065"><ele>77.0</ele><time>2026-04-02T14:22:53.989Z</time></trkpt><trkpt lat="45.0147166795013" lon="9.54639833511549"><ele>77.0</ele><time>2026-04-02T14:22:54.989Z</time></trkpt><trkpt lat="45.01478168874258" lon="9.546394050265146"><ele>77.0</ele><time>2026-04-02T14:22:55.989Z</time></trkpt><trkpt lat="45.01484818561071" lon="9.546392437304275"><ele>77.0</ele><time>2026-04-02T14:22:56.989Z</time></trkpt><trkpt lat="45.014916413878495" lon="9.546390899698855"><ele>77.0</ele><time>2026-04-02T14:22:57.989Z</time></trkpt><trkpt lat="45.014984829157974" lon="9.54638656370867"><ele>77.0</ele><time>2026-04-02T14:22:58.989Z</time></trkpt><trkpt lat="45.01505301735739" lon="9.546382251476139"><ele>77.0</ele><time>2026-04-02T14:22:59.989Z</time></trkpt><trkpt lat="45.01512296711303" lon="9.546379353311652"><ele>77.0</ele><time>2026-04-02T14:23:00.989Z</time></trkpt><trkpt lat="45.015190159455344" lon="9.546375751281877"><ele>76.85714285714286</ele><time>2026-04-02T14:23:01.989Z</time></trkpt><trkpt lat="45.015256386244246" lon="9.546369802181104"><ele>76.71428571428572</ele><time>2026-04-02T14:23:02.989Z</time></trkpt><trkpt lat="45.0153257376992" lon="9.546368741953048"><ele>76.57142857142857</ele><time>2026-04-02T14:23:03.989Z</time></trkpt><trkpt lat="45.01539373950527" lon="9.546366597249794"><ele>76.42857142857143</ele><time>2026-04-02T14:23:04.989Z</time></trkpt><trkpt lat="45.01546022806041" lon="9.5463646890698"><ele>76.28571428571429</ele><time>2026-04-02T14:23:05.989Z</time></trkpt><trkpt lat="45.01552530320384" lon="9.54636119502796"><ele>76.14285714285714</ele><time>2026-04-02T14:23:06.989Z</time></trkpt><trkpt lat="45.01558959914681" lon="9.54636125580346"><ele>76.0</ele><time>2026-04-02T14:23:07.988Z</time></trkpt><trkpt lat="45.015706321152415" lon="9.546357241290714"><ele>76.0</ele><time>2026-04-02T14:23:09.988Z</time></trkpt><trkpt lat="45.015810468140096" lon="9.54635601365488"><ele>76.0</ele><time>2026-04-02T14:23:11.988Z</time></trkpt><trkpt lat="45.01588613325558" lon="9.546355379828265"><ele>76.0</ele><time>2026-04-02T14:23:13.988Z</time></trkpt><trkpt lat="45.01595558332066" lon="9.546353005346147"><ele>76.0</ele><time>2026-04-02T14:23:16.988Z</time></trkpt><trkpt lat="45.01603160805917" lon="9.546358890404811"><ele>76.0</ele><time>2026-04-02T14:23:22.988Z</time></trkpt><trkpt lat="45.01612951273491" lon="9.546353282600379"><ele>76.0</ele><time>2026-04-02T14:23:25.988Z</time></trkpt><trkpt lat="45.01624129367416" lon="9.546345134785614"><ele>76.25</ele><time>2026-04-02T14:23:27.988Z</time></trkpt><trkpt lat="45.01635214672185" lon="9.546345668751393"><ele>76.5</ele><time>2026-04-02T14:23:29.988Z</time></trkpt><trkpt lat="45.016465441624106" lon="9.54634797033001"><ele>76.75</ele><time>2026-04-02T14:23:31.989Z</time></trkpt><trkpt lat="45.01658302593772" lon="9.54634507219468"><ele>77.0</ele><time>2026-04-02T14:23:33.989Z</time></trkpt><trkpt lat="45.01669765566077" lon="9.546342374153362"><ele>77.0</ele><time>2026-04-02T14:23:35.989Z</time></trkpt><trkpt lat="45.016817933058256" lon="9.5463361426706"><ele>77.0</ele><time>2026-04-02T14:23:37.989Z</time></trkpt><trkpt lat="45.016934129752265" lon="9.54633926014542"><ele>77.0</ele><time>2026-04-02T14:23:39.989Z</time></trkpt><trkpt lat="45.01704988156314" lon="9.546333656049866"><ele>77.0</ele><time>2026-04-02T14:23:41.989Z</time></trkpt><trkpt lat="45.017160614837344" lon="9.54633127126698"><ele>77.0</ele><time>2026-04-02T14:23:43.989Z</time></trkpt><trkpt lat="45.01727515486925" lon="9.546322251755473"><ele>77.0</ele><time>2026-04-02T14:23:45.989Z</time></trkpt><trkpt lat="45.017401379948744" lon="9.546319142675433"><ele>77.0</ele><time>2026-04-02T14:23:47.989Z</time></trkpt><trkpt lat="45.01746435505245" lon="9.546323938264468"><ele>77.0</ele><time>2026-04-02T14:23:48.989Z</time></trkpt><trkpt lat="45.01758331176318" lon="9.546389937854357"><ele>77.0</ele><time>2026-04-02T14:23:50.989Z</time></trkpt><trkpt lat="45.0176423130735" lon="9.546434890811609"><ele>77.0</ele><time>2026-04-02T14:23:51.989Z</time></trkpt><trkpt lat="45.01776162572391" lon="9.546472069374008"><ele>77.0</ele><time>2026-04-02T14:23:53.989Z</time></trkpt><trkpt lat="45.01788293464951" lon="9.546402682048129"><ele>77.0</ele><time>2026-04-02T14:23:55.989Z</time></trkpt><trkpt lat="45.017932128908" lon="9.546337282950272"><ele>77.0</ele><time>2026-04-02T14:23:56.989Z</time></trkpt><trkpt lat="45.017975141611736" lon="9.546267667702109"><ele>77.0</ele><time>2026-04-02T14:23:57.989Z</time></trkpt><trkpt lat="45.018023063048226" lon="9.546202138199703"><ele>76.85714285714286</ele><time>2026-04-02T14:23:58.989Z</time></trkpt><trkpt lat="45.01808043042158" lon="9.546150237841802"><ele>76.71428571428572</ele><time>2026-04-02T14:23:59.989Z</time></trkpt><trkpt lat="45.01814468855484" lon="9.546118882775334"><ele>76.57142857142857</ele><time>2026-04-02T14:24:00.989Z</time></trkpt><trkpt lat="45.01821043205774" lon="9.546097970411559"><ele>76.42857142857143</ele><time>2026-04-02T14:24:01.989Z</time></trkpt><trkpt lat="45.018281972627925" lon="9.546092608936789"><ele>76.28571428571429</ele><time>2026-04-02T14:24:02.989Z</time></trkpt><trkpt lat="45.01835122959489" lon="9.546109404613789"><ele>76.14285714285714</ele><time>2026-04-02T14:24:03.989Z</time></trkpt><trkpt lat="45.018415257602136" lon="9.546143022280303"><ele>76.0</ele><time>2026-04-02T14:24:04.989Z</time></trkpt><trkpt lat="45.018477999086585" lon="9.546175062841765"><ele>76.0</ele><time>2026-04-02T14:24:05.989Z</time></trkpt><trkpt lat="45.01854203022411" lon="9.546205232035893"><ele>76.0</ele><time>2026-04-02T14:24:06.989Z</time></trkpt><trkpt lat="45.01860566566073" lon="9.546237644666759"><ele>76.0</ele><time>2026-04-02T14:24:07.989Z</time></trkpt><trkpt lat="45.018670998824206" lon="9.546262009750683"><ele>76.0</ele><time>2026-04-02T14:24:08.989Z</time></trkpt><trkpt lat="45.01873641039498" lon="9.54627326460622"><ele>76.0</ele><time>2026-04-02T14:24:09.989Z</time></trkpt><trkpt lat="45.01880381611983" lon="9.546265548438813"><ele>76.0</ele><time>2026-04-02T14:24:10.989Z</time></trkpt><trkpt lat="45.01886959496774" lon="9.54623960822409"><ele>76.0</ele><time>2026-04-02T14:24:11.989Z</time></trkpt><trkpt lat="45.01893967474221" lon="9.546207370029165"><ele>75.85714285714285</ele><time>2026-04-02T14:24:12.989Z</time></trkpt><trkpt lat="45.019005523592845" lon="9.546171919105833"><ele>75.71428571428572</ele><time>2026-04-02T14:24:13.989Z</time></trkpt><trkpt lat="45.01906803259296" lon="9.546135745415809"><ele>75.57142857142857</ele><time>2026-04-02T14:24:14.989Z</time></trkpt><trkpt lat="45.01913403140138" lon="9.546103504475395"><ele>75.42857142857142</ele><time>2026-04-02T14:24:15.989Z</time></trkpt><trkpt lat="45.01919859358881" lon="9.546068057684002"><ele>75.28571428571428</ele><time>2026-04-02T14:24:16.988Z</time></trkpt><trkpt lat="45.0192658093094" lon="9.546035970520174"><ele>75.14285714285714</ele><time>2026-04-02T14:24:17.988Z</time></trkpt><trkpt lat="45.01933020253254" lon="9.546002159740608"><ele>75.0</ele><time>2026-04-02T14:24:18.988Z</time></trkpt><trkpt lat="45.01939350054899" lon="9.545966970203335"><ele>74.99999999999999</ele><time>2026-04-02T14:24:19.988Z</time></trkpt><trkpt lat="45.01946022530617" lon="9.54593300643438"><ele>75.0</ele><time>2026-04-02T14:24:20.988Z</time></trkpt><trkpt lat="45.01952537809535" lon="9.545901083386815"><ele>75.0</ele><time>2026-04-02T14:24:21.988Z</time></trkpt><trkpt lat="45.019590667557004" lon="9.545864556301828"><ele>75.0</ele><time>2026-04-02T14:24:22.988Z</time></trkpt><trkpt lat="45.01965457507775" lon="9.545829108233143"><ele>75.0</ele><time>2026-04-02T14:24:23.988Z</time></trkpt><trkpt lat="45.01971814979115" lon="9.545796884473138"><ele>74.99999999999999</ele><time>2026-04-02T14:24:24.988Z</time></trkpt><trkpt lat="45.019784751180495" lon="9.54576541532145"><ele>75.0</ele><time>2026-04-02T14:24:25.988Z</time></trkpt><trkpt lat="45.01984849665018" lon="9.545731345176366"><ele>74.99999999999999</ele><time>2026-04-02T14:24:26.988Z</time></trkpt><trkpt lat="45.01991395146406" lon="9.545698473378387"><ele>75.0</ele><time>2026-04-02T14:24:27.988Z</time></trkpt><trkpt lat="45.01997639314398" lon="9.54566724778913"><ele>75.0</ele><time>2026-04-02T14:24:28.988Z</time></trkpt><trkpt lat="45.020044630865996" lon="9.545626821353489"><ele>75.0</ele><time>2026-04-02T14:24:29.988Z</time></trkpt><trkpt lat="45.020111327430975" lon="9.545592065266565"><ele>75.0</ele><time>2026-04-02T14:24:30.988Z</time></trkpt><trkpt lat="45.02018032757746" lon="9.545557600521978"><ele>74.99999999999999</ele><time>2026-04-02T14:24:31.988Z</time></trkpt><trkpt lat="45.02025011834596" lon="9.5455210737695"><ele>75.0</ele><time>2026-04-02T14:24:32.988Z</time></trkpt><trkpt lat="45.02031922792912" lon="9.5454837237183"><ele>74.85714285714285</ele><time>2026-04-02T14:24:33.988Z</time></trkpt><trkpt lat="45.020389078100685" lon="9.545446790333594"><ele>74.71428571428571</ele><time>2026-04-02T14:24:34.988Z</time></trkpt><trkpt lat="45.02045749571397" lon="9.545409893651469"><ele>74.57142857142857</ele><time>2026-04-02T14:24:35.988Z</time></trkpt><trkpt lat="45.02052751760469" lon="9.545373183243672"><ele>74.42857142857142</ele><time>2026-04-02T14:24:36.988Z</time></trkpt><trkpt lat="45.02059967470405" lon="9.545338217224364"><ele>74.28571428571428</ele><time>2026-04-02T14:24:37.988Z</time></trkpt><trkpt lat="45.02066894271688" lon="9.545298259219285"><ele>74.14285714285714</ele><time>2026-04-02T14:24:38.988Z</time></trkpt><trkpt lat="45.02073921664563" lon="9.545262181713662"><ele>74.0</ele><time>2026-04-02T14:24:39.988Z</time></trkpt><trkpt lat="45.02081158356966" lon="9.5452263939599"><ele>74.16666666666667</ele><time>2026-04-02T14:24:40.988Z</time></trkpt><trkpt lat="45.020881785165" lon="9.54518953880569"><ele>74.33333333333334</ele><time>2026-04-02T14:24:41.988Z</time></trkpt><trkpt lat="45.02095334504254" lon="9.54515088318954"><ele>74.5</ele><time>2026-04-02T14:24:42.988Z</time></trkpt><trkpt lat="45.02102525903847" lon="9.545111991004463"><ele>74.66666666666667</ele><time>2026-04-02T14:24:43.988Z</time></trkpt><trkpt lat="45.02109390780712" lon="9.545075138175527"><ele>74.83333333333333</ele><time>2026-04-02T14:24:44.988Z</time></trkpt><trkpt lat="45.021164659766676" lon="9.545032331850459"><ele>75.0</ele><time>2026-04-02T14:24:45.988Z</time></trkpt><trkpt lat="45.021230003880845" lon="9.544984728542447"><ele>75.0</ele><time>2026-04-02T14:24:46.988Z</time></trkpt><trkpt lat="45.0213040082059" lon="9.544937234995993"><ele>75.0</ele><time>2026-04-02T14:24:47.988Z</time></trkpt><trkpt lat="45.021378251567945" lon="9.544890954160882"><ele>75.0</ele><time>2026-04-02T14:24:48.988Z</time></trkpt><trkpt lat="45.021451717922915" lon="9.544848038938316"><ele>75.0</ele><time>2026-04-02T14:24:49.988Z</time></trkpt><trkpt lat="45.021527042751025" lon="9.54480422724848"><ele>75.0</ele><time>2026-04-02T14:24:50.988Z</time></trkpt><trkpt lat="45.02160064753115" lon="9.544765840548367"><ele>75.0</ele><time>2026-04-02T14:24:51.988Z</time></trkpt><trkpt lat="45.02167809725619" lon="9.54473330669208"><ele>75.0</ele><time>2026-04-02T14:24:52.988Z</time></trkpt><trkpt lat="45.02175547196313" lon="9.544697474900165"><ele>75.0</ele><time>2026-04-02T14:24:53.988Z</time></trkpt><trkpt lat="45.02183255931153" lon="9.544664527858584"><ele>75.0</ele><time>2026-04-02T14:24:54.988Z</time></trkpt><trkpt lat="45.021907938897414" lon="9.54462280026981"><ele>75.0</ele><time>2026-04-02T14:24:55.988Z</time></trkpt><trkpt lat="45.02199003340513" lon="9.544589100440806"><ele>75.0</ele><time>2026-04-02T14:24:56.988Z</time></trkpt><trkpt lat="45.02206762140191" lon="9.54455218500679"><ele>75.0</ele><time>2026-04-02T14:24:57.988Z</time></trkpt><trkpt lat="45.022145907879676" lon="9.544512565691532"><ele>75.0</ele><time>2026-04-02T14:24:58.988Z</time></trkpt><trkpt lat="45.02222297738928" lon="9.54447295720527"><ele>75.0</ele><time>2026-04-02T14:24:59.988Z</time></trkpt><trkpt lat="45.02229919390172" lon="9.544432713926431"><ele>75.0</ele><time>2026-04-02T14:25:00.988Z</time></trkpt><trkpt lat="45.02237539305354" lon="9.544399158905168"><ele>75.0</ele><time>2026-04-02T14:25:01.988Z</time></trkpt><trkpt lat="45.022448879604326" lon="9.544357094031312"><ele>75.0</ele><time>2026-04-02T14:25:02.988Z</time></trkpt><trkpt lat="45.02252158810227" lon="9.544314216087388"><ele>75.0</ele><time>2026-04-02T14:25:03.988Z</time></trkpt><trkpt lat="45.022593035414964" lon="9.544266692104312"><ele>75.16666666666667</ele><time>2026-04-02T14:25:04.988Z</time></trkpt><trkpt lat="45.022664003033874" lon="9.544219165589405"><ele>75.33333333333333</ele><time>2026-04-02T14:25:05.988Z</time></trkpt><trkpt lat="45.02273646643576" lon="9.544173677369686"><ele>75.5</ele><time>2026-04-02T14:25:06.988Z</time></trkpt><trkpt lat="45.022814610733995" lon="9.544151490517017"><ele>75.66666666666666</ele><time>2026-04-02T14:25:07.988Z</time></trkpt><trkpt lat="45.02288796540235" lon="9.544180086655528"><ele>75.83333333333333</ele><time>2026-04-02T14:25:08.988Z</time></trkpt><trkpt lat="45.02295239216053" lon="9.544252119861998"><ele>76.0</ele><time>2026-04-02T14:25:09.988Z</time></trkpt><trkpt lat="45.022998558246385" lon="9.544338401522612"><ele>76.0</ele><time>2026-04-02T14:25:10.988Z</time></trkpt><trkpt lat="45.023047493417394" lon="9.54442809262941"><ele>76.0</ele><time>2026-04-02T14:25:11.988Z</time></trkpt><trkpt lat="45.02309928633393" lon="9.544511533004544"><ele>76.0</ele><time>2026-04-02T14:25:12.988Z</time></trkpt><trkpt lat="45.023152648340606" lon="9.544593514836336"><ele>76.0</ele><time>2026-04-02T14:25:13.988Z</time></trkpt><trkpt lat="45.02320429418022" lon="9.544675472757744"><ele>76.0</ele><time>2026-04-02T14:25:14.988Z</time></trkpt><trkpt lat="45.02325417204197" lon="9.544753774101572"><ele>76.0</ele><time>2026-04-02T14:25:15.988Z</time></trkpt><trkpt lat="45.023307898766376" lon="9.544829528600946"><ele>76.0</ele><time>2026-04-02T14:25:16.988Z</time></trkpt><trkpt lat="45.02335954146492" lon="9.544908001696307"><ele>76.0</ele><time>2026-04-02T14:25:17.988Z</time></trkpt><trkpt lat="45.023412149151056" lon="9.544985578545027"><ele>76.0</ele><time>2026-04-02T14:25:18.988Z</time></trkpt><trkpt lat="45.02346381599251" lon="9.545062425616468"><ele>76.0</ele><time>2026-04-02T14:25:19.988Z</time></trkpt><trkpt lat="45.02351445341178" lon="9.545138734303217"><ele>76.0</ele><time>2026-04-02T14:25:20.988Z</time></trkpt><trkpt lat="45.02356561188159" lon="9.545212739729692"><ele>76.0</ele><time>2026-04-02T14:25:21.988Z</time></trkpt><trkpt lat="45.023615838848855" lon="9.545289330499736"><ele>76.0</ele><time>2026-04-02T14:25:22.988Z</time></trkpt><trkpt lat="45.02367019683743" lon="9.545364547651218"><ele>75.57142857142857</ele><time>2026-04-02T14:25:23.988Z</time></trkpt><trkpt lat="45.023718260389394" lon="9.545440701128928"><ele>75.14285714285715</ele><time>2026-04-02T14:25:24.988Z</time></trkpt><trkpt lat="45.02376873168732" lon="9.545514393964163"><ele>74.71428571428572</ele><time>2026-04-02T14:25:25.988Z</time></trkpt><trkpt lat="45.02382111822591" lon="9.545585481448187"><ele>74.28571428571428</ele><time>2026-04-02T14:25:26.988Z</time></trkpt><trkpt lat="45.02386918693129" lon="9.545654236164047"><ele>73.85714285714286</ele><time>2026-04-02T14:25:27.989Z</time></trkpt><trkpt lat="45.02392232501783" lon="9.545725311388294"><ele>73.42857142857143</ele><time>2026-04-02T14:25:28.988Z</time></trkpt><trkpt lat="45.0239735151041" lon="9.545798725702632"><ele>73.0</ele><time>2026-04-02T14:25:29.988Z</time></trkpt><trkpt lat="45.02401911361959" lon="9.545871401883927"><ele>73.0</ele><time>2026-04-02T14:25:30.989Z</time></trkpt><trkpt lat="45.024070248395525" lon="9.545941800867197"><ele>73.0</ele><time>2026-04-02T14:25:31.988Z</time></trkpt><trkpt lat="45.02412049829874" lon="9.546005910076818"><ele>73.0</ele><time>2026-04-02T14:25:32.988Z</time></trkpt><trkpt lat="45.02416318934293" lon="9.546081842513564"><ele>73.0</ele><time>2026-04-02T14:25:33.988Z</time></trkpt><trkpt lat="45.02421088120334" lon="9.546148188623569"><ele>73.0</ele><time>2026-04-02T14:25:34.988Z</time></trkpt><trkpt lat="45.024255460085925" lon="9.546213845305521"><ele>73.0</ele><time>2026-04-02T14:25:35.988Z</time></trkpt><trkpt lat="45.02429808236398" lon="9.546292067506647"><ele>73.0</ele><time>2026-04-02T14:25:36.989Z</time></trkpt><trkpt lat="45.02438255852707" lon="9.546431973010693"><ele>73.83333333333333</ele><time>2026-04-02T14:25:38.988Z</time></trkpt><trkpt lat="45.02442482108563" lon="9.546510702907685"><ele>74.66666666666666</ele><time>2026-04-02T14:25:39.988Z</time></trkpt><trkpt lat="45.02446916810451" lon="9.54658086687129"><ele>75.5</ele><time>2026-04-02T14:25:40.988Z</time></trkpt><trkpt lat="45.02453949033572" lon="9.546728160383605"><ele>76.33333333333333</ele><time>2026-04-02T14:25:42.988Z</time></trkpt><trkpt lat="45.02457902520162" lon="9.546800074411431"><ele>77.16666666666667</ele><time>2026-04-02T14:25:43.988Z</time></trkpt><trkpt lat="45.02461654503358" lon="9.546873290036373"><ele>78.0</ele><time>2026-04-02T14:25:44.988Z</time></trkpt><trkpt lat="45.024694104506914" lon="9.547017543728584"><ele>77.66666666666667</ele><time>2026-04-02T14:25:46.988Z</time></trkpt><trkpt lat="45.024731162639135" lon="9.547092017190096"><ele>77.33333333333333</ele><time>2026-04-02T14:25:47.988Z</time></trkpt><trkpt lat="45.024769190162374" lon="9.547167914743238"><ele>77.0</ele><time>2026-04-02T14:25:48.988Z</time></trkpt><trkpt lat="45.02480714478142" lon="9.547239672402972"><ele>76.66666666666666</ele><time>2026-04-02T14:25:49.988Z</time></trkpt><trkpt lat="45.02484492733824" lon="9.547312749291123"><ele>76.33333333333333</ele><time>2026-04-02T14:25:50.988Z</time></trkpt><trkpt lat="45.02491796908089" lon="9.54745575175048"><ele>76.0</ele><time>2026-04-02T14:25:52.988Z</time></trkpt><trkpt lat="45.02498771760304" lon="9.547596385064487"><ele>75.75</ele><time>2026-04-02T14:25:54.988Z</time></trkpt><trkpt lat="45.02505770637357" lon="9.547741122778977"><ele>75.5</ele><time>2026-04-02T14:25:56.988Z</time></trkpt><trkpt lat="45.02512139706332" lon="9.547887186530616"><ele>75.25</ele><time>2026-04-02T14:25:58.988Z</time></trkpt><trkpt lat="45.02518129964061" lon="9.548039018470671"><ele>75.0</ele><time>2026-04-02T14:26:00.988Z</time></trkpt><trkpt lat="45.02524156906909" lon="9.548189929539795"><ele>75.0</ele><time>2026-04-02T14:26:02.988Z</time></trkpt><trkpt lat="45.02529161354855" lon="9.548339788919613"><ele>75.0</ele><time>2026-04-02T14:26:04.988Z</time></trkpt><trkpt lat="45.02533838667735" lon="9.548491998239998"><ele>75.0</ele><time>2026-04-02T14:26:06.988Z</time></trkpt><trkpt lat="45.025375495529765" lon="9.548644013542186"><ele>75.0</ele><time>2026-04-02T14:26:08.988Z</time></trkpt><trkpt lat="45.02541300612047" lon="9.54879870716632"><ele>75.0</ele><time>2026-04-02T14:26:10.988Z</time></trkpt><trkpt lat="45.025447339069146" lon="9.548957643317914"><ele>75.0</ele><time>2026-04-02T14:26:12.988Z</time></trkpt><trkpt lat="45.02548309422652" lon="9.54911195619553"><ele>75.0</ele><time>2026-04-02T14:26:14.988Z</time></trkpt><trkpt lat="45.02552018565615" lon="9.549269555806987"><ele>75.0</ele><time>2026-04-02T14:26:16.988Z</time></trkpt><trkpt lat="45.02555685191972" lon="9.549426252065011"><ele>75.0</ele><time>2026-04-02T14:26:18.988Z</time></trkpt><trkpt lat="45.02559732605326" lon="9.54958522335661"><ele>75.0</ele><time>2026-04-02T14:26:20.988Z</time></trkpt><trkpt lat="45.02563844900629" lon="9.549745867432947"><ele>75.0</ele><time>2026-04-02T14:26:22.988Z</time></trkpt><trkpt lat="45.025696972527705" lon="9.54989884827208"><ele>75.0</ele><time>2026-04-02T14:26:24.988Z</time></trkpt><trkpt lat="45.02577250786634" lon="9.550027904227433"><ele>75.0</ele><time>2026-04-02T14:26:26.988Z</time></trkpt><trkpt lat="45.02586049701644" lon="9.55012988019475"><ele>75.0</ele><time>2026-04-02T14:26:28.988Z</time></trkpt><trkpt lat="45.02598513112243" lon="9.550187593433925"><ele>75.0</ele><time>2026-04-02T14:26:30.988Z</time></trkpt><trkpt lat="45.02609821799369" lon="9.550158415683939"><ele>75.0</ele><time>2026-04-02T14:26:32.988Z</time></trkpt><trkpt lat="45.026157984647085" lon="9.550127542644132"><ele>75.0</ele><time>2026-04-02T14:26:33.988Z</time></trkpt><trkpt lat="45.02623117176418" lon="9.55011144476555"><ele>75.0</ele><time>2026-04-02T14:26:34.988Z</time></trkpt><trkpt lat="45.02630123249806" lon="9.550093864140553"><ele>75.0</ele><time>2026-04-02T14:26:35.988Z</time></trkpt><trkpt lat="45.02642945241336" lon="9.55004396212777"><ele>75.0</ele><time>2026-04-02T14:26:37.988Z</time></trkpt><trkpt lat="45.026550623615634" lon="9.549984473829637"><ele>75.0</ele><time>2026-04-02T14:26:39.988Z</time></trkpt><trkpt lat="45.02661342723699" lon="9.549972786453226"><ele>75.0</ele><time>2026-04-02T14:26:40.988Z</time></trkpt><trkpt lat="45.02668213505014" lon="9.549950514273169"><ele>75.2</ele><time>2026-04-02T14:26:41.988Z</time></trkpt><trkpt lat="45.02680408878323" lon="9.54992975252914"><ele>75.4</ele><time>2026-04-02T14:26:43.988Z</time></trkpt><trkpt lat="45.02693610423581" lon="9.549898924530726"><ele>75.6</ele><time>2026-04-02T14:26:45.988Z</time></trkpt><trkpt lat="45.027003591729425" lon="9.549887977966037"><ele>75.8</ele><time>2026-04-02T14:26:46.988Z</time></trkpt><trkpt lat="45.02706872957481" lon="9.549871362591523"><ele>76.0</ele><time>2026-04-02T14:26:47.988Z</time></trkpt><trkpt lat="45.027136059151694" lon="9.549862141226914"><ele>76.0</ele><time>2026-04-02T14:26:48.988Z</time></trkpt><trkpt lat="45.02720290983706" lon="9.549848465846372"><ele>76.0</ele><time>2026-04-02T14:26:49.988Z</time></trkpt><trkpt lat="45.02727272073073" lon="9.549832095569478"><ele>76.0</ele><time>2026-04-02T14:26:50.988Z</time></trkpt><trkpt lat="45.02734144104537" lon="9.549816809966378"><ele>76.0</ele><time>2026-04-02T14:26:51.988Z</time></trkpt><trkpt lat="45.02741141312763" lon="9.549807010619492"><ele>76.0</ele><time>2026-04-02T14:26:52.988Z</time></trkpt><trkpt lat="45.027477471744085" lon="9.549786936900098"><ele>76.0</ele><time>2026-04-02T14:26:53.988Z</time></trkpt><trkpt lat="45.027545925682965" lon="9.549774884835207"><ele>76.0</ele><time>2026-04-02T14:26:54.988Z</time></trkpt><trkpt lat="45.027614360555745" lon="9.549759106800574"><ele>75.42857142857143</ele><time>2026-04-02T14:26:55.988Z</time></trkpt><trkpt lat="45.027683905287994" lon="9.549744319908188"><ele>74.85714285714286</ele><time>2026-04-02T14:26:56.988Z</time></trkpt><trkpt lat="45.02775422375473" lon="9.549725587891425"><ele>74.28571428571429</ele><time>2026-04-02T14:26:57.988Z</time></trkpt><trkpt lat="45.02782620366411" lon="9.549712049192019"><ele>73.71428571428572</ele><time>2026-04-02T14:26:58.988Z</time></trkpt><trkpt lat="45.0278975015102" lon="9.549694746851152"><ele>73.14285714285714</ele><time>2026-04-02T14:26:59.988Z</time></trkpt><trkpt lat="45.027967120512315" lon="9.549679940856834"><ele>72.57142857142858</ele><time>2026-04-02T14:27:00.988Z</time></trkpt><trkpt lat="45.02803617030761" lon="9.549658899715103"><ele>72.0</ele><time>2026-04-02T14:27:01.988Z</time></trkpt><trkpt lat="45.028106246907655" lon="9.549644938314025"><ele>72.00000000000001</ele><time>2026-04-02T14:27:02.988Z</time></trkpt><trkpt lat="45.028175604500355" lon="9.54962691512984"><ele>72.0</ele><time>2026-04-02T14:27:03.988Z</time></trkpt><trkpt lat="45.028245596277884" lon="9.549608785627282"><ele>72.0</ele><time>2026-04-02T14:27:04.988Z</time></trkpt><trkpt lat="45.02831971007749" lon="9.549590767973093"><ele>72.0</ele><time>2026-04-02T14:27:05.988Z</time></trkpt><trkpt lat="45.02839263764307" lon="9.549575757254832"><ele>72.0</ele><time>2026-04-02T14:27:06.988Z</time></trkpt><trkpt lat="45.028462915348655" lon="9.549556848848045"><ele>72.00000000000001</ele><time>2026-04-02T14:27:07.988Z</time></trkpt><trkpt lat="45.02853774112856" lon="9.549540461767235"><ele>72.0</ele><time>2026-04-02T14:27:08.988Z</time></trkpt><trkpt lat="45.02861047428694" lon="9.549519989374046"><ele>71.85714285714286</ele><time>2026-04-02T14:27:09.988Z</time></trkpt><trkpt lat="45.02868433981132" lon="9.549501294459338"><ele>71.71428571428572</ele><time>2026-04-02T14:27:10.988Z</time></trkpt><trkpt lat="45.028757611130885" lon="9.549485274171328"><ele>71.57142857142857</ele><time>2026-04-02T14:27:11.988Z</time></trkpt><trkpt lat="45.02883062408777" lon="9.549466554201969"><ele>71.42857142857143</ele><time>2026-04-02T14:27:12.988Z</time></trkpt><trkpt lat="45.02890356187579" lon="9.54945248538667"><ele>71.28571428571428</ele><time>2026-04-02T14:27:13.988Z</time></trkpt><trkpt lat="45.02897659093605" lon="9.549432583273411"><ele>71.14285714285714</ele><time>2026-04-02T14:27:14.988Z</time></trkpt><trkpt lat="45.0290511822846" lon="9.549413580592493"><ele>71.0</ele><time>2026-04-02T14:27:15.988Z</time></trkpt><trkpt lat="45.02912358353218" lon="9.549395290855736"><ele>71.14285714285714</ele><time>2026-04-02T14:27:16.988Z</time></trkpt><trkpt lat="45.02919723919805" lon="9.549378995051324"><ele>71.28571428571428</ele><time>2026-04-02T14:27:17.988Z</time></trkpt><trkpt lat="45.02927004180018" lon="9.549361260896262"><ele>71.42857142857143</ele><time>2026-04-02T14:27:18.988Z</time></trkpt><trkpt lat="45.02934483894574" lon="9.549344345875433"><ele>71.57142857142857</ele><time>2026-04-02T14:27:19.988Z</time></trkpt><trkpt lat="45.029417728103745" lon="9.54932248192371"><ele>71.71428571428572</ele><time>2026-04-02T14:27:20.988Z</time></trkpt><trkpt lat="45.02949092084506" lon="9.549304734393804"><ele>71.85714285714286</ele><time>2026-04-02T14:27:21.988Z</time></trkpt><trkpt lat="45.02956154721875" lon="9.54928847523739"><ele>72.0</ele><time>2026-04-02T14:27:22.988Z</time></trkpt><trkpt lat="45.02963358875451" lon="9.549267578132131"><ele>72.00000000000001</ele><time>2026-04-02T14:27:23.988Z</time></trkpt><trkpt lat="45.029706380458904" lon="9.549252074482105"><ele>72.0</ele><time>2026-04-02T14:27:24.988Z</time></trkpt><trkpt lat="45.029779413795296" lon="9.549233848009331"><ele>72.0</ele><time>2026-04-02T14:27:25.988Z</time></trkpt><trkpt lat="45.02985137553853" lon="9.549219617154689"><ele>72.0</ele><time>2026-04-02T14:27:26.988Z</time></trkpt><trkpt lat="45.029922991122355" lon="9.549201076543726"><ele>72.0</ele><time>2026-04-02T14:27:27.988Z</time></trkpt><trkpt lat="45.029995941065856" lon="9.549182893747847"><ele>72.00000000000001</ele><time>2026-04-02T14:27:28.988Z</time></trkpt><trkpt lat="45.030067486168676" lon="9.549164637673352"><ele>72.0</ele><time>2026-04-02T14:27:29.988Z</time></trkpt><trkpt lat="45.03014065385874" lon="9.549145681412341"><ele>71.85714285714286</ele><time>2026-04-02T14:27:30.988Z</time></trkpt><trkpt lat="45.0302130600561" lon="9.54912791871879"><ele>71.71428571428572</ele><time>2026-04-02T14:27:31.988Z</time></trkpt><trkpt lat="45.030282773041456" lon="9.549113809765338"><ele>71.57142857142857</ele><time>2026-04-02T14:27:32.988Z</time></trkpt><trkpt lat="45.030355233681995" lon="9.54909658883782"><ele>71.42857142857143</ele><time>2026-04-02T14:27:33.988Z</time></trkpt><trkpt lat="45.03042795572508" lon="9.549075679281527"><ele>71.28571428571428</ele><time>2026-04-02T14:27:34.988Z</time></trkpt><trkpt lat="45.03050496345466" lon="9.549061626947234"><ele>71.14285714285714</ele><time>2026-04-02T14:27:35.988Z</time></trkpt><trkpt lat="45.030577438431145" lon="9.54903846608785"><ele>71.0</ele><time>2026-04-02T14:27:36.988Z</time></trkpt><trkpt lat="45.030650399585504" lon="9.549020023506817"><ele>71.0</ele><time>2026-04-02T14:27:37.988Z</time></trkpt><trkpt lat="45.03072385758067" lon="9.549004253686673"><ele>71.0</ele><time>2026-04-02T14:27:38.988Z</time></trkpt><trkpt lat="45.0307990849756" lon="9.54898611322503"><ele>71.0</ele><time>2026-04-02T14:27:39.988Z</time></trkpt><trkpt lat="45.03087636914067" lon="9.548968483478422"><ele>71.0</ele><time>2026-04-02T14:27:40.988Z</time></trkpt><trkpt lat="45.03094962052874" lon="9.548948900630206"><ele>71.0</ele><time>2026-04-02T14:27:41.988Z</time></trkpt><trkpt lat="45.031024064722466" lon="9.548932293683634"><ele>71.0</ele><time>2026-04-02T14:27:42.988Z</time></trkpt><trkpt lat="45.03109776291866" lon="9.548915573912247"><ele>71.0</ele><time>2026-04-02T14:27:43.988Z</time></trkpt><trkpt lat="45.03117262536745" lon="9.548897143906775"><ele>71.0</ele><time>2026-04-02T14:27:44.988Z</time></trkpt><trkpt lat="45.03124648968804" lon="9.548878914765472"><ele>71.0</ele><time>2026-04-02T14:27:45.988Z</time></trkpt><trkpt lat="45.0313199164537" lon="9.548861262245671"><ele>71.0</ele><time>2026-04-02T14:27:46.988Z</time></trkpt><trkpt lat="45.03139391277258" lon="9.548843291661838"><ele>71.0</ele><time>2026-04-02T14:27:47.988Z</time></trkpt><trkpt lat="45.03146647093541" lon="9.548825818329592"><ele>71.0</ele><time>2026-04-02T14:27:48.988Z</time></trkpt><trkpt lat="45.03154094962051" lon="9.54880699080505"><ele>71.0</ele><time>2026-04-02T14:27:49.988Z</time></trkpt><trkpt lat="45.03161458308284" lon="9.548787853203825"><ele>71.0</ele><time>2026-04-02T14:27:50.988Z</time></trkpt><trkpt lat="45.03168665372137" lon="9.548768658315458"><ele>71.0</ele><time>2026-04-02T14:27:51.988Z</time></trkpt><trkpt lat="45.03175858124796" lon="9.548751621904692"><ele>71.0</ele><time>2026-04-02T14:27:52.988Z</time></trkpt><trkpt lat="45.03183144204539" lon="9.54873391172613"><ele>71.0</ele><time>2026-04-02T14:27:53.988Z</time></trkpt><trkpt lat="45.03190610977123" lon="9.548715580224053"><ele>71.0</ele><time>2026-04-02T14:27:54.988Z</time></trkpt><trkpt lat="45.03197872991599" lon="9.548696432921789"><ele>71.0</ele><time>2026-04-02T14:27:55.988Z</time></trkpt><trkpt lat="45.03205349175721" lon="9.548678884497258"><ele>71.0</ele><time>2026-04-02T14:27:56.988Z</time></trkpt><trkpt lat="45.032128692421054" lon="9.54866291853832"><ele>71.0</ele><time>2026-04-02T14:27:57.988Z</time></trkpt><trkpt lat="45.032204074402564" lon="9.548646901665728"><ele>71.0</ele><time>2026-04-02T14:27:58.988Z</time></trkpt><trkpt lat="45.03228021774066" lon="9.54862810999543"><ele>71.0</ele><time>2026-04-02T14:27:59.988Z</time></trkpt><trkpt lat="45.032355607080376" lon="9.548606734104647"><ele>71.0</ele><time>2026-04-02T14:28:00.988Z</time></trkpt><trkpt lat="45.0324315222795" lon="9.548590160632415"><ele>71.0</ele><time>2026-04-02T14:28:01.988Z</time></trkpt><trkpt lat="45.03250963359895" lon="9.54857491557079"><ele>70.83333333333334</ele><time>2026-04-02T14:28:02.988Z</time></trkpt><trkpt lat="45.032584073533094" lon="9.548554125861202"><ele>70.66666666666667</ele><time>2026-04-02T14:28:03.988Z</time></trkpt><trkpt lat="45.03265917276289" lon="9.548533198993892"><ele>70.5</ele><time>2026-04-02T14:28:04.988Z</time></trkpt><trkpt lat="45.032735581581164" lon="9.548515939459875"><ele>70.33333333333333</ele><time>2026-04-02T14:28:05.988Z</time></trkpt><trkpt lat="45.03281062950924" lon="9.548497286959245"><ele>70.16666666666666</ele><time>2026-04-02T14:28:06.988Z</time></trkpt><trkpt lat="45.0328871030296" lon="9.548478924259944"><ele>70.0</ele><time>2026-04-02T14:28:07.988Z</time></trkpt><trkpt lat="45.032963080709685" lon="9.548457705581367"><ele>70.0</ele><time>2026-04-02T14:28:08.988Z</time></trkpt><trkpt lat="45.03304014805982" lon="9.548441459895626"><ele>70.0</ele><time>2026-04-02T14:28:09.988Z</time></trkpt><trkpt lat="45.03311710013692" lon="9.548419879852155"><ele>70.0</ele><time>2026-04-02T14:28:10.988Z</time></trkpt><trkpt lat="45.033193030070194" lon="9.548399553442879"><ele>70.0</ele><time>2026-04-02T14:28:11.988Z</time></trkpt><trkpt lat="45.033269370835335" lon="9.548384037892243"><ele>70.0</ele><time>2026-04-02T14:28:12.988Z</time></trkpt><trkpt lat="45.03334699617925" lon="9.548366358843072"><ele>70.0</ele><time>2026-04-02T14:28:13.988Z</time></trkpt><trkpt lat="45.033420713045196" lon="9.54834680649783"><ele>70.0</ele><time>2026-04-02T14:28:14.988Z</time></trkpt><trkpt lat="45.033498423165796" lon="9.5483294794906"><ele>70.0</ele><time>2026-04-02T14:28:15.988Z</time></trkpt><trkpt lat="45.033575986677526" lon="9.548310783172932"><ele>70.0</ele><time>2026-04-02T14:28:16.988Z</time></trkpt><trkpt lat="45.03365445884969" lon="9.548292790888537"><ele>70.0</ele><time>2026-04-02T14:28:17.988Z</time></trkpt><trkpt lat="45.03373016251606" lon="9.548279301504358"><ele>70.0</ele><time>2026-04-02T14:28:18.988Z</time></trkpt><trkpt lat="45.03380922953283" lon="9.548263486592937"><ele>70.0</ele><time>2026-04-02T14:28:19.988Z</time></trkpt><trkpt lat="45.03388599465125" lon="9.548250301947489"><ele>70.0</ele><time>2026-04-02T14:28:20.988Z</time></trkpt><trkpt lat="45.03396300724231" lon="9.548240874700674"><ele>70.0</ele><time>2026-04-02T14:28:21.988Z</time></trkpt><trkpt lat="45.034039201805456" lon="9.54823759749669"><ele>70.0</ele><time>2026-04-02T14:28:22.988Z</time></trkpt><trkpt lat="45.034115321692255" lon="9.54823609564541"><ele>70.0</ele><time>2026-04-02T14:28:23.988Z</time></trkpt><trkpt lat="45.034192954328475" lon="9.548236322699584"><ele>70.0</ele><time>2026-04-02T14:28:24.988Z</time></trkpt><trkpt lat="45.03427134610653" lon="9.548239373770322"><ele>70.0</ele><time>2026-04-02T14:28:25.988Z</time></trkpt><trkpt lat="45.03434876630168" lon="9.54823831701688"><ele>70.0</ele><time>2026-04-02T14:28:26.988Z</time></trkpt><trkpt lat="45.03442699136367" lon="9.548237846240923"><ele>70.0</ele><time>2026-04-02T14:28:27.988Z</time></trkpt><trkpt lat="45.03450284683307" lon="9.548237915721915"><ele>70.0</ele><time>2026-04-02T14:28:28.988Z</time></trkpt><trkpt lat="45.03458249873746" lon="9.548237169763011"><ele>70.0</ele><time>2026-04-02T14:28:29.988Z</time></trkpt><trkpt lat="45.03465863822714" lon="9.548240708207201"><ele>70.0</ele><time>2026-04-02T14:28:30.988Z</time></trkpt><trkpt lat="45.03473803041334" lon="9.548241062746493"><ele>70.0</ele><time>2026-04-02T14:28:31.988Z</time></trkpt><trkpt lat="45.03481639559722" lon="9.54824314457027"><ele>70.0</ele><time>2026-04-02T14:28:32.988Z</time></trkpt><trkpt lat="45.03489255073579" lon="9.548240264605052"><ele>70.0</ele><time>2026-04-02T14:28:33.988Z</time></trkpt><trkpt lat="45.034969620800204" lon="9.548241257661028"><ele>70.0</ele><time>2026-04-02T14:28:34.988Z</time></trkpt><trkpt lat="45.03504580344152" lon="9.548243129281087"><ele>70.0</ele><time>2026-04-02T14:28:35.988Z</time></trkpt><trkpt lat="45.03512381022826" lon="9.548243653515922"><ele>70.0</ele><time>2026-04-02T14:28:36.988Z</time></trkpt><trkpt lat="45.035198160425935" lon="9.548246780283558"><ele>70.0</ele><time>2026-04-02T14:28:37.988Z</time></trkpt><trkpt lat="45.035276233001134" lon="9.548244692636045"><ele>70.16666666666666</ele><time>2026-04-02T14:28:38.988Z</time></trkpt><trkpt lat="45.03535579141758" lon="9.548245848732769"><ele>70.33333333333333</ele><time>2026-04-02T14:28:39.988Z</time></trkpt><trkpt lat="45.03543242346657" lon="9.548244524734711"><ele>70.5</ele><time>2026-04-02T14:28:40.988Z</time></trkpt><trkpt lat="45.035507722791365" lon="9.548242088749275"><ele>70.66666666666667</ele><time>2026-04-02T14:28:41.988Z</time></trkpt><trkpt lat="45.035585795732764" lon="9.5482465057758"><ele>70.83333333333334</ele><time>2026-04-02T14:28:42.988Z</time></trkpt><trkpt lat="45.035662122067656" lon="9.548245188072709"><ele>71.0</ele><time>2026-04-02T14:28:43.988Z</time></trkpt><trkpt lat="45.035738081817215" lon="9.54824680386637"><ele>70.83333333333334</ele><time>2026-04-02T14:28:44.988Z</time></trkpt><trkpt lat="45.03581715940328" lon="9.54824902815747"><ele>70.66666666666667</ele><time>2026-04-02T14:28:45.988Z</time></trkpt><trkpt lat="45.035891789692606" lon="9.548248513833073"><ele>70.5</ele><time>2026-04-02T14:28:46.988Z</time></trkpt><trkpt lat="45.03596801656101" lon="9.548246907143591"><ele>70.33333333333333</ele><time>2026-04-02T14:28:47.988Z</time></trkpt><trkpt lat="45.03604459192077" lon="9.548250683880537"><ele>70.16666666666666</ele><time>2026-04-02T14:28:48.988Z</time></trkpt><trkpt lat="45.036121369941185" lon="9.548249858464105"><ele>70.0</ele><time>2026-04-02T14:28:49.988Z</time></trkpt><trkpt lat="45.036195034796194" lon="9.548248729385405"><ele>70.0</ele><time>2026-04-02T14:28:50.988Z</time></trkpt><trkpt lat="45.036273341320914" lon="9.5482495857091"><ele>70.0</ele><time>2026-04-02T14:28:51.988Z</time></trkpt><trkpt lat="45.03634483995458" lon="9.548249081191718"><ele>70.0</ele><time>2026-04-02T14:28:52.988Z</time></trkpt><trkpt lat="45.03641726340633" lon="9.548248392543265"><ele>70.0</ele><time>2026-04-02T14:28:53.988Z</time></trkpt><trkpt lat="45.03649824811485" lon="9.548250782291955"><ele>70.0</ele><time>2026-04-02T14:28:54.988Z</time></trkpt><trkpt lat="45.03656550717903" lon="9.54825160579216"><ele>70.0</ele><time>2026-04-02T14:28:55.988Z</time></trkpt><trkpt lat="45.03663537774164" lon="9.548249449990415"><ele>70.0</ele><time>2026-04-02T14:28:56.988Z</time></trkpt><trkpt lat="45.0367055345296" lon="9.548245884922942"><ele>70.0</ele><time>2026-04-02T14:28:57.988Z</time></trkpt><trkpt lat="45.03677682852861" lon="9.548242082173056"><ele>70.0</ele><time>2026-04-02T14:28:58.988Z</time></trkpt><trkpt lat="45.03685237991618" lon="9.548246039094812"><ele>70.0</ele><time>2026-04-02T14:28:59.988Z</time></trkpt><trkpt lat="45.03692963591952" lon="9.548249463001106"><ele>70.0</ele><time>2026-04-02T14:29:00.988Z</time></trkpt><trkpt lat="45.03699540734676" lon="9.548248676226832"><ele>70.0</ele><time>2026-04-02T14:29:01.988Z</time></trkpt><trkpt lat="45.03707031526824" lon="9.548251639606528"><ele>70.0</ele><time>2026-04-02T14:29:02.988Z</time></trkpt><trkpt lat="45.037143138976546" lon="9.548255121830078"><ele>70.0</ele><time>2026-04-02T14:29:03.988Z</time></trkpt><trkpt lat="45.0372146584575" lon="9.548255092672916"><ele>70.0</ele><time>2026-04-02T14:29:04.988Z</time></trkpt><trkpt lat="45.03729023655916" lon="9.548256615559263"><ele>70.0</ele><time>2026-04-02T14:29:05.988Z</time></trkpt><trkpt lat="45.03736117646407" lon="9.548258223685592"><ele>70.0</ele><time>2026-04-02T14:29:06.988Z</time></trkpt><trkpt lat="45.037434356375364" lon="9.548260088079683"><ele>70.0</ele><time>2026-04-02T14:29:07.988Z</time></trkpt><trkpt lat="45.037505530928016" lon="9.548262078237794"><ele>70.0</ele><time>2026-04-02T14:29:08.988Z</time></trkpt><trkpt lat="45.037579198557964" lon="9.54826525203548"><ele>70.0</ele><time>2026-04-02T14:29:09.988Z</time></trkpt><trkpt lat="45.037649197969714" lon="9.54826172309627"><ele>70.0</ele><time>2026-04-02T14:29:10.988Z</time></trkpt><trkpt lat="45.03772340632887" lon="9.548264565973813"><ele>70.16666666666666</ele><time>2026-04-02T14:29:11.988Z</time></trkpt><trkpt lat="45.037797018012654" lon="9.54826426410272"><ele>70.33333333333333</ele><time>2026-04-02T14:29:12.988Z</time></trkpt><trkpt lat="45.037873079490716" lon="9.548266356451741"><ele>70.5</ele><time>2026-04-02T14:29:13.987Z</time></trkpt><trkpt lat="45.03794808387522" lon="9.548264749527236"><ele>70.66666666666667</ele><time>2026-04-02T14:29:14.987Z</time></trkpt><trkpt lat="45.03802401287516" lon="9.54826588643882"><ele>70.83333333333334</ele><time>2026-04-02T14:29:15.987Z</time></trkpt><trkpt lat="45.03809832307865" lon="9.548266384423393"><ele>71.0</ele><time>2026-04-02T14:29:16.987Z</time></trkpt><trkpt lat="45.03817452259849" lon="9.548269602178298"><ele>71.0</ele><time>2026-04-02T14:29:17.987Z</time></trkpt><trkpt lat="45.03825120725857" lon="9.548267692290997"><ele>71.0</ele><time>2026-04-02T14:29:18.987Z</time></trkpt><trkpt lat="45.038323940105286" lon="9.548267495417814"><ele>71.0</ele><time>2026-04-02T14:29:19.987Z</time></trkpt><trkpt lat="45.03839650140931" lon="9.548269748355427"><ele>71.0</ele><time>2026-04-02T14:29:20.987Z</time></trkpt><trkpt lat="45.038474254257785" lon="9.548269216931468"><ele>71.0</ele><time>2026-04-02T14:29:21.987Z</time></trkpt><trkpt lat="45.0385440591648" lon="9.548271779457066"><ele>71.0</ele><time>2026-04-02T14:29:22.987Z</time></trkpt><trkpt lat="45.03861978260601" lon="9.548271013914677"><ele>71.0</ele><time>2026-04-02T14:29:23.987Z</time></trkpt><trkpt lat="45.038694956129426" lon="9.548270233425407"><ele>70.66666666666667</ele><time>2026-04-02T14:29:24.987Z</time></trkpt><trkpt lat="45.038770174544496" lon="9.548267318327786"><ele>70.33333333333334</ele><time>2026-04-02T14:29:25.987Z</time></trkpt><trkpt lat="45.03884475186463" lon="9.54826953284845"><ele>70.0</ele><time>2026-04-02T14:29:26.987Z</time></trkpt><trkpt lat="45.038921066265466" lon="9.548266879132253"><ele>69.66666666666667</ele><time>2026-04-02T14:29:27.987Z</time></trkpt><trkpt lat="45.03899665979661" lon="9.548266495901744"><ele>69.33333333333333</ele><time>2026-04-02T14:29:28.987Z</time></trkpt><trkpt lat="45.039073090282436" lon="9.548267137175749"><ele>69.0</ele><time>2026-04-02T14:29:29.987Z</time></trkpt><trkpt lat="45.03914604247514" lon="9.548261145944227"><ele>68.71428571428572</ele><time>2026-04-02T14:29:30.987Z</time></trkpt><trkpt lat="45.03922666127786" lon="9.548260356937277"><ele>68.42857142857143</ele><time>2026-04-02T14:29:31.987Z</time></trkpt><trkpt lat="45.03930435726622" lon="9.548260957631685"><ele>68.14285714285714</ele><time>2026-04-02T14:29:32.987Z</time></trkpt><trkpt lat="45.03937328483541" lon="9.548274608700922"><ele>67.85714285714286</ele><time>2026-04-02T14:29:33.987Z</time></trkpt><trkpt lat="45.039437553848984" lon="9.548308407223313"><ele>67.57142857142857</ele><time>2026-04-02T14:29:34.987Z</time></trkpt><trkpt lat="45.039497589195385" lon="9.548365506740696"><ele>67.28571428571429</ele><time>2026-04-02T14:29:35.987Z</time></trkpt><trkpt lat="45.03954680390754" lon="9.548438361572858"><ele>67.0</ele><time>2026-04-02T14:29:36.988Z</time></trkpt><trkpt lat="45.039586530007995" lon="9.548515950611975"><ele>67.0</ele><time>2026-04-02T14:29:37.988Z</time></trkpt><trkpt lat="45.039623961573405" lon="9.548596685778293"><ele>67.0</ele><time>2026-04-02T14:29:38.988Z</time></trkpt><trkpt lat="45.03966639598046" lon="9.548678114527405"><ele>67.0</ele><time>2026-04-02T14:29:39.988Z</time></trkpt><trkpt lat="45.039710195400254" lon="9.548756515393702"><ele>67.0</ele><time>2026-04-02T14:29:40.987Z</time></trkpt><trkpt lat="45.039752635631054" lon="9.548836405421595"><ele>67.0</ele><time>2026-04-02T14:29:41.987Z</time></trkpt><trkpt lat="45.03979852691855" lon="9.548912134449601"><ele>67.0</ele><time>2026-04-02T14:29:42.988Z</time></trkpt><trkpt lat="45.03983341038452" lon="9.548994632824646"><ele>67.0</ele><time>2026-04-02T14:29:43.988Z</time></trkpt><trkpt lat="45.03988232996305" lon="9.549074227749706"><ele>67.5</ele><time>2026-04-02T14:29:44.988Z</time></trkpt><trkpt lat="45.039919978004626" lon="9.549154193568945"><ele>68.0</ele><time>2026-04-02T14:29:45.988Z</time></trkpt><trkpt lat="45.039957694031365" lon="9.54923603597662"><ele>68.5</ele><time>2026-04-02T14:29:46.988Z</time></trkpt><trkpt lat="45.039992774487295" lon="9.549319254948873"><ele>69.0</ele><time>2026-04-02T14:29:47.988Z</time></trkpt><trkpt lat="45.04002692555765" lon="9.549399019197585"><ele>69.5</ele><time>2026-04-02T14:29:48.988Z</time></trkpt><trkpt lat="45.040057398092884" lon="9.549489438750879"><ele>70.0</ele><time>2026-04-02T14:29:49.988Z</time></trkpt><trkpt lat="45.04008655417245" lon="9.549661993290652"><ele>70.14285714285714</ele><time>2026-04-02T14:29:51.988Z</time></trkpt><trkpt lat="45.04010489276396" lon="9.5497532757682"><ele>70.28571428571428</ele><time>2026-04-02T14:29:52.988Z</time></trkpt><trkpt lat="45.040125505867536" lon="9.549860427805287"><ele>70.42857142857143</ele><time>2026-04-02T14:29:53.988Z</time></trkpt><trkpt lat="45.04014327766445" lon="9.549959971592319"><ele>70.57142857142857</ele><time>2026-04-02T14:29:54.988Z</time></trkpt><trkpt lat="45.0401571465361" lon="9.550053714677485"><ele>70.71428571428571</ele><time>2026-04-02T14:29:55.988Z</time></trkpt><trkpt lat="45.040174068837864" lon="9.55014432716518"><ele>70.85714285714286</ele><time>2026-04-02T14:29:56.988Z</time></trkpt><trkpt lat="45.040187466674986" lon="9.55023706160103"><ele>71.0</ele><time>2026-04-02T14:29:57.988Z</time></trkpt><trkpt lat="45.04020156978752" lon="9.5503372680211"><ele>70.8</ele><time>2026-04-02T14:29:58.988Z</time></trkpt><trkpt lat="45.04021805114998" lon="9.550429224669383"><ele>70.6</ele><time>2026-04-02T14:29:59.988Z</time></trkpt><trkpt lat="45.04022739146298" lon="9.550521698149696"><ele>70.4</ele><time>2026-04-02T14:30:00.988Z</time></trkpt><trkpt lat="45.04025411014656" lon="9.550694291332498"><ele>70.2</ele><time>2026-04-02T14:30:02.988Z</time></trkpt><trkpt lat="45.04028604006972" lon="9.550861247146896"><ele>70.0</ele><time>2026-04-02T14:30:04.988Z</time></trkpt><trkpt lat="45.04030860063857" lon="9.551019871731597"><ele>70.0</ele><time>2026-04-02T14:30:06.988Z</time></trkpt><trkpt lat="45.04033405097095" lon="9.55118467310162"><ele>70.0</ele><time>2026-04-02T14:30:08.988Z</time></trkpt><trkpt lat="45.04036728020356" lon="9.551364778631108"><ele>70.0</ele><time>2026-04-02T14:30:10.988Z</time></trkpt><trkpt lat="45.04040152512356" lon="9.5515302608022"><ele>70.0</ele><time>2026-04-02T14:30:12.988Z</time></trkpt><trkpt lat="45.04042760252387" lon="9.551700882279663"><ele>70.0</ele><time>2026-04-02T14:30:14.988Z</time></trkpt><trkpt lat="45.040460911711875" lon="9.551868730196313"><ele>70.0</ele><time>2026-04-02T14:30:16.988Z</time></trkpt><trkpt lat="45.04048740761164" lon="9.552042109677677"><ele>70.0</ele><time>2026-04-02T14:30:18.988Z</time></trkpt><trkpt lat="45.04051034159749" lon="9.552206538511392"><ele>70.0</ele><time>2026-04-02T14:30:20.988Z</time></trkpt><trkpt lat="45.040545304251914" lon="9.552430312093957"><ele>70.0</ele><time>2026-04-02T14:30:23.988Z</time></trkpt><trkpt lat="45.04055400304267" lon="9.552569082290136"><ele>70.0</ele><time>2026-04-02T14:30:25.988Z</time></trkpt><trkpt lat="45.040581487047504" lon="9.552694685200764"><ele>70.0</ele><time>2026-04-02T14:30:27.988Z</time></trkpt><trkpt lat="45.04061148503636" lon="9.552855440704736"><ele>70.0</ele><time>2026-04-02T14:30:29.988Z</time></trkpt><trkpt lat="45.04065913404466" lon="9.55300436663513"><ele>70.0</ele><time>2026-04-02T14:30:31.988Z</time></trkpt><trkpt lat="45.04068891852129" lon="9.553090811688074"><ele>70.0</ele><time>2026-04-02T14:30:32.988Z</time></trkpt><trkpt lat="45.04071304986953" lon="9.553188625448522"><ele>70.0</ele><time>2026-04-02T14:30:33.988Z</time></trkpt><trkpt lat="45.04072970077964" lon="9.55328565276918"><ele>70.0</ele><time>2026-04-02T14:30:34.987Z</time></trkpt><trkpt lat="45.040742588647596" lon="9.553385435740816"><ele>70.0</ele><time>2026-04-02T14:30:35.987Z</time></trkpt><trkpt lat="45.04077001951747" lon="9.553480539212963"><ele>70.0</ele><time>2026-04-02T14:30:36.987Z</time></trkpt><trkpt lat="45.04079359795099" lon="9.55357762909799"><ele>70.0</ele><time>2026-04-02T14:30:37.987Z</time></trkpt><trkpt lat="45.040820803899265" lon="9.553673294270908"><ele>70.0</ele><time>2026-04-02T14:30:38.987Z</time></trkpt><trkpt lat="45.040846846998264" lon="9.553764714447695"><ele>70.0</ele><time>2026-04-02T14:30:39.987Z</time></trkpt><trkpt lat="45.04086944431453" lon="9.553850542800802"><ele>70.0</ele><time>2026-04-02T14:30:40.987Z</time></trkpt><trkpt lat="45.04087865684304" lon="9.55394521553874"><ele>70.0</ele><time>2026-04-02T14:30:41.987Z</time></trkpt><trkpt lat="45.04089975368267" lon="9.554045820044708"><ele>70.0</ele><time>2026-04-02T14:30:42.986Z</time></trkpt><trkpt lat="45.040916781265025" lon="9.554136902660858"><ele>70.0</ele><time>2026-04-02T14:30:43.986Z</time></trkpt><trkpt lat="45.04092174780011" lon="9.554243246445383"><ele>70.0</ele><time>2026-04-02T14:30:44.986Z</time></trkpt><trkpt lat="45.040938144005096" lon="9.554333980408217"><ele>70.0</ele><time>2026-04-02T14:30:45.986Z</time></trkpt><trkpt lat="45.040953737711924" lon="9.55442386480726"><ele>70.0</ele><time>2026-04-02T14:30:46.986Z</time></trkpt><trkpt lat="45.04096181244734" lon="9.554522102748582"><ele>70.0</ele><time>2026-04-02T14:30:47.986Z</time></trkpt><trkpt lat="45.04097241482553" lon="9.554614308977674"><ele>70.0</ele><time>2026-04-02T14:30:48.986Z</time></trkpt><trkpt lat="45.040978191293874" lon="9.55479222201344"><ele>70.0</ele><time>2026-04-02T14:30:50.986Z</time></trkpt><trkpt lat="45.04097630333419" lon="9.554881424197408"><ele>70.0</ele><time>2026-04-02T14:30:51.986Z</time></trkpt><trkpt lat="45.040963752185476" lon="9.555052296170919"><ele>70.0</ele><time>2026-04-02T14:30:53.986Z</time></trkpt><trkpt lat="45.04096019811811" lon="9.55522124071825"><ele>69.8</ele><time>2026-04-02T14:30:55.986Z</time></trkpt><trkpt lat="45.04095449157457" lon="9.555312592415792"><ele>69.6</ele><time>2026-04-02T14:30:56.986Z</time></trkpt><trkpt lat="45.04093881706114" lon="9.555467530457165"><ele>69.4</ele><time>2026-04-02T14:30:58.986Z</time></trkpt><trkpt lat="45.040927097630046" lon="9.555626764981222"><ele>69.2</ele><time>2026-04-02T14:31:00.985Z</time></trkpt><trkpt lat="45.04091967604038" lon="9.555788623330724"><ele>69.0</ele><time>2026-04-02T14:31:02.985Z</time></trkpt><trkpt lat="45.040906579928276" lon="9.555948079425981"><ele>68.8</ele><time>2026-04-02T14:31:04.985Z</time></trkpt><trkpt lat="45.040893083314295" lon="9.556105404047644"><ele>68.60000000000001</ele><time>2026-04-02T14:31:06.985Z</time></trkpt><trkpt lat="45.04087597009271" lon="9.556261229977688"><ele>68.4</ele><time>2026-04-02T14:31:08.985Z</time></trkpt><trkpt lat="45.04086463788599" lon="9.556415655088884"><ele>68.2</ele><time>2026-04-02T14:31:10.985Z</time></trkpt><trkpt lat="45.04084291798404" lon="9.556571070197025"><ele>68.0</ele><time>2026-04-02T14:31:12.985Z</time></trkpt><trkpt lat="45.04083013873491" lon="9.556729716515587"><ele>67.5</ele><time>2026-04-02T14:31:14.985Z</time></trkpt><trkpt lat="45.04080560575259" lon="9.556891680034457"><ele>67.0</ele><time>2026-04-02T14:31:16.985Z</time></trkpt><trkpt lat="45.040782730841705" lon="9.557052855018657"><ele>66.5</ele><time>2026-04-02T14:31:18.985Z</time></trkpt><trkpt lat="45.04076141193224" lon="9.557209248437744"><ele>66.0</ele><time>2026-04-02T14:31:20.985Z</time></trkpt><trkpt lat="45.04073529182894" lon="9.55736743112295"><ele>66.0</ele><time>2026-04-02T14:31:22.985Z</time></trkpt><trkpt lat="45.04072157948117" lon="9.557519398210808"><ele>66.0</ele><time>2026-04-02T14:31:24.985Z</time></trkpt><trkpt lat="45.04070038405594" lon="9.557674543044692"><ele>66.0</ele><time>2026-04-02T14:31:26.985Z</time></trkpt><trkpt lat="45.04068116641646" lon="9.55782290374218"><ele>66.0</ele><time>2026-04-02T14:31:28.985Z</time></trkpt><trkpt lat="45.040661005162676" lon="9.557972551971877"><ele>66.0</ele><time>2026-04-02T14:31:30.985Z</time></trkpt><trkpt lat="45.04064431897977" lon="9.55811881332576"><ele>65.8</ele><time>2026-04-02T14:31:32.985Z</time></trkpt><trkpt lat="45.040625635856394" lon="9.558270483016877"><ele>65.6</ele><time>2026-04-02T14:31:34.985Z</time></trkpt><trkpt lat="45.04060504011334" lon="9.558418191321103"><ele>65.4</ele><time>2026-04-02T14:31:36.985Z</time></trkpt><trkpt lat="45.04058277248155" lon="9.558567721262035"><ele>65.2</ele><time>2026-04-02T14:31:38.985Z</time></trkpt><trkpt lat="45.040562677069445" lon="9.558712100883845"><ele>65.0</ele><time>2026-04-02T14:31:40.985Z</time></trkpt><trkpt lat="45.040541240506826" lon="9.55886033007042"><ele>65.4</ele><time>2026-04-02T14:31:42.985Z</time></trkpt><trkpt lat="45.04052327369396" lon="9.559004108153847"><ele>65.8</ele><time>2026-04-02T14:31:44.985Z</time></trkpt><trkpt lat="45.040505094249" lon="9.55914844644523"><ele>66.2</ele><time>2026-04-02T14:31:46.984Z</time></trkpt><trkpt lat="45.040495170571184" lon="9.559285399763843"><ele>66.6</ele><time>2026-04-02T14:31:48.985Z</time></trkpt><trkpt lat="45.04051096379673" lon="9.55942111604978"><ele>67.0</ele><time>2026-04-02T14:31:50.984Z</time></trkpt><trkpt lat="45.040544228010745" lon="9.559554117523128"><ele>67.0</ele><time>2026-04-02T14:31:52.984Z</time></trkpt><trkpt lat="45.04059005473755" lon="9.559688307569054"><ele>67.0</ele><time>2026-04-02T14:31:54.985Z</time></trkpt><trkpt lat="45.04062459078801" lon="9.559823646350385"><ele>67.0</ele><time>2026-04-02T14:31:56.984Z</time></trkpt><trkpt lat="45.040665627058985" lon="9.559970498074179"><ele>67.0</ele><time>2026-04-02T14:31:58.984Z</time></trkpt></trkseg></trk></gpx>